<?xml version="1.0" encoding="UTF-8" standalone="no" ?>
<gpx xmlns="http://www.topografix.com/GPX/1/1" xmlns:gpxtpx="http://www.garmin.com/xmlschemas/TrackPointExtension/v1" creator="OruxMaps" version="1.1" xmlns:xsi="http://www.w3.org/2001/XMLSchema-instance" xsi:schemaLocation="http://www.topografix.com/GPX/1/1 http://www.topografix.com/GPX/1/1/gpx.xsd">
<metadata>
<name><![CDATA[2012-08-24 15:25]]></name>
<desc><![CDATA[]]></desc>
<link href="http://www.oruxmaps.com">
<text>OruxMaps</text>
</link>
<time>2012-08-24T14:25:31Z</time><bounds maxlat="50.574649572370966" maxlon="19.56669330596867" minlat="50.36155343055579" minlon="19.295361042022144"/>
</metadata>
<trk>
<name><![CDATA[2012-08-24 15:25]]></name>
<desc><![CDATA[<h1>OruxMaps</h1><br /><hr align="center" width="480" style="height: 2px; width: 517px"/><h2>Nazwa: 2012-08-24 15:25</h2><br /><p>Czas startu: 08/24/2012 15:25</p><p>Czas końca: 08/24/2012 20:25</p><p>Odległość: 67,7 km (06:03)</p><p>Czas ruchu: 03:33</p><p>Średnia prędkość: 11,2 km/h</p><p>Śr. Prędk. Ruchu: 19 km/h</p><p>Maks. Prędkość: 44 km/h</p><p>Minimalna wysokość: 325 m</p><p>Maksymalna wysokość: 505 m</p><p>Prędkość wznoszenia: 305,8 m/h</p><p>Prędkość opadania: -478,3 m/h</p><p>Przyrost wysokości: 957 m</p><p>Utrata wysokości: -834 m</p><p>Czas wznoszenia: 03:07</p><p>Czas opadania: 01:44</p><hr align="center" width="480" style="height: 2px; width: 517px"/>]]></desc>
<type>Kolarstwo górskie</type>
<trkseg>
<trkpt lat="50.574145317076166" lon="19.306046962737476">
<ele>327.0</ele>
<time>2012-08-24T13:21:44Z</time>
</trkpt>
<trkpt lat="50.57428479194494" lon="19.306261539458667">
<ele>329.14987</ele>
<time>2012-08-24T13:22:27Z</time>
</trkpt>
<trkpt lat="50.574156045912225" lon="19.306540489196216">
<ele>329.79825</ele>
<time>2012-08-24T13:22:32Z</time>
</trkpt>
<trkpt lat="50.57398438453527" lon="19.306755065917407">
<ele>330.7148</ele>
<time>2012-08-24T13:22:37Z</time>
</trkpt>
<trkpt lat="50.57382345199438" lon="19.30690526962224">
<ele>333.54257</ele>
<time>2012-08-24T13:22:41Z</time>
</trkpt>
<trkpt lat="50.573673248289545" lon="19.307076930999195">
<ele>336.73416</ele>
<time>2012-08-24T13:22:45Z</time>
</trkpt>
<trkpt lat="50.57352304458471" lon="19.307270050048267">
<ele>338.28308</ele>
<time>2012-08-24T13:22:49Z</time>
</trkpt>
<trkpt lat="50.57337284087988" lon="19.30746316909734">
<ele>339.45676</ele>
<time>2012-08-24T13:22:53Z</time>
</trkpt>
<trkpt lat="50.57321190833898" lon="19.30765628814641">
<ele>339.14453</ele>
<time>2012-08-24T13:22:57Z</time>
</trkpt>
<trkpt lat="50.57306170463415" lon="19.307827949523364">
<ele>338.60822</ele>
<time>2012-08-24T13:23:01Z</time>
</trkpt>
<trkpt lat="50.57286858558508" lon="19.308021068572437">
<ele>338.14435</ele>
<time>2012-08-24T13:23:06Z</time>
</trkpt>
<trkpt lat="50.5727827548966" lon="19.308300018309986">
<ele>338.00342</ele>
<time>2012-08-24T13:23:19Z</time>
</trkpt>
<trkpt lat="50.5728363990769" lon="19.308643341063892">
<ele>336.9852</ele>
<time>2012-08-24T13:23:24Z</time>
</trkpt>
<trkpt lat="50.572911500929315" lon="19.30896520614568">
<ele>335.73358</ele>
<time>2012-08-24T13:23:28Z</time>
</trkpt>
<trkpt lat="50.57299733161779" lon="19.309329986571704">
<ele>334.98212</ele>
<time>2012-08-24T13:23:32Z</time>
</trkpt>
<trkpt lat="50.57308316230627" lon="19.30967330932561">
<ele>334.31076</ele>
<time>2012-08-24T13:23:36Z</time>
</trkpt>
<trkpt lat="50.573158264158685" lon="19.30995225906316">
<ele>334.1311</ele>
<time>2012-08-24T13:23:39Z</time>
</trkpt>
<trkpt lat="50.57322263717504" lon="19.310231208800708">
<ele>334.0553</ele>
<time>2012-08-24T13:23:42Z</time>
</trkpt>
<trkpt lat="50.57330846786352" lon="19.310595989226734">
<ele>334.455</ele>
<time>2012-08-24T13:23:46Z</time>
</trkpt>
<trkpt lat="50.57336211204382" lon="19.3108963966364">
<ele>334.77008</ele>
<time>2012-08-24T13:23:49Z</time>
</trkpt>
<trkpt lat="50.573426485060175" lon="19.31119680404607">
<ele>335.3405</ele>
<time>2012-08-24T13:23:52Z</time>
</trkpt>
<trkpt lat="50.57348012924047" lon="19.311497211455737">
<ele>335.72177</ele>
<time>2012-08-24T13:23:55Z</time>
</trkpt>
<trkpt lat="50.57348012924047" lon="19.311819076537525">
<ele>335.88263</ele>
<time>2012-08-24T13:23:58Z</time>
</trkpt>
<trkpt lat="50.573426485060175" lon="19.31216239929143">
<ele>335.27927</ele>
<time>2012-08-24T13:24:02Z</time>
</trkpt>
<trkpt lat="50.57335138320776" lon="19.31244134902898">
<ele>335.11783</ele>
<time>2012-08-24T13:24:05Z</time>
</trkpt>
<trkpt lat="50.57326555251928" lon="19.31272029876653">
<ele>334.4716</ele>
<time>2012-08-24T13:24:08Z</time>
</trkpt>
<trkpt lat="50.573179721830805" lon="19.312999248504077">
<ele>334.19894</ele>
<time>2012-08-24T13:24:11Z</time>
</trkpt>
<trkpt lat="50.57308316230627" lon="19.313278198241626">
<ele>333.83392</ele>
<time>2012-08-24T13:24:14Z</time>
</trkpt>
<trkpt lat="50.57299733161779" lon="19.313535690307056">
<ele>333.3518</ele>
<time>2012-08-24T13:24:17Z</time>
</trkpt>
<trkpt lat="50.572911500929315" lon="19.313814640044605">
<ele>332.57028</ele>
<time>2012-08-24T13:24:20Z</time>
</trkpt>
<trkpt lat="50.57282567024084" lon="19.314072132110034">
<ele>331.66248</ele>
<time>2012-08-24T13:24:23Z</time>
</trkpt>
<trkpt lat="50.57275056838842" lon="19.314329624175464">
<ele>331.27948</ele>
<time>2012-08-24T13:24:26Z</time>
</trkpt>
<trkpt lat="50.572675466536005" lon="19.314587116240894">
<ele>331.11792</ele>
<time>2012-08-24T13:24:29Z</time>
</trkpt>
<trkpt lat="50.57255744933935" lon="19.31490898132268">
<ele>331.0373</ele>
<time>2012-08-24T13:24:33Z</time>
</trkpt>
<trkpt lat="50.572439432142694" lon="19.31518793106023">
<ele>331.0118</ele>
<time>2012-08-24T13:24:37Z</time>
</trkpt>
<trkpt lat="50.57231068610998" lon="19.315488338469898">
<ele>330.75372</ele>
<time>2012-08-24T13:24:41Z</time>
</trkpt>
<trkpt lat="50.572192668913324" lon="19.31570291519109">
<ele>330.2385</ele>
<time>2012-08-24T13:24:45Z</time>
</trkpt>
<trkpt lat="50.57208538055273" lon="19.31596040725652">
<ele>330.00134</ele>
<time>2012-08-24T13:25:03Z</time>
</trkpt>
<trkpt lat="50.57211756706091" lon="19.316239356994068">
<ele>330.25</ele>
<time>2012-08-24T13:25:19Z</time>
</trkpt>
<trkpt lat="50.572192668913324" lon="19.316518306731616">
<ele>331.44464</ele>
<time>2012-08-24T13:25:25Z</time>
</trkpt>
<trkpt lat="50.5722784996018" lon="19.316797256469165">
<ele>332.55182</ele>
<time>2012-08-24T13:25:30Z</time>
</trkpt>
<trkpt lat="50.57237505912634" lon="19.317097663878833">
<ele>336.10458</ele>
<time>2012-08-24T13:25:35Z</time>
</trkpt>
<trkpt lat="50.572439432142694" lon="19.317376613616382">
<ele>338.9965</ele>
<time>2012-08-24T13:25:40Z</time>
</trkpt>
<trkpt lat="50.57252526283117" lon="19.31767702102605">
<ele>339.86606</ele>
<time>2012-08-24T13:25:47Z</time>
</trkpt>
<trkpt lat="50.57257890701147" lon="19.317998886107837">
<ele>339.2846</ele>
<time>2012-08-24T13:25:52Z</time>
</trkpt>
<trkpt lat="50.57263255119177" lon="19.318299293517505">
<ele>338.40646</ele>
<time>2012-08-24T13:25:56Z</time>
</trkpt>
<trkpt lat="50.572696924208124" lon="19.318599700927173">
<ele>338.1286</ele>
<time>2012-08-24T13:26:00Z</time>
</trkpt>
<trkpt lat="50.5727827548966" lon="19.318878650664722">
<ele>338.04068</ele>
<time>2012-08-24T13:26:04Z</time>
</trkpt>
<trkpt lat="50.572911500929315" lon="19.31917905807439">
<ele>338.01288</ele>
<time>2012-08-24T13:26:08Z</time>
</trkpt>
<trkpt lat="50.57301878928991" lon="19.3194150924677">
<ele>338.44293</ele>
<time>2012-08-24T13:26:11Z</time>
</trkpt>
<trkpt lat="50.573136806486566" lon="19.319736957549487">
<ele>338.82373</ele>
<time>2012-08-24T13:26:15Z</time>
</trkpt>
<trkpt lat="50.573136806486566" lon="19.320037364959155">
<ele>338.67563</ele>
<time>2012-08-24T13:26:18Z</time>
</trkpt>
<trkpt lat="50.57312607765051" lon="19.320337772368823">
<ele>338.28503</ele>
<time>2012-08-24T13:26:21Z</time>
</trkpt>
<trkpt lat="50.573158264158685" lon="19.320724010466968">
<ele>337.4066</ele>
<time>2012-08-24T13:26:25Z</time>
</trkpt>
<trkpt lat="50.57324409484716" lon="19.321002960204517">
<ele>337.17154</ele>
<time>2012-08-24T13:26:28Z</time>
</trkpt>
<trkpt lat="50.57336211204382" lon="19.321238994597827">
<ele>336.82236</ele>
<time>2012-08-24T13:26:31Z</time>
</trkpt>
<trkpt lat="50.573394298551996" lon="19.321517944335376">
<ele>336.2602</ele>
<time>2012-08-24T13:26:35Z</time>
</trkpt>
<trkpt lat="50.573405027388056" lon="19.321839809417163">
<ele>335.27203</ele>
<time>2012-08-24T13:26:42Z</time>
</trkpt>
<trkpt lat="50.573447942732294" lon="19.32214021682683">
<ele>335.04843</ele>
<time>2012-08-24T13:26:48Z</time>
</trkpt>
<trkpt lat="50.57348012924047" lon="19.32241916656438">
<ele>335.01532</ele>
<time>2012-08-24T13:26:52Z</time>
</trkpt>
<trkpt lat="50.57351231574865" lon="19.322741031646167">
<ele>335.25485</ele>
<time>2012-08-24T13:26:56Z</time>
</trkpt>
<trkpt lat="50.57354450225683" lon="19.323084354400073">
<ele>336.01422</ele>
<time>2012-08-24T13:27:00Z</time>
</trkpt>
<trkpt lat="50.57356595992895" lon="19.32338476180974">
<ele>336.58414</ele>
<time>2012-08-24T13:27:03Z</time>
</trkpt>
<trkpt lat="50.57359814643713" lon="19.323728084563648">
<ele>336.8684</ele>
<time>2012-08-24T13:27:07Z</time>
</trkpt>
<trkpt lat="50.573641061781366" lon="19.324028491973316">
<ele>336.9445</ele>
<time>2012-08-24T13:27:10Z</time>
</trkpt>
<trkpt lat="50.573683977125604" lon="19.324307441710864">
<ele>336.7266</ele>
<time>2012-08-24T13:27:13Z</time>
</trkpt>
<trkpt lat="50.57371616363378" lon="19.32469367980901">
<ele>336.2299</ele>
<time>2012-08-24T13:27:17Z</time>
</trkpt>
<trkpt lat="50.5737912654862" lon="19.32495117187444">
<ele>335.51886</ele>
<time>2012-08-24T13:27:20Z</time>
</trkpt>
<trkpt lat="50.573920011518915" lon="19.325251579284107">
<ele>334.91418</ele>
<time>2012-08-24T13:27:24Z</time>
</trkpt>
<trkpt lat="50.57407021522375" lon="19.325530529021655">
<ele>333.85175</ele>
<time>2012-08-24T13:27:28Z</time>
</trkpt>
<trkpt lat="50.57422041892858" lon="19.325830936431323">
<ele>332.69138</ele>
<time>2012-08-24T13:27:32Z</time>
</trkpt>
<trkpt lat="50.57437062263342" lon="19.326109886168872">
<ele>332.79688</ele>
<time>2012-08-24T13:27:36Z</time>
</trkpt>
<trkpt lat="50.57453155517431" lon="19.326367378234302">
<ele>333.37323</ele>
<time>2012-08-24T13:27:40Z</time>
</trkpt>
<trkpt lat="50.574649572370966" lon="19.32666778564397">
<ele>333.8017</ele>
<time>2012-08-24T13:27:44Z</time>
</trkpt>
<trkpt lat="50.57455301284643" lon="19.32694673538152">
<ele>334.53107</ele>
<time>2012-08-24T13:27:49Z</time>
</trkpt>
<trkpt lat="50.574445724485834" lon="19.32718276977483">
<ele>334.91653</ele>
<time>2012-08-24T13:27:55Z</time>
</trkpt>
<trkpt lat="50.57461738586279" lon="19.327290058135425">
<ele>340.99924</ele>
<time>2012-08-24T13:34:31Z</time>
</trkpt>
<trkpt lat="50.574434995649774" lon="19.32739734649602">
<ele>347.0</ele>
<time>2012-08-24T13:44:10Z</time>
</trkpt>
<trkpt lat="50.57431697845312" lon="19.327611923217212">
<ele>347.0</ele>
<time>2012-08-24T13:44:14Z</time>
</trkpt>
<trkpt lat="50.574156045912225" lon="19.327847957610523">
<ele>344.80078</ele>
<time>2012-08-24T13:44:18Z</time>
</trkpt>
<trkpt lat="50.57402729987951" lon="19.328083992003833">
<ele>340.93695</ele>
<time>2012-08-24T13:44:22Z</time>
</trkpt>
<trkpt lat="50.573909282682855" lon="19.328320026397144">
<ele>337.41754</ele>
<time>2012-08-24T13:44:26Z</time>
</trkpt>
<trkpt lat="50.57380199432226" lon="19.328577518462573">
<ele>335.76492</ele>
<time>2012-08-24T13:44:30Z</time>
</trkpt>
<trkpt lat="50.57370543479772" lon="19.328856468200122">
<ele>335.24203</ele>
<time>2012-08-24T13:44:34Z</time>
</trkpt>
<trkpt lat="50.57363033294531" lon="19.329113960265552">
<ele>334.6646</ele>
<time>2012-08-24T13:44:37Z</time>
</trkpt>
<trkpt lat="50.57352304458471" lon="19.32943582534734">
<ele>334.2103</ele>
<time>2012-08-24T13:44:41Z</time>
</trkpt>
<trkpt lat="50.573437213896234" lon="19.32969331741277">
<ele>334.0887</ele>
<time>2012-08-24T13:44:44Z</time>
</trkpt>
<trkpt lat="50.5733406543717" lon="19.330015182494556">
<ele>334.27808</ele>
<time>2012-08-24T13:44:48Z</time>
</trkpt>
<trkpt lat="50.57325482368322" lon="19.330294132232105">
<ele>334.69543</ele>
<time>2012-08-24T13:44:51Z</time>
</trkpt>
<trkpt lat="50.573179721830805" lon="19.330551624297534">
<ele>334.87152</ele>
<time>2012-08-24T13:44:54Z</time>
</trkpt>
<trkpt lat="50.57310461997839" lon="19.330830574035083">
<ele>334.9458</ele>
<time>2012-08-24T13:44:57Z</time>
</trkpt>
<trkpt lat="50.57302951812597" lon="19.331088066100513">
<ele>334.39902</ele>
<time>2012-08-24T13:45:00Z</time>
</trkpt>
<trkpt lat="50.572932958601434" lon="19.33145284652654">
<ele>333.68875</ele>
<time>2012-08-24T13:45:04Z</time>
</trkpt>
<trkpt lat="50.57285785674902" lon="19.331710338591968">
<ele>333.29056</ele>
<time>2012-08-24T13:45:07Z</time>
</trkpt>
<trkpt lat="50.5727827548966" lon="19.331989288329517">
<ele>333.1226</ele>
<time>2012-08-24T13:45:10Z</time>
</trkpt>
<trkpt lat="50.57270765304418" lon="19.332268238067066">
<ele>333.30173</ele>
<time>2012-08-24T13:45:13Z</time>
</trkpt>
<trkpt lat="50.57263255119177" lon="19.332547187804614">
<ele>333.7054</ele>
<time>2012-08-24T13:45:16Z</time>
</trkpt>
<trkpt lat="50.57254672050329" lon="19.332826137542163">
<ele>333.87573</ele>
<time>2012-08-24T13:45:19Z</time>
</trkpt>
<trkpt lat="50.57247161865087" lon="19.333105087279712">
<ele>333.94757</ele>
<time>2012-08-24T13:45:22Z</time>
</trkpt>
<trkpt lat="50.572396516798456" lon="19.333362579345142">
<ele>333.97787</ele>
<time>2012-08-24T13:45:25Z</time>
</trkpt>
<trkpt lat="50.57232141494604" lon="19.33364152908269">
<ele>334.24066</ele>
<time>2012-08-24T13:45:28Z</time>
</trkpt>
<trkpt lat="50.57224631309362" lon="19.33392047882024">
<ele>334.67966</ele>
<time>2012-08-24T13:45:31Z</time>
</trkpt>
<trkpt lat="50.57211756706091" lon="19.334242343902027">
<ele>334.89865</ele>
<time>2012-08-24T13:45:35Z</time>
</trkpt>
<trkpt lat="50.57201027870031" lon="19.334478378295337">
<ele>334.95724</ele>
<time>2012-08-24T13:45:38Z</time>
</trkpt>
<trkpt lat="50.571892261503656" lon="19.334778785705005">
<ele>334.98648</ele>
<time>2012-08-24T13:45:42Z</time>
</trkpt>
<trkpt lat="50.57170987129064" lon="19.334971904754077">
<ele>334.4176</ele>
<time>2012-08-24T13:45:46Z</time>
</trkpt>
<trkpt lat="50.57152748107763" lon="19.335100650786792">
<ele>333.88214</ele>
<time>2012-08-24T13:45:50Z</time>
</trkpt>
<trkpt lat="50.57130217552038" lon="19.335057735442554">
<ele>333.20932</ele>
<time>2012-08-24T13:45:55Z</time>
</trkpt>
<trkpt lat="50.57109832763525" lon="19.334993362426196">
<ele>332.4881</ele>
<time>2012-08-24T13:45:59Z</time>
</trkpt>
<trkpt lat="50.570873022078" lon="19.33492898940984">
<ele>331.57632</ele>
<time>2012-08-24T13:46:03Z</time>
</trkpt>
<trkpt lat="50.570647716520746" lon="19.3348860740656">
<ele>331.18234</ele>
<time>2012-08-24T13:46:07Z</time>
</trkpt>
<trkpt lat="50.570411682127435" lon="19.334821701049243">
<ele>331.0577</ele>
<time>2012-08-24T13:46:11Z</time>
</trkpt>
<trkpt lat="50.570186376570184" lon="19.334778785705005">
<ele>331.01825</ele>
<time>2012-08-24T13:46:15Z</time>
</trkpt>
<trkpt lat="50.57000398635717" lon="19.334735870360767">
<ele>331.0077</ele>
<time>2012-08-24T13:46:18Z</time>
</trkpt>
<trkpt lat="50.56977868079992" lon="19.33467149734441">
<ele>331.00244</ele>
<time>2012-08-24T13:46:22Z</time>
</trkpt>
<trkpt lat="50.56959629058691" lon="19.334607124328052">
<ele>331.00104</ele>
<time>2012-08-24T13:46:25Z</time>
</trkpt>
<trkpt lat="50.569413900373895" lon="19.334564208983814">
<ele>331.00043</ele>
<time>2012-08-24T13:46:28Z</time>
</trkpt>
<trkpt lat="50.56923151016088" lon="19.334499835967456">
<ele>331.00018</ele>
<time>2012-08-24T13:46:31Z</time>
</trkpt>
<trkpt lat="50.56903839111181" lon="19.334456920623218">
<ele>331.0001</ele>
<time>2012-08-24T13:46:34Z</time>
</trkpt>
<trkpt lat="50.56884527206274" lon="19.33439254760686">
<ele>331.57816</ele>
<time>2012-08-24T13:46:37Z</time>
</trkpt>
<trkpt lat="50.568652153013666" lon="19.334328174590503">
<ele>331.82202</ele>
<time>2012-08-24T13:46:40Z</time>
</trkpt>
<trkpt lat="50.56846976280065" lon="19.334242343902027">
<ele>331.92493</ele>
<time>2012-08-24T13:46:43Z</time>
</trkpt>
<trkpt lat="50.5682981014237" lon="19.33415651321355">
<ele>331.96832</ele>
<time>2012-08-24T13:46:46Z</time>
</trkpt>
<trkpt lat="50.56806206703039" lon="19.334049224852954">
<ele>330.8689</ele>
<time>2012-08-24T13:46:50Z</time>
</trkpt>
<trkpt lat="50.56787967681738" lon="19.333984851836597">
<ele>329.78842</ele>
<time>2012-08-24T13:46:53Z</time>
</trkpt>
<trkpt lat="50.567708015440424" lon="19.33389902114812">
<ele>328.7545</ele>
<time>2012-08-24T13:46:56Z</time>
</trkpt>
<trkpt lat="50.56752562522741" lon="19.333813190459644">
<ele>328.0683</ele>
<time>2012-08-24T13:46:59Z</time>
</trkpt>
<trkpt lat="50.5673432350144" lon="19.333727359771167">
<ele>327.45068</ele>
<time>2012-08-24T13:47:02Z</time>
</trkpt>
<trkpt lat="50.56710720062109" lon="19.33364152908269">
<ele>326.56448</ele>
<time>2012-08-24T13:47:06Z</time>
</trkpt>
<trkpt lat="50.566935539244135" lon="19.333555698394214">
<ele>326.23813</ele>
<time>2012-08-24T13:47:09Z</time>
</trkpt>
<trkpt lat="50.56675314903112" lon="19.33344841003362">
<ele>326.10046</ele>
<time>2012-08-24T13:47:12Z</time>
</trkpt>
<trkpt lat="50.56657075881811" lon="19.333362579345142">
<ele>326.2924</ele>
<time>2012-08-24T13:47:15Z</time>
</trkpt>
<trkpt lat="50.566399097441156" lon="19.333276748656665">
<ele>326.70148</ele>
<time>2012-08-24T13:47:18Z</time>
</trkpt>
<trkpt lat="50.56621670722814" lon="19.33319091796819">
<ele>326.87405</ele>
<time>2012-08-24T13:47:21Z</time>
</trkpt>
<trkpt lat="50.56604504585119" lon="19.333105087279712">
<ele>326.94687</ele>
<time>2012-08-24T13:47:24Z</time>
</trkpt>
<trkpt lat="50.56586265563818" lon="19.333019256591236">
<ele>326.9776</ele>
<time>2012-08-24T13:47:27Z</time>
</trkpt>
<trkpt lat="50.565690994261224" lon="19.33293342590276">
<ele>326.99054</ele>
<time>2012-08-24T13:47:30Z</time>
</trkpt>
<trkpt lat="50.56550860404821" lon="19.332847595214282">
<ele>326.996</ele>
<time>2012-08-24T13:47:33Z</time>
</trkpt>
<trkpt lat="50.56533694267126" lon="19.332761764525806">
<ele>326.99832</ele>
<time>2012-08-24T13:47:36Z</time>
</trkpt>
<trkpt lat="50.565154552458246" lon="19.33267593383733">
<ele>326.5618</ele>
<time>2012-08-24T13:47:39Z</time>
</trkpt>
<trkpt lat="50.56497216224523" lon="19.332590103148853">
<ele>325.987</ele>
<time>2012-08-24T13:47:42Z</time>
</trkpt>
<trkpt lat="50.56478977203222" lon="19.332482814788257">
<ele>325.41638</ele>
<time>2012-08-24T13:47:45Z</time>
</trkpt>
<trkpt lat="50.56460738181921" lon="19.33237552642766">
<ele>325.17566</ele>
<time>2012-08-24T13:47:48Z</time>
</trkpt>
<trkpt lat="50.564424991606195" lon="19.332289695739185">
<ele>325.0741</ele>
<time>2012-08-24T13:47:51Z</time>
</trkpt>
<trkpt lat="50.56424260139318" lon="19.33218240737859">
<ele>325.60938</ele>
<time>2012-08-24T13:47:54Z</time>
</trkpt>
<trkpt lat="50.56407094001623" lon="19.332096576690112">
<ele>325.8352</ele>
<time>2012-08-24T13:47:57Z</time>
</trkpt>
<trkpt lat="50.56384563445898" lon="19.331989288329517">
<ele>325.94785</ele>
<time>2012-08-24T13:48:01Z</time>
</trkpt>
<trkpt lat="50.563673973082025" lon="19.33190345764104">
<ele>325.978</ele>
<time>2012-08-24T13:48:04Z</time>
</trkpt>
<trkpt lat="50.563448667524774" lon="19.331817626952564">
<ele>326.92664</ele>
<time>2012-08-24T13:48:08Z</time>
</trkpt>
<trkpt lat="50.56327700614782" lon="19.331731796264087">
<ele>327.54718</ele>
<time>2012-08-24T13:48:11Z</time>
</trkpt>
<trkpt lat="50.56310534477087" lon="19.33164596557561">
<ele>327.80896</ele>
<time>2012-08-24T13:48:14Z</time>
</trkpt>
<trkpt lat="50.562933683393915" lon="19.331560134887134">
<ele>328.49753</ele>
<time>2012-08-24T13:48:17Z</time>
</trkpt>
<trkpt lat="50.56271910667272" lon="19.33145284652654">
<ele>328.841</ele>
<time>2012-08-24T13:48:21Z</time>
</trkpt>
<trkpt lat="50.56250452995153" lon="19.33136701583806">
<ele>329.52783</ele>
<time>2012-08-24T13:48:25Z</time>
</trkpt>
<trkpt lat="50.56232213973852" lon="19.33136701583806">
<ele>330.0508</ele>
<time>2012-08-24T13:48:28Z</time>
</trkpt>
<trkpt lat="50.56213974952551" lon="19.3314099311823">
<ele>330.84955</ele>
<time>2012-08-24T13:48:31Z</time>
</trkpt>
<trkpt lat="50.561914443968256" lon="19.331474304198657">
<ele>332.0735</ele>
<time>2012-08-24T13:48:35Z</time>
</trkpt>
<trkpt lat="50.561699867247064" lon="19.331538677215015">
<ele>332.70685</ele>
<time>2012-08-24T13:48:39Z</time>
</trkpt>
<trkpt lat="50.56150674819799" lon="19.331603050231372">
<ele>332.90726</ele>
<time>2012-08-24T13:48:43Z</time>
</trkpt>
<trkpt lat="50.5612921714768" lon="19.33166742324773">
<ele>333.4155</ele>
<time>2012-08-24T13:48:48Z</time>
</trkpt>
<trkpt lat="50.561163425444086" lon="19.3314099311823">
<ele>334.1113</ele>
<time>2012-08-24T13:48:53Z</time>
</trkpt>
<trkpt lat="50.56113123893591" lon="19.33113098144475">
<ele>335.0626</ele>
<time>2012-08-24T13:48:56Z</time>
</trkpt>
<trkpt lat="50.56107759475561" lon="19.330809116362964">
<ele>335.7034</ele>
<time>2012-08-24T13:49:00Z</time>
</trkpt>
<trkpt lat="50.56101322173925" lon="19.330487251281177">
<ele>335.07803</ele>
<time>2012-08-24T13:49:04Z</time>
</trkpt>
<trkpt lat="50.560959577558954" lon="19.33016538619939">
<ele>334.3411</ele>
<time>2012-08-24T13:49:08Z</time>
</trkpt>
<trkpt lat="50.560927391050775" lon="19.32988643646184">
<ele>334.1439</ele>
<time>2012-08-24T13:49:11Z</time>
</trkpt>
<trkpt lat="50.56088447570654" lon="19.329607486724292">
<ele>333.6232</ele>
<time>2012-08-24T13:49:14Z</time>
</trkpt>
<trkpt lat="50.5608415603623" lon="19.329328536986743">
<ele>333.2629</ele>
<time>2012-08-24T13:49:17Z</time>
</trkpt>
<trkpt lat="50.56079864501806" lon="19.329028129577075">
<ele>332.67343</ele>
<time>2012-08-24T13:49:20Z</time>
</trkpt>
<trkpt lat="50.56075572967382" lon="19.328749179839527">
<ele>332.21307</ele>
<time>2012-08-24T13:49:24Z</time>
</trkpt>
<trkpt lat="50.56076645850988" lon="19.32842731475774">
<ele>332.00507</ele>
<time>2012-08-24T13:49:37Z</time>
</trkpt>
<trkpt lat="50.56098103523107" lon="19.328362941741382">
<ele>332.00092</ele>
<time>2012-08-24T13:49:43Z</time>
</trkpt>
<trkpt lat="50.561184883116205" lon="19.328341484069263">
<ele>332.00027</ele>
<time>2012-08-24T13:49:47Z</time>
</trkpt>
<trkpt lat="50.561410188673456" lon="19.328320026397144">
<ele>331.3165</ele>
<time>2012-08-24T13:49:51Z</time>
</trkpt>
<trkpt lat="50.56164622306677" lon="19.328277111052905">
<ele>331.10013</ele>
<time>2012-08-24T13:49:55Z</time>
</trkpt>
<trkpt lat="50.56183934211584" lon="19.328255653380786">
<ele>331.04224</ele>
<time>2012-08-24T13:49:58Z</time>
</trkpt>
<trkpt lat="50.56203246116491" lon="19.328234195708667">
<ele>331.01782</ele>
<time>2012-08-24T13:50:01Z</time>
</trkpt>
<trkpt lat="50.56222558021398" lon="19.32819128036443">
<ele>331.58563</ele>
<time>2012-08-24T13:50:04Z</time>
</trkpt>
<trkpt lat="50.562418699263056" lon="19.32812690734807">
<ele>331.8252</ele>
<time>2012-08-24T13:50:07Z</time>
</trkpt>
<trkpt lat="50.56260108947607" lon="19.328019618987476">
<ele>332.50436</ele>
<time>2012-08-24T13:50:10Z</time>
</trkpt>
<trkpt lat="50.56278347968908" lon="19.32789087295476">
<ele>333.36905</ele>
<time>2012-08-24T13:50:13Z</time>
</trkpt>
<trkpt lat="50.562955141066034" lon="19.327740669249927">
<ele>334.17133</ele>
<time>2012-08-24T13:50:16Z</time>
</trkpt>
<trkpt lat="50.56311607360693" lon="19.327590465545093">
<ele>334.6504</ele>
<time>2012-08-24T13:50:19Z</time>
</trkpt>
<trkpt lat="50.56328773498388" lon="19.32739734649602">
<ele>335.13937</ele>
<time>2012-08-24T13:50:23Z</time>
</trkpt>
<trkpt lat="50.563148260115106" lon="19.32716131210271">
<ele>335.88513</ele>
<time>2012-08-24T13:50:30Z</time>
</trkpt>
<trkpt lat="50.56297659873815" lon="19.326989650725757">
<ele>335.72275</ele>
<time>2012-08-24T13:50:35Z</time>
</trkpt>
<trkpt lat="50.56281566619726" lon="19.326817989348804">
<ele>334.97867</ele>
<time>2012-08-24T13:50:39Z</time>
</trkpt>
<trkpt lat="50.562654733656366" lon="19.32664632797185">
<ele>333.73154</ele>
<time>2012-08-24T13:50:43Z</time>
</trkpt>
<trkpt lat="50.56250452995153" lon="19.326474666594898">
<ele>332.98148</ele>
<time>2012-08-24T13:50:47Z</time>
</trkpt>
<trkpt lat="50.56234359741064" lon="19.326303005217945">
<ele>331.73242</ele>
<time>2012-08-24T13:50:51Z</time>
</trkpt>
<trkpt lat="50.562193393705805" lon="19.326109886168872">
<ele>330.29816</ele>
<time>2012-08-24T13:50:55Z</time>
</trkpt>
<trkpt lat="50.56203246116491" lon="19.32593822479192">
<ele>329.66074</ele>
<time>2012-08-24T13:50:59Z</time>
</trkpt>
<trkpt lat="50.56187152862402" lon="19.325723648070728">
<ele>330.33017</ele>
<time>2012-08-24T13:51:03Z</time>
</trkpt>
<trkpt lat="50.561710596083124" lon="19.325551986693775">
<ele>331.90915</ele>
<time>2012-08-24T13:51:07Z</time>
</trkpt>
<trkpt lat="50.56152820587011" lon="19.32538032531682">
<ele>333.33844</ele>
<time>2012-08-24T13:51:11Z</time>
</trkpt>
<trkpt lat="50.5613458156571" lon="19.32520866393987">
<ele>333.79068</ele>
<time>2012-08-24T13:51:15Z</time>
</trkpt>
<trkpt lat="50.561163425444086" lon="19.325015544890796">
<ele>334.5119</ele>
<time>2012-08-24T13:51:19Z</time>
</trkpt>
<trkpt lat="50.56098103523107" lon="19.324800968169605">
<ele>335.52914</ele>
<time>2012-08-24T13:51:23Z</time>
</trkpt>
<trkpt lat="50.56077718734594" lon="19.324586391448413">
<ele>335.2729</ele>
<time>2012-08-24T13:51:27Z</time>
</trkpt>
<trkpt lat="50.56059479713293" lon="19.324371814727222">
<ele>335.08633</ele>
<time>2012-08-24T13:51:31Z</time>
</trkpt>
<trkpt lat="50.560401678083856" lon="19.32417869567815">
<ele>334.34372</ele>
<time>2012-08-24T13:51:35Z</time>
</trkpt>
<trkpt lat="50.560208559034784" lon="19.323985576629077">
<ele>333.42517</ele>
<time>2012-08-24T13:51:39Z</time>
</trkpt>
<trkpt lat="50.56001543998571" lon="19.323770999907886">
<ele>333.13452</ele>
<time>2012-08-24T13:51:43Z</time>
</trkpt>
<trkpt lat="50.5598330497727" lon="19.323577880858814">
<ele>333.04257</ele>
<time>2012-08-24T13:51:47Z</time>
</trkpt>
<trkpt lat="50.559650659559686" lon="19.32338476180974">
<ele>333.26346</ele>
<time>2012-08-24T13:51:51Z</time>
</trkpt>
<trkpt lat="50.559457540510614" lon="19.32317018508855">
<ele>333.76697</ele>
<time>2012-08-24T13:51:55Z</time>
</trkpt>
<trkpt lat="50.5592751502976" lon="19.322977066039478">
<ele>334.5044</ele>
<time>2012-08-24T13:51:59Z</time>
</trkpt>
<trkpt lat="50.55908203124853" lon="19.322783946990405">
<ele>334.8432</ele>
<time>2012-08-24T13:52:03Z</time>
</trkpt>
<trkpt lat="50.55889964103552" lon="19.322590827941333">
<ele>335.20038</ele>
<time>2012-08-24T13:52:07Z</time>
</trkpt>
<trkpt lat="50.558717250822504" lon="19.32239770889226">
<ele>335.747</ele>
<time>2012-08-24T13:52:11Z</time>
</trkpt>
<trkpt lat="50.55855631828161" lon="19.322226047515308">
<ele>336.35745</ele>
<time>2012-08-24T13:52:15Z</time>
</trkpt>
<trkpt lat="50.55836319923254" lon="19.322032928466236">
<ele>337.09753</ele>
<time>2012-08-24T13:52:20Z</time>
</trkpt>
<trkpt lat="50.558180809019525" lon="19.321839809417163">
<ele>337.78583</ele>
<time>2012-08-24T13:52:25Z</time>
</trkpt>
<trkpt lat="50.55801987647863" lon="19.32166814804021">
<ele>337.49475</ele>
<time>2012-08-24T13:52:29Z</time>
</trkpt>
<trkpt lat="50.55785894393774" lon="19.321496486663257">
<ele>337.15652</ele>
<time>2012-08-24T13:52:33Z</time>
</trkpt>
<trkpt lat="50.557708740232904" lon="19.321324825286304">
<ele>337.04953</ele>
<time>2012-08-24T13:52:37Z</time>
</trkpt>
<trkpt lat="50.55751562118383" lon="19.32113170623723">
<ele>336.43362</ele>
<time>2012-08-24T13:52:42Z</time>
</trkpt>
<trkpt lat="50.55734395980688" lon="19.32093858718816">
<ele>335.55908</ele>
<time>2012-08-24T13:52:46Z</time>
</trkpt>
<trkpt lat="50.55715084075781" lon="19.320745468139087">
<ele>335.1769</ele>
<time>2012-08-24T13:52:50Z</time>
</trkpt>
<trkpt lat="50.556957721708734" lon="19.32065963745061">
<ele>335.05597</ele>
<time>2012-08-24T13:52:54Z</time>
</trkpt>
<trkpt lat="50.55677533149572" lon="19.320552349090015">
<ele>335.0177</ele>
<time>2012-08-24T13:52:58Z</time>
</trkpt>
<trkpt lat="50.55658221244665" lon="19.32044506072942">
<ele>335.2556</ele>
<time>2012-08-24T13:53:02Z</time>
</trkpt>
<trkpt lat="50.55637836456152" lon="19.320316314696704">
<ele>336.88556</ele>
<time>2012-08-24T13:53:06Z</time>
</trkpt>
<trkpt lat="50.556185245512445" lon="19.320230484008228">
<ele>338.22552</ele>
<time>2012-08-24T13:53:10Z</time>
</trkpt>
<trkpt lat="50.55599212646337" lon="19.320123195647632">
<ele>338.75494</ele>
<time>2012-08-24T13:53:14Z</time>
</trkpt>
<trkpt lat="50.55580973625036" lon="19.320037364959155">
<ele>338.92245</ele>
<time>2012-08-24T13:53:18Z</time>
</trkpt>
<trkpt lat="50.55562734603735" lon="19.31995153427068">
<ele>338.39734</ele>
<time>2012-08-24T13:53:22Z</time>
</trkpt>
<trkpt lat="50.555444955824335" lon="19.319844245910083">
<ele>337.68823</ele>
<time>2012-08-24T13:53:26Z</time>
</trkpt>
<trkpt lat="50.55526256561132" lon="19.319736957549487">
<ele>337.46774</ele>
<time>2012-08-24T13:53:30Z</time>
</trkpt>
<trkpt lat="50.55506944656225" lon="19.319629669188892">
<ele>338.2691</ele>
<time>2012-08-24T13:53:34Z</time>
</trkpt>
<trkpt lat="50.55486559867712" lon="19.319522380828296">
<ele>339.70233</ele>
<time>2012-08-24T13:53:38Z</time>
</trkpt>
<trkpt lat="50.554693937300165" lon="19.31943655013982">
<ele>341.14005</ele>
<time>2012-08-24T13:53:41Z</time>
</trkpt>
<trkpt lat="50.55451154708715" lon="19.319350719451343">
<ele>342.46533</ele>
<time>2012-08-24T13:53:44Z</time>
</trkpt>
<trkpt lat="50.55432915687414" lon="19.319243431090747">
<ele>343.79007</ele>
<time>2012-08-24T13:53:47Z</time>
</trkpt>
<trkpt lat="50.55411458015295" lon="19.31913614273015">
<ele>345.44528</ele>
<time>2012-08-24T13:53:51Z</time>
</trkpt>
<trkpt lat="50.55390000343176" lon="19.319028854369556">
<ele>346.9456</ele>
<time>2012-08-24T13:53:55Z</time>
</trkpt>
<trkpt lat="50.553696155546625" lon="19.31892156600896">
<ele>347.66638</ele>
<time>2012-08-24T13:53:59Z</time>
</trkpt>
<trkpt lat="50.55349230766149" lon="19.318814277648364">
<ele>347.89444</ele>
<time>2012-08-24T13:54:03Z</time>
</trkpt>
<trkpt lat="50.55329918861242" lon="19.318728446959888">
<ele>347.9666</ele>
<time>2012-08-24T13:54:07Z</time>
</trkpt>
<trkpt lat="50.55311679839941" lon="19.318621158599292">
<ele>347.98944</ele>
<time>2012-08-24T13:54:11Z</time>
</trkpt>
<trkpt lat="50.552923679350336" lon="19.318513870238696">
<ele>347.99664</ele>
<time>2012-08-24T13:54:15Z</time>
</trkpt>
<trkpt lat="50.55274128913732" lon="19.31842803955022">
<ele>347.74893</ele>
<time>2012-08-24T13:54:19Z</time>
</trkpt>
<trkpt lat="50.55254817008825" lon="19.318320751189624">
<ele>347.23697</ele>
<time>2012-08-24T13:54:23Z</time>
</trkpt>
<trkpt lat="50.55235505103918" lon="19.31819200515691">
<ele>346.3914</ele>
<time>2012-08-24T13:54:27Z</time>
</trkpt>
<trkpt lat="50.552172660826166" lon="19.318084716796314">
<ele>346.12384</ele>
<time>2012-08-24T13:54:31Z</time>
</trkpt>
<trkpt lat="50.55199027061315" lon="19.317977428435718">
<ele>346.03918</ele>
<time>2012-08-24T13:54:35Z</time>
</trkpt>
<trkpt lat="50.55178642272802" lon="19.317870140075122">
<ele>346.2593</ele>
<time>2012-08-24T13:54:40Z</time>
</trkpt>
<trkpt lat="50.55161476135107" lon="19.317762851714527">
<ele>347.40234</ele>
<time>2012-08-24T13:54:45Z</time>
</trkpt>
<trkpt lat="50.551432371138056" lon="19.31765556335393">
<ele>348.2957</ele>
<time>2012-08-24T13:54:50Z</time>
</trkpt>
<trkpt lat="50.55123925208898" lon="19.317548274993335">
<ele>348.83286</ele>
<time>2012-08-24T13:54:55Z</time>
</trkpt>
<trkpt lat="50.55104613303991" lon="19.31746244430486">
<ele>349.21033</ele>
<time>2012-08-24T13:55:00Z</time>
</trkpt>
<trkpt lat="50.55083155631872" lon="19.317376613616382">
<ele>349.81262</ele>
<time>2012-08-24T13:55:05Z</time>
</trkpt>
<trkpt lat="50.55063843726965" lon="19.317269325255786">
<ele>349.95554</ele>
<time>2012-08-24T13:55:10Z</time>
</trkpt>
<trkpt lat="50.550445318220575" lon="19.31716203689519">
<ele>349.98944</ele>
<time>2012-08-24T13:55:15Z</time>
</trkpt>
<trkpt lat="50.5502521991715" lon="19.317076206206714">
<ele>350.435</ele>
<time>2012-08-24T13:55:20Z</time>
</trkpt>
<trkpt lat="50.55005908012243" lon="19.31696891784612">
<ele>350.86594</ele>
<time>2012-08-24T13:55:25Z</time>
</trkpt>
<trkpt lat="50.54986596107336" lon="19.316861629485523">
<ele>351.73087</ele>
<time>2012-08-24T13:55:30Z</time>
</trkpt>
<trkpt lat="50.549683570860346" lon="19.316754341124927">
<ele>352.61972</ele>
<time>2012-08-24T13:55:35Z</time>
</trkpt>
<trkpt lat="50.54950118064733" lon="19.31664705276433">
<ele>352.90976</ele>
<time>2012-08-24T13:55:40Z</time>
</trkpt>
<trkpt lat="50.54930806159826" lon="19.316561222075855">
<ele>353.74127</ele>
<time>2012-08-24T13:55:45Z</time>
</trkpt>
<trkpt lat="50.54912567138525" lon="19.31645393371526">
<ele>353.9386</ele>
<time>2012-08-24T13:55:50Z</time>
</trkpt>
<trkpt lat="50.548932552336176" lon="19.316346645354663">
<ele>354.74814</ele>
<time>2012-08-24T13:55:55Z</time>
</trkpt>
<trkpt lat="50.54876089095922" lon="19.316260814666187">
<ele>355.19022</ele>
<time>2012-08-24T13:56:00Z</time>
</trkpt>
<trkpt lat="50.54858922958227" lon="19.31615352630559">
<ele>355.80783</ele>
<time>2012-08-24T13:56:05Z</time>
</trkpt>
<trkpt lat="50.5483961105332" lon="19.316046237944995">
<ele>355.9544</ele>
<time>2012-08-24T13:56:10Z</time>
</trkpt>
<trkpt lat="50.548224449156244" lon="19.31596040725652">
<ele>355.98557</ele>
<time>2012-08-24T13:56:14Z</time>
</trkpt>
<trkpt lat="50.54802060127111" lon="19.315853118895923">
<ele>356.5747</ele>
<time>2012-08-24T13:56:19Z</time>
</trkpt>
<trkpt lat="50.54781675338598" lon="19.315788745879566">
<ele>357.14908</ele>
<time>2012-08-24T13:56:24Z</time>
</trkpt>
<trkpt lat="50.54761290550085" lon="19.315724372863208">
<ele>357.79807</ele>
<time>2012-08-24T13:56:29Z</time>
</trkpt>
<trkpt lat="50.547419786451776" lon="19.31570291519109">
<ele>357.9521</ele>
<time>2012-08-24T13:56:34Z</time>
</trkpt>
<trkpt lat="50.547226667402704" lon="19.31565999984685">
<ele>359.1888</ele>
<time>2012-08-24T13:56:39Z</time>
</trkpt>
<trkpt lat="50.54702281951757" lon="19.31563854217473">
<ele>360.38562</ele>
<time>2012-08-24T13:56:44Z</time>
</trkpt>
<trkpt lat="50.5468297004685" lon="19.315574169158374">
<ele>360.85422</ele>
<time>2012-08-24T13:56:49Z</time>
</trkpt>
<trkpt lat="50.546700954435785" lon="19.315359592437183">
<ele>360.95386</ele>
<time>2012-08-24T13:56:53Z</time>
</trkpt>
<trkpt lat="50.54657220840307" lon="19.315080642699634">
<ele>360.30182</ele>
<time>2012-08-24T13:56:57Z</time>
</trkpt>
<trkpt lat="50.546443462370355" lon="19.314758777617847">
<ele>360.0955</ele>
<time>2012-08-24T13:57:01Z</time>
</trkpt>
<trkpt lat="50.54635763168188" lon="19.314501285552417">
<ele>360.04028</ele>
<time>2012-08-24T13:57:04Z</time>
</trkpt>
<trkpt lat="50.54626107215734" lon="19.31420087814275">
<ele>360.01276</ele>
<time>2012-08-24T13:57:08Z</time>
</trkpt>
<trkpt lat="50.546175241468866" lon="19.31394338607732">
<ele>360.00403</ele>
<time>2012-08-24T13:57:12Z</time>
</trkpt>
<trkpt lat="50.54608941078039" lon="19.31366443633977">
<ele>360.00128</ele>
<time>2012-08-24T13:57:16Z</time>
</trkpt>
<trkpt lat="50.54599285125585" lon="19.313364028930103">
<ele>360.0003</ele>
<time>2012-08-24T13:57:21Z</time>
</trkpt>
<trkpt lat="50.54590702056738" lon="19.313085079192554">
<ele>360.00006</ele>
<time>2012-08-24T13:57:26Z</time>
</trkpt>
<trkpt lat="50.5458211898789" lon="19.312806129455005">
<ele>360.00003</ele>
<time>2012-08-24T13:57:31Z</time>
</trkpt>
<trkpt lat="50.545735359190424" lon="19.312505722045337">
<ele>360.0</ele>
<time>2012-08-24T13:57:36Z</time>
</trkpt>
<trkpt lat="50.545681715010126" lon="19.31218385696355">
<ele>360.0</ele>
<time>2012-08-24T13:57:42Z</time>
</trkpt>
<trkpt lat="50.545681715010126" lon="19.311861991881763">
<ele>360.0</ele>
<time>2012-08-24T13:57:48Z</time>
</trkpt>
<trkpt lat="50.545692443846185" lon="19.311561584472095">
<ele>359.2373</ele>
<time>2012-08-24T13:57:53Z</time>
</trkpt>
<trkpt lat="50.545724630354364" lon="19.311239719390308">
<ele>359.3063</ele>
<time>2012-08-24T13:57:58Z</time>
</trkpt>
<trkpt lat="50.54574608802648" lon="19.31093931198064">
<ele>359.8354</ele>
<time>2012-08-24T13:58:03Z</time>
</trkpt>
<trkpt lat="50.54577827453466" lon="19.310617446898853">
<ele>361.22266</ele>
<time>2012-08-24T13:58:08Z</time>
</trkpt>
<trkpt lat="50.54579973220678" lon="19.310317039489185">
<ele>362.57822</ele>
<time>2012-08-24T13:58:13Z</time>
</trkpt>
<trkpt lat="50.5458211898789" lon="19.309995174407398">
<ele>362.8999</ele>
<time>2012-08-24T13:58:18Z</time>
</trkpt>
<trkpt lat="50.54583191871496" lon="19.30967330932561">
<ele>362.97626</ele>
<time>2012-08-24T13:58:23Z</time>
</trkpt>
<trkpt lat="50.54585337638708" lon="19.309372901915943">
<ele>362.99435</ele>
<time>2012-08-24T13:58:28Z</time>
</trkpt>
<trkpt lat="50.5458748340592" lon="19.309072494506275">
<ele>363.32385</ele>
<time>2012-08-24T13:58:33Z</time>
</trkpt>
<trkpt lat="50.54588556289526" lon="19.308772087096607">
<ele>363.07684</ele>
<time>2012-08-24T13:58:38Z</time>
</trkpt>
<trkpt lat="50.54589629173132" lon="19.30847167968694">
<ele>363.45575</ele>
<time>2012-08-24T13:58:43Z</time>
</trkpt>
<trkpt lat="50.545917749403436" lon="19.30814981460515">
<ele>363.90314</ele>
<time>2012-08-24T13:58:49Z</time>
</trkpt>
<trkpt lat="50.545928478239496" lon="19.307849407195484">
<ele>364.6606</ele>
<time>2012-08-24T13:58:54Z</time>
</trkpt>
<trkpt lat="50.545960664747675" lon="19.307527542113696">
<ele>364.9396</ele>
<time>2012-08-24T13:59:00Z</time>
</trkpt>
<trkpt lat="50.54600358009191" lon="19.30722713470403">
<ele>365.81128</ele>
<time>2012-08-24T13:59:06Z</time>
</trkpt>
<trkpt lat="50.5458211898789" lon="19.307098388671314">
<ele>366.4664</ele>
<time>2012-08-24T13:59:12Z</time>
</trkpt>
<trkpt lat="50.54563879966589" lon="19.3069696426386">
<ele>370.348</ele>
<time>2012-08-24T13:59:17Z</time>
</trkpt>
<trkpt lat="50.545456409452875" lon="19.306819438933765">
<ele>374.25446</ele>
<time>2012-08-24T13:59:22Z</time>
</trkpt>
<trkpt lat="50.54528474807592" lon="19.30673360824529">
<ele>375.8852</ele>
<time>2012-08-24T13:59:26Z</time>
</trkpt>
<trkpt lat="50.54508090019079" lon="19.306626319884693">
<ele>376.64728</ele>
<time>2012-08-24T13:59:30Z</time>
</trkpt>
<trkpt lat="50.5448663234696" lon="19.306519031524097">
<ele>376.8884</ele>
<time>2012-08-24T13:59:34Z</time>
</trkpt>
<trkpt lat="50.54466247558447" lon="19.30643320083562">
<ele>376.5272</ele>
<time>2012-08-24T13:59:38Z</time>
</trkpt>
<trkpt lat="50.544469356535394" lon="19.306368827819263">
<ele>375.58868</ele>
<time>2012-08-24T13:59:42Z</time>
</trkpt>
<trkpt lat="50.54427623748632" lon="19.306282997130786">
<ele>374.45612</ele>
<time>2012-08-24T13:59:47Z</time>
</trkpt>
<trkpt lat="50.54409384727331" lon="19.30621862411443">
<ele>374.10825</ele>
<time>2012-08-24T13:59:52Z</time>
</trkpt>
<trkpt lat="50.54388999938818" lon="19.306132793425952">
<ele>374.01926</ele>
<time>2012-08-24T13:59:58Z</time>
</trkpt>
<trkpt lat="50.543696880339105" lon="19.306046962737476">
<ele>374.00342</ele>
<time>2012-08-24T14:00:04Z</time>
</trkpt>
<trkpt lat="50.54351449012609" lon="19.306004047393237">
<ele>374.0006</ele>
<time>2012-08-24T14:00:10Z</time>
</trkpt>
<trkpt lat="50.54334282874914" lon="19.306111335753833">
<ele>374.0001</ele>
<time>2012-08-24T14:00:17Z</time>
</trkpt>
<trkpt lat="50.54316043853613" lon="19.306304454802905">
<ele>374.0</ele>
<time>2012-08-24T14:00:24Z</time>
</trkpt>
<trkpt lat="50.542967319487055" lon="19.30643320083562">
<ele>373.5</ele>
<time>2012-08-24T14:00:45Z</time>
</trkpt>
<trkpt lat="50.54276347160192" lon="19.3064117431635">
<ele>371.83447</ele>
<time>2012-08-24T14:00:55Z</time>
</trkpt>
<trkpt lat="50.54253816604467" lon="19.30643320083562">
<ele>371.297</ele>
<time>2012-08-24T14:01:05Z</time>
</trkpt>
<trkpt lat="50.54231286048742" lon="19.3064117431635">
<ele>372.94232</ele>
<time>2012-08-24T14:01:13Z</time>
</trkpt>
<trkpt lat="50.54210901260229" lon="19.30643320083562">
<ele>374.9068</ele>
<time>2012-08-24T14:01:21Z</time>
</trkpt>
<trkpt lat="50.5418944358811" lon="19.30643320083562">
<ele>376.78766</ele>
<time>2012-08-24T14:01:28Z</time>
</trkpt>
<trkpt lat="50.541679859159906" lon="19.3064117431635">
<ele>378.03424</ele>
<time>2012-08-24T14:01:34Z</time>
</trkpt>
<trkpt lat="50.541486740110834" lon="19.3064117431635">
<ele>379.07813</ele>
<time>2012-08-24T14:01:40Z</time>
</trkpt>
<trkpt lat="50.5412828922257" lon="19.30643320083562">
<ele>380.12695</ele>
<time>2012-08-24T14:01:47Z</time>
</trkpt>
<trkpt lat="50.54107904434057" lon="19.306390285491382">
<ele>381.13345</ele>
<time>2012-08-24T14:01:54Z</time>
</trkpt>
<trkpt lat="50.54089665412756" lon="19.306325912475025">
<ele>382.16324</ele>
<time>2012-08-24T14:02:02Z</time>
</trkpt>
<trkpt lat="50.540703535078485" lon="19.30619716644231">
<ele>384.0092</ele>
<time>2012-08-24T14:02:11Z</time>
</trkpt>
<trkpt lat="50.540488958357294" lon="19.306111335753833">
<ele>386.701</ele>
<time>2012-08-24T14:02:20Z</time>
</trkpt>
<trkpt lat="50.540242195127924" lon="19.306046962737476">
<ele>388.8393</ele>
<time>2012-08-24T14:02:27Z</time>
</trkpt>
<trkpt lat="50.54003834724279" lon="19.306046962737476">
<ele>390.73724</ele>
<time>2012-08-24T14:02:32Z</time>
</trkpt>
<trkpt lat="50.53979158401342" lon="19.30598258972112">
<ele>391.83145</ele>
<time>2012-08-24T14:02:39Z</time>
</trkpt>
<trkpt lat="50.53958773612829" lon="19.30598258972112">
<ele>391.97</ele>
<time>2012-08-24T14:02:45Z</time>
</trkpt>
<trkpt lat="50.53939461707922" lon="19.306004047393237">
<ele>392.24466</ele>
<time>2012-08-24T14:02:51Z</time>
</trkpt>
<trkpt lat="50.539201498030145" lon="19.306046962737476">
<ele>392.76102</ele>
<time>2012-08-24T14:02:55Z</time>
</trkpt>
<trkpt lat="50.538965463636835" lon="19.306089878081714">
<ele>392.92438</ele>
<time>2012-08-24T14:02:59Z</time>
</trkpt>
<trkpt lat="50.53877234458776" lon="19.306111335753833">
<ele>392.9681</ele>
<time>2012-08-24T14:03:02Z</time>
</trkpt>
<trkpt lat="50.53856849670263" lon="19.30617570877019">
<ele>392.98654</ele>
<time>2012-08-24T14:03:05Z</time>
</trkpt>
<trkpt lat="50.53837537765356" lon="19.30621862411443">
<ele>392.99432</ele>
<time>2012-08-24T14:03:08Z</time>
</trkpt>
<trkpt lat="50.53817152976843" lon="19.30621862411443">
<ele>392.5593</ele>
<time>2012-08-24T14:03:10Z</time>
</trkpt>
<trkpt lat="50.537978410719354" lon="19.30621862411443">
<ele>392.23596</ele>
<time>2012-08-24T14:03:13Z</time>
</trkpt>
<trkpt lat="50.53777456283422" lon="19.30617570877019">
<ele>392.09955</ele>
<time>2012-08-24T14:03:16Z</time>
</trkpt>
<trkpt lat="50.53758144378515" lon="19.30615425109807">
<ele>391.8545</ele>
<time>2012-08-24T14:03:19Z</time>
</trkpt>
<trkpt lat="50.53737759590002" lon="19.306111335753833">
<ele>391.95395</ele>
<time>2012-08-24T14:03:23Z</time>
</trkpt>
<trkpt lat="50.53716301917883" lon="19.306068420409595">
<ele>391.98907</ele>
<time>2012-08-24T14:03:28Z</time>
</trkpt>
<trkpt lat="50.536980628965814" lon="19.306046962737476">
<ele>391.9954</ele>
<time>2012-08-24T14:03:31Z</time>
</trkpt>
<trkpt lat="50.53676605224462" lon="19.306025505065357">
<ele>391.16992</ele>
<time>2012-08-24T14:03:34Z</time>
</trkpt>
<trkpt lat="50.53655147552343" lon="19.306004047393237">
<ele>389.91544</ele>
<time>2012-08-24T14:03:37Z</time>
</trkpt>
<trkpt lat="50.53632616996618" lon="19.30598258972112">
<ele>389.1362</ele>
<time>2012-08-24T14:03:40Z</time>
</trkpt>
<trkpt lat="50.53609013557287" lon="19.305961132049">
<ele>388.04184</ele>
<time>2012-08-24T14:03:43Z</time>
</trkpt>
<trkpt lat="50.53587555885168" lon="19.305961132049">
<ele>387.4395</ele>
<time>2012-08-24T14:03:46Z</time>
</trkpt>
<trkpt lat="50.53565025329443" lon="19.30593967437688">
<ele>385.76797</ele>
<time>2012-08-24T14:03:50Z</time>
</trkpt>
<trkpt lat="50.535457134245355" lon="19.30591821670476">
<ele>383.73596</ele>
<time>2012-08-24T14:03:55Z</time>
</trkpt>
<trkpt lat="50.53527474403234" lon="19.305875301360523">
<ele>383.23285</ele>
<time>2012-08-24T14:03:59Z</time>
</trkpt>
<trkpt lat="50.53507089614721" lon="19.305875301360523">
<ele>383.07367</ele>
<time>2012-08-24T14:04:03Z</time>
</trkpt>
<trkpt lat="50.5348348617539" lon="19.305853843688404">
<ele>382.77332</ele>
<time>2012-08-24T14:04:07Z</time>
</trkpt>
<trkpt lat="50.53463101386877" lon="19.305875301360523">
<ele>381.38873</ele>
<time>2012-08-24T14:04:10Z</time>
</trkpt>
<trkpt lat="50.534437894819696" lon="19.305875301360523">
<ele>379.17963</ele>
<time>2012-08-24T14:04:13Z</time>
</trkpt>
<trkpt lat="50.534244775770624" lon="19.305746555327808">
<ele>376.674</ele>
<time>2012-08-24T14:04:17Z</time>
</trkpt>
<trkpt lat="50.53410530090185" lon="19.305510520934497">
<ele>375.39725</ele>
<time>2012-08-24T14:04:22Z</time>
</trkpt>
<trkpt lat="50.533944368360956" lon="19.305295944213306">
<ele>375.0707</ele>
<time>2012-08-24T14:04:28Z</time>
</trkpt>
<trkpt lat="50.533740520475824" lon="19.305295944213306">
<ele>374.76257</ele>
<time>2012-08-24T14:04:34Z</time>
</trkpt>
<trkpt lat="50.53356885909887" lon="19.3054032325739">
<ele>372.42877</ele>
<time>2012-08-24T14:04:38Z</time>
</trkpt>
<trkpt lat="50.5333757400498" lon="19.305489063262378">
<ele>369.25677</ele>
<time>2012-08-24T14:04:42Z</time>
</trkpt>
<trkpt lat="50.533193349836786" lon="19.305574893950855">
<ele>367.27655</ele>
<time>2012-08-24T14:04:46Z</time>
</trkpt>
<trkpt lat="50.532989501951654" lon="19.30568218231145">
<ele>366.30292</ele>
<time>2012-08-24T14:04:51Z</time>
</trkpt>
<trkpt lat="50.53279638290258" lon="19.305810928344165">
<ele>364.67892</ele>
<time>2012-08-24T14:04:57Z</time>
</trkpt>
<trkpt lat="50.53258180618139" lon="19.306025505065357">
<ele>361.95212</ele>
<time>2012-08-24T14:05:02Z</time>
</trkpt>
<trkpt lat="50.53241014480444" lon="19.30621862411443">
<ele>361.73877</ele>
<time>2012-08-24T14:05:06Z</time>
</trkpt>
<trkpt lat="50.532249212263544" lon="19.306347370147144">
<ele>361.8898</ele>
<time>2012-08-24T14:05:09Z</time>
</trkpt>
<trkpt lat="50.53206682205053" lon="19.306304454802905">
<ele>362.391</ele>
<time>2012-08-24T14:05:12Z</time>
</trkpt>
<trkpt lat="50.53188443183752" lon="19.306240081786548">
<ele>362.74307</ele>
<time>2012-08-24T14:05:15Z</time>
</trkpt>
<trkpt lat="50.531691312788446" lon="19.306132793425952">
<ele>362.9187</ele>
<time>2012-08-24T14:05:19Z</time>
</trkpt>
<trkpt lat="50.531498193739374" lon="19.306046962737476">
<ele>363.65787</ele>
<time>2012-08-24T14:05:23Z</time>
</trkpt>
<trkpt lat="50.53131580352636" lon="19.30591821670476">
<ele>363.91882</ele>
<time>2012-08-24T14:05:28Z</time>
</trkpt>
<trkpt lat="50.53117632865759" lon="19.30572509765569">
<ele>363.98074</ele>
<time>2012-08-24T14:05:33Z</time>
</trkpt>
<trkpt lat="50.531004667280634" lon="19.305574893950855">
<ele>363.99542</ele>
<time>2012-08-24T14:05:38Z</time>
</trkpt>
<trkpt lat="50.53076863288732" lon="19.30542469024602">
<ele>363.9994</ele>
<time>2012-08-24T14:05:45Z</time>
</trkpt>
<trkpt lat="50.53057551383825" lon="19.305295944213306">
<ele>363.7499</ele>
<time>2012-08-24T14:05:52Z</time>
</trkpt>
<trkpt lat="50.53038239478918" lon="19.305274486541187">
<ele>362.8501</ele>
<time>2012-08-24T14:05:59Z</time>
</trkpt>
<trkpt lat="50.53016781806799" lon="19.30518865585271">
<ele>362.1513</ele>
<time>2012-08-24T14:06:05Z</time>
</trkpt>
<trkpt lat="50.529953241346796" lon="19.305102825164234">
<ele>362.03592</ele>
<time>2012-08-24T14:06:10Z</time>
</trkpt>
<trkpt lat="50.52977085113378" lon="19.30516719818059">
<ele>362.01135</ele>
<time>2012-08-24T14:06:14Z</time>
</trkpt>
<trkpt lat="50.52963137626501" lon="19.3054032325739">
<ele>360.30347</ele>
<time>2012-08-24T14:06:19Z</time>
</trkpt>
<trkpt lat="50.529491901396234" lon="19.305639266967212">
<ele>358.62573</ele>
<time>2012-08-24T14:06:24Z</time>
</trkpt>
<trkpt lat="50.52940607070776" lon="19.30591821670476">
<ele>358.54886</ele>
<time>2012-08-24T14:06:30Z</time>
</trkpt>
<trkpt lat="50.52930951118322" lon="19.30617570877019">
<ele>358.9197</ele>
<time>2012-08-24T14:06:36Z</time>
</trkpt>
<trkpt lat="50.529191493986566" lon="19.30643320083562">
<ele>358.73572</ele>
<time>2012-08-24T14:06:42Z</time>
</trkpt>
<trkpt lat="50.52908420562597" lon="19.30671215057317">
<ele>357.491</ele>
<time>2012-08-24T14:06:47Z</time>
</trkpt>
<trkpt lat="50.528966188429315" lon="19.307012557982837">
<ele>357.11652</ele>
<time>2012-08-24T14:06:52Z</time>
</trkpt>
<trkpt lat="50.5288910865769" lon="19.307355880736743">
<ele>356.77765</ele>
<time>2012-08-24T14:06:57Z</time>
</trkpt>
<trkpt lat="50.52881598472448" lon="19.30765628814641">
<ele>356.18454</ele>
<time>2012-08-24T14:07:02Z</time>
</trkpt>
<trkpt lat="50.528730154036005" lon="19.3079781532282">
<ele>356.0438</ele>
<time>2012-08-24T14:07:07Z</time>
</trkpt>
<trkpt lat="50.52867650985571" lon="19.308300018309986">
<ele>356.0104</ele>
<time>2012-08-24T14:07:12Z</time>
</trkpt>
<trkpt lat="50.52862286567541" lon="19.308600425719654">
<ele>356.5033</ele>
<time>2012-08-24T14:07:16Z</time>
</trkpt>
<trkpt lat="50.52854776382299" lon="19.308879375457202">
<ele>358.6342</ele>
<time>2012-08-24T14:07:19Z</time>
</trkpt>
<trkpt lat="50.528483390806635" lon="19.30915832519475">
<ele>361.51755</ele>
<time>2012-08-24T14:07:22Z</time>
</trkpt>
<trkpt lat="50.52840828895422" lon="19.30948019027654">
<ele>366.42548</ele>
<time>2012-08-24T14:07:26Z</time>
</trkpt>
<trkpt lat="50.52831172942968" lon="19.309780597686206">
<ele>370.24008</ele>
<time>2012-08-24T14:07:30Z</time>
</trkpt>
<trkpt lat="50.528236627577265" lon="19.310123920440112">
<ele>372.34506</ele>
<time>2012-08-24T14:07:35Z</time>
</trkpt>
<trkpt lat="50.528193712233026" lon="19.31046724319402">
<ele>372.7237</ele>
<time>2012-08-24T14:07:38Z</time>
</trkpt>
<trkpt lat="50.52804350852819" lon="19.31070327758733">
<ele>372.66257</ele>
<time>2012-08-24T14:07:42Z</time>
</trkpt>
<trkpt lat="50.5278825759873" lon="19.31091785430852">
<ele>370.83466</ele>
<time>2012-08-24T14:07:46Z</time>
</trkpt>
<trkpt lat="50.527721643446405" lon="19.31115388870183">
<ele>366.9516</ele>
<time>2012-08-24T14:07:50Z</time>
</trkpt>
<trkpt lat="50.52758216857763" lon="19.311389923095142">
<ele>365.6175</ele>
<time>2012-08-24T14:07:54Z</time>
</trkpt>
<trkpt lat="50.527453422544916" lon="19.31166887283269">
<ele>365.14655</ele>
<time>2012-08-24T14:07:59Z</time>
</trkpt>
<trkpt lat="50.52733540534826" lon="19.311904907226">
<ele>364.36276</ele>
<time>2012-08-24T14:08:03Z</time>
</trkpt>
<trkpt lat="50.527206659315546" lon="19.31214094161931">
<ele>363.67728</ele>
<time>2012-08-24T14:08:07Z</time>
</trkpt>
<trkpt lat="50.52705645561071" lon="19.31239843368474">
<ele>361.70258</ele>
<time>2012-08-24T14:08:11Z</time>
</trkpt>
<trkpt lat="50.52693843841406" lon="19.312613010405933">
<ele>359.70264</ele>
<time>2012-08-24T14:08:14Z</time>
</trkpt>
<trkpt lat="50.5268204212174" lon="19.312849044799243">
<ele>358.14017</ele>
<time>2012-08-24T14:08:17Z</time>
</trkpt>
<trkpt lat="50.526702404020746" lon="19.313063621520435">
<ele>357.91852</ele>
<time>2012-08-24T14:08:20Z</time>
</trkpt>
<trkpt lat="50.52653074264379" lon="19.313299655913745">
<ele>357.9742</ele>
<time>2012-08-24T14:08:24Z</time>
</trkpt>
<trkpt lat="50.526487827299555" lon="19.313621520995532">
<ele>357.9939</ele>
<time>2012-08-24T14:08:29Z</time>
</trkpt>
<trkpt lat="50.52654147147985" lon="19.3139219284052">
<ele>359.6973</ele>
<time>2012-08-24T14:08:33Z</time>
</trkpt>
<trkpt lat="50.52664875984045" lon="19.31415796279851">
<ele>361.5888</ele>
<time>2012-08-24T14:08:40Z</time>
</trkpt>
<trkpt lat="50.526723861692865" lon="19.314479827880298">
<ele>362.76712</ele>
<time>2012-08-24T14:08:47Z</time>
</trkpt>
<trkpt lat="50.5267667770371" lon="19.314780235289966">
<ele>364.14493</ele>
<time>2012-08-24T14:08:52Z</time>
</trkpt>
<trkpt lat="50.52679896354528" lon="19.315059185027515">
<ele>365.41306</ele>
<time>2012-08-24T14:08:56Z</time>
</trkpt>
<trkpt lat="50.52683115005346" lon="19.315381050109302">
<ele>366.49786</ele>
<time>2012-08-24T14:09:00Z</time>
</trkpt>
<trkpt lat="50.5268740653977" lon="19.31570291519109">
<ele>366.263</ele>
<time>2012-08-24T14:09:04Z</time>
</trkpt>
<trkpt lat="50.52690625190588" lon="19.316003322600757">
<ele>365.97775</ele>
<time>2012-08-24T14:09:08Z</time>
</trkpt>
<trkpt lat="50.52693843841406" lon="19.316282272338306">
<ele>367.50467</ele>
<time>2012-08-24T14:09:12Z</time>
</trkpt>
<trkpt lat="50.526992082594354" lon="19.316582679747974">
<ele>368.64514</ele>
<time>2012-08-24T14:09:17Z</time>
</trkpt>
<trkpt lat="50.52706718444677" lon="19.316840171813404">
<ele>368.96448</ele>
<time>2012-08-24T14:09:25Z</time>
</trkpt>
<trkpt lat="50.52715301513525" lon="19.31716203689519">
<ele>368.99368</ele>
<time>2012-08-24T14:09:31Z</time>
</trkpt>
<trkpt lat="50.527206659315546" lon="19.31746244430486">
<ele>368.99887</ele>
<time>2012-08-24T14:09:37Z</time>
</trkpt>
<trkpt lat="50.527260303495844" lon="19.317784309386646">
<ele>368.23703</ele>
<time>2012-08-24T14:09:42Z</time>
</trkpt>
<trkpt lat="50.52731394767614" lon="19.318084716796314">
<ele>368.05624</ele>
<time>2012-08-24T14:09:47Z</time>
</trkpt>
<trkpt lat="50.52735686302038" lon="19.3184065818781">
<ele>368.01334</ele>
<time>2012-08-24T14:09:52Z</time>
</trkpt>
<trkpt lat="50.52742123603674" lon="19.31868553161565">
<ele>367.75317</ele>
<time>2012-08-24T14:09:57Z</time>
</trkpt>
<trkpt lat="50.527485609053095" lon="19.3189644813532">
<ele>367.17874</ele>
<time>2012-08-24T14:10:02Z</time>
</trkpt>
<trkpt lat="50.52754998206945" lon="19.319264888762866">
<ele>367.04242</ele>
<time>2012-08-24T14:10:07Z</time>
</trkpt>
<trkpt lat="50.52760362624975" lon="19.319565296172534">
<ele>367.01007</ele>
<time>2012-08-24T14:10:12Z</time>
</trkpt>
<trkpt lat="50.52765727043005" lon="19.31988716125432">
<ele>367.00238</ele>
<time>2012-08-24T14:10:17Z</time>
</trkpt>
<trkpt lat="50.527689456938226" lon="19.32018756866399">
<ele>366.23788</ele>
<time>2012-08-24T14:10:22Z</time>
</trkpt>
<trkpt lat="50.527700185774286" lon="19.320487976073657">
<ele>366.05646</ele>
<time>2012-08-24T14:10:27Z</time>
</trkpt>
<trkpt lat="50.527710914610346" lon="19.320809841155445">
<ele>366.7761</ele>
<time>2012-08-24T14:10:32Z</time>
</trkpt>
<trkpt lat="50.527721643446405" lon="19.32115316390935">
<ele>366.94687</ele>
<time>2012-08-24T14:10:37Z</time>
</trkpt>
<trkpt lat="50.527732372282465" lon="19.321475028991138">
<ele>367.7501</ele>
<time>2012-08-24T14:10:42Z</time>
</trkpt>
<trkpt lat="50.527743101118524" lon="19.321818351745044">
<ele>368.65024</ele>
<time>2012-08-24T14:10:49Z</time>
</trkpt>
<trkpt lat="50.527743101118524" lon="19.322118759154712">
<ele>369.6006</ele>
<time>2012-08-24T14:10:54Z</time>
</trkpt>
<trkpt lat="50.52776455879064" lon="19.32246208190862">
<ele>370.61252</ele>
<time>2012-08-24T14:11:00Z</time>
</trkpt>
<trkpt lat="50.52779674529882" lon="19.322805404662525">
<ele>370.90805</ele>
<time>2012-08-24T14:11:05Z</time>
</trkpt>
<trkpt lat="50.52781820297094" lon="19.32314872741643">
<ele>371.74088</ele>
<time>2012-08-24T14:11:10Z</time>
</trkpt>
<trkpt lat="50.52783966064306" lon="19.323513507842456">
<ele>372.3914</ele>
<time>2012-08-24T14:11:16Z</time>
</trkpt>
<trkpt lat="50.52785038947912" lon="19.323856830596362">
<ele>372.8917</ele>
<time>2012-08-24T14:11:22Z</time>
</trkpt>
<trkpt lat="50.52787184715124" lon="19.32420015335027">
<ele>373.7434</ele>
<time>2012-08-24T14:11:28Z</time>
</trkpt>
<trkpt lat="50.5278825759873" lon="19.324543476104175">
<ele>374.71704</ele>
<time>2012-08-24T14:11:34Z</time>
</trkpt>
<trkpt lat="50.52789330482336" lon="19.324865341185962">
<ele>375.71234</ele>
<time>2012-08-24T14:11:40Z</time>
</trkpt>
<trkpt lat="50.52790403365942" lon="19.32518720626775">
<ele>376.7243</ele>
<time>2012-08-24T14:11:47Z</time>
</trkpt>
<trkpt lat="50.52791476249548" lon="19.325509071349536">
<ele>377.6468</ele>
<time>2012-08-24T14:11:54Z</time>
</trkpt>
<trkpt lat="50.527946949003656" lon="19.325788021087085">
<ele>378.69983</ele>
<time>2012-08-24T14:12:00Z</time>
</trkpt>
<trkpt lat="50.527979135511835" lon="19.326088428496753">
<ele>379.70926</ele>
<time>2012-08-24T14:12:06Z</time>
</trkpt>
<trkpt lat="50.52801132202001" lon="19.326367378234302">
<ele>380.6146</ele>
<time>2012-08-24T14:12:11Z</time>
</trkpt>
<trkpt lat="50.52805423736425" lon="19.32666778564397">
<ele>381.92416</ele>
<time>2012-08-24T14:12:16Z</time>
</trkpt>
<trkpt lat="50.52809715270849" lon="19.326968193053638">
<ele>384.0855</ele>
<time>2012-08-24T14:12:21Z</time>
</trkpt>
<trkpt lat="50.52812933921667" lon="19.327290058135425">
<ele>385.3611</ele>
<time>2012-08-24T14:12:26Z</time>
</trkpt>
<trkpt lat="50.52815079688879" lon="19.327590465545093">
<ele>386.53198</ele>
<time>2012-08-24T14:12:31Z</time>
</trkpt>
<trkpt lat="50.52816152572485" lon="19.32789087295476">
<ele>387.13895</ele>
<time>2012-08-24T14:12:36Z</time>
</trkpt>
<trkpt lat="50.527979135511835" lon="19.327805042266284">
<ele>387.84674</ele>
<time>2012-08-24T14:12:42Z</time>
</trkpt>
<trkpt lat="50.52781820297094" lon="19.327569007872974">
<ele>387.3855</ele>
<time>2012-08-24T14:12:47Z</time>
</trkpt>
<trkpt lat="50.52766799926611" lon="19.3273758888239">
<ele>385.75067</ele>
<time>2012-08-24T14:12:52Z</time>
</trkpt>
<trkpt lat="50.527507066725214" lon="19.32720422744695">
<ele>383.8373</ele>
<time>2012-08-24T14:12:57Z</time>
</trkpt>
<trkpt lat="50.52735686302038" lon="19.327032566069995">
<ele>382.186</ele>
<time>2012-08-24T14:13:02Z</time>
</trkpt>
<trkpt lat="50.527195930479486" lon="19.326860904693042">
<ele>381.28143</ele>
<time>2012-08-24T14:13:07Z</time>
</trkpt>
<trkpt lat="50.525490045546015" lon="19.324994087218677">
<ele>372.0</ele>
<time>2012-08-24T14:14:00Z</time>
</trkpt>
<trkpt lat="50.52535057067724" lon="19.324800968169605">
<ele>370.875</ele>
<time>2012-08-24T14:14:04Z</time>
</trkpt>
<trkpt lat="50.525211095808466" lon="19.324586391448413">
<ele>368.47217</ele>
<time>2012-08-24T14:14:08Z</time>
</trkpt>
<trkpt lat="50.52506089210363" lon="19.32439327239934">
<ele>366.63766</ele>
<time>2012-08-24T14:14:12Z</time>
</trkpt>
<trkpt lat="50.52488923072668" lon="19.324243068694507">
<ele>365.29147</ele>
<time>2012-08-24T14:14:18Z</time>
</trkpt>
<trkpt lat="50.52465319633337" lon="19.324092864989673">
<ele>365.27188</ele>
<time>2012-08-24T14:14:27Z</time>
</trkpt>
<trkpt lat="50.524470806120355" lon="19.323964118956958">
<ele>365.87042</ele>
<time>2012-08-24T14:14:33Z</time>
</trkpt>
<trkpt lat="50.5242991447434" lon="19.323749542235767">
<ele>363.94092</ele>
<time>2012-08-24T14:14:38Z</time>
</trkpt>
<trkpt lat="50.52417039871069" lon="19.323513507842456">
<ele>361.49304</ele>
<time>2012-08-24T14:14:42Z</time>
</trkpt>
<trkpt lat="50.52405238151403" lon="19.323298931121265">
<ele>360.4724</ele>
<time>2012-08-24T14:14:46Z</time>
</trkpt>
<trkpt lat="50.52391290664526" lon="19.323062896727954">
<ele>360.1121</ele>
<time>2012-08-24T14:14:51Z</time>
</trkpt>
<trkpt lat="50.52389144897314" lon="19.322741031646167">
<ele>359.26392</ele>
<time>2012-08-24T14:14:56Z</time>
</trkpt>
<trkpt lat="50.52385926246496" lon="19.32246208190862">
<ele>359.0835</ele>
<time>2012-08-24T14:15:00Z</time>
</trkpt>
<trkpt lat="50.52381634712072" lon="19.32214021682683">
<ele>358.58893</ele>
<time>2012-08-24T14:15:04Z</time>
</trkpt>
<trkpt lat="50.52378416061254" lon="19.321861267089282">
<ele>357.81094</ele>
<time>2012-08-24T14:15:07Z</time>
</trkpt>
<trkpt lat="50.523751974104364" lon="19.321517944335376">
<ele>356.323</ele>
<time>2012-08-24T14:15:11Z</time>
</trkpt>
<trkpt lat="50.523719787596185" lon="19.32119607925359">
<ele>355.6686</ele>
<time>2012-08-24T14:15:15Z</time>
</trkpt>
<trkpt lat="50.523698329924066" lon="19.320874214171802">
<ele>356.68832</ele>
<time>2012-08-24T14:15:18Z</time>
</trkpt>
<trkpt lat="50.52366614341589" lon="19.320573806762134">
<ele>358.85287</ele>
<time>2012-08-24T14:15:21Z</time>
</trkpt>
<trkpt lat="50.52360177039953" lon="19.320273399352466">
<ele>360.09418</ele>
<time>2012-08-24T14:15:24Z</time>
</trkpt>
<trkpt lat="50.52352666854711" lon="19.319994449614917">
<ele>360.61786</ele>
<time>2012-08-24T14:15:27Z</time>
</trkpt>
<trkpt lat="50.523451566694696" lon="19.31971549987737">
<ele>360.83878</ele>
<time>2012-08-24T14:15:30Z</time>
</trkpt>
<trkpt lat="50.52332282066198" lon="19.3194150924677">
<ele>361.3865</ele>
<time>2012-08-24T14:15:34Z</time>
</trkpt>
<trkpt lat="50.523247718809564" lon="19.31915760040227">
<ele>361.74118</ele>
<time>2012-08-24T14:15:37Z</time>
</trkpt>
<trkpt lat="50.52308678626867" lon="19.3189644813532">
<ele>362.70126</ele>
<time>2012-08-24T14:15:42Z</time>
</trkpt>
<trkpt lat="50.52288293838354" lon="19.31890010833684">
<ele>363.7228</ele>
<time>2012-08-24T14:15:49Z</time>
</trkpt>
<trkpt lat="50.52267909049841" lon="19.318878650664722">
<ele>365.74283</ele>
<time>2012-08-24T14:15:54Z</time>
</trkpt>
<trkpt lat="50.522485971449335" lon="19.318878650664722">
<ele>369.48877</ele>
<time>2012-08-24T14:15:59Z</time>
</trkpt>
<trkpt lat="50.522249937056024" lon="19.31892156600896">
<ele>370.9641</ele>
<time>2012-08-24T14:16:12Z</time>
</trkpt>
<trkpt lat="50.52203536033483" lon="19.31890010833684">
<ele>370.23462</ele>
<time>2012-08-24T14:16:21Z</time>
</trkpt>
<trkpt lat="50.52187442779394" lon="19.31868553161565">
<ele>369.35815</ele>
<time>2012-08-24T14:16:27Z</time>
</trkpt>
<trkpt lat="50.521724224089105" lon="19.31844949722234">
<ele>368.835</ele>
<time>2012-08-24T14:16:32Z</time>
</trkpt>
<trkpt lat="50.52157402038427" lon="19.31821346282903">
<ele>368.19815</ele>
<time>2012-08-24T14:16:37Z</time>
</trkpt>
<trkpt lat="50.521466732023676" lon="19.3179559707636">
<ele>367.10953</ele>
<time>2012-08-24T14:16:42Z</time>
</trkpt>
<trkpt lat="50.52140235900732" lon="19.31767702102605">
<ele>364.15576</ele>
<time>2012-08-24T14:16:46Z</time>
</trkpt>
<trkpt lat="50.52131652831884" lon="19.317312240600025">
<ele>362.10397</ele>
<time>2012-08-24T14:16:50Z</time>
</trkpt>
<trkpt lat="50.521241426466425" lon="19.317033290862476">
<ele>361.46573</ele>
<time>2012-08-24T14:16:53Z</time>
</trkpt>
<trkpt lat="50.52113413810583" lon="19.31671142578069">
<ele>361.7255</ele>
<time>2012-08-24T14:16:57Z</time>
</trkpt>
<trkpt lat="50.52102684974523" lon="19.3163895606989">
<ele>361.91315</ele>
<time>2012-08-24T14:17:01Z</time>
</trkpt>
<trkpt lat="50.52094101905676" lon="19.316132068633472">
<ele>362.79147</ele>
<time>2012-08-24T14:17:04Z</time>
</trkpt>
<trkpt lat="50.52085518836828" lon="19.315810203551685">
<ele>364.0551</ele>
<time>2012-08-24T14:17:08Z</time>
</trkpt>
<trkpt lat="50.520769357679804" lon="19.315531253814136">
<ele>365.13852</ele>
<time>2012-08-24T14:17:12Z</time>
</trkpt>
<trkpt lat="50.52069425582739" lon="19.315273761748706">
<ele>366.16492</ele>
<time>2012-08-24T14:17:16Z</time>
</trkpt>
<trkpt lat="50.52061915397497" lon="19.31497335433904">
<ele>366.98578</ele>
<time>2012-08-24T14:17:20Z</time>
</trkpt>
<trkpt lat="50.52054405212255" lon="19.31469440460149">
<ele>367.6791</ele>
<time>2012-08-24T14:17:24Z</time>
</trkpt>
<trkpt lat="50.520458221434076" lon="19.314372539519702">
<ele>368.36136</ele>
<time>2012-08-24T14:17:29Z</time>
</trkpt>
<trkpt lat="50.5203723907456" lon="19.314072132110034">
<ele>368.84845</ele>
<time>2012-08-24T14:17:34Z</time>
</trkpt>
<trkpt lat="50.52029728889318" lon="19.313814640044605">
<ele>368.95206</ele>
<time>2012-08-24T14:17:38Z</time>
</trkpt>
<trkpt lat="50.52019000053259" lon="19.313557147979175">
<ele>368.98483</ele>
<time>2012-08-24T14:17:42Z</time>
</trkpt>
<trkpt lat="50.52007198333593" lon="19.313321113585864">
<ele>369.2452</ele>
<time>2012-08-24T14:17:46Z</time>
</trkpt>
<trkpt lat="50.51993250846716" lon="19.313063621520435">
<ele>369.76117</ele>
<time>2012-08-24T14:17:50Z</time>
</trkpt>
<trkpt lat="50.51979303359838" lon="19.312806129455005">
<ele>369.92444</ele>
<time>2012-08-24T14:17:54Z</time>
</trkpt>
<trkpt lat="50.51965355872961" lon="19.312570095061695">
<ele>369.9761</ele>
<time>2012-08-24T14:17:58Z</time>
</trkpt>
<trkpt lat="50.519514083860834" lon="19.312355518340503">
<ele>369.99243</ele>
<time>2012-08-24T14:18:02Z</time>
</trkpt>
<trkpt lat="50.51938533782812" lon="19.31214094161931">
<ele>369.99762</ele>
<time>2012-08-24T14:18:06Z</time>
</trkpt>
<trkpt lat="50.519245862959345" lon="19.311904907226">
<ele>369.99942</ele>
<time>2012-08-24T14:18:11Z</time>
</trkpt>
<trkpt lat="50.51909565925451" lon="19.31169033050481">
<ele>369.99988</ele>
<time>2012-08-24T14:18:16Z</time>
</trkpt>
<trkpt lat="50.51892399787756" lon="19.31147575378362">
<ele>369.99997</ele>
<time>2012-08-24T14:18:21Z</time>
</trkpt>
<trkpt lat="50.51877379417272" lon="19.311239719390308">
<ele>370.7627</ele>
<time>2012-08-24T14:18:26Z</time>
</trkpt>
<trkpt lat="50.51864504814001" lon="19.311025142669116">
<ele>371.17493</ele>
<time>2012-08-24T14:18:30Z</time>
</trkpt>
<trkpt lat="50.51852703094335" lon="19.310789108275806">
<ele>371.3667</ele>
<time>2012-08-24T14:18:35Z</time>
</trkpt>
<trkpt lat="50.5184090137467" lon="19.310531616210376">
<ele>371.087</ele>
<time>2012-08-24T14:18:40Z</time>
</trkpt>
<trkpt lat="50.51829099655004" lon="19.310274124144946">
<ele>370.44254</ele>
<time>2012-08-24T14:18:45Z</time>
</trkpt>
<trkpt lat="50.51818370818945" lon="19.309995174407398">
<ele>370.7886</ele>
<time>2012-08-24T14:18:50Z</time>
</trkpt>
<trkpt lat="50.51810860633703" lon="19.309737682341968">
<ele>370.2495</ele>
<time>2012-08-24T14:18:54Z</time>
</trkpt>
<trkpt lat="50.51804423332067" lon="19.3094372749323">
<ele>371.0719</ele>
<time>2012-08-24T14:18:59Z</time>
</trkpt>
<trkpt lat="50.517958402632196" lon="19.309115409850513">
<ele>371.77975</ele>
<time>2012-08-24T14:19:04Z</time>
</trkpt>
<trkpt lat="50.51788330077978" lon="19.308857917785083">
<ele>372.61392</ele>
<time>2012-08-24T14:19:08Z</time>
</trkpt>
<trkpt lat="50.5177974700913" lon="19.308600425719654">
<ele>373.56143</ele>
<time>2012-08-24T14:19:12Z</time>
</trkpt>
<trkpt lat="50.51767945289465" lon="19.308364391326343">
<ele>373.89594</ele>
<time>2012-08-24T14:19:17Z</time>
</trkpt>
<trkpt lat="50.51753997802587" lon="19.308106899260913">
<ele>374.6589</ele>
<time>2012-08-24T14:19:22Z</time>
</trkpt>
<trkpt lat="50.51741123199316" lon="19.307892322539722">
<ele>375.47018</ele>
<time>2012-08-24T14:19:26Z</time>
</trkpt>
<trkpt lat="50.517271757124384" lon="19.30765628814641">
<ele>375.87427</ele>
<time>2012-08-24T14:19:31Z</time>
</trkpt>
<trkpt lat="50.51711082458349" lon="19.3074202537531">
<ele>375.97015</ele>
<time>2012-08-24T14:19:36Z</time>
</trkpt>
<trkpt lat="50.516960620878656" lon="19.30722713470403">
<ele>375.99292</ele>
<time>2012-08-24T14:19:41Z</time>
</trkpt>
<trkpt lat="50.51681041717382" lon="19.307012557982837">
<ele>375.99832</ele>
<time>2012-08-24T14:19:46Z</time>
</trkpt>
<trkpt lat="50.51667094230505" lon="19.306819438933765">
<ele>376.2496</ele>
<time>2012-08-24T14:19:51Z</time>
</trkpt>
<trkpt lat="50.516520738600214" lon="19.306583404540454">
<ele>377.07193</ele>
<time>2012-08-24T14:19:56Z</time>
</trkpt>
<trkpt lat="50.51638126373144" lon="19.306368827819263">
<ele>377.77975</ele>
<time>2012-08-24T14:20:01Z</time>
</trkpt>
<trkpt lat="50.516241788862665" lon="19.306132793425952">
<ele>378.63132</ele>
<time>2012-08-24T14:20:06Z</time>
</trkpt>
<trkpt lat="50.51609158515783" lon="19.305875301360523">
<ele>379.9252</ele>
<time>2012-08-24T14:20:11Z</time>
</trkpt>
<trkpt lat="50.51595211028906" lon="19.30566072463933">
<ele>380.74493</ele>
<time>2012-08-24T14:20:16Z</time>
</trkpt>
<trkpt lat="50.5157804489121" lon="19.30544614791814">
<ele>380.93948</ele>
<time>2012-08-24T14:20:21Z</time>
</trkpt>
<trkpt lat="50.51563024520727" lon="19.30523157119695">
<ele>380.98563</ele>
<time>2012-08-24T14:20:26Z</time>
</trkpt>
<trkpt lat="50.515469312666376" lon="19.304995536803638">
<ele>380.99658</ele>
<time>2012-08-24T14:20:31Z</time>
</trkpt>
<trkpt lat="50.51531910896154" lon="19.304759502410327">
<ele>381.24918</ele>
<time>2012-08-24T14:20:36Z</time>
</trkpt>
<trkpt lat="50.51515817642065" lon="19.304502010344898">
<ele>381.38434</ele>
<time>2012-08-24T14:20:41Z</time>
</trkpt>
<trkpt lat="50.515018701551874" lon="19.304287433623706">
<ele>381.1216</ele>
<time>2012-08-24T14:20:45Z</time>
</trkpt>
<trkpt lat="50.51485776901098" lon="19.304051399230396">
<ele>381.02887</ele>
<time>2012-08-24T14:20:50Z</time>
</trkpt>
<trkpt lat="50.51469683647009" lon="19.303836822509204">
<ele>381.69043</ele>
<time>2012-08-24T14:20:55Z</time>
</trkpt>
<trkpt lat="50.514514446257074" lon="19.303622245788013">
<ele>381.46454</ele>
<time>2012-08-24T14:20:59Z</time>
</trkpt>
<trkpt lat="50.51435351371618" lon="19.30345058441106">
<ele>381.44598</ele>
<time>2012-08-24T14:21:02Z</time>
</trkpt>
<trkpt lat="50.51418185233923" lon="19.303257465361987">
<ele>381.8247</ele>
<time>2012-08-24T14:21:06Z</time>
</trkpt>
<trkpt lat="50.51403164863439" lon="19.303085803985034">
<ele>381.94455</ele>
<time>2012-08-24T14:21:10Z</time>
</trkpt>
<trkpt lat="50.5138707160935" lon="19.302871227263843">
<ele>381.98685</ele>
<time>2012-08-24T14:21:15Z</time>
</trkpt>
<trkpt lat="50.513752698896845" lon="19.30265665054265">
<ele>382.43335</ele>
<time>2012-08-24T14:21:19Z</time>
</trkpt>
<trkpt lat="50.51364541053625" lon="19.302399158477222">
<ele>382.3832</ele>
<time>2012-08-24T14:21:23Z</time>
</trkpt>
<trkpt lat="50.51353812217565" lon="19.30216312408391">
<ele>382.12125</ele>
<time>2012-08-24T14:21:27Z</time>
</trkpt>
<trkpt lat="50.51345229148718" lon="19.30190563201848">
<ele>381.46024</ele>
<time>2012-08-24T14:21:31Z</time>
</trkpt>
<trkpt lat="50.51334500312658" lon="19.301605224608814">
<ele>381.10922</ele>
<time>2012-08-24T14:21:36Z</time>
</trkpt>
<trkpt lat="50.513237714765985" lon="19.301304817199146">
<ele>381.0259</ele>
<time>2012-08-24T14:21:41Z</time>
</trkpt>
<trkpt lat="50.51313042640539" lon="19.301047325133716">
<ele>381.00616</ele>
<time>2012-08-24T14:21:46Z</time>
</trkpt>
<trkpt lat="50.513012409208734" lon="19.300789833068286">
<ele>381.0011</ele>
<time>2012-08-24T14:21:52Z</time>
</trkpt>
<trkpt lat="50.51290512084814" lon="19.300532341002857">
<ele>381.00018</ele>
<time>2012-08-24T14:21:58Z</time>
</trkpt>
<trkpt lat="50.51279783248754" lon="19.300274848937427">
<ele>381.00003</ele>
<time>2012-08-24T14:22:04Z</time>
</trkpt>
<trkpt lat="50.51270127296301" lon="19.299995899199878">
<ele>381.0</ele>
<time>2012-08-24T14:22:10Z</time>
</trkpt>
<trkpt lat="50.51256179809423" lon="19.299759864806568">
<ele>381.0</ele>
<time>2012-08-24T14:22:16Z</time>
</trkpt>
<trkpt lat="50.5124115943894" lon="19.299545288085376">
<ele>381.82202</ele>
<time>2012-08-24T14:22:22Z</time>
</trkpt>
<trkpt lat="50.512250661848505" lon="19.299352169036304">
<ele>381.96832</ele>
<time>2012-08-24T14:22:28Z</time>
</trkpt>
<trkpt lat="50.51208972930761" lon="19.299137592315112">
<ele>381.99435</ele>
<time>2012-08-24T14:22:34Z</time>
</trkpt>
<trkpt lat="50.51192879676672" lon="19.29894447326604">
<ele>382.7617</ele>
<time>2012-08-24T14:22:40Z</time>
</trkpt>
<trkpt lat="50.511778593061884" lon="19.29872989654485">
<ele>382.9682</ele>
<time>2012-08-24T14:22:47Z</time>
</trkpt>
<trkpt lat="50.51161766052099" lon="19.298536777495777">
<ele>383.67792</ele>
<time>2012-08-24T14:22:53Z</time>
</trkpt>
<trkpt lat="50.511467456816156" lon="19.298322200774585">
<ele>384.36108</ele>
<time>2012-08-24T14:22:58Z</time>
</trkpt>
<trkpt lat="50.51130652427526" lon="19.298150539397632">
<ele>385.73145</ele>
<time>2012-08-24T14:23:02Z</time>
</trkpt>
<trkpt lat="50.51113486289831" lon="19.29793596267644">
<ele>386.69897</ele>
<time>2012-08-24T14:23:07Z</time>
</trkpt>
<trkpt lat="50.510984659193475" lon="19.29774284362737">
<ele>386.92856</ele>
<time>2012-08-24T14:23:12Z</time>
</trkpt>
<trkpt lat="50.51082372665258" lon="19.297506809234058">
<ele>386.98727</ele>
<time>2012-08-24T14:23:18Z</time>
</trkpt>
<trkpt lat="50.51067352294775" lon="19.297313690184986">
<ele>386.99698</ele>
<time>2012-08-24T14:23:23Z</time>
</trkpt>
<trkpt lat="50.510523319242914" lon="19.297120571135913">
<ele>386.9993</ele>
<time>2012-08-24T14:23:28Z</time>
</trkpt>
<trkpt lat="50.51037311553808" lon="19.29692745208684">
<ele>386.99982</ele>
<time>2012-08-24T14:23:33Z</time>
</trkpt>
<trkpt lat="50.510222911833246" lon="19.296755790709888">
<ele>387.76266</ele>
<time>2012-08-24T14:23:38Z</time>
</trkpt>
<trkpt lat="50.51006197929235" lon="19.296541213988696">
<ele>387.52026</ele>
<time>2012-08-24T14:23:44Z</time>
</trkpt>
<trkpt lat="50.50991177558752" lon="19.296369552611743">
<ele>387.12347</ele>
<time>2012-08-24T14:23:49Z</time>
</trkpt>
<trkpt lat="50.509729385374506" lon="19.296154975890552">
<ele>387.4668</ele>
<time>2012-08-24T14:23:54Z</time>
</trkpt>
<trkpt lat="50.50958991050573" lon="19.29596185684148">
<ele>387.8313</ele>
<time>2012-08-24T14:23:58Z</time>
</trkpt>
<trkpt lat="50.50945043563696" lon="19.295768737792407">
<ele>388.19662</ele>
<time>2012-08-24T14:24:02Z</time>
</trkpt>
<trkpt lat="50.50930023193212" lon="19.295554161071216">
<ele>388.80936</ele>
<time>2012-08-24T14:24:07Z</time>
</trkpt>
<trkpt lat="50.50912857055517" lon="19.295361042022144">
<ele>388.96606</ele>
<time>2012-08-24T14:24:13Z</time>
</trkpt>
<trkpt lat="50.508978366850336" lon="19.295597076415454">
<ele>390.11652</ele>
<time>2012-08-24T14:26:25Z</time>
</trkpt>
<trkpt lat="50.50890326499792" lon="19.295854568480884">
<ele>390.79034</ele>
<time>2012-08-24T14:26:30Z</time>
</trkpt>
<trkpt lat="50.5088281631455" lon="19.296133518218433">
<ele>390.95026</ele>
<time>2012-08-24T14:26:35Z</time>
</trkpt>
<trkpt lat="50.508753061293085" lon="19.29641246795598">
<ele>390.9882</ele>
<time>2012-08-24T14:26:40Z</time>
</trkpt>
<trkpt lat="50.50868868827673" lon="19.29671287536565">
<ele>390.9972</ele>
<time>2012-08-24T14:26:45Z</time>
</trkpt>
<trkpt lat="50.50862431526037" lon="19.297013282775318">
<ele>390.99933</ele>
<time>2012-08-24T14:26:50Z</time>
</trkpt>
<trkpt lat="50.50853848457189" lon="19.297292232512866">
<ele>390.99985</ele>
<time>2012-08-24T14:26:55Z</time>
</trkpt>
<trkpt lat="50.50844192504736" lon="19.297592639922534">
<ele>390.99997</ele>
<time>2012-08-24T14:27:00Z</time>
</trkpt>
<trkpt lat="50.50834536552282" lon="19.297850131987964">
<ele>391.25</ele>
<time>2012-08-24T14:27:04Z</time>
</trkpt>
<trkpt lat="50.508248805998285" lon="19.29817199706975">
<ele>391.13843</ele>
<time>2012-08-24T14:27:09Z</time>
</trkpt>
<trkpt lat="50.50816297530981" lon="19.29847240447942">
<ele>390.6063</ele>
<time>2012-08-24T14:27:13Z</time>
</trkpt>
<trkpt lat="50.50807714462133" lon="19.298772811889087">
<ele>390.19183</ele>
<time>2012-08-24T14:27:17Z</time>
</trkpt>
<trkpt lat="50.507991313932855" lon="19.299073219298755">
<ele>390.0607</ele>
<time>2012-08-24T14:27:21Z</time>
</trkpt>
<trkpt lat="50.50791621208044" lon="19.299373626708423">
<ele>390.0192</ele>
<time>2012-08-24T14:27:25Z</time>
</trkpt>
<trkpt lat="50.50784111022802" lon="19.29967403411809">
<ele>390.00607</ele>
<time>2012-08-24T14:27:29Z</time>
</trkpt>
<trkpt lat="50.5078196525559" lon="19.29997444152776">
<ele>389.4238</ele>
<time>2012-08-24T14:27:33Z</time>
</trkpt>
<trkpt lat="50.50778746604772" lon="19.300296306609546">
<ele>388.8841</ele>
<time>2012-08-24T14:27:37Z</time>
</trkpt>
<trkpt lat="50.507723093031366" lon="19.300596714019214">
<ele>388.27972</ele>
<time>2012-08-24T14:27:41Z</time>
</trkpt>
<trkpt lat="50.50765872001501" lon="19.300918579101">
<ele>388.0885</ele>
<time>2012-08-24T14:27:45Z</time>
</trkpt>
<trkpt lat="50.50757288932653" lon="19.30124044418279">
<ele>387.4499</ele>
<time>2012-08-24T14:27:49Z</time>
</trkpt>
<trkpt lat="50.507497787474115" lon="19.301519393920337">
<ele>387.14233</ele>
<time>2012-08-24T14:27:53Z</time>
</trkpt>
<trkpt lat="50.507497787474115" lon="19.301819801330005">
<ele>387.04504</ele>
<time>2012-08-24T14:27:57Z</time>
</trkpt>
<trkpt lat="50.50766944885107" lon="19.302012920379077">
<ele>387.26068</ele>
<time>2012-08-24T14:28:02Z</time>
</trkpt>
<trkpt lat="50.50785183906408" lon="19.30216312408391">
<ele>387.14096</ele>
<time>2012-08-24T14:28:07Z</time>
</trkpt>
<trkpt lat="50.508023500441034" lon="19.302270412444507">
<ele>387.03345</ele>
<time>2012-08-24T14:28:12Z</time>
</trkpt>
<trkpt lat="50.508216619490106" lon="19.302399158477222">
<ele>387.00595</ele>
<time>2012-08-24T14:28:18Z</time>
</trkpt>
<trkpt lat="50.50842046737524" lon="19.302527904509937">
<ele>387.00107</ele>
<time>2012-08-24T14:28:24Z</time>
</trkpt>
<trkpt lat="50.508474111555536" lon="19.302828311919605">
<ele>387.00018</ele>
<time>2012-08-24T14:28:30Z</time>
</trkpt>
<trkpt lat="50.5084311962113" lon="19.303107261657154">
<ele>387.43756</ele>
<time>2012-08-24T14:28:34Z</time>
</trkpt>
<trkpt lat="50.50836682319494" lon="19.30340766906682">
<ele>388.40018</ele>
<time>2012-08-24T14:28:38Z</time>
</trkpt>
<trkpt lat="50.508280992506464" lon="19.30366516113225">
<ele>389.7438</ele>
<time>2012-08-24T14:28:42Z</time>
</trkpt>
<trkpt lat="50.50820589065405" lon="19.30392265319768">
<ele>391.43066</ele>
<time>2012-08-24T14:28:46Z</time>
</trkpt>
<trkpt lat="50.50813078880163" lon="19.30418014526311">
<ele>392.94095</ele>
<time>2012-08-24T14:28:50Z</time>
</trkpt>
<trkpt lat="50.50806641578527" lon="19.30445909500066">
<ele>393.91492</ele>
<time>2012-08-24T14:28:54Z</time>
</trkpt>
<trkpt lat="50.507991313932855" lon="19.30471658706609">
<ele>394.65668</ele>
<time>2012-08-24T14:28:58Z</time>
</trkpt>
<trkpt lat="50.50790548324438" lon="19.304995536803638">
<ele>395.46948</ele>
<time>2012-08-24T14:29:02Z</time>
</trkpt>
<trkpt lat="50.50784111022802" lon="19.305274486541187">
<ele>395.83215</ele>
<time>2012-08-24T14:29:06Z</time>
</trkpt>
<trkpt lat="50.507744550703485" lon="19.305574893950855">
<ele>395.96017</ele>
<time>2012-08-24T14:29:11Z</time>
</trkpt>
<trkpt lat="50.50766944885107" lon="19.30591821670476">
<ele>395.99054</ele>
<time>2012-08-24T14:29:16Z</time>
</trkpt>
<trkpt lat="50.50758361816259" lon="19.30617570877019">
<ele>395.997</ele>
<time>2012-08-24T14:29:20Z</time>
</trkpt>
<trkpt lat="50.507508516310175" lon="19.30645465850774">
<ele>395.99905</ele>
<time>2012-08-24T14:29:24Z</time>
</trkpt>
<trkpt lat="50.5074226856217" lon="19.30673360824529">
<ele>395.9997</ele>
<time>2012-08-24T14:29:28Z</time>
</trkpt>
<trkpt lat="50.50733685493322" lon="19.307034015654956">
<ele>395.9999</ele>
<time>2012-08-24T14:29:32Z</time>
</trkpt>
<trkpt lat="50.507261753080805" lon="19.307312965392505">
<ele>395.99997</ele>
<time>2012-08-24T14:29:36Z</time>
</trkpt>
<trkpt lat="50.50717592239233" lon="19.307613372802173">
<ele>395.3164</ele>
<time>2012-08-24T14:29:40Z</time>
</trkpt>
<trkpt lat="50.50709009170385" lon="19.30791378021184">
<ele>395.1001</ele>
<time>2012-08-24T14:29:44Z</time>
</trkpt>
<trkpt lat="50.507004261015375" lon="19.30821418762151">
<ele>395.03168</ele>
<time>2012-08-24T14:29:48Z</time>
</trkpt>
<trkpt lat="50.50692915916296" lon="19.30847167968694">
<ele>395.01</ele>
<time>2012-08-24T14:29:52Z</time>
</trkpt>
<trkpt lat="50.50685405731054" lon="19.308750629424487">
<ele>395.00317</ele>
<time>2012-08-24T14:29:56Z</time>
</trkpt>
<trkpt lat="50.506757497786005" lon="19.309072494506275">
<ele>395.001</ele>
<time>2012-08-24T14:30:00Z</time>
</trkpt>
<trkpt lat="50.50667166709753" lon="19.309372901915943">
<ele>395.0003</ele>
<time>2012-08-24T14:30:04Z</time>
</trkpt>
<trkpt lat="50.50658583640905" lon="19.30967330932561">
<ele>395.0001</ele>
<time>2012-08-24T14:30:08Z</time>
</trkpt>
<trkpt lat="50.506510734556635" lon="19.30993080139104">
<ele>394.75003</ele>
<time>2012-08-24T14:30:11Z</time>
</trkpt>
<trkpt lat="50.50642490386816" lon="19.31018829345647">
<ele>394.31644</ele>
<time>2012-08-24T14:30:14Z</time>
</trkpt>
<trkpt lat="50.50633907317968" lon="19.31046724319402">
<ele>393.88348</ele>
<time>2012-08-24T14:30:17Z</time>
</trkpt>
<trkpt lat="50.506263971327265" lon="19.310767650603687">
<ele>393.3727</ele>
<time>2012-08-24T14:30:20Z</time>
</trkpt>
<trkpt lat="50.50616741180273" lon="19.311068058013355">
<ele>393.15726</ele>
<time>2012-08-24T14:30:23Z</time>
</trkpt>
<trkpt lat="50.50607085227819" lon="19.311368465423023">
<ele>393.06635</ele>
<time>2012-08-24T14:30:26Z</time>
</trkpt>
<trkpt lat="50.5059635639176" lon="19.311754703521167">
<ele>393.02798</ele>
<time>2012-08-24T14:30:29Z</time>
</trkpt>
<trkpt lat="50.50587773322912" lon="19.312033653258716">
<ele>392.76575</ele>
<time>2012-08-24T14:30:31Z</time>
</trkpt>
<trkpt lat="50.5058026313767" lon="19.312312602996265">
<ele>392.43073</ele>
<time>2012-08-24T14:30:33Z</time>
</trkpt>
<trkpt lat="50.505727529524286" lon="19.312591552733814">
<ele>392.24228</ele>
<time>2012-08-24T14:30:35Z</time>
</trkpt>
<trkpt lat="50.50565242767187" lon="19.312870502471362">
<ele>391.6988</ele>
<time>2012-08-24T14:30:37Z</time>
</trkpt>
<trkpt lat="50.50556659698339" lon="19.31317090988103">
<ele>391.14307</ele>
<time>2012-08-24T14:30:39Z</time>
</trkpt>
<trkpt lat="50.505491495130975" lon="19.3134713172907">
<ele>390.64297</ele>
<time>2012-08-24T14:30:41Z</time>
</trkpt>
<trkpt lat="50.5054056644425" lon="19.313771724700366">
<ele>390.36166</ele>
<time>2012-08-24T14:30:43Z</time>
</trkpt>
<trkpt lat="50.50531983375402" lon="19.314072132110034">
<ele>389.95343</ele>
<time>2012-08-24T14:30:45Z</time>
</trkpt>
<trkpt lat="50.505234003065546" lon="19.314372539519702">
<ele>389.53632</ele>
<time>2012-08-24T14:30:47Z</time>
</trkpt>
<trkpt lat="50.50514817237707" lon="19.31467294692937">
<ele>389.05167</ele>
<time>2012-08-24T14:30:49Z</time>
</trkpt>
<trkpt lat="50.50506234168859" lon="19.314994812011157">
<ele>388.59155</ele>
<time>2012-08-24T14:30:51Z</time>
</trkpt>
<trkpt lat="50.504976511000116" lon="19.315295219420825">
<ele>387.89526</ele>
<time>2012-08-24T14:30:53Z</time>
</trkpt>
<trkpt lat="50.50489068031164" lon="19.315595626830493">
<ele>387.25357</ele>
<time>2012-08-24T14:30:55Z</time>
</trkpt>
<trkpt lat="50.50481557845922" lon="19.31589603424016">
<ele>386.70514</ele>
<time>2012-08-24T14:30:57Z</time>
</trkpt>
<trkpt lat="50.504729747770746" lon="19.31617498397771">
<ele>386.39664</ele>
<time>2012-08-24T14:30:59Z</time>
</trkpt>
<trkpt lat="50.50466537475439" lon="19.31645393371526">
<ele>385.7856</ele>
<time>2012-08-24T14:31:01Z</time>
</trkpt>
<trkpt lat="50.50455808639379" lon="19.316818714141284">
<ele>384.89392</ele>
<time>2012-08-24T14:31:04Z</time>
</trkpt>
<trkpt lat="50.50446152686926" lon="19.31716203689519">
<ele>383.549</ele>
<time>2012-08-24T14:31:07Z</time>
</trkpt>
<trkpt lat="50.50437569618078" lon="19.31746244430486">
<ele>382.21597</ele>
<time>2012-08-24T14:31:10Z</time>
</trkpt>
<trkpt lat="50.50430059432836" lon="19.317762851714527">
<ele>380.93488</ele>
<time>2012-08-24T14:31:13Z</time>
</trkpt>
<trkpt lat="50.504225492475946" lon="19.318063259124195">
<ele>379.81628</ele>
<time>2012-08-24T14:31:16Z</time>
</trkpt>
<trkpt lat="50.50415039062353" lon="19.318363666533862">
<ele>378.76624</ele>
<time>2012-08-24T14:31:19Z</time>
</trkpt>
<trkpt lat="50.50407528877111" lon="19.31866407394353">
<ele>377.74515</ele>
<time>2012-08-24T14:31:22Z</time>
</trkpt>
<trkpt lat="50.503989458082636" lon="19.3189644813532">
<ele>377.31436</ele>
<time>2012-08-24T14:31:25Z</time>
</trkpt>
<trkpt lat="50.50391435623022" lon="19.319243431090747">
<ele>376.5545</ele>
<time>2012-08-24T14:31:28Z</time>
</trkpt>
<trkpt lat="50.50384998321386" lon="19.319522380828296">
<ele>375.79642</ele>
<time>2012-08-24T14:31:31Z</time>
</trkpt>
<trkpt lat="50.503774881361444" lon="19.319779872893726">
<ele>375.336</ele>
<time>2012-08-24T14:31:34Z</time>
</trkpt>
<trkpt lat="50.50369977950903" lon="19.320037364959155">
<ele>375.14175</ele>
<time>2012-08-24T14:31:37Z</time>
</trkpt>
<trkpt lat="50.50362467765661" lon="19.320316314696704">
<ele>375.0598</ele>
<time>2012-08-24T14:31:40Z</time>
</trkpt>
<trkpt lat="50.50354957580419" lon="19.320595264434253">
<ele>374.4471</ele>
<time>2012-08-24T14:31:43Z</time>
</trkpt>
<trkpt lat="50.50346374511572" lon="19.320874214171802">
<ele>373.6105</ele>
<time>2012-08-24T14:31:46Z</time>
</trkpt>
<trkpt lat="50.5033886432633" lon="19.32115316390935">
<ele>372.67944</ele>
<time>2012-08-24T14:31:49Z</time>
</trkpt>
<trkpt lat="50.50330281257482" lon="19.3214321136469">
<ele>371.84912</ele>
<time>2012-08-24T14:31:52Z</time>
</trkpt>
<trkpt lat="50.503227710722406" lon="19.321732521056568">
<ele>371.35822</ele>
<time>2012-08-24T14:31:55Z</time>
</trkpt>
<trkpt lat="50.50310969352575" lon="19.321990013121997">
<ele>370.67584</ele>
<time>2012-08-24T14:31:59Z</time>
</trkpt>
<trkpt lat="50.50291657447668" lon="19.32192564010564">
<ele>370.21384</ele>
<time>2012-08-24T14:32:03Z</time>
</trkpt>
<trkpt lat="50.502723455427606" lon="19.32171106338445">
<ele>369.63016</ele>
<time>2012-08-24T14:32:07Z</time>
</trkpt>
<trkpt lat="50.50255179405066" lon="19.32145357131902">
<ele>369.1994</ele>
<time>2012-08-24T14:32:11Z</time>
</trkpt>
<trkpt lat="50.50239086150977" lon="19.32119607925359">
<ele>368.3795</ele>
<time>2012-08-24T14:32:15Z</time>
</trkpt>
<trkpt lat="50.50226211547705" lon="19.320981502532398">
<ele>367.9101</ele>
<time>2012-08-24T14:32:18Z</time>
</trkpt>
<trkpt lat="50.50210118293616" lon="19.320724010466968">
<ele>367.03796</ele>
<time>2012-08-24T14:32:22Z</time>
</trkpt>
<trkpt lat="50.501929521559205" lon="19.32044506072942">
<ele>366.32843</ele>
<time>2012-08-24T14:32:26Z</time>
</trkpt>
<trkpt lat="50.50174713134619" lon="19.32018756866399">
<ele>365.42032</ele>
<time>2012-08-24T14:32:30Z</time>
</trkpt>
<trkpt lat="50.50159692764136" lon="19.319972991942798">
<ele>364.59918</ele>
<time>2012-08-24T14:32:33Z</time>
</trkpt>
<trkpt lat="50.501457452772584" lon="19.319758415221607">
<ele>363.81528</ele>
<time>2012-08-24T14:32:36Z</time>
</trkpt>
<trkpt lat="50.50129652023169" lon="19.319543838500415">
<ele>363.34396</ele>
<time>2012-08-24T14:32:39Z</time>
</trkpt>
<trkpt lat="50.50111413001868" lon="19.31943655013982">
<ele>362.567</ele>
<time>2012-08-24T14:32:42Z</time>
</trkpt>
<trkpt lat="50.500910282133546" lon="19.319479465484058">
<ele>362.2392</ele>
<time>2012-08-24T14:32:45Z</time>
</trkpt>
<trkpt lat="50.500717163084474" lon="19.319565296172534">
<ele>361.5228</ele>
<time>2012-08-24T14:32:48Z</time>
</trkpt>
<trkpt lat="50.50054550170752" lon="19.31967258453313">
<ele>361.22055</ele>
<time>2012-08-24T14:32:51Z</time>
</trkpt>
<trkpt lat="50.50037384033057" lon="19.319758415221607">
<ele>360.65555</ele>
<time>2012-08-24T14:32:54Z</time>
</trkpt>
<trkpt lat="50.50014853477332" lon="19.31988716125432">
<ele>359.76993</ele>
<time>2012-08-24T14:32:58Z</time>
</trkpt>
<trkpt lat="50.499933958052125" lon="19.320015907287036">
<ele>358.80612</ele>
<time>2012-08-24T14:33:02Z</time>
</trkpt>
<trkpt lat="50.499719381330934" lon="19.320123195647632">
<ele>358.25507</ele>
<time>2012-08-24T14:33:06Z</time>
</trkpt>
<trkpt lat="50.49950480460974" lon="19.320273399352466">
<ele>358.0807</ele>
<time>2012-08-24T14:33:10Z</time>
</trkpt>
<trkpt lat="50.49930095672461" lon="19.32038068771306">
<ele>358.02554</ele>
<time>2012-08-24T14:33:14Z</time>
</trkpt>
<trkpt lat="50.49910783767554" lon="19.32046651840154">
<ele>357.5706</ele>
<time>2012-08-24T14:33:18Z</time>
</trkpt>
<trkpt lat="50.498903989790406" lon="19.320509433745777">
<ele>356.74304</ele>
<time>2012-08-24T14:33:22Z</time>
</trkpt>
<trkpt lat="50.498710870741334" lon="19.320616722106372">
<ele>356.2351</ele>
<time>2012-08-24T14:33:26Z</time>
</trkpt>
<trkpt lat="50.49854993820044" lon="19.320809841155445">
<ele>356.0744</ele>
<time>2012-08-24T14:33:30Z</time>
</trkpt>
<trkpt lat="50.498421192167726" lon="19.321045875548755">
<ele>356.02353</ele>
<time>2012-08-24T14:33:34Z</time>
</trkpt>
<trkpt lat="50.49830317497107" lon="19.321281909942066">
<ele>356.00745</ele>
<time>2012-08-24T14:33:38Z</time>
</trkpt>
<trkpt lat="50.498163700102296" lon="19.321496486663257">
<ele>356.00235</ele>
<time>2012-08-24T14:33:42Z</time>
</trkpt>
<trkpt lat="50.49801349639746" lon="19.321732521056568">
<ele>355.31714</ele>
<time>2012-08-24T14:33:46Z</time>
</trkpt>
<trkpt lat="50.49778819084021" lon="19.321968555449878">
<ele>354.6963</ele>
<time>2012-08-24T14:33:49Z</time>
</trkpt>
<trkpt lat="50.49762725829932" lon="19.322097301482593">
<ele>354.39166</ele>
<time>2012-08-24T14:33:51Z</time>
</trkpt>
<trkpt lat="50.497412681578126" lon="19.322268962859546">
<ele>354.16522</ele>
<time>2012-08-24T14:33:54Z</time>
</trkpt>
<trkpt lat="50.497198104856935" lon="19.322483539580737">
<ele>354.5072</ele>
<time>2012-08-24T14:33:57Z</time>
</trkpt>
<trkpt lat="50.49701571464392" lon="19.32265520095769">
<ele>354.7921</ele>
<time>2012-08-24T14:34:00Z</time>
</trkpt>
<trkpt lat="50.49683332443091" lon="19.322891235351">
<ele>355.51236</ele>
<time>2012-08-24T14:34:04Z</time>
</trkpt>
<trkpt lat="50.496672391890016" lon="19.323084354400073">
<ele>355.8457</ele>
<time>2012-08-24T14:34:08Z</time>
</trkpt>
<trkpt lat="50.49651145934912" lon="19.323277473449146">
<ele>356.63477</ele>
<time>2012-08-24T14:34:12Z</time>
</trkpt>
<trkpt lat="50.49633979797217" lon="19.3234491348261">
<ele>357.32193</ele>
<time>2012-08-24T14:34:16Z</time>
</trkpt>
<trkpt lat="50.496157407759156" lon="19.323534965514575">
<ele>357.78546</ele>
<time>2012-08-24T14:34:20Z</time>
</trkpt>
<trkpt lat="50.495975017546144" lon="19.323556423186695">
<ele>357.93213</ele>
<time>2012-08-24T14:34:24Z</time>
</trkpt>
<trkpt lat="50.49578189849707" lon="19.323534965514575">
<ele>357.97852</ele>
<time>2012-08-24T14:34:28Z</time>
</trkpt>
<trkpt lat="50.495588779448" lon="19.323470592498218">
<ele>357.9932</ele>
<time>2012-08-24T14:34:32Z</time>
</trkpt>
<trkpt lat="50.49540638923499" lon="19.32338476180974">
<ele>357.41974</ele>
<time>2012-08-24T14:34:36Z</time>
</trkpt>
<trkpt lat="50.49523472785803" lon="19.323277473449146">
<ele>357.1328</ele>
<time>2012-08-24T14:34:40Z</time>
</trkpt>
<trkpt lat="50.49505233764502" lon="19.32314872741643">
<ele>357.04202</ele>
<time>2012-08-24T14:34:44Z</time>
</trkpt>
<trkpt lat="50.49484848975989" lon="19.323084354400073">
<ele>356.3297</ele>
<time>2012-08-24T14:34:48Z</time>
</trkpt>
<trkpt lat="50.49464464187476" lon="19.32319164276067">
<ele>356.1043</ele>
<time>2012-08-24T14:34:52Z</time>
</trkpt>
<trkpt lat="50.49448370933386" lon="19.32340621948186">
<ele>356.03302</ele>
<time>2012-08-24T14:34:56Z</time>
</trkpt>
<trkpt lat="50.494408607481446" lon="19.32370662689153">
<ele>356.01044</ele>
<time>2012-08-24T14:35:00Z</time>
</trkpt>
<trkpt lat="50.49435496330115" lon="19.324007034301196">
<ele>356.0033</ele>
<time>2012-08-24T14:35:04Z</time>
</trkpt>
<trkpt lat="50.49433350562903" lon="19.324328899382984">
<ele>356.00104</ele>
<time>2012-08-24T14:35:08Z</time>
</trkpt>
<trkpt lat="50.49429059028479" lon="19.32467222213689">
<ele>356.25034</ele>
<time>2012-08-24T14:35:12Z</time>
</trkpt>
<trkpt lat="50.49423694610449" lon="19.325015544890796">
<ele>356.7628</ele>
<time>2012-08-24T14:35:16Z</time>
</trkpt>
<trkpt lat="50.494204759596315" lon="19.325358867644702">
<ele>356.92496</ele>
<time>2012-08-24T14:35:20Z</time>
</trkpt>
<trkpt lat="50.494172573088136" lon="19.32563781738225">
<ele>356.96832</ele>
<time>2012-08-24T14:35:23Z</time>
</trkpt>
<trkpt lat="50.4941296577439" lon="19.3259167671198">
<ele>356.98663</ele>
<time>2012-08-24T14:35:26Z</time>
</trkpt>
<trkpt lat="50.4940760135636" lon="19.326260089873706">
<ele>356.3122</ele>
<time>2012-08-24T14:35:30Z</time>
</trkpt>
<trkpt lat="50.49400091171118" lon="19.326603412627612">
<ele>356.0988</ele>
<time>2012-08-24T14:35:34Z</time>
</trkpt>
<trkpt lat="50.493936538694825" lon="19.32694673538152">
<ele>356.03125</ele>
<time>2012-08-24T14:35:38Z</time>
</trkpt>
<trkpt lat="50.49386143684241" lon="19.327290058135425">
<ele>356.0099</ele>
<time>2012-08-24T14:35:42Z</time>
</trkpt>
<trkpt lat="50.49379706382605" lon="19.32765483856145">
<ele>356.68674</ele>
<time>2012-08-24T14:35:46Z</time>
</trkpt>
<trkpt lat="50.493721961973634" lon="19.328019618987476">
<ele>357.15088</ele>
<time>2012-08-24T14:35:50Z</time>
</trkpt>
<trkpt lat="50.49365758895728" lon="19.328320026397144">
<ele>357.48132</ele>
<time>2012-08-24T14:35:54Z</time>
</trkpt>
<trkpt lat="50.49358248710486" lon="19.32864189147893">
<ele>357.15228</ele>
<time>2012-08-24T14:35:58Z</time>
</trkpt>
<trkpt lat="50.49350738525244" lon="19.328985214232837">
<ele>356.7982</ele>
<time>2012-08-24T14:36:02Z</time>
</trkpt>
<trkpt lat="50.493432283400026" lon="19.329307079314624">
<ele>356.00256</ele>
<time>2012-08-24T14:36:06Z</time>
</trkpt>
<trkpt lat="50.49336791038367" lon="19.32962894439641">
<ele>355.0672</ele>
<time>2012-08-24T14:36:10Z</time>
</trkpt>
<trkpt lat="50.49331426620337" lon="19.32990789413396">
<ele>354.45023</ele>
<time>2012-08-24T14:36:13Z</time>
</trkpt>
<trkpt lat="50.49326062202307" lon="19.330208301543628">
<ele>354.18994</ele>
<time>2012-08-24T14:36:16Z</time>
</trkpt>
<trkpt lat="50.493185520170655" lon="19.330551624297534">
<ele>354.0601</ele>
<time>2012-08-24T14:36:20Z</time>
</trkpt>
<trkpt lat="50.49311041831824" lon="19.33089494705144">
<ele>354.019</ele>
<time>2012-08-24T14:36:24Z</time>
</trkpt>
<trkpt lat="50.49303531646582" lon="19.331238269805347">
<ele>354.006</ele>
<time>2012-08-24T14:36:28Z</time>
</trkpt>
<trkpt lat="50.492949485777345" lon="19.331581592559253">
<ele>353.42377</ele>
<time>2012-08-24T14:36:32Z</time>
</trkpt>
<trkpt lat="50.49287438392493" lon="19.33190345764104">
<ele>353.71222</ele>
<time>2012-08-24T14:36:36Z</time>
</trkpt>
<trkpt lat="50.49279928207251" lon="19.332225322722827">
<ele>354.84253</ele>
<time>2012-08-24T14:36:40Z</time>
</trkpt>
<trkpt lat="50.49273490905615" lon="19.332504272460376">
<ele>356.07126</ele>
<time>2012-08-24T14:36:44Z</time>
</trkpt>
<trkpt lat="50.492670536039796" lon="19.332804679870044">
<ele>356.70615</ele>
<time>2012-08-24T14:36:48Z</time>
</trkpt>
<trkpt lat="50.49260616302344" lon="19.33312654495183">
<ele>356.907</ele>
<time>2012-08-24T14:36:52Z</time>
</trkpt>
<trkpt lat="50.49254179000708" lon="19.333469867705737">
<ele>357.40808</ele>
<time>2012-08-24T14:36:56Z</time>
</trkpt>
<trkpt lat="50.492477416990724" lon="19.333748817443286">
<ele>358.2502</ele>
<time>2012-08-24T14:37:00Z</time>
</trkpt>
<trkpt lat="50.492413043974366" lon="19.334070682525073">
<ele>359.01276</ele>
<time>2012-08-24T14:37:04Z</time>
</trkpt>
<trkpt lat="50.49232721328589" lon="19.33439254760686">
<ele>360.80872</ele>
<time>2012-08-24T14:37:08Z</time>
</trkpt>
<trkpt lat="50.49226284026953" lon="19.334714412688648">
<ele>362.30667</ele>
<time>2012-08-24T14:37:12Z</time>
</trkpt>
<trkpt lat="50.492198467253175" lon="19.335057735442554">
<ele>363.21423</ele>
<time>2012-08-24T14:37:16Z</time>
</trkpt>
<trkpt lat="50.49213409423682" lon="19.33540105819646">
<ele>363.06778</ele>
<time>2012-08-24T14:37:20Z</time>
</trkpt>
<trkpt lat="50.49209117889258" lon="19.33568000793401">
<ele>363.0286</ele>
<time>2012-08-24T14:37:23Z</time>
</trkpt>
<trkpt lat="50.49202680587622" lon="19.336023330687915">
<ele>363.00903</ele>
<time>2012-08-24T14:37:27Z</time>
</trkpt>
<trkpt lat="50.491973161695924" lon="19.336302280425464">
<ele>363.0038</ele>
<time>2012-08-24T14:37:30Z</time>
</trkpt>
<trkpt lat="50.49190878867957" lon="19.336581230163013">
<ele>363.00162</ele>
<time>2012-08-24T14:37:33Z</time>
</trkpt>
<trkpt lat="50.49186587333533" lon="19.33688163757268">
<ele>363.00067</ele>
<time>2012-08-24T14:37:36Z</time>
</trkpt>
<trkpt lat="50.49181222915503" lon="19.33718204498235">
<ele>363.00027</ele>
<time>2012-08-24T14:37:39Z</time>
</trkpt>
<trkpt lat="50.49174785613867" lon="19.337460994719898">
<ele>363.00012</ele>
<time>2012-08-24T14:37:42Z</time>
</trkpt>
<trkpt lat="50.491683483122316" lon="19.337739944457446">
<ele>362.85944</ele>
<time>2012-08-24T14:37:45Z</time>
</trkpt>
<trkpt lat="50.4916083812699" lon="19.338040351867114">
<ele>362.9407</ele>
<time>2012-08-24T14:37:48Z</time>
</trkpt>
<trkpt lat="50.49153327941748" lon="19.338319301604663">
<ele>363.66248</ele>
<time>2012-08-24T14:37:51Z</time>
</trkpt>
<trkpt lat="50.491458177565065" lon="19.33866262435857">
<ele>366.52213</ele>
<time>2012-08-24T14:37:55Z</time>
</trkpt>
<trkpt lat="50.49137234687659" lon="19.339005947112476">
<ele>367.96597</ele>
<time>2012-08-24T14:37:59Z</time>
</trkpt>
<trkpt lat="50.49130797386023" lon="19.339284896850025">
<ele>367.98566</ele>
<time>2012-08-24T14:38:02Z</time>
</trkpt>
<trkpt lat="50.49124360084387" lon="19.33962821960393">
<ele>367.31186</ele>
<time>2012-08-24T14:38:06Z</time>
</trkpt>
<trkpt lat="50.491168498991456" lon="19.339971542357837">
<ele>366.41507</ele>
<time>2012-08-24T14:38:10Z</time>
</trkpt>
<trkpt lat="50.49109339713904" lon="19.340271949767505">
<ele>366.13135</ele>
<time>2012-08-24T14:38:14Z</time>
</trkpt>
<trkpt lat="50.49102902412268" lon="19.340593814849292">
<ele>365.79156</ele>
<time>2012-08-24T14:38:18Z</time>
</trkpt>
<trkpt lat="50.490964651106324" lon="19.3409371376032">
<ele>365.25046</ele>
<time>2012-08-24T14:38:22Z</time>
</trkpt>
<trkpt lat="50.49090027808997" lon="19.341259002684986">
<ele>366.01285</ele>
<time>2012-08-24T14:38:26Z</time>
</trkpt>
<trkpt lat="50.49083590507361" lon="19.341537952422534">
<ele>366.68765</ele>
<time>2012-08-24T14:38:30Z</time>
</trkpt>
<trkpt lat="50.49075007438513" lon="19.341838359832202">
<ele>366.9444</ele>
<time>2012-08-24T14:38:36Z</time>
</trkpt>
<trkpt lat="50.4905462265" lon="19.341795444487964">
<ele>365.53662</ele>
<time>2012-08-24T14:38:41Z</time>
</trkpt>
<trkpt lat="50.49036383628699" lon="19.341731071471607">
<ele>363.47058</ele>
<time>2012-08-24T14:38:45Z</time>
</trkpt>
<trkpt lat="50.490181446073976" lon="19.34166669845525">
<ele>360.51608</ele>
<time>2012-08-24T14:38:49Z</time>
</trkpt>
<trkpt lat="50.4899883270249" lon="19.341602325438892">
<ele>357.86252</ele>
<time>2012-08-24T14:38:53Z</time>
</trkpt>
<trkpt lat="50.48979520797583" lon="19.341516494750415">
<ele>356.1518</ele>
<time>2012-08-24T14:38:57Z</time>
</trkpt>
<trkpt lat="50.48960208892676" lon="19.34143066406194">
<ele>355.61444</ele>
<time>2012-08-24T14:39:01Z</time>
</trkpt>
<trkpt lat="50.48938751220557" lon="19.341344833373462">
<ele>356.346</ele>
<time>2012-08-24T14:39:06Z</time>
</trkpt>
<trkpt lat="50.489215850828614" lon="19.341259002684986">
<ele>356.79306</ele>
<time>2012-08-24T14:39:10Z</time>
</trkpt>
<trkpt lat="50.48900127410742" lon="19.34113025665227">
<ele>356.68454</ele>
<time>2012-08-24T14:39:14Z</time>
</trkpt>
<trkpt lat="50.48878669738623" lon="19.340980052947437">
<ele>355.96658</ele>
<time>2012-08-24T14:39:18Z</time>
</trkpt>
<trkpt lat="50.4885828495011" lon="19.340829849242603">
<ele>355.05585</ele>
<time>2012-08-24T14:39:22Z</time>
</trkpt>
<trkpt lat="50.48837900161597" lon="19.34067964553777">
<ele>353.75595</ele>
<time>2012-08-24T14:39:26Z</time>
</trkpt>
<trkpt lat="50.48826098441931" lon="19.340443611144458">
<ele>352.4167</ele>
<time>2012-08-24T14:39:31Z</time>
</trkpt>
<trkpt lat="50.488185882566896" lon="19.34018611907903">
<ele>352.07416</ele>
<time>2012-08-24T14:39:37Z</time>
</trkpt>
<trkpt lat="50.48814296722266" lon="19.33986425399724">
<ele>349.92776</ele>
<time>2012-08-24T14:39:42Z</time>
</trkpt>
<trkpt lat="50.48812150955054" lon="19.339542388915454">
<ele>348.20746</ele>
<time>2012-08-24T14:39:47Z</time>
</trkpt>
<trkpt lat="50.48806786537024" lon="19.339263439177905">
<ele>347.28653</ele>
<time>2012-08-24T14:39:52Z</time>
</trkpt>
<trkpt lat="50.48800349235388" lon="19.33894157409612">
<ele>348.4088</ele>
<time>2012-08-24T14:39:57Z</time>
</trkpt>
<trkpt lat="50.487960577009645" lon="19.33864116668645">
<ele>349.43784</ele>
<time>2012-08-24T14:40:02Z</time>
</trkpt>
<trkpt lat="50.487939119337526" lon="19.338319301604663">
<ele>349.8666</ele>
<time>2012-08-24T14:40:07Z</time>
</trkpt>
<trkpt lat="50.48786401748511" lon="19.338018894194995">
<ele>350.79828</ele>
<time>2012-08-24T14:40:13Z</time>
</trkpt>
<trkpt lat="50.48782110214087" lon="19.337718486785327">
<ele>350.9641</ele>
<time>2012-08-24T14:40:19Z</time>
</trkpt>
<trkpt lat="50.48782110214087" lon="19.33741807937566">
<ele>351.57806</ele>
<time>2012-08-24T14:40:42Z</time>
</trkpt>
<trkpt lat="50.48776745796057" lon="19.337096214293872">
<ele>351.46237</ele>
<time>2012-08-24T14:40:47Z</time>
</trkpt>
<trkpt lat="50.487703084944215" lon="19.336795806884204">
<ele>350.56818</ele>
<time>2012-08-24T14:40:51Z</time>
</trkpt>
<trkpt lat="50.487670898436036" lon="19.33711767196599">
<ele>348.10022</ele>
<time>2012-08-24T14:41:24Z</time>
</trkpt>
<trkpt lat="50.487681627272096" lon="19.33743953704778">
<ele>347.33426</ele>
<time>2012-08-24T14:41:30Z</time>
</trkpt>
<trkpt lat="50.4875206947312" lon="19.337568283080493">
<ele>346.79462</ele>
<time>2012-08-24T14:41:37Z</time>
</trkpt>
<trkpt lat="50.48732757568213" lon="19.337503910064136">
<ele>346.93503</ele>
<time>2012-08-24T14:41:41Z</time>
</trkpt>
<trkpt lat="50.487123727797" lon="19.33743953704778">
<ele>348.49115</ele>
<time>2012-08-24T14:41:45Z</time>
</trkpt>
<trkpt lat="50.486941337583986" lon="19.33741807937566">
<ele>350.20618</ele>
<time>2012-08-24T14:41:49Z</time>
</trkpt>
<trkpt lat="50.48675894737097" lon="19.33737516403142">
<ele>350.8587</ele>
<time>2012-08-24T14:41:55Z</time>
</trkpt>
<trkpt lat="50.48655509948584" lon="19.337353706359302">
<ele>350.98114</ele>
<time>2012-08-24T14:42:02Z</time>
</trkpt>
<trkpt lat="50.48637270927283" lon="19.337332248687183">
<ele>351.86462</ele>
<time>2012-08-24T14:42:10Z</time>
</trkpt>
<trkpt lat="50.486201047895875" lon="19.337246417998706">
<ele>351.97592</ele>
<time>2012-08-24T14:42:16Z</time>
</trkpt>
<trkpt lat="50.48602938651892" lon="19.33716058731023">
<ele>351.9957</ele>
<time>2012-08-24T14:42:22Z</time>
</trkpt>
<trkpt lat="50.48584699630591" lon="19.337053298949634">
<ele>351.2363</ele>
<time>2012-08-24T14:42:27Z</time>
</trkpt>
<trkpt lat="50.4856646060929" lon="19.33694601058904">
<ele>350.29337</ele>
<time>2012-08-24T14:42:32Z</time>
</trkpt>
<trkpt lat="50.48549294471594" lon="19.33686017990056">
<ele>350.0696</ele>
<time>2012-08-24T14:42:37Z</time>
</trkpt>
<trkpt lat="50.48531055450293" lon="19.336731433867847">
<ele>349.1884</ele>
<time>2012-08-24T14:42:42Z</time>
</trkpt>
<trkpt lat="50.48512816428992" lon="19.336581230163013">
<ele>348.282</ele>
<time>2012-08-24T14:42:47Z</time>
</trkpt>
<trkpt lat="50.484935045240846" lon="19.336452484130298">
<ele>348.50443</ele>
<time>2012-08-24T14:42:52Z</time>
</trkpt>
<trkpt lat="50.48475265502783" lon="19.336302280425464">
<ele>349.42133</ele>
<time>2012-08-24T14:42:56Z</time>
</trkpt>
<trkpt lat="50.48458099365088" lon="19.33619499206487">
<ele>350.7505</ele>
<time>2012-08-24T14:43:00Z</time>
</trkpt>
<trkpt lat="50.48439860343787" lon="19.336066246032154">
<ele>352.28162</ele>
<time>2012-08-24T14:43:05Z</time>
</trkpt>
<trkpt lat="50.484216213224855" lon="19.33591604232732">
<ele>352.82953</ele>
<time>2012-08-24T14:43:10Z</time>
</trkpt>
<trkpt lat="50.48403382301184" lon="19.335787296294605">
<ele>353.64313</ele>
<time>2012-08-24T14:43:15Z</time>
</trkpt>
<trkpt lat="50.48384070396277" lon="19.33565855026189">
<ele>354.49344</ele>
<time>2012-08-24T14:43:20Z</time>
</trkpt>
<trkpt lat="50.4836475849137" lon="19.335529804229175">
<ele>354.90985</ele>
<time>2012-08-24T14:43:26Z</time>
</trkpt>
<trkpt lat="50.483454465864625" lon="19.335358142852222">
<ele>356.0997</ele>
<time>2012-08-24T14:43:31Z</time>
</trkpt>
<trkpt lat="50.48328280448767" lon="19.335229396819507">
<ele>357.15265</ele>
<time>2012-08-24T14:43:35Z</time>
</trkpt>
<trkpt lat="50.4830896854386" lon="19.335079193114673">
<ele>357.7319</ele>
<time>2012-08-24T14:43:39Z</time>
</trkpt>
<trkpt lat="50.48288583755347" lon="19.334950447081958">
<ele>357.91516</ele>
<time>2012-08-24T14:43:43Z</time>
</trkpt>
<trkpt lat="50.482692718504396" lon="19.334800243377124">
<ele>357.97314</ele>
<time>2012-08-24T14:43:47Z</time>
</trkpt>
<trkpt lat="50.48252105712744" lon="19.33469295501653">
<ele>357.55402</ele>
<time>2012-08-24T14:43:51Z</time>
</trkpt>
<trkpt lat="50.48234939575049" lon="19.334585666655933">
<ele>356.7378</ele>
<time>2012-08-24T14:43:55Z</time>
</trkpt>
<trkpt lat="50.482188463209596" lon="19.334456920623218">
<ele>356.81155</ele>
<time>2012-08-24T14:43:59Z</time>
</trkpt>
<trkpt lat="50.48201680183264" lon="19.334349632262622">
<ele>356.94037</ele>
<time>2012-08-24T14:44:03Z</time>
</trkpt>
<trkpt lat="50.48182368278357" lon="19.334220886229907">
<ele>356.98584</ele>
<time>2012-08-24T14:44:08Z</time>
</trkpt>
<trkpt lat="50.48165202140662" lon="19.33411359786931">
<ele>356.9955</ele>
<time>2012-08-24T14:44:12Z</time>
</trkpt>
<trkpt lat="50.481448173521486" lon="19.333984851836597">
<ele>358.01163</ele>
<time>2012-08-24T14:44:17Z</time>
</trkpt>
<trkpt lat="50.48128724098059" lon="19.333856105803882">
<ele>359.1248</ele>
<time>2012-08-24T14:44:21Z</time>
</trkpt>
<trkpt lat="50.48109412193152" lon="19.333705902099048">
<ele>360.805</ele>
<time>2012-08-24T14:44:26Z</time>
</trkpt>
<trkpt lat="50.48090100288245" lon="19.333577156066333">
<ele>361.71643</ele>
<time>2012-08-24T14:44:31Z</time>
</trkpt>
<trkpt lat="50.480718612669435" lon="19.3334269523615">
<ele>361.9327</ele>
<time>2012-08-24T14:44:36Z</time>
</trkpt>
<trkpt lat="50.48052549362036" lon="19.333319664000904">
<ele>361.98404</ele>
<time>2012-08-24T14:44:41Z</time>
</trkpt>
<trkpt lat="50.48034310340735" lon="19.33319091796819">
<ele>361.99622</ele>
<time>2012-08-24T14:44:46Z</time>
</trkpt>
<trkpt lat="50.48013925552222" lon="19.333062171935474">
<ele>361.31573</ele>
<time>2012-08-24T14:44:52Z</time>
</trkpt>
<trkpt lat="50.479967594145265" lon="19.33291196823064">
<ele>360.63742</ele>
<time>2012-08-24T14:44:57Z</time>
</trkpt>
<trkpt lat="50.47979593276831" lon="19.332804679870044">
<ele>360.11343</ele>
<time>2012-08-24T14:45:03Z</time>
</trkpt>
<trkpt lat="50.47957062721106" lon="19.33267593383733">
<ele>360.00638</ele>
<time>2012-08-24T14:45:13Z</time>
</trkpt>
<trkpt lat="50.47938823699805" lon="19.332590103148853">
<ele>360.76334</ele>
<time>2012-08-24T14:45:21Z</time>
</trkpt>
<trkpt lat="50.479216575621095" lon="19.332461357116138">
<ele>361.22632</ele>
<time>2012-08-24T14:45:29Z</time>
</trkpt>
<trkpt lat="50.47904491424414" lon="19.332332611083423">
<ele>361.8623</ele>
<time>2012-08-24T14:45:35Z</time>
</trkpt>
<trkpt lat="50.47884106635901" lon="19.332203865050708">
<ele>361.98163</ele>
<time>2012-08-24T14:45:42Z</time>
</trkpt>
<trkpt lat="50.478680133818116" lon="19.332075119017993">
<ele>361.99564</ele>
<time>2012-08-24T14:45:47Z</time>
</trkpt>
<trkpt lat="50.47850847244116" lon="19.331967830657398">
<ele>361.99896</ele>
<time>2012-08-24T14:45:52Z</time>
</trkpt>
<trkpt lat="50.47830462455603" lon="19.331839084624683">
<ele>362.57797</ele>
<time>2012-08-24T14:45:59Z</time>
</trkpt>
<trkpt lat="50.47813296317908" lon="19.331710338591968">
<ele>362.9249</ele>
<time>2012-08-24T14:46:05Z</time>
</trkpt>
<trkpt lat="50.477972030638185" lon="19.331581592559253">
<ele>363.74933</ele>
<time>2012-08-24T14:46:11Z</time>
</trkpt>
<trkpt lat="50.477746725080934" lon="19.33143138885442">
<ele>364.99857</ele>
<time>2012-08-24T14:46:21Z</time>
</trkpt>
<trkpt lat="50.47755360603186" lon="19.331345558165943">
<ele>366.91245</ele>
<time>2012-08-24T14:46:29Z</time>
</trkpt>
<trkpt lat="50.47736048698279" lon="19.331238269805347">
<ele>369.05502</ele>
<time>2012-08-24T14:46:36Z</time>
</trkpt>
<trkpt lat="50.47716736793372" lon="19.33115243911687">
<ele>370.5154</ele>
<time>2012-08-24T14:46:42Z</time>
</trkpt>
<trkpt lat="50.476984977720704" lon="19.331238269805347">
<ele>372.17328</ele>
<time>2012-08-24T14:46:48Z</time>
</trkpt>
<trkpt lat="50.47682404517981" lon="19.33136701583806">
<ele>373.53647</ele>
<time>2012-08-24T14:46:54Z</time>
</trkpt>
<trkpt lat="50.47667384147498" lon="19.331538677215015">
<ele>374.49564</ele>
<time>2012-08-24T14:47:00Z</time>
</trkpt>
<trkpt lat="50.47652363777014" lon="19.331753253936206">
<ele>374.91022</ele>
<time>2012-08-24T14:47:06Z</time>
</trkpt>
<trkpt lat="50.47638416290137" lon="19.33194637298528">
<ele>374.216</ele>
<time>2012-08-24T14:47:11Z</time>
</trkpt>
<trkpt lat="50.476223230360475" lon="19.33213949203435">
<ele>373.02576</ele>
<time>2012-08-24T14:47:17Z</time>
</trkpt>
<trkpt lat="50.47605156898352" lon="19.332311153411304">
<ele>371.5588</ele>
<time>2012-08-24T14:47:24Z</time>
</trkpt>
<trkpt lat="50.47585844993445" lon="19.33239698409978">
<ele>370.3119</ele>
<time>2012-08-24T14:47:31Z</time>
</trkpt>
<trkpt lat="50.47566533088538" lon="19.3324184417719">
<ele>369.3113</ele>
<time>2012-08-24T14:47:36Z</time>
</trkpt>
<trkpt lat="50.475461483000245" lon="19.332461357116138">
<ele>368.2334</ele>
<time>2012-08-24T14:47:42Z</time>
</trkpt>
<trkpt lat="50.47525763511511" lon="19.33237552642766">
<ele>368.03116</ele>
<time>2012-08-24T14:47:49Z</time>
</trkpt>
<trkpt lat="50.4750752449021" lon="19.332246780394946">
<ele>368.0074</ele>
<time>2012-08-24T14:47:54Z</time>
</trkpt>
<trkpt lat="50.47488212585303" lon="19.33211803436223">
<ele>368.6849</ele>
<time>2012-08-24T14:48:00Z</time>
</trkpt>
<trkpt lat="50.474689006803956" lon="19.332032203673755">
<ele>368.9003</ele>
<time>2012-08-24T14:48:04Z</time>
</trkpt>
<trkpt lat="50.474517345427" lon="19.33194637298528">
<ele>368.96844</ele>
<time>2012-08-24T14:48:08Z</time>
</trkpt>
<trkpt lat="50.47432422637793" lon="19.331817626952564">
<ele>369.24252</ele>
<time>2012-08-24T14:48:13Z</time>
</trkpt>
<trkpt lat="50.47413110732886" lon="19.33168888091985">
<ele>370.07025</ele>
<time>2012-08-24T14:48:18Z</time>
</trkpt>
<trkpt lat="50.473959445951905" lon="19.331538677215015">
<ele>370.4558</ele>
<time>2012-08-24T14:48:22Z</time>
</trkpt>
<trkpt lat="50.473755598066774" lon="19.33136701583806">
<ele>370.1923</ele>
<time>2012-08-24T14:48:25Z</time>
</trkpt>
<trkpt lat="50.47359466552588" lon="19.331216812133228">
<ele>369.83112</ele>
<time>2012-08-24T14:48:28Z</time>
</trkpt>
<trkpt lat="50.47338008880469" lon="19.331023693084155">
<ele>368.82547</ele>
<time>2012-08-24T14:48:32Z</time>
</trkpt>
<trkpt lat="50.473197698591676" lon="19.330830574035083">
<ele>367.91074</ele>
<time>2012-08-24T14:48:35Z</time>
</trkpt>
<trkpt lat="50.47301530837866" lon="19.33063745498601">
<ele>367.38422</ele>
<time>2012-08-24T14:48:38Z</time>
</trkpt>
<trkpt lat="50.47285437583777" lon="19.330508708953296">
<ele>367.16208</ele>
<time>2012-08-24T14:48:41Z</time>
</trkpt>
<trkpt lat="50.4726612567887" lon="19.330337047576343">
<ele>367.0513</ele>
<time>2012-08-24T14:48:45Z</time>
</trkpt>
<trkpt lat="50.472500324247804" lon="19.33016538619939">
<ele>365.756</ele>
<time>2012-08-24T14:48:48Z</time>
</trkpt>
<trkpt lat="50.47232866287085" lon="19.329972267150318">
<ele>363.9127</ele>
<time>2012-08-24T14:48:51Z</time>
</trkpt>
<trkpt lat="50.4721570014939" lon="19.329800605773364">
<ele>362.55692</ele>
<time>2012-08-24T14:48:54Z</time>
</trkpt>
<trkpt lat="50.471963882444825" lon="19.32962894439641">
<ele>359.9809</ele>
<time>2012-08-24T14:48:58Z</time>
</trkpt>
<trkpt lat="50.47176003455969" lon="19.329478740691577">
<ele>357.36505</ele>
<time>2012-08-24T14:49:02Z</time>
</trkpt>
<trkpt lat="50.47156691551062" lon="19.329307079314624">
<ele>356.18192</ele>
<time>2012-08-24T14:49:06Z</time>
</trkpt>
<trkpt lat="50.47140598296973" lon="19.32917833328191">
<ele>354.93646</ele>
<time>2012-08-24T14:49:10Z</time>
</trkpt>
<trkpt lat="50.471234321592775" lon="19.329028129577075">
<ele>354.0463</ele>
<time>2012-08-24T14:49:14Z</time>
</trkpt>
<trkpt lat="50.47105193137976" lon="19.32889938354436">
<ele>351.802</ele>
<time>2012-08-24T14:49:19Z</time>
</trkpt>
<trkpt lat="50.47086954116675" lon="19.328770637511646">
<ele>350.56625</ele>
<time>2012-08-24T14:49:23Z</time>
</trkpt>
<trkpt lat="50.470697879789796" lon="19.32866334915105">
<ele>349.49557</ele>
<time>2012-08-24T14:49:27Z</time>
</trkpt>
<trkpt lat="50.470504760740724" lon="19.328534603118335">
<ele>349.4068</ele>
<time>2012-08-24T14:49:31Z</time>
</trkpt>
<trkpt lat="50.47032237052771" lon="19.3283843994135">
<ele>349.81232</ele>
<time>2012-08-24T14:49:35Z</time>
</trkpt>
<trkpt lat="50.4701399803147" lon="19.32819128036443">
<ele>354.65936</ele>
<time>2012-08-24T14:49:39Z</time>
</trkpt>
<trkpt lat="50.469946861265626" lon="19.328019618987476">
<ele>358.39474</ele>
<time>2012-08-24T14:49:44Z</time>
</trkpt>
<trkpt lat="50.46976447105261" lon="19.327869415282642">
<ele>361.9374</ele>
<time>2012-08-24T14:49:48Z</time>
</trkpt>
<trkpt lat="50.46960353851172" lon="19.32769775390569">
<ele>365.98923</ele>
<time>2012-08-24T14:49:51Z</time>
</trkpt>
<trkpt lat="50.469442605970826" lon="19.327504634856616">
<ele>368.49545</ele>
<time>2012-08-24T14:49:54Z</time>
</trkpt>
<trkpt lat="50.46929240226599" lon="19.327332973479663">
<ele>369.36526</ele>
<time>2012-08-24T14:49:57Z</time>
</trkpt>
<trkpt lat="50.46911001205298" lon="19.32713985443059">
<ele>369.79916</ele>
<time>2012-08-24T14:50:01Z</time>
</trkpt>
<trkpt lat="50.468949079512086" lon="19.32694673538152">
<ele>368.79028</ele>
<time>2012-08-24T14:50:04Z</time>
</trkpt>
<trkpt lat="50.46878814697119" lon="19.326753616332446">
<ele>366.73965</ele>
<time>2012-08-24T14:50:07Z</time>
</trkpt>
<trkpt lat="50.46860575675818" lon="19.326539039611255">
<ele>364.4683</ele>
<time>2012-08-24T14:50:10Z</time>
</trkpt>
<trkpt lat="50.46840190887305" lon="19.326303005217945">
<ele>362.60382</ele>
<time>2012-08-24T14:50:13Z</time>
</trkpt>
<trkpt lat="50.468219518660035" lon="19.326088428496753">
<ele>361.6766</ele>
<time>2012-08-24T14:50:16Z</time>
</trkpt>
<trkpt lat="50.46802639961096" lon="19.32589530944768">
<ele>361.03543</ele>
<time>2012-08-24T14:50:19Z</time>
</trkpt>
<trkpt lat="50.46786546707007" lon="19.325723648070728">
<ele>360.33243</ele>
<time>2012-08-24T14:50:21Z</time>
</trkpt>
<trkpt lat="50.467704534529176" lon="19.325573444365894">
<ele>359.31198</ele>
<time>2012-08-24T14:50:23Z</time>
</trkpt>
<trkpt lat="50.467489957807985" lon="19.325358867644702">
<ele>357.97537</ele>
<time>2012-08-24T14:50:26Z</time>
</trkpt>
<trkpt lat="50.46730756759497" lon="19.32516574859563">
<ele>356.974</ele>
<time>2012-08-24T14:50:29Z</time>
</trkpt>
<trkpt lat="50.46713590621802" lon="19.324972629546558">
<ele>356.4109</ele>
<time>2012-08-24T14:50:32Z</time>
</trkpt>
<trkpt lat="50.466964244841066" lon="19.324822425841724">
<ele>355.92334</ele>
<time>2012-08-24T14:50:35Z</time>
</trkpt>
<trkpt lat="50.466760396955934" lon="19.32462930679265">
<ele>355.54214</ele>
<time>2012-08-24T14:50:39Z</time>
</trkpt>
<trkpt lat="50.46659946441504" lon="19.324500560759937">
<ele>356.24435</ele>
<time>2012-08-24T14:50:42Z</time>
</trkpt>
<trkpt lat="50.46641707420203" lon="19.324350357055103">
<ele>357.882</ele>
<time>2012-08-24T14:50:46Z</time>
</trkpt>
<trkpt lat="50.466223955152955" lon="19.32415723800603">
<ele>358.64627</ele>
<time>2012-08-24T14:50:50Z</time>
</trkpt>
<trkpt lat="50.46603083610388" lon="19.323964118956958">
<ele>358.30994</ele>
<time>2012-08-24T14:50:54Z</time>
</trkpt>
<trkpt lat="50.46586990356299" lon="19.323792457580005">
<ele>357.44327</ele>
<time>2012-08-24T14:50:57Z</time>
</trkpt>
<trkpt lat="50.465698242186036" lon="19.32364225387517">
<ele>356.3589</ele>
<time>2012-08-24T14:51:00Z</time>
</trkpt>
<trkpt lat="50.465505123136964" lon="19.323470592498218">
<ele>355.32327</ele>
<time>2012-08-24T14:51:03Z</time>
</trkpt>
<trkpt lat="50.46531200408789" lon="19.323256015777027">
<ele>355.13638</ele>
<time>2012-08-24T14:51:06Z</time>
</trkpt>
<trkpt lat="50.46511888503882" lon="19.323041439055835">
<ele>355.49503</ele>
<time>2012-08-24T14:51:09Z</time>
</trkpt>
<trkpt lat="50.46492576598975" lon="19.322826862334644">
<ele>355.78696</ele>
<time>2012-08-24T14:51:12Z</time>
</trkpt>
<trkpt lat="50.464754104612794" lon="19.32265520095769">
<ele>356.34763</ele>
<time>2012-08-24T14:51:15Z</time>
</trkpt>
<trkpt lat="50.46457171439978" lon="19.322483539580737">
<ele>356.54358</ele>
<time>2012-08-24T14:51:19Z</time>
</trkpt>
<trkpt lat="50.46436786651465" lon="19.322311878203784">
<ele>355.05988</ele>
<time>2012-08-24T14:51:26Z</time>
</trkpt>
<trkpt lat="50.46418547630164" lon="19.32216167449895">
<ele>353.4579</ele>
<time>2012-08-24T14:51:33Z</time>
</trkpt>
<trkpt lat="50.464003086088624" lon="19.322032928466236">
<ele>353.14487</ele>
<time>2012-08-24T14:51:37Z</time>
</trkpt>
<trkpt lat="50.46382069587561" lon="19.321861267089282">
<ele>353.04584</ele>
<time>2012-08-24T14:51:41Z</time>
</trkpt>
<trkpt lat="50.46367049217078" lon="19.32168960571233">
<ele>353.01935</ele>
<time>2012-08-24T14:51:44Z</time>
</trkpt>
<trkpt lat="50.463466644285646" lon="19.321496486663257">
<ele>353.25223</ele>
<time>2012-08-24T14:51:48Z</time>
</trkpt>
<trkpt lat="50.46328425407263" lon="19.321303367614185">
<ele>351.8408</ele>
<time>2012-08-24T14:51:51Z</time>
</trkpt>
<trkpt lat="50.46309113502356" lon="19.32113170623723">
<ele>349.51096</ele>
<time>2012-08-24T14:51:54Z</time>
</trkpt>
<trkpt lat="50.46291947364661" lon="19.320981502532398">
<ele>346.79367</ele>
<time>2012-08-24T14:51:57Z</time>
</trkpt>
<trkpt lat="50.462758541105714" lon="19.320852756499683">
<ele>344.7411</ele>
<time>2012-08-24T14:52:00Z</time>
</trkpt>
<trkpt lat="50.46256542205664" lon="19.32063817977849">
<ele>343.1134</ele>
<time>2012-08-24T14:52:04Z</time>
</trkpt>
<trkpt lat="50.46234011649939" lon="19.3204236030573">
<ele>342.19815</ele>
<time>2012-08-24T14:52:10Z</time>
</trkpt>
<trkpt lat="50.46214699745032" lon="19.320230484008228">
<ele>341.1461</ele>
<time>2012-08-24T14:52:13Z</time>
</trkpt>
<trkpt lat="50.461953878401246" lon="19.320058822631275">
<ele>338.63977</ele>
<time>2012-08-24T14:52:16Z</time>
</trkpt>
<trkpt lat="50.46178221702429" lon="19.319865703582202">
<ele>336.28552</ele>
<time>2012-08-24T14:52:19Z</time>
</trkpt>
<trkpt lat="50.4616212844834" lon="19.31967258453313">
<ele>334.5267</ele>
<time>2012-08-24T14:52:22Z</time>
</trkpt>
<trkpt lat="50.461460351942506" lon="19.319522380828296">
<ele>333.64407</ele>
<time>2012-08-24T14:52:25Z</time>
</trkpt>
<trkpt lat="50.46128869056555" lon="19.319350719451343">
<ele>332.6936</ele>
<time>2012-08-24T14:52:28Z</time>
</trkpt>
<trkpt lat="50.46112775802466" lon="19.31917905807439">
<ele>332.2926</ele>
<time>2012-08-24T14:52:31Z</time>
</trkpt>
<trkpt lat="50.460956096647706" lon="19.319007396697437">
<ele>332.95157</ele>
<time>2012-08-24T14:52:34Z</time>
</trkpt>
<trkpt lat="50.46079516410681" lon="19.318857192992603">
<ele>333.9952</ele>
<time>2012-08-24T14:52:37Z</time>
</trkpt>
<trkpt lat="50.46060204505774" lon="19.31866407394353">
<ele>335.5102</ele>
<time>2012-08-24T14:52:41Z</time>
</trkpt>
<trkpt lat="50.46040892600867" lon="19.318470954894458">
<ele>338.23175</ele>
<time>2012-08-24T14:52:45Z</time>
</trkpt>
<trkpt lat="50.460247993467775" lon="19.318320751189624">
<ele>341.53528</ele>
<time>2012-08-24T14:52:48Z</time>
</trkpt>
<trkpt lat="50.46008706092688" lon="19.31817054748479">
<ele>343.97583</ele>
<time>2012-08-24T14:52:51Z</time>
</trkpt>
<trkpt lat="50.45991539954993" lon="19.318041801452075">
<ele>345.72418</ele>
<time>2012-08-24T14:52:54Z</time>
</trkpt>
<trkpt lat="50.459743738172975" lon="19.31793451309148">
<ele>347.2899</ele>
<time>2012-08-24T14:52:57Z</time>
</trkpt>
<trkpt lat="50.45958280563208" lon="19.317784309386646">
<ele>348.45892</ele>
<time>2012-08-24T14:53:01Z</time>
</trkpt>
<trkpt lat="50.45940041541907" lon="19.31765556335393">
<ele>348.87158</ele>
<time>2012-08-24T14:53:06Z</time>
</trkpt>
<trkpt lat="50.459239482878175" lon="19.317505359649097">
<ele>348.96954</ele>
<time>2012-08-24T14:53:11Z</time>
</trkpt>
<trkpt lat="50.45907855033728" lon="19.317333698272144">
<ele>348.99277</ele>
<time>2012-08-24T14:53:16Z</time>
</trkpt>
<trkpt lat="50.45891761779639" lon="19.31718349456731">
<ele>348.9983</ele>
<time>2012-08-24T14:53:21Z</time>
</trkpt>
<trkpt lat="50.458735227583375" lon="19.317011833190357">
<ele>348.3161</ele>
<time>2012-08-24T14:53:27Z</time>
</trkpt>
<trkpt lat="50.4585421085343" lon="19.316818714141284">
<ele>348.1</ele>
<time>2012-08-24T14:53:31Z</time>
</trkpt>
<trkpt lat="50.45835971832129" lon="19.316604137420093">
<ele>346.05783</ele>
<time>2012-08-24T14:53:34Z</time>
</trkpt>
<trkpt lat="50.4581987857804" lon="19.31643247604314">
<ele>343.74313</ele>
<time>2012-08-24T14:53:37Z</time>
</trkpt>
<trkpt lat="50.457994937895265" lon="19.31621789932195">
<ele>339.91873</ele>
<time>2012-08-24T14:53:41Z</time>
</trkpt>
<trkpt lat="50.45781254768225" lon="19.316067695617114">
<ele>337.9235</ele>
<time>2012-08-24T14:53:45Z</time>
</trkpt>
<trkpt lat="50.45761942863318" lon="19.31591749191228">
<ele>336.78165</ele>
<time>2012-08-24T14:53:50Z</time>
</trkpt>
<trkpt lat="50.457469224928346" lon="19.316089153289234">
<ele>335.9355</ele>
<time>2012-08-24T14:53:55Z</time>
</trkpt>
<trkpt lat="50.45732975005957" lon="19.316303730010425">
<ele>338.12524</ele>
<time>2012-08-24T14:54:01Z</time>
</trkpt>
<trkpt lat="50.457233190535035" lon="19.316561222075855">
<ele>338.8676</ele>
<time>2012-08-24T14:54:06Z</time>
</trkpt>
<trkpt lat="50.45720100402686" lon="19.316840171813404">
<ele>337.5223</ele>
<time>2012-08-24T14:54:11Z</time>
</trkpt>
<trkpt lat="50.457211732862916" lon="19.31714057922307">
<ele>336.65546</ele>
<time>2012-08-24T14:54:17Z</time>
</trkpt>
<trkpt lat="50.457222461698976" lon="19.31746244430486">
<ele>335.4039</ele>
<time>2012-08-24T14:54:24Z</time>
</trkpt>
<trkpt lat="50.457243919371095" lon="19.317784309386646">
<ele>334.84586</ele>
<time>2012-08-24T14:54:29Z</time>
</trkpt>
<trkpt lat="50.457265377043214" lon="19.318084716796314">
<ele>334.26764</ele>
<time>2012-08-24T14:54:33Z</time>
</trkpt>
<trkpt lat="50.45734047889563" lon="19.318342208861743">
<ele>334.0635</ele>
<time>2012-08-24T14:54:38Z</time>
</trkpt>
<trkpt lat="50.45740485191199" lon="19.318621158599292">
<ele>334.01508</ele>
<time>2012-08-24T14:54:43Z</time>
</trkpt>
<trkpt lat="50.457469224928346" lon="19.31892156600896">
<ele>334.44107</ele>
<time>2012-08-24T14:54:48Z</time>
</trkpt>
<trkpt lat="50.457490682600465" lon="19.319243431090747">
<ele>334.18378</ele>
<time>2012-08-24T14:54:53Z</time>
</trkpt>
<trkpt lat="50.457458496092286" lon="19.319586753844654">
<ele>334.0436</ele>
<time>2012-08-24T14:54:58Z</time>
</trkpt>
<trkpt lat="50.45742630958411" lon="19.31995153427068">
<ele>334.01035</ele>
<time>2012-08-24T14:55:03Z</time>
</trkpt>
<trkpt lat="50.45738339423987" lon="19.320230484008228">
<ele>334.00327</ele>
<time>2012-08-24T14:55:07Z</time>
</trkpt>
<trkpt lat="50.45735120773169" lon="19.320552349090015">
<ele>334.57916</ele>
<time>2012-08-24T14:55:11Z</time>
</trkpt>
<trkpt lat="50.45731902122351" lon="19.32089567184392">
<ele>335.44498</ele>
<time>2012-08-24T14:55:15Z</time>
</trkpt>
<trkpt lat="50.45731902122351" lon="19.321281909942066">
<ele>337.57834</ele>
<time>2012-08-24T14:55:18Z</time>
</trkpt>
<trkpt lat="50.45730829238745" lon="19.321603775023853">
<ele>340.5721</ele>
<time>2012-08-24T14:55:21Z</time>
</trkpt>
<trkpt lat="50.45734047889563" lon="19.32192564010564">
<ele>343.18655</ele>
<time>2012-08-24T14:55:26Z</time>
</trkpt>
<trkpt lat="50.45738339423987" lon="19.322268962859546">
<ele>343.36948</ele>
<time>2012-08-24T14:55:31Z</time>
</trkpt>
<trkpt lat="50.45735120773169" lon="19.322612285613452">
<ele>338.89035</ele>
<time>2012-08-24T14:55:35Z</time>
</trkpt>
<trkpt lat="50.457276105879274" lon="19.322869777678882">
<ele>335.3756</ele>
<time>2012-08-24T14:55:38Z</time>
</trkpt>
<trkpt lat="50.457211732862916" lon="19.32314872741643">
<ele>333.86157</ele>
<time>2012-08-24T14:55:41Z</time>
</trkpt>
<trkpt lat="50.45714735984656" lon="19.323492050170337">
<ele>333.9562</ele>
<time>2012-08-24T14:55:45Z</time>
</trkpt>
<trkpt lat="50.45709371566626" lon="19.323856830596362">
<ele>337.44708</ele>
<time>2012-08-24T14:55:49Z</time>
</trkpt>
<trkpt lat="50.45706152915808" lon="19.32417869567815">
<ele>341.13754</ele>
<time>2012-08-24T14:55:53Z</time>
</trkpt>
<trkpt lat="50.456986427305665" lon="19.32443618774358">
<ele>342.98883</ele>
<time>2012-08-24T14:55:57Z</time>
</trkpt>
<trkpt lat="50.45686841010901" lon="19.32465076446477">
<ele>344.01093</ele>
<time>2012-08-24T14:56:00Z</time>
</trkpt>
<trkpt lat="50.456718206404176" lon="19.32488679885808">
<ele>345.02023</ele>
<time>2012-08-24T14:56:03Z</time>
</trkpt>
<trkpt lat="50.45654654502722" lon="19.325122833251392">
<ele>346.6236</ele>
<time>2012-08-24T14:56:07Z</time>
</trkpt>
<trkpt lat="50.45639634132239" lon="19.325337409972583">
<ele>348.2515</ele>
<time>2012-08-24T14:56:12Z</time>
</trkpt>
<trkpt lat="50.456246137617555" lon="19.325551986693775">
<ele>350.1632</ele>
<time>2012-08-24T14:56:17Z</time>
</trkpt>
<trkpt lat="50.45610666274878" lon="19.325745105742847">
<ele>351.92252</ele>
<time>2012-08-24T14:56:22Z</time>
</trkpt>
<trkpt lat="50.45594573020789" lon="19.32595968246404">
<ele>352.9091</ele>
<time>2012-08-24T14:56:26Z</time>
</trkpt>
<trkpt lat="50.455763339994874" lon="19.32613134384099">
<ele>353.90482</ele>
<time>2012-08-24T14:56:30Z</time>
</trkpt>
<trkpt lat="50.45560240745398" lon="19.326324462890064">
<ele>355.1776</ele>
<time>2012-08-24T14:56:35Z</time>
</trkpt>
<trkpt lat="50.45545220374915" lon="19.326539039611255">
<ele>356.38297</ele>
<time>2012-08-24T14:56:40Z</time>
</trkpt>
<trkpt lat="50.45530200004431" lon="19.326775074004566">
<ele>357.4317</ele>
<time>2012-08-24T14:56:45Z</time>
</trkpt>
<trkpt lat="50.45515179633948" lon="19.327011108397876">
<ele>358.44327</ele>
<time>2012-08-24T14:56:50Z</time>
</trkpt>
<trkpt lat="50.455001592634645" lon="19.327247142791187">
<ele>359.80148</ele>
<time>2012-08-24T14:56:55Z</time>
</trkpt>
<trkpt lat="50.45486211776587" lon="19.327504634856616">
<ele>361.2937</ele>
<time>2012-08-24T14:57:00Z</time>
</trkpt>
<trkpt lat="50.45470118522498" lon="19.327719211577808">
<ele>363.17322</ele>
<time>2012-08-24T14:57:05Z</time>
</trkpt>
<trkpt lat="50.45454025268408" lon="19.32791233062688">
<ele>364.8165</ele>
<time>2012-08-24T14:57:10Z</time>
</trkpt>
<trkpt lat="50.45437932014319" lon="19.32812690734807">
<ele>365.71915</ele>
<time>2012-08-24T14:57:15Z</time>
</trkpt>
<trkpt lat="50.454239845274415" lon="19.328320026397144">
<ele>365.93335</ele>
<time>2012-08-24T14:57:20Z</time>
</trkpt>
<trkpt lat="50.4541110992417" lon="19.328749179839527">
<ele>364.08075</ele>
<time>2012-08-24T14:57:28Z</time>
</trkpt>
<trkpt lat="50.45407891273352" lon="19.329049587249195">
<ele>362.67834</ele>
<time>2012-08-24T14:57:33Z</time>
</trkpt>
<trkpt lat="50.4540574550614" lon="19.329349994658862">
<ele>361.28104</ele>
<time>2012-08-24T14:57:37Z</time>
</trkpt>
<trkpt lat="50.45403599738928" lon="19.32967185974065">
<ele>360.54044</ele>
<time>2012-08-24T14:57:40Z</time>
</trkpt>
<trkpt lat="50.453982353208986" lon="19.330015182494556">
<ele>360.171</ele>
<time>2012-08-24T14:57:44Z</time>
</trkpt>
<trkpt lat="50.454003810881105" lon="19.330315589904224">
<ele>359.59293</ele>
<time>2012-08-24T14:57:50Z</time>
</trkpt>
<trkpt lat="50.454025268553224" lon="19.330615997313892">
<ele>357.8196</ele>
<time>2012-08-24T14:57:57Z</time>
</trkpt>
<trkpt lat="50.45403599738928" lon="19.330959320067798">
<ele>355.45926</ele>
<time>2012-08-24T14:58:04Z</time>
</trkpt>
<trkpt lat="50.45403599738928" lon="19.331259727477466">
<ele>353.0595</ele>
<time>2012-08-24T14:58:10Z</time>
</trkpt>
<trkpt lat="50.4540574550614" lon="19.331560134887134">
<ele>351.75107</ele>
<time>2012-08-24T14:58:16Z</time>
</trkpt>
<trkpt lat="50.45410037040564" lon="19.331839084624683">
<ele>351.17822</ele>
<time>2012-08-24T14:58:21Z</time>
</trkpt>
<trkpt lat="50.45415401458594" lon="19.33213949203435">
<ele>350.47827</ele>
<time>2012-08-24T14:58:25Z</time>
</trkpt>
<trkpt lat="50.45420765876624" lon="19.33243989944402">
<ele>350.20178</ele>
<time>2012-08-24T14:58:28Z</time>
</trkpt>
<trkpt lat="50.454261302946534" lon="19.332783222197925">
<ele>350.06384</ele>
<time>2012-08-24T14:58:32Z</time>
</trkpt>
<trkpt lat="50.454272031782594" lon="19.33314800262395">
<ele>351.71942</ele>
<time>2012-08-24T14:58:36Z</time>
</trkpt>
<trkpt lat="50.45420765876624" lon="19.33344841003362">
<ele>349.9285</ele>
<time>2012-08-24T14:58:39Z</time>
</trkpt>
<trkpt lat="50.454164743422" lon="19.333727359771167">
<ele>345.40317</ele>
<time>2012-08-24T14:58:43Z</time>
</trkpt>
<trkpt lat="50.45413255691382" lon="19.334006309508716">
<ele>344.26382</ele>
<time>2012-08-24T14:58:46Z</time>
</trkpt>
<trkpt lat="50.45410037040564" lon="19.33437108993474">
<ele>345.78268</ele>
<time>2012-08-24T14:58:50Z</time>
</trkpt>
<trkpt lat="50.45406818389746" lon="19.33467149734441">
<ele>347.98593</ele>
<time>2012-08-24T14:58:54Z</time>
</trkpt>
<trkpt lat="50.45404672622534" lon="19.335014820098316">
<ele>350.45566</ele>
<time>2012-08-24T14:58:59Z</time>
</trkpt>
<trkpt lat="50.45407891273352" lon="19.335336685180103">
<ele>351.6335</ele>
<time>2012-08-24T14:59:04Z</time>
</trkpt>
<trkpt lat="50.4541110992417" lon="19.33565855026189">
<ele>351.93478</ele>
<time>2012-08-24T14:59:10Z</time>
</trkpt>
<trkpt lat="50.45415401458594" lon="19.335958957671558">
<ele>351.2257</ele>
<time>2012-08-24T14:59:16Z</time>
</trkpt>
<trkpt lat="50.45420765876624" lon="19.336259365081226">
<ele>351.73715</ele>
<time>2012-08-24T14:59:21Z</time>
</trkpt>
<trkpt lat="50.454229116438356" lon="19.336581230163013">
<ele>352.37512</ele>
<time>2012-08-24T14:59:26Z</time>
</trkpt>
<trkpt lat="50.45419692993018" lon="19.33688163757268">
<ele>352.80228</ele>
<time>2012-08-24T14:59:30Z</time>
</trkpt>
<trkpt lat="50.45420765876624" lon="19.337203502654468">
<ele>353.6367</ele>
<time>2012-08-24T14:59:35Z</time>
</trkpt>
<trkpt lat="50.45420765876624" lon="19.337546825408374">
<ele>354.9642</ele>
<time>2012-08-24T14:59:42Z</time>
</trkpt>
<trkpt lat="50.454250574110475" lon="19.337847232818042">
<ele>357.4789</ele>
<time>2012-08-24T14:59:49Z</time>
</trkpt>
<trkpt lat="50.454218387602296" lon="19.33816909789983">
<ele>360.77985</ele>
<time>2012-08-24T14:59:58Z</time>
</trkpt>
<trkpt lat="50.45420765876624" lon="19.338490962981616">
<ele>363.6944</ele>
<time>2012-08-24T15:00:10Z</time>
</trkpt>
<trkpt lat="50.45420765876624" lon="19.338812828063404">
<ele>364.24274</ele>
<time>2012-08-24T15:00:23Z</time>
</trkpt>
<trkpt lat="50.454250574110475" lon="19.339220523833667">
<ele>362.5</ele>
<time>2012-08-24T15:01:37Z</time>
</trkpt>
<trkpt lat="50.45408964156958" lon="19.339478015899097">
<ele>361.0005</ele>
<time>2012-08-24T15:02:05Z</time>
</trkpt>
<trkpt lat="50.45392870902869" lon="19.33969259262029">
<ele>361.00015</ele>
<time>2012-08-24T15:02:09Z</time>
</trkpt>
<trkpt lat="50.453757047651735" lon="19.33988571166936">
<ele>361.00006</ele>
<time>2012-08-24T15:02:13Z</time>
</trkpt>
<trkpt lat="50.45357465743872" lon="19.340057373046314">
<ele>361.0</ele>
<time>2012-08-24T15:02:17Z</time>
</trkpt>
<trkpt lat="50.45340299606177" lon="19.340207576751148">
<ele>361.0</ele>
<time>2012-08-24T15:02:24Z</time>
</trkpt>
<trkpt lat="50.453242063520875" lon="19.34040069580022">
<ele>361.0</ele>
<time>2012-08-24T15:02:32Z</time>
</trkpt>
<trkpt lat="50.4531025886521" lon="19.34061527252141">
<ele>360.02374</ele>
<time>2012-08-24T15:02:45Z</time>
</trkpt>
<trkpt lat="50.453016757963624" lon="19.34089422225896">
<ele>359.02408</ele>
<time>2012-08-24T15:03:00Z</time>
</trkpt>
<trkpt lat="50.45290946960303" lon="19.34113025665227">
<ele>359.00076</ele>
<time>2012-08-24T15:03:12Z</time>
</trkpt>
<trkpt lat="50.452737808226075" lon="19.341259002684986">
<ele>359.86652</ele>
<time>2012-08-24T15:03:32Z</time>
</trkpt>
<trkpt lat="50.45261979102942" lon="19.341473579406177">
<ele>359.99866</ele>
<time>2012-08-24T15:03:48Z</time>
</trkpt>
<trkpt lat="50.45258760452124" lon="19.341752529143726">
<ele>360.0</ele>
<time>2012-08-24T15:04:06Z</time>
</trkpt>
<trkpt lat="50.45257687568518" lon="19.342052936553394">
<ele>359.13348</ele>
<time>2012-08-24T15:04:19Z</time>
</trkpt>
<trkpt lat="50.45258760452124" lon="19.34235334396306">
<ele>357.13916</ele>
<time>2012-08-24T15:04:48Z</time>
</trkpt>
<trkpt lat="50.45255541801306" lon="19.34263229370061">
<ele>357.00015</ele>
<time>2012-08-24T15:05:12Z</time>
</trkpt>
<trkpt lat="50.452480316160646" lon="19.34288978576604">
<ele>357.0</ele>
<time>2012-08-24T15:05:25Z</time>
</trkpt>
<trkpt lat="50.452512502668824" lon="19.34316873550359">
<ele>357.0</ele>
<time>2012-08-24T15:05:36Z</time>
</trkpt>
<trkpt lat="50.45257687568518" lon="19.343447685241138">
<ele>356.17798</ele>
<time>2012-08-24T15:05:42Z</time>
</trkpt>
<trkpt lat="50.45269489288184" lon="19.343705177306568">
<ele>355.77374</ele>
<time>2012-08-24T15:05:49Z</time>
</trkpt>
<trkpt lat="50.45280218124243" lon="19.343941211699878">
<ele>354.3745</ele>
<time>2012-08-24T15:05:58Z</time>
</trkpt>
<trkpt lat="50.45287728309485" lon="19.344241619109546">
<ele>354.60623</ele>
<time>2012-08-24T15:06:07Z</time>
</trkpt>
<trkpt lat="50.453006029127565" lon="19.344456195830737">
<ele>354.94745</ele>
<time>2012-08-24T15:06:14Z</time>
</trkpt>
<trkpt lat="50.45309185981604" lon="19.344713687896167">
<ele>355.42813</ele>
<time>2012-08-24T15:06:20Z</time>
</trkpt>
<trkpt lat="50.4531562328324" lon="19.344992637633716">
<ele>355.89822</ele>
<time>2012-08-24T15:06:26Z</time>
</trkpt>
<trkpt lat="50.453220605848756" lon="19.345293045043384">
<ele>355.98187</ele>
<time>2012-08-24T15:06:32Z</time>
</trkpt>
<trkpt lat="50.453274250029054" lon="19.345593452453052">
<ele>356.75946</ele>
<time>2012-08-24T15:06:38Z</time>
</trkpt>
<trkpt lat="50.45334935188147" lon="19.34589385986272">
<ele>356.97592</ele>
<time>2012-08-24T15:06:46Z</time>
</trkpt>
<trkpt lat="50.45342445373389" lon="19.34615135192815">
<ele>357.76028</ele>
<time>2012-08-24T15:06:54Z</time>
</trkpt>
<trkpt lat="50.45353174209448" lon="19.3464303016657">
<ele>358.4135</ele>
<time>2012-08-24T15:07:02Z</time>
</trkpt>
<trkpt lat="50.45363903045508" lon="19.34666633605901">
<ele>358.89563</ele>
<time>2012-08-24T15:07:08Z</time>
</trkpt>
<trkpt lat="50.453714132307496" lon="19.346945285796558">
<ele>358.9814</ele>
<time>2012-08-24T15:07:14Z</time>
</trkpt>
<trkpt lat="50.45378923415991" lon="19.347224235534107">
<ele>359.2456</ele>
<time>2012-08-24T15:07:19Z</time>
</trkpt>
<trkpt lat="50.45384287834021" lon="19.347503185271655">
<ele>359.82098</ele>
<time>2012-08-24T15:07:24Z</time>
</trkpt>
<trkpt lat="50.45378923415991" lon="19.347782135009204">
<ele>360.45752</ele>
<time>2012-08-24T15:07:29Z</time>
</trkpt>
<trkpt lat="50.45369267463538" lon="19.348082542418872">
<ele>363.6623</ele>
<time>2012-08-24T15:07:34Z</time>
</trkpt>
<trkpt lat="50.45358538627478" lon="19.34838294982854">
<ele>367.32904</ele>
<time>2012-08-24T15:07:39Z</time>
</trkpt>
<trkpt lat="50.453499555586305" lon="19.34864044189397">
<ele>369.59238</ele>
<time>2012-08-24T15:07:43Z</time>
</trkpt>
<trkpt lat="50.45339226722571" lon="19.348940849303638">
<ele>371.34955</ele>
<time>2012-08-24T15:07:48Z</time>
</trkpt>
<trkpt lat="50.45329570770117" lon="19.349241256713306">
<ele>372.42377</ele>
<time>2012-08-24T15:07:53Z</time>
</trkpt>
<trkpt lat="50.45319914817664" lon="19.349498748778736">
<ele>372.86325</ele>
<time>2012-08-24T15:07:58Z</time>
</trkpt>
<trkpt lat="50.45309185981604" lon="19.349777698516284">
<ele>372.96756</ele>
<time>2012-08-24T15:08:03Z</time>
</trkpt>
<trkpt lat="50.453006029127565" lon="19.350056648253833">
<ele>372.9923</ele>
<time>2012-08-24T15:08:08Z</time>
</trkpt>
<trkpt lat="50.45292019843909" lon="19.350335597991382">
<ele>372.31503</ele>
<time>2012-08-24T15:08:14Z</time>
</trkpt>
<trkpt lat="50.45285582542273" lon="19.35061454772893">
<ele>372.07477</ele>
<time>2012-08-24T15:08:19Z</time>
</trkpt>
<trkpt lat="50.452759265898194" lon="19.3509149551386">
<ele>370.89664</ele>
<time>2012-08-24T15:08:24Z</time>
</trkpt>
<trkpt lat="50.45266270637366" lon="19.351215362548267">
<ele>370.15958</ele>
<time>2012-08-24T15:08:30Z</time>
</trkpt>
<trkpt lat="50.45256614684912" lon="19.351515769957935">
<ele>370.0284</ele>
<time>2012-08-24T15:08:36Z</time>
</trkpt>
<trkpt lat="50.452491044996705" lon="19.351816177367603">
<ele>369.24405</ele>
<time>2012-08-24T15:08:41Z</time>
</trkpt>
<trkpt lat="50.45241594314429" lon="19.35211658477727">
<ele>369.05792</ele>
<time>2012-08-24T15:08:46Z</time>
</trkpt>
<trkpt lat="50.45235157012793" lon="19.35239553451482">
<ele>369.01373</ele>
<time>2012-08-24T15:08:51Z</time>
</trkpt>
<trkpt lat="50.452276468275514" lon="19.35265302658025">
<ele>369.00327</ele>
<time>2012-08-24T15:08:56Z</time>
</trkpt>
<trkpt lat="50.452212095259156" lon="19.352931976317798">
<ele>368.567</ele>
<time>2012-08-24T15:09:02Z</time>
</trkpt>
<trkpt lat="50.45212626457068" lon="19.353253841399585">
<ele>368.89725</ele>
<time>2012-08-24T15:09:07Z</time>
</trkpt>
<trkpt lat="50.452029705046144" lon="19.353575706481372">
<ele>371.0261</ele>
<time>2012-08-24T15:09:11Z</time>
</trkpt>
<trkpt lat="50.45193314552161" lon="19.35385465621892">
<ele>375.02664</ele>
<time>2012-08-24T15:09:14Z</time>
</trkpt>
<trkpt lat="50.45183658599707" lon="19.35411214828435">
<ele>378.91748</ele>
<time>2012-08-24T15:09:17Z</time>
</trkpt>
<trkpt lat="50.4516971111283" lon="19.35434818267766">
<ele>382.28638</ele>
<time>2012-08-24T15:09:21Z</time>
</trkpt>
<trkpt lat="50.4515898227677" lon="19.354584217070972">
<ele>384.1414</ele>
<time>2012-08-24T15:09:25Z</time>
</trkpt>
<trkpt lat="50.451471805571046" lon="19.35486316680852">
<ele>384.79626</ele>
<time>2012-08-24T15:09:30Z</time>
</trkpt>
<trkpt lat="50.45138597488257" lon="19.35512065887395">
<ele>384.95166</ele>
<time>2012-08-24T15:09:35Z</time>
</trkpt>
<trkpt lat="50.45130014419409" lon="19.35537815093938">
<ele>384.9914</ele>
<time>2012-08-24T15:09:41Z</time>
</trkpt>
<trkpt lat="50.4511928558335" lon="19.35563564300481">
<ele>385.5766</ele>
<time>2012-08-24T15:09:47Z</time>
</trkpt>
<trkpt lat="50.4510855674729" lon="19.35587167739812">
<ele>385.92465</ele>
<time>2012-08-24T15:09:53Z</time>
</trkpt>
<trkpt lat="50.450967550276246" lon="19.35610771179143">
<ele>386.56473</ele>
<time>2012-08-24T15:09:59Z</time>
</trkpt>
<trkpt lat="50.45086026191565" lon="19.35636520385686">
<ele>386.92252</ele>
<time>2012-08-24T15:10:05Z</time>
</trkpt>
<trkpt lat="50.450752973555055" lon="19.35664415359441">
<ele>387.2362</ele>
<time>2012-08-24T15:10:11Z</time>
</trkpt>
<trkpt lat="50.4506349563584" lon="19.3568587303156">
<ele>387.81876</ele>
<time>2012-08-24T15:10:16Z</time>
</trkpt>
<trkpt lat="50.450516939161744" lon="19.35713768005315">
<ele>388.40524</ele>
<time>2012-08-24T15:10:22Z</time>
</trkpt>
<trkpt lat="50.45039892196509" lon="19.35739517211858">
<ele>388.85886</ele>
<time>2012-08-24T15:10:27Z</time>
</trkpt>
<trkpt lat="50.450270175932374" lon="19.357695579528247">
<ele>391.24094</ele>
<time>2012-08-24T15:10:32Z</time>
</trkpt>
<trkpt lat="50.45015215873572" lon="19.357931613921558">
<ele>392.58405</ele>
<time>2012-08-24T15:10:36Z</time>
</trkpt>
<trkpt lat="50.450012683866944" lon="19.358210563659107">
<ele>392.9013</ele>
<time>2012-08-24T15:10:41Z</time>
</trkpt>
<trkpt lat="50.44988393783423" lon="19.358468055724536">
<ele>392.39844</ele>
<time>2012-08-24T15:10:46Z</time>
</trkpt>
<trkpt lat="50.449744462965455" lon="19.358725547789966">
<ele>393.10724</ele>
<time>2012-08-24T15:10:51Z</time>
</trkpt>
<trkpt lat="50.44961571693274" lon="19.358961582183277">
<ele>394.36627</ele>
<time>2012-08-24T15:10:56Z</time>
</trkpt>
<trkpt lat="50.449476242063966" lon="19.359197616576587">
<ele>394.8496</ele>
<time>2012-08-24T15:11:01Z</time>
</trkpt>
<trkpt lat="50.44932603835913" lon="19.35939073562566">
<ele>394.97992</ele>
<time>2012-08-24T15:11:08Z</time>
</trkpt>
<trkpt lat="50.44913291931006" lon="19.359326362609302">
<ele>395.8645</ele>
<time>2012-08-24T15:11:16Z</time>
</trkpt>
<trkpt lat="50.44895052909705" lon="19.359219074248706">
<ele>396.4134</ele>
<time>2012-08-24T15:11:22Z</time>
</trkpt>
<trkpt lat="50.448778867720094" lon="19.35913324356023">
<ele>396.8956</ele>
<time>2012-08-24T15:11:28Z</time>
</trkpt>
<trkpt lat="50.44859647750708" lon="19.359068870543872">
<ele>397.80344</ele>
<time>2012-08-24T15:11:34Z</time>
</trkpt>
<trkpt lat="50.44840335845801" lon="19.359004497527515">
<ele>398.7815</ele>
<time>2012-08-24T15:11:39Z</time>
</trkpt>
<trkpt lat="50.448220968244996" lon="19.359047412871753">
<ele>400.28897</ele>
<time>2012-08-24T15:11:44Z</time>
</trkpt>
<trkpt lat="50.44804930686804" lon="19.359240531920825">
<ele>401.75</ele>
<time>2012-08-24T15:13:18Z</time>
</trkpt>
<trkpt lat="50.447974205015626" lon="19.359519481658374">
<ele>403.69965</ele>
<time>2012-08-24T15:13:25Z</time>
</trkpt>
<trkpt lat="50.44790983199927" lon="19.359798431395923">
<ele>404.7226</ele>
<time>2012-08-24T15:13:32Z</time>
</trkpt>
<trkpt lat="50.44784545898291" lon="19.36009883880559">
<ele>406.52792</ele>
<time>2012-08-24T15:13:37Z</time>
</trkpt>
<trkpt lat="50.447781085966554" lon="19.360420703887378">
<ele>408.79596</ele>
<time>2012-08-24T15:13:41Z</time>
</trkpt>
<trkpt lat="50.447716712950196" lon="19.360721111297046">
<ele>409.49203</ele>
<time>2012-08-24T15:13:44Z</time>
</trkpt>
<trkpt lat="50.44764161109778" lon="19.361064434050952">
<ele>409.7857</ele>
<time>2012-08-24T15:13:47Z</time>
</trkpt>
<trkpt lat="50.44757723808142" lon="19.361450672149097">
<ele>409.33148</ele>
<time>2012-08-24T15:13:50Z</time>
</trkpt>
<trkpt lat="50.447491407392945" lon="19.36183691024724">
<ele>409.13983</ele>
<time>2012-08-24T15:13:53Z</time>
</trkpt>
<trkpt lat="50.44741630554053" lon="19.36209440231267">
<ele>409.07867</ele>
<time>2012-08-24T15:13:55Z</time>
</trkpt>
<trkpt lat="50.447287559507814" lon="19.362459182738696">
<ele>409.03317</ele>
<time>2012-08-24T15:13:58Z</time>
</trkpt>
<trkpt lat="50.44720172881934" lon="19.362759590148364">
<ele>409.01868</ele>
<time>2012-08-24T15:14:00Z</time>
</trkpt>
<trkpt lat="50.4471051692948" lon="19.363038539885913">
<ele>409.0105</ele>
<time>2012-08-24T15:14:02Z</time>
</trkpt>
<trkpt lat="50.447019338606324" lon="19.363317489623462">
<ele>408.75592</ele>
<time>2012-08-24T15:14:04Z</time>
</trkpt>
<trkpt lat="50.44691205024573" lon="19.36361789703313">
<ele>407.05328</ele>
<time>2012-08-24T15:14:07Z</time>
</trkpt>
<trkpt lat="50.44681549072119" lon="19.36387538909856">
<ele>403.70044</ele>
<time>2012-08-24T15:14:11Z</time>
</trkpt>
<trkpt lat="50.4467082023606" lon="19.36413288116399">
<ele>399.22162</ele>
<time>2012-08-24T15:14:15Z</time>
</trkpt>
<trkpt lat="50.44661164283606" lon="19.36441183090154">
<ele>395.07013</ele>
<time>2012-08-24T15:14:19Z</time>
</trkpt>
<trkpt lat="50.446536540983644" lon="19.364712238311206">
<ele>392.8577</ele>
<time>2012-08-24T15:14:22Z</time>
</trkpt>
<trkpt lat="50.44645071029517" lon="19.365012645720874">
<ele>391.78372</ele>
<time>2012-08-24T15:14:25Z</time>
</trkpt>
<trkpt lat="50.44635415077063" lon="19.36533451080266">
<ele>391.33063</ele>
<time>2012-08-24T15:14:28Z</time>
</trkpt>
<trkpt lat="50.446257591246095" lon="19.365677833556568">
<ele>391.1395</ele>
<time>2012-08-24T15:14:31Z</time>
</trkpt>
<trkpt lat="50.44616103172156" lon="19.365978240966236">
<ele>391.63696</ele>
<time>2012-08-24T15:14:34Z</time>
</trkpt>
<trkpt lat="50.44606447219702" lon="19.366300106048023">
<ele>392.09683</ele>
<time>2012-08-24T15:14:37Z</time>
</trkpt>
<trkpt lat="50.44596791267249" lon="19.36657905578557">
<ele>392.619</ele>
<time>2012-08-24T15:14:40Z</time>
</trkpt>
<trkpt lat="50.44588208198401" lon="19.36687946319524">
<ele>392.83926</ele>
<time>2012-08-24T15:14:43Z</time>
</trkpt>
<trkpt lat="50.44579625129553" lon="19.367179870604907">
<ele>392.9322</ele>
<time>2012-08-24T15:14:46Z</time>
</trkpt>
<trkpt lat="50.44571042060706" lon="19.367480278014575">
<ele>393.54953</ele>
<time>2012-08-24T15:14:49Z</time>
</trkpt>
<trkpt lat="50.44562458991858" lon="19.367780685424243">
<ele>393.23184</ele>
<time>2012-08-24T15:14:52Z</time>
</trkpt>
<trkpt lat="50.445538759230104" lon="19.36808109283391">
<ele>393.0978</ele>
<time>2012-08-24T15:14:55Z</time>
</trkpt>
<trkpt lat="50.44545292854163" lon="19.36838150024358">
<ele>392.60376</ele>
<time>2012-08-24T15:14:58Z</time>
</trkpt>
<trkpt lat="50.44534564018103" lon="19.368703365325366">
<ele>392.0047</ele>
<time>2012-08-24T15:15:01Z</time>
</trkpt>
<trkpt lat="50.445238351820436" lon="19.369046688079273">
<ele>390.59573</ele>
<time>2012-08-24T15:15:04Z</time>
</trkpt>
<trkpt lat="50.44512033462378" lon="19.36939001083318">
<ele>389.4232</ele>
<time>2012-08-24T15:15:07Z</time>
</trkpt>
<trkpt lat="50.445023775099244" lon="19.369754791259204">
<ele>388.3504</ele>
<time>2012-08-24T15:15:10Z</time>
</trkpt>
<trkpt lat="50.44490575790259" lon="19.37011957168523">
<ele>387.5697</ele>
<time>2012-08-24T15:15:13Z</time>
</trkpt>
<trkpt lat="50.44483065605017" lon="19.37037706375066">
<ele>386.88297</ele>
<time>2012-08-24T15:15:15Z</time>
</trkpt>
<trkpt lat="50.444744825361695" lon="19.37063455581609">
<ele>386.49667</ele>
<time>2012-08-24T15:15:17Z</time>
</trkpt>
<trkpt lat="50.44465899467322" lon="19.37089204788152">
<ele>386.0294</ele>
<time>2012-08-24T15:15:19Z</time>
</trkpt>
<trkpt lat="50.44455170631262" lon="19.371256828307544">
<ele>385.43427</ele>
<time>2012-08-24T15:15:22Z</time>
</trkpt>
<trkpt lat="50.44443368911597" lon="19.37160015106145">
<ele>385.1832</ele>
<time>2012-08-24T15:15:25Z</time>
</trkpt>
<trkpt lat="50.44433712959143" lon="19.371943473815357">
<ele>385.0773</ele>
<time>2012-08-24T15:15:28Z</time>
</trkpt>
<trkpt lat="50.444240570066896" lon="19.372286796569263">
<ele>384.45447</ele>
<time>2012-08-24T15:15:31Z</time>
</trkpt>
<trkpt lat="50.44414401054236" lon="19.37260866165105">
<ele>383.36362</ele>
<time>2012-08-24T15:15:34Z</time>
</trkpt>
<trkpt lat="50.44404745101782" lon="19.372930526732837">
<ele>382.5753</ele>
<time>2012-08-24T15:15:37Z</time>
</trkpt>
<trkpt lat="50.44395089149329" lon="19.373230934142505">
<ele>381.41458</ele>
<time>2012-08-24T15:15:40Z</time>
</trkpt>
<trkpt lat="50.44386506080481" lon="19.373509883880054">
<ele>380.15927</ele>
<time>2012-08-24T15:15:43Z</time>
</trkpt>
<trkpt lat="50.443779230116334" lon="19.373810291289722">
<ele>378.66095</ele>
<time>2012-08-24T15:15:46Z</time>
</trkpt>
<trkpt lat="50.44369339942786" lon="19.37411069869939">
<ele>377.7007</ele>
<time>2012-08-24T15:15:49Z</time>
</trkpt>
<trkpt lat="50.44360756873938" lon="19.37438964843694">
<ele>376.85812</ele>
<time>2012-08-24T15:15:52Z</time>
</trkpt>
<trkpt lat="50.443511009214845" lon="19.37464714050237">
<ele>376.36203</ele>
<time>2012-08-24T15:15:55Z</time>
</trkpt>
<trkpt lat="50.44342517852637" lon="19.374904632567798">
<ele>376.15274</ele>
<time>2012-08-24T15:15:58Z</time>
</trkpt>
<trkpt lat="50.44335007667395" lon="19.375162124633228">
<ele>375.62692</ele>
<time>2012-08-24T15:16:01Z</time>
</trkpt>
<trkpt lat="50.443253517149415" lon="19.375419616698657">
<ele>375.0145</ele>
<time>2012-08-24T15:16:04Z</time>
</trkpt>
<trkpt lat="50.443178415297" lon="19.375677108764087">
<ele>373.99048</ele>
<time>2012-08-24T15:16:07Z</time>
</trkpt>
<trkpt lat="50.44309258460852" lon="19.375934600829517">
<ele>372.98035</ele>
<time>2012-08-24T15:16:10Z</time>
</trkpt>
<trkpt lat="50.442985296247926" lon="19.376256465911304">
<ele>371.6266</ele>
<time>2012-08-24T15:16:14Z</time>
</trkpt>
<trkpt lat="50.44288873672339" lon="19.376556873320972">
<ele>370.76077</ele>
<time>2012-08-24T15:16:18Z</time>
</trkpt>
<trkpt lat="50.44280290603491" lon="19.3768143653864">
<ele>370.89908</ele>
<time>2012-08-24T15:16:21Z</time>
</trkpt>
<trkpt lat="50.44270634651038" lon="19.37707185745183">
<ele>370.95743</ele>
<time>2012-08-24T15:16:24Z</time>
</trkpt>
<trkpt lat="50.4426205158219" lon="19.37732934951726">
<ele>370.4039</ele>
<time>2012-08-24T15:16:27Z</time>
</trkpt>
<trkpt lat="50.442534685133424" lon="19.37758684158269">
<ele>369.3423</ele>
<time>2012-08-24T15:16:30Z</time>
</trkpt>
<trkpt lat="50.44243812560889" lon="19.37784433364812">
<ele>368.12878</ele>
<time>2012-08-24T15:16:33Z</time>
</trkpt>
<trkpt lat="50.44233083724829" lon="19.37810182571355">
<ele>367.0387</ele>
<time>2012-08-24T15:16:36Z</time>
</trkpt>
<trkpt lat="50.442245006559816" lon="19.3783807754511">
<ele>366.4382</ele>
<time>2012-08-24T15:16:39Z</time>
</trkpt>
<trkpt lat="50.44215917587134" lon="19.378659725188648">
<ele>365.60675</ele>
<time>2012-08-24T15:16:42Z</time>
</trkpt>
<trkpt lat="50.44207334518286" lon="19.378938674926196">
<ele>365.25598</ele>
<time>2012-08-24T15:16:45Z</time>
</trkpt>
<trkpt lat="50.441998243330445" lon="19.379217624663745">
<ele>365.108</ele>
<time>2012-08-24T15:16:48Z</time>
</trkpt>
<trkpt lat="50.44192314147803" lon="19.379496574401294">
<ele>365.04556</ele>
<time>2012-08-24T15:16:51Z</time>
</trkpt>
<trkpt lat="50.44184803962561" lon="19.379754066466724">
<ele>365.59735</ele>
<time>2012-08-24T15:16:54Z</time>
</trkpt>
<trkpt lat="50.441783666609254" lon="19.380033016204273">
<ele>365.83014</ele>
<time>2012-08-24T15:16:57Z</time>
</trkpt>
<trkpt lat="50.44169783592078" lon="19.380290508269702">
<ele>365.92834</ele>
<time>2012-08-24T15:17:00Z</time>
</trkpt>
<trkpt lat="50.44162273406836" lon="19.380548000335132">
<ele>365.96976</ele>
<time>2012-08-24T15:17:03Z</time>
</trkpt>
<trkpt lat="50.441536903379884" lon="19.38080549240056">
<ele>365.98724</ele>
<time>2012-08-24T15:17:06Z</time>
</trkpt>
<trkpt lat="50.44144034385535" lon="19.38112735748235">
<ele>365.55847</ele>
<time>2012-08-24T15:17:10Z</time>
</trkpt>
<trkpt lat="50.44134378433081" lon="19.381449222564136">
<ele>365.1767</ele>
<time>2012-08-24T15:17:14Z</time>
</trkpt>
<trkpt lat="50.441257953642335" lon="19.381706714629566">
<ele>365.07455</ele>
<time>2012-08-24T15:17:17Z</time>
</trkpt>
<trkpt lat="50.4411613941178" lon="19.38198566436711">
<ele>365.03146</ele>
<time>2012-08-24T15:17:20Z</time>
</trkpt>
<trkpt lat="50.44106483459326" lon="19.38224315643254">
<ele>365.01328</ele>
<time>2012-08-24T15:17:23Z</time>
</trkpt>
<trkpt lat="50.440979003904786" lon="19.38250064849797">
<ele>364.75558</ele>
<time>2012-08-24T15:17:26Z</time>
</trkpt>
<trkpt lat="50.44086098670813" lon="19.382822513579757">
<ele>364.23907</ele>
<time>2012-08-24T15:17:30Z</time>
</trkpt>
<trkpt lat="50.440742969511476" lon="19.383058547973068">
<ele>364.10086</ele>
<time>2012-08-24T15:17:33Z</time>
</trkpt>
<trkpt lat="50.44061422347876" lon="19.38327312469426">
<ele>363.60504</ele>
<time>2012-08-24T15:17:36Z</time>
</trkpt>
<trkpt lat="50.44042110442969" lon="19.383423328399093">
<ele>364.56253</ele>
<time>2012-08-24T15:17:40Z</time>
</trkpt>
<trkpt lat="50.44021725654456" lon="19.38350915908757">
<ele>366.5608</ele>
<time>2012-08-24T15:17:44Z</time>
</trkpt>
<trkpt lat="50.440024137495485" lon="19.383552074431808">
<ele>368.2282</ele>
<time>2012-08-24T15:17:48Z</time>
</trkpt>
<trkpt lat="50.43980956077429" lon="19.383552074431808">
<ele>368.5058</ele>
<time>2012-08-24T15:17:52Z</time>
</trkpt>
<trkpt lat="50.4395949840531" lon="19.383552074431808">
<ele>367.3319</ele>
<time>2012-08-24T15:17:56Z</time>
</trkpt>
<trkpt lat="50.43936967849585" lon="19.383573532103927">
<ele>365.30032</ele>
<time>2012-08-24T15:18:00Z</time>
</trkpt>
<trkpt lat="50.43913364410254" lon="19.383594989776046">
<ele>363.29034</ele>
<time>2012-08-24T15:18:04Z</time>
</trkpt>
<trkpt lat="50.43895125388953" lon="19.383594989776046">
<ele>361.96625</ele>
<time>2012-08-24T15:18:07Z</time>
</trkpt>
<trkpt lat="50.438768863676515" lon="19.383616447448166">
<ele>360.5795</ele>
<time>2012-08-24T15:18:10Z</time>
</trkpt>
<trkpt lat="50.438543558119264" lon="19.383616447448166">
<ele>359.24976</ele>
<time>2012-08-24T15:18:14Z</time>
</trkpt>
<trkpt lat="50.43832898139807" lon="19.383616447448166">
<ele>358.39545</ele>
<time>2012-08-24T15:18:18Z</time>
</trkpt>
<trkpt lat="50.43811440467688" lon="19.383594989776046">
<ele>357.547</ele>
<time>2012-08-24T15:18:22Z</time>
</trkpt>
<trkpt lat="50.43788909911963" lon="19.383573532103927">
<ele>356.23947</ele>
<time>2012-08-24T15:18:26Z</time>
</trkpt>
<trkpt lat="50.43770670890662" lon="19.383573532103927">
<ele>355.52292</ele>
<time>2012-08-24T15:18:29Z</time>
</trkpt>
<trkpt lat="50.43747067451331" lon="19.383573532103927">
<ele>354.48184</ele>
<time>2012-08-24T15:18:33Z</time>
</trkpt>
<trkpt lat="50.437288284300294" lon="19.383594989776046">
<ele>353.95328</ele>
<time>2012-08-24T15:18:36Z</time>
</trkpt>
<trkpt lat="50.43705224990698" lon="19.383659362792404">
<ele>353.30164</ele>
<time>2012-08-24T15:18:40Z</time>
</trkpt>
<trkpt lat="50.43688058853003" lon="19.383809566497238">
<ele>353.12726</ele>
<time>2012-08-24T15:18:43Z</time>
</trkpt>
<trkpt lat="50.43669819831702" lon="19.383959770202072">
<ele>353.05368</ele>
<time>2012-08-24T15:18:46Z</time>
</trkpt>
<trkpt lat="50.436537265776124" lon="19.384131431579025">
<ele>353.02264</ele>
<time>2012-08-24T15:18:49Z</time>
</trkpt>
<trkpt lat="50.43637633323523" lon="19.384303092955978">
<ele>353.00955</ele>
<time>2012-08-24T15:18:52Z</time>
</trkpt>
<trkpt lat="50.4361724853501" lon="19.38451766967717">
<ele>354.51865</ele>
<time>2012-08-24T15:18:56Z</time>
</trkpt>
<trkpt lat="50.436011552809205" lon="19.384689331054123">
<ele>357.6563</ele>
<time>2012-08-24T15:18:59Z</time>
</trkpt>
<trkpt lat="50.43585062026831" lon="19.384860992431076">
<ele>361.2925</ele>
<time>2012-08-24T15:19:02Z</time>
</trkpt>
<trkpt lat="50.4356682300553" lon="19.38496828079167">
<ele>364.70154</ele>
<time>2012-08-24T15:19:05Z</time>
</trkpt>
<trkpt lat="50.435485839842286" lon="19.385118484496505">
<ele>367.04596</ele>
<time>2012-08-24T15:19:08Z</time>
</trkpt>
<trkpt lat="50.43532490730139" lon="19.38526868820134">
<ele>368.75375</ele>
<time>2012-08-24T15:19:11Z</time>
</trkpt>
<trkpt lat="50.4351103305802" lon="19.385418891906173">
<ele>369.60568</ele>
<time>2012-08-24T15:19:15Z</time>
</trkpt>
<trkpt lat="50.43490648269507" lon="19.38548326492253">
<ele>368.75415</ele>
<time>2012-08-24T15:19:19Z</time>
</trkpt>
<trkpt lat="50.43472409248206" lon="19.385612010955246">
<ele>367.69565</ele>
<time>2012-08-24T15:19:23Z</time>
</trkpt>
<trkpt lat="50.4346060752854" lon="19.385848045348556">
<ele>366.9701</ele>
<time>2012-08-24T15:19:27Z</time>
</trkpt>
<trkpt lat="50.43441295623633" lon="19.386084079741867">
<ele>366.74445</ele>
<time>2012-08-24T15:19:31Z</time>
</trkpt>
<trkpt lat="50.43423056602332" lon="19.38625574111882">
<ele>367.32968</ele>
<time>2012-08-24T15:19:34Z</time>
</trkpt>
<trkpt lat="50.43406963348242" lon="19.386405944823654">
<ele>368.15472</ele>
<time>2012-08-24T15:19:37Z</time>
</trkpt>
<trkpt lat="50.43389797210547" lon="19.386556148528488">
<ele>369.47153</ele>
<time>2012-08-24T15:19:40Z</time>
</trkpt>
<trkpt lat="50.433747768400636" lon="19.38672780990544">
<ele>371.1833</ele>
<time>2012-08-24T15:19:43Z</time>
</trkpt>
<trkpt lat="50.433554649351564" lon="19.386942386626632">
<ele>372.86267</ele>
<time>2012-08-24T15:19:47Z</time>
</trkpt>
<trkpt lat="50.43338298797461" lon="19.387199878692062">
<ele>373.64014</ele>
<time>2012-08-24T15:19:51Z</time>
</trkpt>
<trkpt lat="50.43322205543372" lon="19.38747882842961">
<ele>373.88614</ele>
<time>2012-08-24T15:19:55Z</time>
</trkpt>
<trkpt lat="50.43313622474524" lon="19.38777923583928">
<ele>373.95197</ele>
<time>2012-08-24T15:19:58Z</time>
</trkpt>
<trkpt lat="50.433050394056764" lon="19.388101100921066">
<ele>373.4016</ele>
<time>2012-08-24T15:20:01Z</time>
</trkpt>
<trkpt lat="50.43295383453223" lon="19.388422966002853">
<ele>372.5913</ele>
<time>2012-08-24T15:20:04Z</time>
</trkpt>
<trkpt lat="50.43287873267981" lon="19.38876628875676">
<ele>372.24945</ele>
<time>2012-08-24T15:20:07Z</time>
</trkpt>
<trkpt lat="50.43282508849951" lon="19.389109611510666">
<ele>372.10522</ele>
<time>2012-08-24T15:20:10Z</time>
</trkpt>
<trkpt lat="50.432771444319215" lon="19.389431476592453">
<ele>372.0444</ele>
<time>2012-08-24T15:20:13Z</time>
</trkpt>
<trkpt lat="50.43272852897498" lon="19.38977479934636">
<ele>372.01874</ele>
<time>2012-08-24T15:20:16Z</time>
</trkpt>
<trkpt lat="50.43268561363074" lon="19.390139579772384">
<ele>372.0079</ele>
<time>2012-08-24T15:20:19Z</time>
</trkpt>
<trkpt lat="50.43265342712256" lon="19.39048290252629">
<ele>371.56583</ele>
<time>2012-08-24T15:20:22Z</time>
</trkpt>
<trkpt lat="50.43263196945044" lon="19.390847682952316">
<ele>371.2387</ele>
<time>2012-08-24T15:20:25Z</time>
</trkpt>
<trkpt lat="50.43259978294226" lon="19.391191005706222">
<ele>371.1007</ele>
<time>2012-08-24T15:20:28Z</time>
</trkpt>
<trkpt lat="50.43257832527014" lon="19.39153432846013">
<ele>370.46436</ele>
<time>2012-08-24T15:20:31Z</time>
</trkpt>
<trkpt lat="50.432546138761964" lon="19.391856193541916">
<ele>370.1959</ele>
<time>2012-08-24T15:20:34Z</time>
</trkpt>
<trkpt lat="50.432513952253785" lon="19.392178058623703">
<ele>370.08264</ele>
<time>2012-08-24T15:20:37Z</time>
</trkpt>
<trkpt lat="50.43246030807349" lon="19.39249992370549">
<ele>370.03488</ele>
<time>2012-08-24T15:20:40Z</time>
</trkpt>
<trkpt lat="50.43238520622107" lon="19.392821788787277">
<ele>370.0147</ele>
<time>2012-08-24T15:20:43Z</time>
</trkpt>
<trkpt lat="50.432277917860475" lon="19.393122196196945">
<ele>369.42807</ele>
<time>2012-08-24T15:20:46Z</time>
</trkpt>
<trkpt lat="50.43215990066382" lon="19.393422603606613">
<ele>369.1806</ele>
<time>2012-08-24T15:20:49Z</time>
</trkpt>
<trkpt lat="50.432052612303224" lon="19.39372301101628">
<ele>369.0762</ele>
<time>2012-08-24T15:20:52Z</time>
</trkpt>
<trkpt lat="50.43193459510657" lon="19.39402341842595">
<ele>369.03214</ele>
<time>2012-08-24T15:20:55Z</time>
</trkpt>
<trkpt lat="50.431795120237794" lon="19.39425945281926">
<ele>368.57605</ele>
<time>2012-08-24T15:20:58Z</time>
</trkpt>
<trkpt lat="50.43167710304114" lon="19.394538402556808">
<ele>366.7274</ele>
<time>2012-08-24T15:21:01Z</time>
</trkpt>
<trkpt lat="50.43155908584448" lon="19.394752979278">
<ele>363.4475</ele>
<time>2012-08-24T15:21:04Z</time>
</trkpt>
<trkpt lat="50.43144106864783" lon="19.39501047134343">
<ele>359.8291</ele>
<time>2012-08-24T15:21:08Z</time>
</trkpt>
<trkpt lat="50.431301593779054" lon="19.395289421080978">
<ele>359.37448</ele>
<time>2012-08-24T15:21:13Z</time>
</trkpt>
<trkpt lat="50.43116211891028" lon="19.395568370818527">
<ele>363.69662</ele>
<time>2012-08-24T15:21:17Z</time>
</trkpt>
<trkpt lat="50.431022644041505" lon="19.395825862883957">
<ele>367.654</ele>
<time>2012-08-24T15:21:21Z</time>
</trkpt>
<trkpt lat="50.43090462684485" lon="19.396061897277267">
<ele>370.51944</ele>
<time>2012-08-24T15:21:25Z</time>
</trkpt>
<trkpt lat="50.430797338484254" lon="19.396319389342697">
<ele>372.21512</ele>
<time>2012-08-24T15:21:29Z</time>
</trkpt>
<trkpt lat="50.43069005012366" lon="19.396555423736007">
<ele>373.32977</ele>
<time>2012-08-24T15:21:33Z</time>
</trkpt>
<trkpt lat="50.430550575254884" lon="19.396834373473556">
<ele>374.85364</ele>
<time>2012-08-24T15:21:38Z</time>
</trkpt>
<trkpt lat="50.43043255805823" lon="19.397070407866867">
<ele>376.21542</ele>
<time>2012-08-24T15:21:42Z</time>
</trkpt>
<trkpt lat="50.43031454086157" lon="19.397306442260177">
<ele>376.75174</ele>
<time>2012-08-24T15:21:46Z</time>
</trkpt>
<trkpt lat="50.43018579482886" lon="19.39752101898137">
<ele>377.17145</ele>
<time>2012-08-24T15:21:50Z</time>
</trkpt>
<trkpt lat="50.4300677776322" lon="19.39775705337468">
<ele>377.98785</ele>
<time>2012-08-24T15:21:54Z</time>
</trkpt>
<trkpt lat="50.42996048927161" lon="19.398036003112228">
<ele>378.67975</ele>
<time>2012-08-24T15:21:58Z</time>
</trkpt>
<trkpt lat="50.42986392974707" lon="19.398314952849777">
<ele>378.89868</ele>
<time>2012-08-24T15:22:02Z</time>
</trkpt>
<trkpt lat="50.429778099058595" lon="19.398658275603683">
<ele>379.41345</ele>
<time>2012-08-24T15:22:07Z</time>
</trkpt>
<trkpt lat="50.429670810698" lon="19.39895868301335">
<ele>379.81442</ele>
<time>2012-08-24T15:22:11Z</time>
</trkpt>
<trkpt lat="50.4295635223374" lon="19.39925909042302">
<ele>380.37878</ele>
<time>2012-08-24T15:22:15Z</time>
</trkpt>
<trkpt lat="50.42945623397681" lon="19.399538040160568">
<ele>380.80344</ele>
<time>2012-08-24T15:22:19Z</time>
</trkpt>
<trkpt lat="50.42935967445227" lon="19.399838447570236">
<ele>380.9378</ele>
<time>2012-08-24T15:22:23Z</time>
</trkpt>
<trkpt lat="50.429241657255616" lon="19.400160312652023">
<ele>380.98032</ele>
<time>2012-08-24T15:22:27Z</time>
</trkpt>
<trkpt lat="50.42913436889502" lon="19.400439262389572">
<ele>381.24377</ele>
<time>2012-08-24T15:22:31Z</time>
</trkpt>
<trkpt lat="50.429037809370485" lon="19.40071821212712">
<ele>381.7607</ele>
<time>2012-08-24T15:22:35Z</time>
</trkpt>
<trkpt lat="50.42895197868201" lon="19.40099716186467">
<ele>382.1743</ele>
<time>2012-08-24T15:22:39Z</time>
</trkpt>
<trkpt lat="50.42885541915747" lon="19.4012546539301">
<ele>382.73874</ele>
<time>2012-08-24T15:22:43Z</time>
</trkpt>
<trkpt lat="50.428758859632936" lon="19.401533603667648">
<ele>382.91733</ele>
<time>2012-08-24T15:22:47Z</time>
</trkpt>
<trkpt lat="50.42867302894446" lon="19.401791095733078">
<ele>382.97385</ele>
<time>2012-08-24T15:22:51Z</time>
</trkpt>
<trkpt lat="50.42858719825598" lon="19.402048587798507">
<ele>382.55423</ele>
<time>2012-08-24T15:22:55Z</time>
</trkpt>
<trkpt lat="50.428512096403566" lon="19.402306079863937">
<ele>381.73785</ele>
<time>2012-08-24T15:22:59Z</time>
</trkpt>
<trkpt lat="50.42843699455115" lon="19.402563571929367">
<ele>381.23346</ele>
<time>2012-08-24T15:23:03Z</time>
</trkpt>
<trkpt lat="50.42837262153479" lon="19.402842521666916">
<ele>381.652</ele>
<time>2012-08-24T15:23:07Z</time>
</trkpt>
<trkpt lat="50.428308248518434" lon="19.403142929076584">
<ele>381.8899</ele>
<time>2012-08-24T15:23:11Z</time>
</trkpt>
<trkpt lat="50.428254604338136" lon="19.40346479415837">
<ele>382.64874</ele>
<time>2012-08-24T15:23:15Z</time>
</trkpt>
<trkpt lat="50.42819023132178" lon="19.40376520156804">
<ele>383.57245</ele>
<time>2012-08-24T15:23:19Z</time>
</trkpt>
<trkpt lat="50.42814731597754" lon="19.404044151305587">
<ele>384.5483</ele>
<time>2012-08-24T15:23:23Z</time>
</trkpt>
<trkpt lat="50.42808294296118" lon="19.404323101043136">
<ele>384.8571</ele>
<time>2012-08-24T15:23:27Z</time>
</trkpt>
<trkpt lat="50.428029298780885" lon="19.404602050780685">
<ele>384.95477</ele>
<time>2012-08-24T15:23:31Z</time>
</trkpt>
<trkpt lat="50.42796492576453" lon="19.404881000518234">
<ele>384.9857</ele>
<time>2012-08-24T15:23:35Z</time>
</trkpt>
<trkpt lat="50.42791128158423" lon="19.405159950255783">
<ele>384.3119</ele>
<time>2012-08-24T15:23:39Z</time>
</trkpt>
<trkpt lat="50.42781472205969" lon="19.40546035766545">
<ele>384.074</ele>
<time>2012-08-24T15:23:44Z</time>
</trkpt>
<trkpt lat="50.42767524719092" lon="19.405653476714523">
<ele>384.85153</ele>
<time>2012-08-24T15:23:48Z</time>
</trkpt>
<trkpt lat="50.42762160301062" lon="19.405932426452072">
<ele>386.21475</ele>
<time>2012-08-24T15:23:52Z</time>
</trkpt>
<trkpt lat="50.42764306068274" lon="19.40623283386174">
<ele>387.43512</ele>
<time>2012-08-24T15:23:56Z</time>
</trkpt>
<trkpt lat="50.42768597602698" lon="19.406533241271408">
<ele>387.82126</ele>
<time>2012-08-24T15:24:00Z</time>
</trkpt>
<trkpt lat="50.42772889137122" lon="19.406855106353195">
<ele>387.36533</ele>
<time>2012-08-24T15:24:04Z</time>
</trkpt>
<trkpt lat="50.427803993223634" lon="19.4071984291071">
<ele>387.1156</ele>
<time>2012-08-24T15:24:08Z</time>
</trkpt>
<trkpt lat="50.42785763740393" lon="19.40752029418889">
<ele>387.03656</ele>
<time>2012-08-24T15:24:12Z</time>
</trkpt>
<trkpt lat="50.42791128158423" lon="19.407863616942794">
<ele>387.01157</ele>
<time>2012-08-24T15:24:16Z</time>
</trkpt>
<trkpt lat="50.42796492576453" lon="19.4082069396967">
<ele>387.00366</ele>
<time>2012-08-24T15:24:20Z</time>
</trkpt>
<trkpt lat="50.428007841108766" lon="19.40848588943425">
<ele>386.56406</ele>
<time>2012-08-24T15:24:23Z</time>
</trkpt>
<trkpt lat="50.428061485289064" lon="19.408829212188156">
<ele>386.17847</ele>
<time>2012-08-24T15:24:27Z</time>
</trkpt>
<trkpt lat="50.42811512946936" lon="19.40919399261418">
<ele>386.30646</ele>
<time>2012-08-24T15:24:31Z</time>
</trkpt>
<trkpt lat="50.4281580448136" lon="19.40947294235173">
<ele>386.70743</ele>
<time>2012-08-24T15:24:34Z</time>
</trkpt>
<trkpt lat="50.42820096015784" lon="19.40975189208928">
<ele>386.87656</ele>
<time>2012-08-24T15:24:37Z</time>
</trkpt>
<trkpt lat="50.428265333174195" lon="19.410030841826828">
<ele>386.94794</ele>
<time>2012-08-24T15:24:40Z</time>
</trkpt>
<trkpt lat="50.428308248518434" lon="19.410331249236496">
<ele>386.97803</ele>
<time>2012-08-24T15:24:43Z</time>
</trkpt>
<trkpt lat="50.42836189269873" lon="19.410631656646164">
<ele>387.42822</ele>
<time>2012-08-24T15:24:46Z</time>
</trkpt>
<trkpt lat="50.42842626571509" lon="19.410910606383712">
<ele>388.1963</ele>
<time>2012-08-24T15:24:49Z</time>
</trkpt>
<trkpt lat="50.42847990989539" lon="19.41118955612126">
<ele>388.66092</ele>
<time>2012-08-24T15:24:52Z</time>
</trkpt>
<trkpt lat="50.428522825239625" lon="19.41146850585881">
<ele>388.85696</ele>
<time>2012-08-24T15:24:55Z</time>
</trkpt>
<trkpt lat="50.42857646941992" lon="19.411811828612716">
<ele>389.39224</ele>
<time>2012-08-24T15:24:59Z</time>
</trkpt>
<trkpt lat="50.42864084243628" lon="19.412155151366623">
<ele>389.8077</ele>
<time>2012-08-24T15:25:03Z</time>
</trkpt>
<trkpt lat="50.42869448661658" lon="19.41249847412053">
<ele>389.93915</ele>
<time>2012-08-24T15:25:07Z</time>
</trkpt>
<trkpt lat="50.428748130796876" lon="19.412820339202316">
<ele>389.40262</ele>
<time>2012-08-24T15:25:11Z</time>
</trkpt>
<trkpt lat="50.428801774977174" lon="19.413120746611984">
<ele>389.4555</ele>
<time>2012-08-24T15:25:15Z</time>
</trkpt>
<trkpt lat="50.42884469032141" lon="19.41344261169377">
<ele>389.82773</ele>
<time>2012-08-24T15:25:19Z</time>
</trkpt>
<trkpt lat="50.42889833450171" lon="19.413764476775558">
<ele>390.52362</ele>
<time>2012-08-24T15:25:23Z</time>
</trkpt>
<trkpt lat="50.42896270751807" lon="19.414086341857345">
<ele>391.97037</ele>
<time>2012-08-24T15:25:27Z</time>
</trkpt>
<trkpt lat="50.429016351698365" lon="19.414386749267013">
<ele>393.79532</ele>
<time>2012-08-24T15:25:31Z</time>
</trkpt>
<trkpt lat="50.429048538206544" lon="19.4147086143488">
<ele>395.19696</ele>
<time>2012-08-24T15:25:35Z</time>
</trkpt>
<trkpt lat="50.42908072471472" lon="19.415030479430587">
<ele>395.7459</ele>
<time>2012-08-24T15:25:39Z</time>
</trkpt>
<trkpt lat="50.42913436889502" lon="19.415352344512375">
<ele>396.1657</ele>
<time>2012-08-24T15:25:43Z</time>
</trkpt>
<trkpt lat="50.42917728423926" lon="19.415652751922043">
<ele>396.05243</ele>
<time>2012-08-24T15:25:47Z</time>
</trkpt>
<trkpt lat="50.42923092841956" lon="19.41595315933171">
<ele>395.5791</ele>
<time>2012-08-24T15:25:51Z</time>
</trkpt>
<trkpt lat="50.429284572599855" lon="19.41625356674138">
<ele>395.18323</ele>
<time>2012-08-24T15:25:55Z</time>
</trkpt>
<trkpt lat="50.42934894561621" lon="19.416553974151046">
<ele>395.05798</ele>
<time>2012-08-24T15:25:59Z</time>
</trkpt>
<trkpt lat="50.42939186096045" lon="19.416854381560714">
<ele>395.26443</ele>
<time>2012-08-24T15:26:03Z</time>
</trkpt>
<trkpt lat="50.42944550514075" lon="19.417154788970382">
<ele>395.08368</ele>
<time>2012-08-24T15:26:07Z</time>
</trkpt>
<trkpt lat="50.42948842048499" lon="19.41743373870793">
<ele>395.02646</ele>
<time>2012-08-24T15:26:11Z</time>
</trkpt>
<trkpt lat="50.429542064665284" lon="19.41775560378972">
<ele>395.00836</ele>
<time>2012-08-24T15:26:15Z</time>
</trkpt>
<trkpt lat="50.42948842048499" lon="19.418056011199386">
<ele>395.44016</ele>
<time>2012-08-24T15:26:19Z</time>
</trkpt>
<trkpt lat="50.42946696281287" lon="19.418399333953293">
<ele>395.82285</ele>
<time>2012-08-24T15:26:23Z</time>
</trkpt>
<trkpt lat="50.42943477630469" lon="19.41869974136296">
<ele>395.92526</ele>
<time>2012-08-24T15:26:26Z</time>
</trkpt>
<trkpt lat="50.42941331863257" lon="19.41900014877263">
<ele>395.96848</ele>
<time>2012-08-24T15:26:29Z</time>
</trkpt>
<trkpt lat="50.42940258979651" lon="19.419322013854416">
<ele>396.56482</ele>
<time>2012-08-24T15:26:32Z</time>
</trkpt>
<trkpt lat="50.42938113212439" lon="19.419665336608322">
<ele>397.39453</ele>
<time>2012-08-24T15:26:35Z</time>
</trkpt>
<trkpt lat="50.42935967445227" lon="19.41998720169011">
<ele>398.18207</ele>
<time>2012-08-24T15:26:38Z</time>
</trkpt>
<trkpt lat="50.42932748794409" lon="19.420287609099777">
<ele>398.65494</ele>
<time>2012-08-24T15:26:41Z</time>
</trkpt>
<trkpt lat="50.429295301435914" lon="19.420566558837326">
<ele>398.85443</ele>
<time>2012-08-24T15:26:44Z</time>
</trkpt>
<trkpt lat="50.429263114927736" lon="19.420845508574875">
<ele>398.9386</ele>
<time>2012-08-24T15:26:47Z</time>
</trkpt>
<trkpt lat="50.42923092841956" lon="19.42118883132878">
<ele>398.98056</ele>
<time>2012-08-24T15:26:51Z</time>
</trkpt>
<trkpt lat="50.42918801307532" lon="19.421532154082687">
<ele>399.24387</ele>
<time>2012-08-24T15:26:55Z</time>
</trkpt>
<trkpt lat="50.4291665554032" lon="19.421875476836593">
<ele>401.13184</ele>
<time>2012-08-24T15:26:59Z</time>
</trkpt>
<trkpt lat="50.42915582656714" lon="19.4222187995905">
<ele>402.8464</ele>
<time>2012-08-24T15:27:03Z</time>
</trkpt>
<trkpt lat="50.42913436889502" lon="19.422540664672287">
<ele>403.635</ele>
<time>2012-08-24T15:27:07Z</time>
</trkpt>
<trkpt lat="50.4291129112229" lon="19.422862529754074">
<ele>403.88452</ele>
<time>2012-08-24T15:27:11Z</time>
</trkpt>
<trkpt lat="50.42908072471472" lon="19.42318439483586">
<ele>403.96347</ele>
<time>2012-08-24T15:27:15Z</time>
</trkpt>
<trkpt lat="50.429048538206544" lon="19.423506259917648">
<ele>404.67203</ele>
<time>2012-08-24T15:27:19Z</time>
</trkpt>
<trkpt lat="50.429027080534425" lon="19.423828124999435">
<ele>404.89624</ele>
<time>2012-08-24T15:27:23Z</time>
</trkpt>
<trkpt lat="50.429005622862306" lon="19.424149990081222">
<ele>405.5453</ele>
<time>2012-08-24T15:27:27Z</time>
</trkpt>
<trkpt lat="50.42898416519019" lon="19.42447185516301">
<ele>406.57568</ele>
<time>2012-08-24T15:27:32Z</time>
</trkpt>
<trkpt lat="50.42897343635413" lon="19.424793720244796">
<ele>406.92447</ele>
<time>2012-08-24T15:27:38Z</time>
</trkpt>
<trkpt lat="50.42894124984595" lon="19.425115585326584">
<ele>407.8086</ele>
<time>2012-08-24T15:27:44Z</time>
</trkpt>
<trkpt lat="50.42890906333777" lon="19.42543745040837">
<ele>409.9038</ele>
<time>2012-08-24T15:27:49Z</time>
</trkpt>
<trkpt lat="50.42888760566565" lon="19.42573785781804">
<ele>411.77426</ele>
<time>2012-08-24T15:27:53Z</time>
</trkpt>
<trkpt lat="50.42886614799353" lon="19.426081180571945">
<ele>413.29575</ele>
<time>2012-08-24T15:27:57Z</time>
</trkpt>
<trkpt lat="50.42883396148535" lon="19.42644596099797">
<ele>413.77716</ele>
<time>2012-08-24T15:28:01Z</time>
</trkpt>
<trkpt lat="50.42881250381323" lon="19.426767826079757">
<ele>413.906</ele>
<time>2012-08-24T15:28:04Z</time>
</trkpt>
<trkpt lat="50.428791046141114" lon="19.427089691161544">
<ele>414.21033</ele>
<time>2012-08-24T15:28:07Z</time>
</trkpt>
<trkpt lat="50.428758859632936" lon="19.42745447158757">
<ele>414.66687</ele>
<time>2012-08-24T15:28:10Z</time>
</trkpt>
<trkpt lat="50.42872667312476" lon="19.427797794341476">
<ele>414.85947</ele>
<time>2012-08-24T15:28:13Z</time>
</trkpt>
<trkpt lat="50.42870521545264" lon="19.428141117095382">
<ele>414.9407</ele>
<time>2012-08-24T15:28:16Z</time>
</trkpt>
<trkpt lat="50.42867302894446" lon="19.42848443984929">
<ele>414.39685</ele>
<time>2012-08-24T15:28:19Z</time>
</trkpt>
<trkpt lat="50.42865157127234" lon="19.428806304931076">
<ele>414.16742</ele>
<time>2012-08-24T15:28:22Z</time>
</trkpt>
<trkpt lat="50.42861938476416" lon="19.429106712340744">
<ele>414.07062</ele>
<time>2012-08-24T15:28:25Z</time>
</trkpt>
<trkpt lat="50.42859792709204" lon="19.42940711975041">
<ele>413.7798</ele>
<time>2012-08-24T15:28:28Z</time>
</trkpt>
<trkpt lat="50.42856574058386" lon="19.429771900176437">
<ele>412.99673</ele>
<time>2012-08-24T15:28:32Z</time>
</trkpt>
<trkpt lat="50.428533554075685" lon="19.430072307586105">
<ele>412.4205</ele>
<time>2012-08-24T15:28:35Z</time>
</trkpt>
<trkpt lat="50.428512096403566" lon="19.430372714995773">
<ele>411.59927</ele>
<time>2012-08-24T15:28:38Z</time>
</trkpt>
<trkpt lat="50.42847990989539" lon="19.43067312240544">
<ele>411.0028</ele>
<time>2012-08-24T15:28:41Z</time>
</trkpt>
<trkpt lat="50.42844772338721" lon="19.43095207214299">
<ele>410.42307</ele>
<time>2012-08-24T15:28:44Z</time>
</trkpt>
<trkpt lat="50.42841553687903" lon="19.431252479552658">
<ele>410.17847</ele>
<time>2012-08-24T15:28:47Z</time>
</trkpt>
<trkpt lat="50.42837262153479" lon="19.431574344634445">
<ele>409.8253</ele>
<time>2012-08-24T15:28:50Z</time>
</trkpt>
<trkpt lat="50.42832970619055" lon="19.431874752044113">
<ele>409.34818</ele>
<time>2012-08-24T15:28:53Z</time>
</trkpt>
<trkpt lat="50.428308248518434" lon="19.4321966171259">
<ele>409.03485</ele>
<time>2012-08-24T15:29:01Z</time>
</trkpt>
<trkpt lat="50.428265333174195" lon="19.432497024535568">
<ele>408.7562</ele>
<time>2012-08-24T15:29:07Z</time>
</trkpt>
<trkpt lat="50.42823314666602" lon="19.432818889617355">
<ele>407.05835</ele>
<time>2012-08-24T15:29:12Z</time>
</trkpt>
<trkpt lat="50.42819023132178" lon="19.433119297027023">
<ele>405.75674</ele>
<time>2012-08-24T15:29:16Z</time>
</trkpt>
<trkpt lat="50.4281580448136" lon="19.43344116210881">
<ele>405.23944</ele>
<time>2012-08-24T15:29:20Z</time>
</trkpt>
<trkpt lat="50.42811512946936" lon="19.433741569518478">
<ele>405.07578</ele>
<time>2012-08-24T15:29:24Z</time>
</trkpt>
<trkpt lat="50.42808294296118" lon="19.434041976928146">
<ele>405.02396</ele>
<time>2012-08-24T15:29:28Z</time>
</trkpt>
<trkpt lat="50.428050756453004" lon="19.434342384337814">
<ele>405.2576</ele>
<time>2012-08-24T15:29:32Z</time>
</trkpt>
<trkpt lat="50.428007841108766" lon="19.434621334075363">
<ele>405.7651</ele>
<time>2012-08-24T15:29:36Z</time>
</trkpt>
<trkpt lat="50.42796492576453" lon="19.43492174148503">
<ele>406.60928</ele>
<time>2012-08-24T15:29:40Z</time>
</trkpt>
<trkpt lat="50.42792201042029" lon="19.43520069122258">
<ele>407.55997</ele>
<time>2012-08-24T15:29:44Z</time>
</trkpt>
<trkpt lat="50.42788982391211" lon="19.435544013976486">
<ele>408.14557</ele>
<time>2012-08-24T15:29:49Z</time>
</trkpt>
<trkpt lat="50.42785763740393" lon="19.43590879440251">
<ele>408.79724</ele>
<time>2012-08-24T15:29:54Z</time>
</trkpt>
<trkpt lat="50.42781472205969" lon="19.43618774414006">
<ele>409.51398</ele>
<time>2012-08-24T15:29:58Z</time>
</trkpt>
<trkpt lat="50.427771806715455" lon="19.436488151549728">
<ele>409.84622</ele>
<time>2012-08-24T15:30:02Z</time>
</trkpt>
<trkpt lat="50.42773962020728" lon="19.436788558959396">
<ele>410.20135</ele>
<time>2012-08-24T15:30:06Z</time>
</trkpt>
<trkpt lat="50.42771816253516" lon="19.437131881713302">
<ele>410.8105</ele>
<time>2012-08-24T15:30:11Z</time>
</trkpt>
<trkpt lat="50.42768597602698" lon="19.43743228912297">
<ele>410.94003</ele>
<time>2012-08-24T15:30:15Z</time>
</trkpt>
<trkpt lat="50.42764306068274" lon="19.43771123886052">
<ele>410.54352</ele>
<time>2012-08-24T15:30:19Z</time>
</trkpt>
<trkpt lat="50.42762160301062" lon="19.438033103942306">
<ele>409.92197</ele>
<time>2012-08-24T15:30:23Z</time>
</trkpt>
<trkpt lat="50.42758941650244" lon="19.438333511351974">
<ele>409.29172</ele>
<time>2012-08-24T15:30:27Z</time>
</trkpt>
<trkpt lat="50.427557229994264" lon="19.43865537643376">
<ele>408.5142</ele>
<time>2012-08-24T15:30:31Z</time>
</trkpt>
<trkpt lat="50.427514314650026" lon="19.438998699187668">
<ele>408.7408</ele>
<time>2012-08-24T15:30:35Z</time>
</trkpt>
<trkpt lat="50.42744994163367" lon="19.439342021941574">
<ele>409.49612</ele>
<time>2012-08-24T15:30:39Z</time>
</trkpt>
<trkpt lat="50.42741775512549" lon="19.439620971679123">
<ele>410.0374</ele>
<time>2012-08-24T15:30:42Z</time>
</trkpt>
<trkpt lat="50.42736411094519" lon="19.43994283676091">
<ele>410.69543</ele>
<time>2012-08-24T15:30:46Z</time>
</trkpt>
<trkpt lat="50.42732119560095" lon="19.440264701842697">
<ele>410.90363</ele>
<time>2012-08-24T15:30:50Z</time>
</trkpt>
<trkpt lat="50.427289009092775" lon="19.440586566924484">
<ele>410.9695</ele>
<time>2012-08-24T15:30:54Z</time>
</trkpt>
<trkpt lat="50.427256822584596" lon="19.440886974334152">
<ele>411.56848</ele>
<time>2012-08-24T15:30:58Z</time>
</trkpt>
<trkpt lat="50.42721390724036" lon="19.44118738174382">
<ele>411.86346</ele>
<time>2012-08-24T15:31:02Z</time>
</trkpt>
<trkpt lat="50.42717099189612" lon="19.441509246825607">
<ele>411.9568</ele>
<time>2012-08-24T15:31:06Z</time>
</trkpt>
<trkpt lat="50.42713880538794" lon="19.441831111907394">
<ele>411.98633</ele>
<time>2012-08-24T15:31:10Z</time>
</trkpt>
<trkpt lat="50.42710661887976" lon="19.44215297698918">
<ele>412.5738</ele>
<time>2012-08-24T15:31:14Z</time>
</trkpt>
<trkpt lat="50.427063703535524" lon="19.44247484207097">
<ele>412.86514</ele>
<time>2012-08-24T15:31:18Z</time>
</trkpt>
<trkpt lat="50.427020788191285" lon="19.442796707152755">
<ele>412.95734</ele>
<time>2012-08-24T15:31:22Z</time>
</trkpt>
<trkpt lat="50.42698860168311" lon="19.443118572234543">
<ele>413.6701</ele>
<time>2012-08-24T15:31:26Z</time>
</trkpt>
<trkpt lat="50.42695641517493" lon="19.44344043731633">
<ele>413.89563</ele>
<time>2012-08-24T15:31:30Z</time>
</trkpt>
<trkpt lat="50.42691349983069" lon="19.443783760070236">
<ele>413.96698</ele>
<time>2012-08-24T15:31:34Z</time>
</trkpt>
<trkpt lat="50.42687058448645" lon="19.444105625152023">
<ele>413.98956</ele>
<time>2012-08-24T15:31:38Z</time>
</trkpt>
<trkpt lat="50.42683839797827" lon="19.444384574889572">
<ele>413.9967</ele>
<time>2012-08-24T15:31:42Z</time>
</trkpt>
<trkpt lat="50.426806211470094" lon="19.44468498229924">
<ele>413.9992</ele>
<time>2012-08-24T15:31:47Z</time>
</trkpt>
<trkpt lat="50.426806211470094" lon="19.445006847381027">
<ele>412.8789</ele>
<time>2012-08-24T15:33:37Z</time>
</trkpt>
<trkpt lat="50.426763296125856" lon="19.445285797118576">
<ele>411.95856</ele>
<time>2012-08-24T15:33:42Z</time>
</trkpt>
<trkpt lat="50.42670965194556" lon="19.445564746856125">
<ele>410.47516</ele>
<time>2012-08-24T15:33:46Z</time>
</trkpt>
<trkpt lat="50.42665600776526" lon="19.44588661193791">
<ele>409.46677</ele>
<time>2012-08-24T15:33:50Z</time>
</trkpt>
<trkpt lat="50.42662382125708" lon="19.44618701934758">
<ele>409.14767</ele>
<time>2012-08-24T15:33:54Z</time>
</trkpt>
<trkpt lat="50.4265916347489" lon="19.446530342101486">
<ele>408.4686</ele>
<time>2012-08-24T15:33:58Z</time>
</trkpt>
<trkpt lat="50.426559448240724" lon="19.446852207183273">
<ele>408.14825</ele>
<time>2012-08-24T15:34:02Z</time>
</trkpt>
<trkpt lat="50.426527261732545" lon="19.4472169876093">
<ele>408.0469</ele>
<time>2012-08-24T15:34:06Z</time>
</trkpt>
<trkpt lat="50.426495075224366" lon="19.447495937346847">
<ele>408.0198</ele>
<time>2012-08-24T15:34:09Z</time>
</trkpt>
<trkpt lat="50.42645215988013" lon="19.447860717772873">
<ele>408.00626</ele>
<time>2012-08-24T15:34:13Z</time>
</trkpt>
<trkpt lat="50.42640924453589" lon="19.44813966751042">
<ele>408.00266</ele>
<time>2012-08-24T15:34:16Z</time>
</trkpt>
<trkpt lat="50.42637705802771" lon="19.44841861724797">
<ele>407.423</ele>
<time>2012-08-24T15:34:19Z</time>
</trkpt>
<trkpt lat="50.42633414268347" lon="19.44871902465764">
<ele>406.74094</ele>
<time>2012-08-24T15:34:22Z</time>
</trkpt>
<trkpt lat="50.426301956175294" lon="19.449040889739425">
<ele>406.0626</ele>
<time>2012-08-24T15:34:25Z</time>
</trkpt>
<trkpt lat="50.426259040831056" lon="19.44938421249333">
<ele>405.44827</ele>
<time>2012-08-24T15:34:28Z</time>
</trkpt>
<trkpt lat="50.42621612548682" lon="19.449748992919357">
<ele>404.75162</ele>
<time>2012-08-24T15:34:31Z</time>
</trkpt>
<trkpt lat="50.42617321014258" lon="19.450113773345382">
<ele>404.31708</ele>
<time>2012-08-24T15:34:34Z</time>
</trkpt>
<trkpt lat="50.42613029479834" lon="19.45045709609929">
<ele>404.13376</ele>
<time>2012-08-24T15:34:37Z</time>
</trkpt>
<trkpt lat="50.42609810829016" lon="19.450778961181076">
<ele>404.05643</ele>
<time>2012-08-24T15:34:40Z</time>
</trkpt>
<trkpt lat="50.42606592178198" lon="19.451100826262863">
<ele>403.7738</ele>
<time>2012-08-24T15:34:43Z</time>
</trkpt>
<trkpt lat="50.426044464109864" lon="19.45146560668889">
<ele>402.99484</ele>
<time>2012-08-24T15:34:47Z</time>
</trkpt>
<trkpt lat="50.426012277601686" lon="19.451787471770675">
<ele>401.9822</ele>
<time>2012-08-24T15:34:50Z</time>
</trkpt>
<trkpt lat="50.42596936225745" lon="19.452087879180343">
<ele>400.83624</ele>
<time>2012-08-24T15:34:53Z</time>
</trkpt>
<trkpt lat="50.42593717574927" lon="19.45238828659001">
<ele>399.77466</ele>
<time>2012-08-24T15:34:56Z</time>
</trkpt>
<trkpt lat="50.42590498924109" lon="19.45266723632756">
<ele>398.7487</ele>
<time>2012-08-24T15:34:59Z</time>
</trkpt>
<trkpt lat="50.42587280273291" lon="19.453032016753586">
<ele>396.67828</ele>
<time>2012-08-24T15:35:03Z</time>
</trkpt>
<trkpt lat="50.42584061622473" lon="19.45341825485173">
<ele>394.01932</ele>
<time>2012-08-24T15:35:07Z</time>
</trkpt>
<trkpt lat="50.425808429716554" lon="19.45369720458928">
<ele>392.4144</ele>
<time>2012-08-24T15:35:10Z</time>
</trkpt>
<trkpt lat="50.425808429716554" lon="19.453997611998947">
<ele>391.0186</ele>
<time>2012-08-24T15:35:13Z</time>
</trkpt>
<trkpt lat="50.425797700880494" lon="19.454298019408615">
<ele>389.99222</ele>
<time>2012-08-24T15:35:16Z</time>
</trkpt>
<trkpt lat="50.425797700880494" lon="19.454598426818283">
<ele>389.16858</ele>
<time>2012-08-24T15:35:19Z</time>
</trkpt>
<trkpt lat="50.425808429716554" lon="19.45494174957219">
<ele>387.79163</ele>
<time>2012-08-24T15:35:23Z</time>
</trkpt>
<trkpt lat="50.42584061622473" lon="19.455220699309738">
<ele>387.2505</ele>
<time>2012-08-24T15:35:27Z</time>
</trkpt>
<trkpt lat="50.42588353156897" lon="19.455542564391525">
<ele>386.27075</ele>
<time>2012-08-24T15:35:34Z</time>
</trkpt>
<trkpt lat="50.426001548765626" lon="19.455821514129074">
<ele>385.6107</ele>
<time>2012-08-24T15:35:40Z</time>
</trkpt>
<trkpt lat="50.426012277601686" lon="19.45612192153874">
<ele>385.06113</ele>
<time>2012-08-24T15:35:48Z</time>
</trkpt>
<trkpt lat="50.42596936225745" lon="19.456465244292648">
<ele>385.00815</ele>
<time>2012-08-24T15:35:55Z</time>
</trkpt>
<trkpt lat="50.42591571807715" lon="19.456808567046554">
<ele>385.00192</ele>
<time>2012-08-24T15:36:00Z</time>
</trkpt>
<trkpt lat="50.42586207389685" lon="19.45715188980046">
<ele>384.31702</ele>
<time>2012-08-24T15:36:04Z</time>
</trkpt>
<trkpt lat="50.425786972044435" lon="19.45743083953801">
<ele>384.1003</ele>
<time>2012-08-24T15:36:08Z</time>
</trkpt>
<trkpt lat="50.42565822601172" lon="19.457774162291916">
<ele>384.01785</ele>
<time>2012-08-24T15:36:14Z</time>
</trkpt>
<trkpt lat="50.425540208815065" lon="19.458053112029464">
<ele>384.25317</ele>
<time>2012-08-24T15:36:20Z</time>
</trkpt>
<trkpt lat="50.42542219161841" lon="19.458332061767013">
<ele>385.1171</ele>
<time>2012-08-24T15:36:26Z</time>
</trkpt>
<trkpt lat="50.425293445585694" lon="19.458611011504562">
<ele>386.04047</ele>
<time>2012-08-24T15:36:31Z</time>
</trkpt>
<trkpt lat="50.42517542838904" lon="19.45888996124211">
<ele>386.7723</ele>
<time>2012-08-24T15:36:36Z</time>
</trkpt>
<trkpt lat="50.425057411192384" lon="19.45916891097966">
<ele>387.50607</ele>
<time>2012-08-24T15:36:40Z</time>
</trkpt>
<trkpt lat="50.42491793632361" lon="19.459469318389328">
<ele>388.42184</ele>
<time>2012-08-24T15:36:44Z</time>
</trkpt>
<trkpt lat="50.424778461454835" lon="19.459726810454757">
<ele>389.50067</ele>
<time>2012-08-24T15:36:48Z</time>
</trkpt>
<trkpt lat="50.42464971542212" lon="19.459962844848068">
<ele>390.5256</ele>
<time>2012-08-24T15:36:52Z</time>
</trkpt>
<trkpt lat="50.424531698225465" lon="19.46019887924138">
<ele>391.53348</ele>
<time>2012-08-24T15:36:56Z</time>
</trkpt>
<trkpt lat="50.42442440986487" lon="19.460456371306808">
<ele>392.32678</ele>
<time>2012-08-24T15:37:01Z</time>
</trkpt>
<trkpt lat="50.42434930801245" lon="19.460778236388595">
<ele>392.8802</ele>
<time>2012-08-24T15:37:07Z</time>
</trkpt>
<trkpt lat="50.42422056197974" lon="19.46116447448674">
<ele>392.984</ele>
<time>2012-08-24T15:37:14Z</time>
</trkpt>
<trkpt lat="50.42411327361914" lon="19.46142196655217">
<ele>393.57306</ele>
<time>2012-08-24T15:37:18Z</time>
</trkpt>
<trkpt lat="50.424005985258546" lon="19.461722373961837">
<ele>393.86493</ele>
<time>2012-08-24T15:37:22Z</time>
</trkpt>
<trkpt lat="50.42389869689795" lon="19.462022781371505">
<ele>393.95724</ele>
<time>2012-08-24T15:37:26Z</time>
</trkpt>
<trkpt lat="50.423780679701295" lon="19.462344646453293">
<ele>393.98648</ele>
<time>2012-08-24T15:37:30Z</time>
</trkpt>
<trkpt lat="50.42366266250464" lon="19.46264505386296">
<ele>394.57385</ele>
<time>2012-08-24T15:37:34Z</time>
</trkpt>
<trkpt lat="50.423555374144044" lon="19.46290254592839">
<ele>394.86517</ele>
<time>2012-08-24T15:37:38Z</time>
</trkpt>
<trkpt lat="50.42342662811133" lon="19.46318149566594">
<ele>394.96802</ele>
<time>2012-08-24T15:37:43Z</time>
</trkpt>
<trkpt lat="50.423297882078614" lon="19.463460445403488">
<ele>395.676</ele>
<time>2012-08-24T15:37:48Z</time>
</trkpt>
<trkpt lat="50.4231691360459" lon="19.463739395141037">
<ele>396.50125</ele>
<time>2012-08-24T15:37:53Z</time>
</trkpt>
<trkpt lat="50.423029661177125" lon="19.464018344878586">
<ele>397.98325</ele>
<time>2012-08-24T15:37:59Z</time>
</trkpt>
<trkpt lat="50.42290091514441" lon="19.464254379271896">
<ele>399.5064</ele>
<time>2012-08-24T15:38:03Z</time>
</trkpt>
<trkpt lat="50.422761440275636" lon="19.464533329009445">
<ele>400.52744</ele>
<time>2012-08-24T15:38:07Z</time>
</trkpt>
<trkpt lat="50.42265415191504" lon="19.464812278746994">
<ele>400.60046</ele>
<time>2012-08-24T15:38:11Z</time>
</trkpt>
<trkpt lat="50.422568321226564" lon="19.46513414382878">
<ele>399.8925</ele>
<time>2012-08-24T15:38:16Z</time>
</trkpt>
<trkpt lat="50.42249321937415" lon="19.465477466582687">
<ele>398.90884</ele>
<time>2012-08-24T15:38:22Z</time>
</trkpt>
<trkpt lat="50.42237520217749" lon="19.46569204330388">
<ele>398.03757</ele>
<time>2012-08-24T15:38:26Z</time>
</trkpt>
<trkpt lat="50.42217135429236" lon="19.465777873992355">
<ele>397.24622</ele>
<time>2012-08-24T15:38:31Z</time>
</trkpt>
<trkpt lat="50.42198896407935" lon="19.465734958648117">
<ele>396.6404</ele>
<time>2012-08-24T15:38:35Z</time>
</trkpt>
<trkpt lat="50.421795845030275" lon="19.46562767028752">
<ele>395.90198</ele>
<time>2012-08-24T15:38:40Z</time>
</trkpt>
<trkpt lat="50.4216027259812" lon="19.465520381926925">
<ele>393.9993</ele>
<time>2012-08-24T15:38:47Z</time>
</trkpt>
<trkpt lat="50.42142033576819" lon="19.465456008910568">
<ele>391.58704</ele>
<time>2012-08-24T15:38:53Z</time>
</trkpt>
<trkpt lat="50.42121648788306" lon="19.46539163589421">
<ele>389.5485</ele>
<time>2012-08-24T15:38:58Z</time>
</trkpt>
<trkpt lat="50.421023368833986" lon="19.465348720549972">
<ele>387.78934</ele>
<time>2012-08-24T15:39:03Z</time>
</trkpt>
<trkpt lat="50.42084097862097" lon="19.465348720549972">
<ele>386.50372</ele>
<time>2012-08-24T15:39:08Z</time>
</trkpt>
<trkpt lat="50.42063713073584" lon="19.465327262877853">
<ele>385.43594</ele>
<time>2012-08-24T15:39:13Z</time>
</trkpt>
<trkpt lat="50.42044401168677" lon="19.465284347533615">
<ele>384.52533</ele>
<time>2012-08-24T15:39:18Z</time>
</trkpt>
<trkpt lat="50.420250892637696" lon="19.465284347533615">
<ele>384.12466</ele>
<time>2012-08-24T15:39:23Z</time>
</trkpt>
<trkpt lat="50.420036315916505" lon="19.465305805205734">
<ele>383.02078</ele>
<time>2012-08-24T15:39:28Z</time>
</trkpt>
<trkpt lat="50.419821739195314" lon="19.465348720549972">
<ele>382.67975</ele>
<time>2012-08-24T15:39:33Z</time>
</trkpt>
<trkpt lat="50.4196393489823" lon="19.46539163589421">
<ele>382.2151</ele>
<time>2012-08-24T15:39:37Z</time>
</trkpt>
<trkpt lat="50.41945695876929" lon="19.46543455123845">
<ele>381.81805</ele>
<time>2012-08-24T15:39:41Z</time>
</trkpt>
<trkpt lat="50.419263839720216" lon="19.465456008910568">
<ele>380.90762</ele>
<time>2012-08-24T15:39:44Z</time>
</trkpt>
<trkpt lat="50.419070720671144" lon="19.465520381926925">
<ele>380.72467</ele>
<time>2012-08-24T15:39:48Z</time>
</trkpt>
<trkpt lat="50.41888833045813" lon="19.465541839599044">
<ele>381.16287</ele>
<time>2012-08-24T15:39:52Z</time>
</trkpt>
<trkpt lat="50.41869521140906" lon="19.465584754943283">
<ele>382.31326</ele>
<time>2012-08-24T15:39:56Z</time>
</trkpt>
<trkpt lat="50.418512821196046" lon="19.46562767028752">
<ele>382.2046</ele>
<time>2012-08-24T15:40:00Z</time>
</trkpt>
<trkpt lat="50.41833043098303" lon="19.46564912795964">
<ele>381.19363</ele>
<time>2012-08-24T15:40:04Z</time>
</trkpt>
<trkpt lat="50.4181265830979" lon="19.46569204330388">
<ele>382.3269</ele>
<time>2012-08-24T15:40:08Z</time>
</trkpt>
<trkpt lat="50.41793346404883" lon="19.465756416320236">
<ele>384.48624</ele>
<time>2012-08-24T15:40:12Z</time>
</trkpt>
<trkpt lat="50.4177296161637" lon="19.465820789336593">
<ele>386.40347</ele>
<time>2012-08-24T15:40:17Z</time>
</trkpt>
<trkpt lat="50.417515039442506" lon="19.46590662002507">
<ele>386.28323</ele>
<time>2012-08-24T15:40:22Z</time>
</trkpt>
<trkpt lat="50.417321920393434" lon="19.465970993041427">
<ele>386.06723</ele>
<time>2012-08-24T15:40:27Z</time>
</trkpt>
<trkpt lat="50.4171180725083" lon="19.466056823729904">
<ele>385.76596</ele>
<time>2012-08-24T15:40:32Z</time>
</trkpt>
<trkpt lat="50.41690349578711" lon="19.46612119674626">
<ele>385.86536</ele>
<time>2012-08-24T15:40:37Z</time>
</trkpt>
<trkpt lat="50.41669964790198" lon="19.4661641120905">
<ele>385.96805</ele>
<time>2012-08-24T15:40:42Z</time>
</trkpt>
<trkpt lat="50.41649580001685" lon="19.466228485106857">
<ele>385.99243</ele>
<time>2012-08-24T15:40:47Z</time>
</trkpt>
<trkpt lat="50.416302680967775" lon="19.466271400451095">
<ele>385.9982</ele>
<time>2012-08-24T15:40:52Z</time>
</trkpt>
<trkpt lat="50.41609883308264" lon="19.466292858123214">
<ele>385.9997</ele>
<time>2012-08-24T15:40:58Z</time>
</trkpt>
<trkpt lat="50.41590571403357" lon="19.466335773467453">
<ele>385.99994</ele>
<time>2012-08-24T15:41:04Z</time>
</trkpt>
<trkpt lat="50.41570186614844" lon="19.466357231139572">
<ele>386.0</ele>
<time>2012-08-24T15:41:10Z</time>
</trkpt>
<trkpt lat="50.415519475935426" lon="19.466357231139572">
<ele>386.0</ele>
<time>2012-08-24T15:41:16Z</time>
</trkpt>
<trkpt lat="50.41540145873877" lon="19.46663618087712">
<ele>386.7627</ele>
<time>2012-08-24T15:41:24Z</time>
</trkpt>
<trkpt lat="50.415315628050294" lon="19.46691513061467">
<ele>387.36243</ele>
<time>2012-08-24T15:41:28Z</time>
</trkpt>
<trkpt lat="50.41522979736182" lon="19.467215538024337">
<ele>387.79828</ele>
<time>2012-08-24T15:41:32Z</time>
</trkpt>
<trkpt lat="50.41516542434546" lon="19.467494487761886">
<ele>387.26852</ele>
<time>2012-08-24T15:41:37Z</time>
</trkpt>
<trkpt lat="50.41511178016516" lon="19.467773437499435">
<ele>386.6103</ele>
<time>2012-08-24T15:41:43Z</time>
</trkpt>
<trkpt lat="50.415025949476686" lon="19.468030929564865">
<ele>385.8586</ele>
<time>2012-08-24T15:41:49Z</time>
</trkpt>
<trkpt lat="50.41495084762427" lon="19.468331336974533">
<ele>385.20377</ele>
<time>2012-08-24T15:41:54Z</time>
</trkpt>
<trkpt lat="50.41488647460791" lon="19.4686317443842">
<ele>385.62646</ele>
<time>2012-08-24T15:41:59Z</time>
</trkpt>
<trkpt lat="50.414811372755494" lon="19.46891069412175">
<ele>385.91135</ele>
<time>2012-08-24T15:42:04Z</time>
</trkpt>
<trkpt lat="50.41471481323096" lon="19.4691896438593">
<ele>385.97897</ele>
<time>2012-08-24T15:42:09Z</time>
</trkpt>
<trkpt lat="50.41462898254248" lon="19.469468593596847">
<ele>385.995</ele>
<time>2012-08-24T15:42:14Z</time>
</trkpt>
<trkpt lat="50.414543151854005" lon="19.469747543334396">
<ele>385.9988</ele>
<time>2012-08-24T15:42:19Z</time>
</trkpt>
<trkpt lat="50.41445732116553" lon="19.470026493071945">
<ele>385.17776</ele>
<time>2012-08-24T15:42:25Z</time>
</trkpt>
<trkpt lat="50.41437149047705" lon="19.470283985137375">
<ele>385.72577</ele>
<time>2012-08-24T15:42:30Z</time>
</trkpt>
<trkpt lat="50.414285659788575" lon="19.470584392547043">
<ele>385.93494</ele>
<time>2012-08-24T15:42:35Z</time>
</trkpt>
<trkpt lat="50.41422128677222" lon="19.47086334228459">
<ele>386.42206</ele>
<time>2012-08-24T15:42:40Z</time>
</trkpt>
<trkpt lat="50.4141461849198" lon="19.47112083435002">
<ele>387.44098</ele>
<time>2012-08-24T15:42:45Z</time>
</trkpt>
<trkpt lat="50.414049625395265" lon="19.47142124175969">
<ele>387.86734</ele>
<time>2012-08-24T15:42:50Z</time>
</trkpt>
<trkpt lat="50.41396379470679" lon="19.471743106841476">
<ele>388.7984</ele>
<time>2012-08-24T15:42:56Z</time>
</trkpt>
<trkpt lat="50.41387796401831" lon="19.472064971923263">
<ele>388.95215</ele>
<time>2012-08-24T15:43:01Z</time>
</trkpt>
<trkpt lat="50.413802862165895" lon="19.472343921660812">
<ele>388.22595</ele>
<time>2012-08-24T15:43:06Z</time>
</trkpt>
<trkpt lat="50.41372776031348" lon="19.47260141372624">
<ele>387.29092</ele>
<time>2012-08-24T15:43:11Z</time>
</trkpt>
<trkpt lat="50.413641929625" lon="19.47290182113591">
<ele>387.06903</ele>
<time>2012-08-24T15:43:16Z</time>
</trkpt>
<trkpt lat="50.413534641264405" lon="19.473223686217697">
<ele>386.44373</ele>
<time>2012-08-24T15:43:20Z</time>
</trkpt>
<trkpt lat="50.41345953941199" lon="19.473567008971603">
<ele>386.07898</ele>
<time>2012-08-24T15:43:26Z</time>
</trkpt>
<trkpt lat="50.41336297988745" lon="19.473845958709152">
<ele>385.58124</ele>
<time>2012-08-24T15:43:31Z</time>
</trkpt>
<trkpt lat="50.413287878035035" lon="19.47414636611882">
<ele>385.92548</ele>
<time>2012-08-24T15:43:37Z</time>
</trkpt>
<trkpt lat="50.41322350501868" lon="19.47442531585637">
<ele>387.20676</ele>
<time>2012-08-24T15:43:52Z</time>
</trkpt>
<trkpt lat="50.41310548782202" lon="19.474725723266037">
<ele>387.99902</ele>
<time>2012-08-24T15:43:56Z</time>
</trkpt>
<trkpt lat="50.41298747062537" lon="19.475026130675705">
<ele>388.9333</ele>
<time>2012-08-24T15:44:00Z</time>
</trkpt>
<trkpt lat="50.41290163993689" lon="19.47536945342961">
<ele>389.66248</ele>
<time>2012-08-24T15:44:04Z</time>
</trkpt>
<trkpt lat="50.41293382644507" lon="19.475734233855636">
<ele>389.9199</ele>
<time>2012-08-24T15:44:09Z</time>
</trkpt>
<trkpt lat="50.413030385969606" lon="19.475991725921066">
<ele>389.0474</ele>
<time>2012-08-24T15:44:14Z</time>
</trkpt>
<trkpt lat="50.41312694549414" lon="19.476249217986496">
<ele>388.3314</ele>
<time>2012-08-24T15:44:18Z</time>
</trkpt>
<trkpt lat="50.41322350501868" lon="19.476528167724044">
<ele>387.42126</ele>
<time>2012-08-24T15:44:22Z</time>
</trkpt>
<trkpt lat="50.413287878035035" lon="19.476828575133712">
<ele>386.16638</ele>
<time>2012-08-24T15:44:27Z</time>
</trkpt>
<trkpt lat="50.41335225105139" lon="19.47710752487126">
<ele>384.8393</ele>
<time>2012-08-24T15:44:32Z</time>
</trkpt>
<trkpt lat="50.41343808173987" lon="19.47736501693669">
<ele>384.14938</ele>
<time>2012-08-24T15:44:38Z</time>
</trkpt>
<trkpt lat="50.413534641264405" lon="19.47762250900212">
<ele>384.01993</ele>
<time>2012-08-24T15:44:45Z</time>
</trkpt>
<trkpt lat="50.41360974311682" lon="19.47790145873967">
<ele>384.00354</ele>
<time>2012-08-24T15:44:51Z</time>
</trkpt>
<trkpt lat="50.41368484496924" lon="19.47818040847722">
<ele>384.00064</ele>
<time>2012-08-24T15:44:57Z</time>
</trkpt>
<trkpt lat="50.41371703147742" lon="19.478459358214767">
<ele>384.76285</ele>
<time>2012-08-24T15:45:02Z</time>
</trkpt>
<trkpt lat="50.41370630264136" lon="19.478824138640793">
<ele>385.38123</ele>
<time>2012-08-24T15:45:07Z</time>
</trkpt>
<trkpt lat="50.41367411613318" lon="19.47912454605046">
<ele>385.80423</ele>
<time>2012-08-24T15:45:11Z</time>
</trkpt>
<trkpt lat="50.413641929625" lon="19.479467868804367">
<ele>386.51617</ele>
<time>2012-08-24T15:45:15Z</time>
</trkpt>
<trkpt lat="50.4136955738053" lon="19.479789733886154">
<ele>387.46332</ele>
<time>2012-08-24T15:45:20Z</time>
</trkpt>
<trkpt lat="50.41372776031348" lon="19.480090141295822">
<ele>387.8302</ele>
<time>2012-08-24T15:45:24Z</time>
</trkpt>
<trkpt lat="50.41384577751013" lon="19.480454921721847">
<ele>387.983</ele>
<time>2012-08-24T15:45:32Z</time>
</trkpt>
<trkpt lat="50.413813591001954" lon="19.480798244475753">
<ele>387.74982</ele>
<time>2012-08-24T15:45:48Z</time>
</trkpt>
<trkpt lat="50.4136955738053" lon="19.48116302490178">
<ele>387.23724</ele>
<time>2012-08-24T15:45:52Z</time>
</trkpt>
<trkpt lat="50.41359901428076" lon="19.481441974639328">
<ele>387.1001</ele>
<time>2012-08-24T15:45:55Z</time>
</trkpt>
<trkpt lat="50.41349172592017" lon="19.48167800903264">
<ele>386.6188</ele>
<time>2012-08-24T15:45:57Z</time>
</trkpt>
<trkpt lat="50.413320064543214" lon="19.481956958770187">
<ele>386.26105</ele>
<time>2012-08-24T15:46:00Z</time>
</trkpt>
<trkpt lat="50.4131376743302" lon="19.48217153549138">
<ele>386.61014</ele>
<time>2012-08-24T15:46:03Z</time>
</trkpt>
<trkpt lat="50.41294455528113" lon="19.482321739196212">
<ele>387.9057</ele>
<time>2012-08-24T15:46:05Z</time>
</trkpt>
<trkpt lat="50.41275143623206" lon="19.482471942901046">
<ele>389.07196</ele>
<time>2012-08-24T15:46:07Z</time>
</trkpt>
<trkpt lat="50.412569046019044" lon="19.482557773589523">
<ele>389.91547</ele>
<time>2012-08-24T15:46:09Z</time>
</trkpt>
<trkpt lat="50.41235446929785" lon="19.482686519622238">
<ele>390.54248</ele>
<time>2012-08-24T15:46:12Z</time>
</trkpt>
<trkpt lat="50.4121828079209" lon="19.48285818099919">
<ele>389.73413</ele>
<time>2012-08-24T15:46:16Z</time>
</trkpt>
<trkpt lat="50.412043333052125" lon="19.483072757720382">
<ele>389.30972</ele>
<time>2012-08-24T15:46:19Z</time>
</trkpt>
<trkpt lat="50.41190385818335" lon="19.483330249785812">
<ele>388.51987</ele>
<time>2012-08-24T15:46:23Z</time>
</trkpt>
<trkpt lat="50.411807298658815" lon="19.48358774185124">
<ele>387.5144</ele>
<time>2012-08-24T15:46:29Z</time>
</trkpt>
<trkpt lat="50.41172146797034" lon="19.48386669158879">
<ele>385.83203</ele>
<time>2012-08-24T15:46:35Z</time>
</trkpt>
<trkpt lat="50.41163563728186" lon="19.48416709899846">
<ele>384.61932</ele>
<time>2012-08-24T15:46:40Z</time>
</trkpt>
<trkpt lat="50.411549806593385" lon="19.48442459106389">
<ele>384.19595</ele>
<time>2012-08-24T15:46:44Z</time>
</trkpt>
<trkpt lat="50.41145324706885" lon="19.484703540801437">
<ele>384.0465</ele>
<time>2012-08-24T15:46:49Z</time>
</trkpt>
<trkpt lat="50.41133522987219" lon="19.484982490538986">
<ele>384.01105</ele>
<time>2012-08-24T15:46:54Z</time>
</trkpt>
<trkpt lat="50.41124939918372" lon="19.485261440276535">
<ele>383.23993</ele>
<time>2012-08-24T15:46:59Z</time>
</trkpt>
<trkpt lat="50.4111742973313" lon="19.485518932341964">
<ele>383.07593</ele>
<time>2012-08-24T15:47:03Z</time>
</trkpt>
<trkpt lat="50.41109919547888" lon="19.485797882079513">
<ele>382.1959</ele>
<time>2012-08-24T15:47:07Z</time>
</trkpt>
<trkpt lat="50.411034822462526" lon="19.486076831817062">
<ele>381.31702</ele>
<time>2012-08-24T15:47:10Z</time>
</trkpt>
<trkpt lat="50.41097044944617" lon="19.48635578155461">
<ele>381.38373</ele>
<time>2012-08-24T15:47:13Z</time>
</trkpt>
<trkpt lat="50.41090607642981" lon="19.48663473129216">
<ele>381.99002</ele>
<time>2012-08-24T15:47:16Z</time>
</trkpt>
<trkpt lat="50.41084170341345" lon="19.48691368102971">
<ele>383.40204</ele>
<time>2012-08-24T15:47:19Z</time>
</trkpt>
<trkpt lat="50.41075587272498" lon="19.487257003783615">
<ele>385.3225</ele>
<time>2012-08-24T15:47:23Z</time>
</trkpt>
<trkpt lat="50.41069149970862" lon="19.48760032653752">
<ele>387.04736</ele>
<time>2012-08-24T15:47:27Z</time>
</trkpt>
<trkpt lat="50.4106163978562" lon="19.487922191619308">
<ele>388.38217</ele>
<time>2012-08-24T15:47:31Z</time>
</trkpt>
<trkpt lat="50.410530567167726" lon="19.488244056701095">
<ele>388.8045</ele>
<time>2012-08-24T15:47:35Z</time>
</trkpt>
<trkpt lat="50.41043400764319" lon="19.488544464110763">
<ele>389.18814</ele>
<time>2012-08-24T15:47:39Z</time>
</trkpt>
<trkpt lat="50.41033744811865" lon="19.488801956176193">
<ele>389.74313</ele>
<time>2012-08-24T15:47:43Z</time>
</trkpt>
<trkpt lat="50.410219430922" lon="19.489016532897384">
<ele>389.91873</ele>
<time>2012-08-24T15:47:47Z</time>
</trkpt>
<trkpt lat="50.41009068488928" lon="19.489274024962814">
<ele>389.9807</ele>
<time>2012-08-24T15:47:52Z</time>
</trkpt>
<trkpt lat="50.40997266769263" lon="19.489510059356125">
<ele>389.99542</ele>
<time>2012-08-24T15:47:57Z</time>
</trkpt>
<trkpt lat="50.40987610816809" lon="19.489767551421554">
<ele>389.9989</ele>
<time>2012-08-24T15:48:02Z</time>
</trkpt>
<trkpt lat="50.409833192823854" lon="19.490067958831222">
<ele>389.99976</ele>
<time>2012-08-24T15:48:07Z</time>
</trkpt>
<trkpt lat="50.409801006315675" lon="19.49034690856877">
<ele>389.99994</ele>
<time>2012-08-24T15:48:13Z</time>
</trkpt>
<trkpt lat="50.409768819807496" lon="19.490668773650558">
<ele>390.0</ele>
<time>2012-08-24T15:48:19Z</time>
</trkpt>
<trkpt lat="50.40973663329932" lon="19.491012096404464">
<ele>390.0</ele>
<time>2012-08-24T15:48:25Z</time>
</trkpt>
<trkpt lat="50.40970444679114" lon="19.491312503814132">
<ele>390.25</ele>
<time>2012-08-24T15:48:30Z</time>
</trkpt>
<trkpt lat="50.40968298911902" lon="19.49163436889592">
<ele>390.86652</ele>
<time>2012-08-24T15:48:36Z</time>
</trkpt>
<trkpt lat="50.40965080261084" lon="19.491934776305587">
<ele>391.55438</ele>
<time>2012-08-24T15:48:42Z</time>
</trkpt>
<trkpt lat="50.409564971922364" lon="19.492192268371017">
<ele>391.9207</ele>
<time>2012-08-24T15:48:48Z</time>
</trkpt>
<trkpt lat="50.40940403938147" lon="19.49236392974797">
<ele>392.74387</ele>
<time>2012-08-24T15:48:53Z</time>
</trkpt>
<trkpt lat="50.40922164916846" lon="19.492449760436447">
<ele>394.18457</ele>
<time>2012-08-24T15:48:57Z</time>
</trkpt>
<trkpt lat="50.409039258955445" lon="19.492492675780685">
<ele>396.5467</ele>
<time>2012-08-24T15:49:01Z</time>
</trkpt>
<trkpt lat="50.408824682234254" lon="19.492557048797043">
<ele>398.3387</ele>
<time>2012-08-24T15:49:06Z</time>
</trkpt>
<trkpt lat="50.4086530208573" lon="19.49264287948552">
<ele>399.3689</ele>
<time>2012-08-24T15:49:10Z</time>
</trkpt>
<trkpt lat="50.40848135948035" lon="19.492728710173996">
<ele>399.80032</ele>
<time>2012-08-24T15:49:14Z</time>
</trkpt>
<trkpt lat="50.408298969267335" lon="19.49283599853459">
<ele>399.93683</ele>
<time>2012-08-24T15:49:18Z</time>
</trkpt>
<trkpt lat="50.40812730789038" lon="19.492943286895187">
<ele>400.6636</ele>
<time>2012-08-24T15:49:22Z</time>
</trkpt>
<trkpt lat="50.40794491767737" lon="19.493007659911544">
<ele>400.89355</ele>
<time>2012-08-24T15:49:26Z</time>
</trkpt>
<trkpt lat="50.4077517986283" lon="19.493072032927902">
<ele>400.9663</ele>
<time>2012-08-24T15:49:30Z</time>
</trkpt>
<trkpt lat="50.407547950743165" lon="19.49309349060002">
<ele>400.98935</ele>
<time>2012-08-24T15:49:34Z</time>
</trkpt>
<trkpt lat="50.407322645185914" lon="19.49311494827214">
<ele>401.57477</ele>
<time>2012-08-24T15:49:38Z</time>
</trkpt>
<trkpt lat="50.4071402549729" lon="19.49309349060002">
<ele>401.8206</ele>
<time>2012-08-24T15:49:41Z</time>
</trkpt>
<trkpt lat="50.40691494941565" lon="19.493050575255783">
<ele>401.94324</ele>
<time>2012-08-24T15:49:45Z</time>
</trkpt>
<trkpt lat="50.4066896438584" lon="19.493007659911544">
<ele>401.98203</ele>
<time>2012-08-24T15:49:49Z</time>
</trkpt>
<trkpt lat="50.40648579597327" lon="19.492964744567306">
<ele>401.99432</ele>
<time>2012-08-24T15:49:53Z</time>
</trkpt>
<trkpt lat="50.406281948088136" lon="19.492921829223068">
<ele>401.9982</ele>
<time>2012-08-24T15:49:57Z</time>
</trkpt>
<trkpt lat="50.406088829039064" lon="19.49287891387883">
<ele>401.99942</ele>
<time>2012-08-24T15:50:01Z</time>
</trkpt>
<trkpt lat="50.40590643882605" lon="19.49283599853459">
<ele>401.4217</ele>
<time>2012-08-24T15:50:05Z</time>
</trkpt>
<trkpt lat="50.40569186210486" lon="19.49283599853459">
<ele>400.52194</ele>
<time>2012-08-24T15:50:10Z</time>
</trkpt>
<trkpt lat="50.40549874305579" lon="19.49283599853459">
<ele>399.44028</ele>
<time>2012-08-24T15:50:15Z</time>
</trkpt>
<trkpt lat="50.405284166334596" lon="19.492771625518234">
<ele>398.4209</ele>
<time>2012-08-24T15:50:20Z</time>
</trkpt>
<trkpt lat="50.405058860777345" lon="19.492707252501877">
<ele>398.04214</ele>
<time>2012-08-24T15:50:28Z</time>
</trkpt>
<trkpt lat="50.40484428405615" lon="19.49266433715764">
<ele>398.00317</ele>
<time>2012-08-24T15:50:37Z</time>
</trkpt>
<trkpt lat="50.40466189384314" lon="19.49264287948552">
<ele>398.57855</ele>
<time>2012-08-24T15:50:44Z</time>
</trkpt>
<trkpt lat="50.40446877479407" lon="19.49259996414128">
<ele>398.9578</ele>
<time>2012-08-24T15:50:52Z</time>
</trkpt>
<trkpt lat="50.40425419807288" lon="19.49259996414128">
<ele>399.24823</ele>
<time>2012-08-24T15:51:03Z</time>
</trkpt>
<trkpt lat="50.404061079023805" lon="19.4926214218134">
<ele>399.11563</ele>
<time>2012-08-24T15:51:16Z</time>
</trkpt>
<trkpt lat="50.40385723113867" lon="19.49264287948552">
<ele>397.92914</ele>
<time>2012-08-24T15:51:32Z</time>
</trkpt>
<trkpt lat="50.4036641120896" lon="19.49266433715764">
<ele>394.0004</ele>
<time>2012-08-24T15:52:08Z</time>
</trkpt>
<trkpt lat="50.40343880653235" lon="19.492685794829757">
<ele>390.12775</ele>
<time>2012-08-24T15:52:14Z</time>
</trkpt>
<trkpt lat="50.40320277213904" lon="19.49283599853459">
<ele>386.62308</ele>
<time>2012-08-24T15:52:20Z</time>
</trkpt>
<trkpt lat="50.40300965308997" lon="19.49285745620671">
<ele>384.3553</ele>
<time>2012-08-24T15:52:26Z</time>
</trkpt>
<trkpt lat="50.402773618696656" lon="19.49290037155095">
<ele>382.123</ele>
<time>2012-08-24T15:52:34Z</time>
</trkpt>
<trkpt lat="50.402580499647584" lon="19.492921829223068">
<ele>380.18423</ele>
<time>2012-08-24T15:52:40Z</time>
</trkpt>
<trkpt lat="50.40237665176245" lon="19.492964744567306">
<ele>378.59744</ele>
<time>2012-08-24T15:52:45Z</time>
</trkpt>
<trkpt lat="50.40216207504126" lon="19.492943286895187">
<ele>377.3791</ele>
<time>2012-08-24T15:52:50Z</time>
</trkpt>
<trkpt lat="50.40196895599219" lon="19.492943286895187">
<ele>375.74884</ele>
<time>2012-08-24T15:52:54Z</time>
</trkpt>
<trkpt lat="50.401754379271" lon="19.492921829223068">
<ele>374.415</ele>
<time>2012-08-24T15:52:59Z</time>
</trkpt>
<trkpt lat="50.401561260221925" lon="19.492814540862472">
<ele>373.84848</ele>
<time>2012-08-24T15:53:04Z</time>
</trkpt>
<trkpt lat="50.40138959884497" lon="19.49266433715764">
<ele>373.26846</ele>
<time>2012-08-24T15:53:08Z</time>
</trkpt>
<trkpt lat="50.40120720863196" lon="19.492557048797043">
<ele>372.40134</ele>
<time>2012-08-24T15:53:12Z</time>
</trkpt>
<trkpt lat="50.401024818418946" lon="19.492471218108566">
<ele>372.12698</ele>
<time>2012-08-24T15:53:16Z</time>
</trkpt>
<trkpt lat="50.400820970533815" lon="19.492428302764328">
<ele>372.60825</ele>
<time>2012-08-24T15:53:21Z</time>
</trkpt>
<trkpt lat="50.40062785148474" lon="19.492278099059494">
<ele>374.38385</ele>
<time>2012-08-24T15:53:25Z</time>
</trkpt>
<trkpt lat="50.40045619010779" lon="19.49214935302678">
<ele>374.8538</ele>
<time>2012-08-24T15:53:30Z</time>
</trkpt>
<trkpt lat="50.40025234222266" lon="19.491956233977707">
<ele>374.11395</ele>
<time>2012-08-24T15:53:37Z</time>
</trkpt>
<trkpt lat="50.400059223173585" lon="19.49184894561711">
<ele>374.9539</ele>
<time>2012-08-24T15:53:43Z</time>
</trkpt>
<trkpt lat="50.39988756179663" lon="19.491741657256515">
<ele>376.32986</ele>
<time>2012-08-24T15:53:48Z</time>
</trkpt>
<trkpt lat="50.39969444274756" lon="19.49163436889592">
<ele>378.08093</ele>
<time>2012-08-24T15:53:54Z</time>
</trkpt>
<trkpt lat="50.39949059486243" lon="19.491569995879562">
<ele>379.5609</ele>
<time>2012-08-24T15:54:01Z</time>
</trkpt>
<trkpt lat="50.399286746977296" lon="19.491505622863205">
<ele>379.17868</ele>
<time>2012-08-24T15:54:08Z</time>
</trkpt>
<trkpt lat="50.39911508560034" lon="19.491419792174728">
<ele>379.04242</ele>
<time>2012-08-24T15:54:13Z</time>
</trkpt>
<trkpt lat="50.39888978004309" lon="19.491312503814132">
<ele>378.05872</ele>
<time>2012-08-24T15:54:23Z</time>
</trkpt>
<trkpt lat="50.39869666099402" lon="19.491269588469894">
<ele>377.1349</ele>
<time>2012-08-24T15:54:36Z</time>
</trkpt>
<trkpt lat="50.39852499961707" lon="19.491076469420822">
<ele>377.26013</ele>
<time>2012-08-24T15:54:45Z</time>
</trkpt>
<trkpt lat="50.39837479591223" lon="19.49088335037175">
<ele>377.86832</ele>
<time>2012-08-24T15:54:51Z</time>
</trkpt>
<trkpt lat="50.3981709480271" lon="19.490947723388107">
<ele>377.6328</ele>
<time>2012-08-24T15:56:29Z</time>
</trkpt>
<trkpt lat="50.39794564246985" lon="19.490990638732345">
<ele>377.26697</ele>
<time>2012-08-24T15:56:32Z</time>
</trkpt>
<trkpt lat="50.39775252342078" lon="19.490990638732345">
<ele>377.02673</ele>
<time>2012-08-24T15:56:40Z</time>
</trkpt>
<trkpt lat="50.397570133207765" lon="19.490926265715988">
<ele>377.00085</ele>
<time>2012-08-24T15:56:52Z</time>
</trkpt>
<trkpt lat="50.39738774299475" lon="19.490926265715988">
<ele>376.56253</ele>
<time>2012-08-24T15:57:04Z</time>
</trkpt>
<trkpt lat="50.39720535278174" lon="19.49084043502751">
<ele>375.0436</ele>
<time>2012-08-24T15:57:12Z</time>
</trkpt>
<trkpt lat="50.39702296256873" lon="19.490818977355392">
<ele>373.5612</ele>
<time>2012-08-24T15:57:19Z</time>
</trkpt>
<trkpt lat="50.396829843519654" lon="19.490818977355392">
<ele>371.8154</ele>
<time>2012-08-24T15:57:26Z</time>
</trkpt>
<trkpt lat="50.39662599563452" lon="19.49084043502751">
<ele>368.65152</ele>
<time>2012-08-24T15:57:33Z</time>
</trkpt>
<trkpt lat="50.39644360542151" lon="19.49090480804387">
<ele>365.8938</ele>
<time>2012-08-24T15:57:39Z</time>
</trkpt>
<trkpt lat="50.39623975753638" lon="19.490969181060226">
<ele>363.75894</ele>
<time>2012-08-24T15:57:45Z</time>
</trkpt>
<trkpt lat="50.396046638487306" lon="19.491033554076584">
<ele>361.83926</ele>
<time>2012-08-24T15:57:50Z</time>
</trkpt>
<trkpt lat="50.39585351943823" lon="19.491076469420822">
<ele>361.19916</ele>
<time>2012-08-24T15:57:55Z</time>
</trkpt>
<trkpt lat="50.39566040038916" lon="19.49109792709294">
<ele>360.46915</ele>
<time>2012-08-24T15:58:00Z</time>
</trkpt>
<trkpt lat="50.39547801017615" lon="19.4911623001093">
<ele>359.67383</ele>
<time>2012-08-24T15:58:05Z</time>
</trkpt>
<trkpt lat="50.39526343345496" lon="19.491226673125656">
<ele>358.22632</ele>
<time>2012-08-24T15:58:10Z</time>
</trkpt>
<trkpt lat="50.395081043241944" lon="19.491312503814132">
<ele>356.9505</ele>
<time>2012-08-24T15:58:14Z</time>
</trkpt>
<trkpt lat="50.39490938186499" lon="19.49139833450261">
<ele>356.30075</ele>
<time>2012-08-24T15:58:18Z</time>
</trkpt>
<trkpt lat="50.3946948051438" lon="19.491484165191086">
<ele>356.32138</ele>
<time>2012-08-24T15:58:23Z</time>
</trkpt>
<trkpt lat="50.39452314376685" lon="19.491569995879562">
<ele>357.03528</ele>
<time>2012-08-24T15:58:27Z</time>
</trkpt>
<trkpt lat="50.394340753553834" lon="19.49165582656804">
<ele>358.13226</ele>
<time>2012-08-24T15:58:31Z</time>
</trkpt>
<trkpt lat="50.39415836334082" lon="19.491720199584396">
<ele>359.65903</ele>
<time>2012-08-24T15:58:35Z</time>
</trkpt>
<trkpt lat="50.39398670196387" lon="19.491806030272873">
<ele>361.0132</ele>
<time>2012-08-24T15:58:39Z</time>
</trkpt>
<trkpt lat="50.393804311750856" lon="19.49187040328923">
<ele>361.93777</ele>
<time>2012-08-24T15:58:43Z</time>
</trkpt>
<trkpt lat="50.393589735029664" lon="19.491956233977707">
<ele>362.74792</ele>
<time>2012-08-24T15:58:48Z</time>
</trkpt>
<trkpt lat="50.39338588714453" lon="19.492042064666183">
<ele>363.70288</ele>
<time>2012-08-24T15:58:53Z</time>
</trkpt>
<trkpt lat="50.39320349693152" lon="19.49208498001042">
<ele>363.90598</ele>
<time>2012-08-24T15:58:57Z</time>
</trkpt>
<trkpt lat="50.39299964904639" lon="19.49212789535466">
<ele>363.72415</ele>
<time>2012-08-24T15:59:01Z</time>
</trkpt>
<trkpt lat="50.392795801161256" lon="19.492235183715255">
<ele>363.91272</ele>
<time>2012-08-24T15:59:05Z</time>
</trkpt>
<trkpt lat="50.392602682112184" lon="19.49240684509221">
<ele>363.97238</ele>
<time>2012-08-24T15:59:09Z</time>
</trkpt>
<trkpt lat="50.39242029189917" lon="19.49259996414128">
<ele>363.99127</ele>
<time>2012-08-24T15:59:13Z</time>
</trkpt>
<trkpt lat="50.39225935935828" lon="19.492750167846115">
<ele>363.99792</ele>
<time>2012-08-24T15:59:18Z</time>
</trkpt>
<trkpt lat="50.392098426817384" lon="19.49290037155095">
<ele>363.74963</ele>
<time>2012-08-24T15:59:24Z</time>
</trkpt>
<trkpt lat="50.39193749427649" lon="19.493029117583664">
<ele>363.13342</ele>
<time>2012-08-24T15:59:30Z</time>
</trkpt>
<trkpt lat="50.39176583289954" lon="19.493179321288498">
<ele>362.45352</ele>
<time>2012-08-24T15:59:35Z</time>
</trkpt>
<trkpt lat="50.391594171522584" lon="19.49332952499333">
<ele>362.35764</ele>
<time>2012-08-24T15:59:40Z</time>
</trkpt>
<trkpt lat="50.39143323898169" lon="19.493458271026046">
<ele>362.84756</ele>
<time>2012-08-24T15:59:45Z</time>
</trkpt>
<trkpt lat="50.39126157760474" lon="19.493565559386642">
<ele>363.551</ele>
<time>2012-08-24T15:59:51Z</time>
</trkpt>
<trkpt lat="50.391068458555665" lon="19.493694305419357">
<ele>366.1474</ele>
<time>2012-08-24T15:59:58Z</time>
</trkpt>
<trkpt lat="50.39090752601477" lon="19.49384450912419">
<ele>367.41382</ele>
<time>2012-08-24T16:00:02Z</time>
</trkpt>
<trkpt lat="50.3907144069657" lon="19.494037628173263">
<ele>367.0982</ele>
<time>2012-08-24T16:00:07Z</time>
</trkpt>
<trkpt lat="50.39052128791663" lon="19.494209289550216">
<ele>366.4452</ele>
<time>2012-08-24T16:00:12Z</time>
</trkpt>
<trkpt lat="50.390349626539674" lon="19.49433803558293">
<ele>365.70337</ele>
<time>2012-08-24T16:00:16Z</time>
</trkpt>
<trkpt lat="50.39016723632666" lon="19.494445323943527">
<ele>364.78503</ele>
<time>2012-08-24T16:00:20Z</time>
</trkpt>
<trkpt lat="50.38998484611365" lon="19.49457406997624">
<ele>363.67026</ele>
<time>2012-08-24T16:00:24Z</time>
</trkpt>
<trkpt lat="50.38978099822852" lon="19.494681358336837">
<ele>361.81824</ele>
<time>2012-08-24T16:00:29Z</time>
</trkpt>
<trkpt lat="50.389609336851564" lon="19.494767189025314">
<ele>360.5106</ele>
<time>2012-08-24T16:00:34Z</time>
</trkpt>
<trkpt lat="50.38942694663855" lon="19.494810104369552">
<ele>360.09088</ele>
<time>2012-08-24T16:00:40Z</time>
</trkpt>
<trkpt lat="50.38924455642554" lon="19.494938850402267">
<ele>360.45367</ele>
<time>2012-08-24T16:00:46Z</time>
</trkpt>
<trkpt lat="50.389072895048585" lon="19.49513196945134">
<ele>360.87036</ele>
<time>2012-08-24T16:00:51Z</time>
</trkpt>
<trkpt lat="50.38891196250769" lon="19.49534654617253">
<ele>360.28564</ele>
<time>2012-08-24T16:00:56Z</time>
</trkpt>
<trkpt lat="50.38874030113074" lon="19.495518207549484">
<ele>360.03812</ele>
<time>2012-08-24T16:01:03Z</time>
</trkpt>
<trkpt lat="50.388579368589845" lon="19.495732784270675">
<ele>360.1452</ele>
<time>2012-08-24T16:01:09Z</time>
</trkpt>
<trkpt lat="50.38841843604895" lon="19.495925903319748">
<ele>360.47195</ele>
<time>2012-08-24T16:01:14Z</time>
</trkpt>
<trkpt lat="50.38825750350806" lon="19.496054649352462">
<ele>361.45282</ele>
<time>2012-08-24T16:01:19Z</time>
</trkpt>
<trkpt lat="50.388075113295045" lon="19.49614048004094">
<ele>362.80374</ele>
<time>2012-08-24T16:01:24Z</time>
</trkpt>
<trkpt lat="50.38789272308203" lon="19.496226310729416">
<ele>364.15363</ele>
<time>2012-08-24T16:01:29Z</time>
</trkpt>
<trkpt lat="50.38769960403296" lon="19.49633359909001">
<ele>365.48276</ele>
<time>2012-08-24T16:01:34Z</time>
</trkpt>
<trkpt lat="50.38751721381995" lon="19.496419429778488">
<ele>365.83633</ele>
<time>2012-08-24T16:01:38Z</time>
</trkpt>
<trkpt lat="50.387313365934816" lon="19.496526718139084">
<ele>365.9482</ele>
<time>2012-08-24T16:01:42Z</time>
</trkpt>
<trkpt lat="50.3871309757218" lon="19.49659109115544">
<ele>365.97815</ele>
<time>2012-08-24T16:01:45Z</time>
</trkpt>
<trkpt lat="50.38690567016455" lon="19.496676921843918">
<ele>365.05948</ele>
<time>2012-08-24T16:01:49Z</time>
</trkpt>
<trkpt lat="50.38670182227942" lon="19.496784210204513">
<ele>363.6733</ele>
<time>2012-08-24T16:01:54Z</time>
</trkpt>
<trkpt lat="50.38649797439429" lon="19.49684858322087">
<ele>362.0387</ele>
<time>2012-08-24T16:01:59Z</time>
</trkpt>
<trkpt lat="50.386294126509156" lon="19.496912956237228">
<ele>360.3129</ele>
<time>2012-08-24T16:02:04Z</time>
</trkpt>
<trkpt lat="50.386101007460084" lon="19.496934413909347">
<ele>358.73343</ele>
<time>2012-08-24T16:02:09Z</time>
</trkpt>
<trkpt lat="50.38589715957495" lon="19.496934413909347">
<ele>357.59592</ele>
<time>2012-08-24T16:02:14Z</time>
</trkpt>
<trkpt lat="50.38568258285376" lon="19.496912956237228">
<ele>356.89142</ele>
<time>2012-08-24T16:02:19Z</time>
</trkpt>
<trkpt lat="50.38546800613257" lon="19.496912956237228">
<ele>356.21155</ele>
<time>2012-08-24T16:02:24Z</time>
</trkpt>
<trkpt lat="50.38526415824744" lon="19.496934413909347">
<ele>355.35406</ele>
<time>2012-08-24T16:02:30Z</time>
</trkpt>
<trkpt lat="50.385071039198365" lon="19.497020244597824">
<ele>355.31302</ele>
<time>2012-08-24T16:02:36Z</time>
</trkpt>
<trkpt lat="50.38488864898535" lon="19.497170448302658">
<ele>356.27448</ele>
<time>2012-08-24T16:02:41Z</time>
</trkpt>
<trkpt lat="50.38472771644446" lon="19.497299194335373">
<ele>359.08295</ele>
<time>2012-08-24T16:02:45Z</time>
</trkpt>
<trkpt lat="50.38453459739539" lon="19.497470855712326">
<ele>362.8859</ele>
<time>2012-08-24T16:02:50Z</time>
</trkpt>
<trkpt lat="50.38437366485449" lon="19.49764251708928">
<ele>369.63937</ele>
<time>2012-08-24T16:02:53Z</time>
</trkpt>
<trkpt lat="50.38418054580542" lon="19.497771263121994">
<ele>378.3195</ele>
<time>2012-08-24T16:02:57Z</time>
</trkpt>
<trkpt lat="50.38401961326453" lon="19.49790000915471">
<ele>382.20264</ele>
<time>2012-08-24T16:03:01Z</time>
</trkpt>
<trkpt lat="50.383847951887574" lon="19.49807167053166">
<ele>383.5735</ele>
<time>2012-08-24T16:03:06Z</time>
</trkpt>
<trkpt lat="50.38367629051062" lon="19.498221874236496">
<ele>383.89877</ele>
<time>2012-08-24T16:03:11Z</time>
</trkpt>
<trkpt lat="50.38351535796973" lon="19.49839353561345">
<ele>383.2133</ele>
<time>2012-08-24T16:03:16Z</time>
</trkpt>
<trkpt lat="50.383343696592775" lon="19.498543739318283">
<ele>381.96594</ele>
<time>2012-08-24T16:03:22Z</time>
</trkpt>
<trkpt lat="50.38318276405188" lon="19.498758316039474">
<ele>380.59378</ele>
<time>2012-08-24T16:03:28Z</time>
</trkpt>
<trkpt lat="50.38301110267493" lon="19.498908519744308">
<ele>378.9055</ele>
<time>2012-08-24T16:03:34Z</time>
</trkpt>
<trkpt lat="50.382839441297975" lon="19.499058723449142">
<ele>377.63675</ele>
<time>2012-08-24T16:03:39Z</time>
</trkpt>
<trkpt lat="50.38266777992102" lon="19.499187469481857">
<ele>377.20148</ele>
<time>2012-08-24T16:03:43Z</time>
</trkpt>
<trkpt lat="50.38243174552771" lon="19.499444961547287">
<ele>377.0269</ele>
<time>2012-08-24T16:03:50Z</time>
</trkpt>
<trkpt lat="50.382324457167115" lon="19.49985265731755">
<ele>376.0712</ele>
<time>2012-08-24T16:03:56Z</time>
</trkpt>
<trkpt lat="50.38229227065894" lon="19.5001316070551">
<ele>375.08893</ele>
<time>2012-08-24T16:04:00Z</time>
</trkpt>
<trkpt lat="50.38221716880652" lon="19.500432014464767">
<ele>373.6803</ele>
<time>2012-08-24T16:04:05Z</time>
</trkpt>
<trkpt lat="50.3821420669541" lon="19.500732421874435">
<ele>372.22784</ele>
<time>2012-08-24T16:04:10Z</time>
</trkpt>
<trkpt lat="50.38199186324927" lon="19.500989913939865">
<ele>369.13852</ele>
<time>2012-08-24T16:04:17Z</time>
</trkpt>
<trkpt lat="50.381841659544435" lon="19.501161575316818">
<ele>365.66373</ele>
<time>2012-08-24T16:04:22Z</time>
</trkpt>
<trkpt lat="50.3816914558396" lon="19.50135469436589">
<ele>361.99442</ele>
<time>2012-08-24T16:04:27Z</time>
</trkpt>
<trkpt lat="50.38151979446265" lon="19.501440525054367">
<ele>358.78293</ele>
<time>2012-08-24T16:04:33Z</time>
</trkpt>
<trkpt lat="50.38128376006934" lon="19.501547813414962">
<ele>354.8781</ele>
<time>2012-08-24T16:04:39Z</time>
</trkpt>
<trkpt lat="50.38103699683997" lon="19.501676559447677">
<ele>352.40067</ele>
<time>2012-08-24T16:04:45Z</time>
</trkpt>
<trkpt lat="50.380865335463014" lon="19.501805305480392">
<ele>350.75427</ele>
<time>2012-08-24T16:04:50Z</time>
</trkpt>
<trkpt lat="50.38069367408606" lon="19.501934051513107">
<ele>351.17224</ele>
<time>2012-08-24T16:04:54Z</time>
</trkpt>
<trkpt lat="50.38053274154517" lon="19.50212717056218">
<ele>351.7381</ele>
<time>2012-08-24T16:04:58Z</time>
</trkpt>
<trkpt lat="50.380307435987916" lon="19.502298831939132">
<ele>351.96503</ele>
<time>2012-08-24T16:05:05Z</time>
</trkpt>
<trkpt lat="50.3801250457749" lon="19.502427577971847">
<ele>351.55627</ele>
<time>2012-08-24T16:05:11Z</time>
</trkpt>
<trkpt lat="50.37993192672583" lon="19.5025992393488">
<ele>351.176</ele>
<time>2012-08-24T16:05:15Z</time>
</trkpt>
<trkpt lat="50.3797280788407" lon="19.502706527709396">
<ele>351.0132</ele>
<time>2012-08-24T16:05:24Z</time>
</trkpt>
<trkpt lat="50.37954568862769" lon="19.502749443053634">
<ele>351.0</ele>
<time>2012-08-24T16:06:11Z</time>
</trkpt>
<trkpt lat="50.37937402725073" lon="19.50264215469304">
<ele>351.99</ele>
<time>2012-08-24T16:06:52Z</time>
</trkpt>
<trkpt lat="50.37954568862769" lon="19.502534866332443">
<ele>356.99576</ele>
<time>2012-08-24T16:10:07Z</time>
</trkpt>
<trkpt lat="50.379577875135865" lon="19.50281381606999">
<ele>360.9437</ele>
<time>2012-08-24T16:11:49Z</time>
</trkpt>
<trkpt lat="50.37947058677527" lon="19.503049850463302">
<ele>360.99982</ele>
<time>2012-08-24T16:12:09Z</time>
</trkpt>
<trkpt lat="50.37928819656226" lon="19.50311422347966">
<ele>360.99997</ele>
<time>2012-08-24T16:12:17Z</time>
</trkpt>
<trkpt lat="50.379105806349244" lon="19.503200054168136">
<ele>361.82202</ele>
<time>2012-08-24T16:12:23Z</time>
</trkpt>
<trkpt lat="50.37891268730017" lon="19.503285884856613">
<ele>361.96832</ele>
<time>2012-08-24T16:12:29Z</time>
</trkpt>
<trkpt lat="50.3787195682511" lon="19.50339317321721">
<ele>362.7552</ele>
<time>2012-08-24T16:12:34Z</time>
</trkpt>
<trkpt lat="50.37851572036597" lon="19.503479003905685">
<ele>364.43427</ele>
<time>2012-08-24T16:12:38Z</time>
</trkpt>
<trkpt lat="50.378344058989015" lon="19.50356483459416">
<ele>365.62845</ele>
<time>2012-08-24T16:12:43Z</time>
</trkpt>
<trkpt lat="50.37815093993994" lon="19.50365066528264">
<ele>366.34933</ele>
<time>2012-08-24T16:12:48Z</time>
</trkpt>
<trkpt lat="50.37795782089087" lon="19.503736495971115">
<ele>368.8739</ele>
<time>2012-08-24T16:12:53Z</time>
</trkpt>
<trkpt lat="50.3777647018418" lon="19.50382232665959">
<ele>371.17908</ele>
<time>2012-08-24T16:12:58Z</time>
</trkpt>
<trkpt lat="50.377582311628785" lon="19.503929615020187">
<ele>371.8904</ele>
<time>2012-08-24T16:13:05Z</time>
</trkpt>
<trkpt lat="50.37738919257971" lon="19.504058361052902">
<ele>371.9805</ele>
<time>2012-08-24T16:13:11Z</time>
</trkpt>
<trkpt lat="50.37718534469458" lon="19.504101276397137">
<ele>371.99652</ele>
<time>2012-08-24T16:13:17Z</time>
</trkpt>
<trkpt lat="50.37700295448157" lon="19.504144191741375">
<ele>371.99918</ele>
<time>2012-08-24T16:13:22Z</time>
</trkpt>
<trkpt lat="50.376820564268556" lon="19.50425148010197">
<ele>371.99982</ele>
<time>2012-08-24T16:13:27Z</time>
</trkpt>
<trkpt lat="50.37662744521948" lon="19.504337310790447">
<ele>372.43747</ele>
<time>2012-08-24T16:13:33Z</time>
</trkpt>
<trkpt lat="50.37641286849829" lon="19.504380226134685">
<ele>373.57813</ele>
<time>2012-08-24T16:14:24Z</time>
</trkpt>
<trkpt lat="50.37621974944922" lon="19.504444599151043">
<ele>374.39526</ele>
<time>2012-08-24T16:14:32Z</time>
</trkpt>
<trkpt lat="50.37604808807227" lon="19.50453042983952">
<ele>374.89236</ele>
<time>2012-08-24T16:14:38Z</time>
</trkpt>
<trkpt lat="50.375865697859254" lon="19.504616260527996">
<ele>375.74353</ele>
<time>2012-08-24T16:14:44Z</time>
</trkpt>
<trkpt lat="50.37566184997412" lon="19.504702091216473">
<ele>375.96576</ele>
<time>2012-08-24T16:14:51Z</time>
</trkpt>
<trkpt lat="50.37547945976111" lon="19.50476646423283">
<ele>376.7566</ele>
<time>2012-08-24T16:14:57Z</time>
</trkpt>
<trkpt lat="50.3752970695481" lon="19.504852294921307">
<ele>376.9567</ele>
<time>2012-08-24T16:15:03Z</time>
</trkpt>
<trkpt lat="50.375103950499025" lon="19.504895210265545">
<ele>376.98972</ele>
<time>2012-08-24T16:15:08Z</time>
</trkpt>
<trkpt lat="50.37491083144995" lon="19.504959583281902">
<ele>379.02197</ele>
<time>2012-08-24T16:15:13Z</time>
</trkpt>
<trkpt lat="50.37471771240088" lon="19.50502395629826">
<ele>380.5306</ele>
<time>2012-08-24T16:15:18Z</time>
</trkpt>
<trkpt lat="50.37451386451575" lon="19.505109786986736">
<ele>380.91644</ele>
<time>2012-08-24T16:15:24Z</time>
</trkpt>
<trkpt lat="50.374310016630616" lon="19.505174160003094">
<ele>380.98514</ele>
<time>2012-08-24T16:15:30Z</time>
</trkpt>
<trkpt lat="50.374116897581544" lon="19.50523853301945">
<ele>380.99646</ele>
<time>2012-08-24T16:15:35Z</time>
</trkpt>
<trkpt lat="50.37392377853247" lon="19.505324363707928">
<ele>380.99936</ele>
<time>2012-08-24T16:15:41Z</time>
</trkpt>
<trkpt lat="50.37371993064734" lon="19.505410194396404">
<ele>380.99988</ele>
<time>2012-08-24T16:15:47Z</time>
</trkpt>
<trkpt lat="50.37351608276221" lon="19.50549602508488">
<ele>380.99997</ele>
<time>2012-08-24T16:15:53Z</time>
</trkpt>
<trkpt lat="50.373312234877076" lon="19.505560398101238">
<ele>381.0</ele>
<time>2012-08-24T16:15:58Z</time>
</trkpt>
<trkpt lat="50.373119115828004" lon="19.505624771117596">
<ele>380.2373</ele>
<time>2012-08-24T16:16:03Z</time>
</trkpt>
<trkpt lat="50.37292599677893" lon="19.505710601806072">
<ele>380.0563</ele>
<time>2012-08-24T16:16:08Z</time>
</trkpt>
<trkpt lat="50.37275433540198" lon="19.505817890166668">
<ele>380.01782</ele>
<time>2012-08-24T16:16:12Z</time>
</trkpt>
<trkpt lat="50.372571945188966" lon="19.505903720855144">
<ele>380.00565</ele>
<time>2012-08-24T16:16:16Z</time>
</trkpt>
<trkpt lat="50.37238955497595" lon="19.50598955154362">
<ele>380.00177</ele>
<time>2012-08-24T16:16:20Z</time>
</trkpt>
<trkpt lat="50.37217497825476" lon="19.506075382232098">
<ele>380.00043</ele>
<time>2012-08-24T16:16:25Z</time>
</trkpt>
<trkpt lat="50.37197113036963" lon="19.506139755248455">
<ele>380.0001</ele>
<time>2012-08-24T16:16:30Z</time>
</trkpt>
<trkpt lat="50.37175655364844" lon="19.506204128264812">
<ele>380.00003</ele>
<time>2012-08-24T16:16:35Z</time>
</trkpt>
<trkpt lat="50.371574163435426" lon="19.50626850128117">
<ele>379.5625</ele>
<time>2012-08-24T16:16:39Z</time>
</trkpt>
<trkpt lat="50.371381044386354" lon="19.506354331969646">
<ele>379.17798</ele>
<time>2012-08-24T16:16:43Z</time>
</trkpt>
<trkpt lat="50.3711557388291" lon="19.506418704986004">
<ele>378.3727</ele>
<time>2012-08-24T16:16:47Z</time>
</trkpt>
<trkpt lat="50.37097334861609" lon="19.50648307800236">
<ele>377.71973</ele>
<time>2012-08-24T16:16:50Z</time>
</trkpt>
<trkpt lat="50.37076950073096" lon="19.506568908690838">
<ele>377.30365</ele>
<time>2012-08-24T16:16:53Z</time>
</trkpt>
<trkpt lat="50.37054419517371" lon="19.506654739379314">
<ele>377.3781</ele>
<time>2012-08-24T16:16:56Z</time>
</trkpt>
<trkpt lat="50.370318889616456" lon="19.50676202773991">
<ele>377.73764</ele>
<time>2012-08-24T16:16:59Z</time>
</trkpt>
<trkpt lat="50.370082855223146" lon="19.506869316100506">
<ele>377.4518</ele>
<time>2012-08-24T16:17:02Z</time>
</trkpt>
<trkpt lat="50.369868278501954" lon="19.506933689116863">
<ele>376.175</ele>
<time>2012-08-24T16:17:05Z</time>
</trkpt>
<trkpt lat="50.36965370178076" lon="19.50701951980534">
<ele>374.23007</ele>
<time>2012-08-24T16:17:08Z</time>
</trkpt>
<trkpt lat="50.36944985389563" lon="19.507083892821697">
<ele>372.50333</ele>
<time>2012-08-24T16:17:11Z</time>
</trkpt>
<trkpt lat="50.36923527717444" lon="19.507169723510174">
<ele>371.19672</ele>
<time>2012-08-24T16:17:14Z</time>
</trkpt>
<trkpt lat="50.36903142928931" lon="19.50725555419865">
<ele>369.92673</ele>
<time>2012-08-24T16:17:17Z</time>
</trkpt>
<trkpt lat="50.368827581404176" lon="19.507341384887127">
<ele>368.95346</ele>
<time>2012-08-24T16:17:20Z</time>
</trkpt>
<trkpt lat="50.368623733519044" lon="19.50747013091984">
<ele>367.96475</ele>
<time>2012-08-24T16:17:23Z</time>
</trkpt>
<trkpt lat="50.36846280097815" lon="19.507684707641033">
<ele>366.8289</ele>
<time>2012-08-24T16:17:26Z</time>
</trkpt>
<trkpt lat="50.368334054945436" lon="19.507920742034344">
<ele>365.77155</ele>
<time>2012-08-24T16:17:29Z</time>
</trkpt>
<trkpt lat="50.3682374954209" lon="19.508199691771893">
<ele>365.0755</ele>
<time>2012-08-24T16:17:32Z</time>
</trkpt>
<trkpt lat="50.3681838512406" lon="19.50850009918156">
<ele>364.45374</ele>
<time>2012-08-24T16:17:35Z</time>
</trkpt>
<trkpt lat="50.368130207060304" lon="19.50880050659123">
<ele>363.7539</ele>
<time>2012-08-24T16:17:38Z</time>
</trkpt>
<trkpt lat="50.36803364753577" lon="19.509079456328777">
<ele>363.06805</ele>
<time>2012-08-24T16:17:41Z</time>
</trkpt>
<trkpt lat="50.36789417266699" lon="19.509358406066326">
<ele>361.18497</ele>
<time>2012-08-24T16:17:44Z</time>
</trkpt>
<trkpt lat="50.36775469779822" lon="19.509615898131756">
<ele>359.48428</ele>
<time>2012-08-24T16:17:47Z</time>
</trkpt>
<trkpt lat="50.367636680601564" lon="19.509873390197185">
<ele>358.1887</ele>
<time>2012-08-24T16:17:50Z</time>
</trkpt>
<trkpt lat="50.36750793456885" lon="19.510087966918377">
<ele>357.50146</ele>
<time>2012-08-24T16:17:53Z</time>
</trkpt>
<trkpt lat="50.367336273191896" lon="19.51023817062321">
<ele>356.26724</ele>
<time>2012-08-24T16:17:59Z</time>
</trkpt>
<trkpt lat="50.36731481551978" lon="19.509916305541424">
<ele>355.44193</ele>
<time>2012-08-24T16:18:08Z</time>
</trkpt>
<trkpt lat="50.367325544355836" lon="19.509615898131756">
<ele>355.014</ele>
<time>2012-08-24T16:18:20Z</time>
</trkpt>
<trkpt lat="50.36727190017554" lon="19.509916305541424">
<ele>355.7627</ele>
<time>2012-08-24T16:19:01Z</time>
</trkpt>
<trkpt lat="50.36726117133948" lon="19.51025962829533">
<ele>354.7435</ele>
<time>2012-08-24T16:19:06Z</time>
</trkpt>
<trkpt lat="50.36723971366736" lon="19.510581493377117">
<ele>354.8134</ele>
<time>2012-08-24T16:19:10Z</time>
</trkpt>
<trkpt lat="50.36723971366736" lon="19.510881900786785">
<ele>354.94095</ele>
<time>2012-08-24T16:19:14Z</time>
</trkpt>
<trkpt lat="50.36723971366736" lon="19.51122522354069">
<ele>354.98132</ele>
<time>2012-08-24T16:19:18Z</time>
</trkpt>
<trkpt lat="50.36723971366736" lon="19.511568546294598">
<ele>355.67767</ele>
<time>2012-08-24T16:19:22Z</time>
</trkpt>
<trkpt lat="50.36725044250342" lon="19.511911869048504">
<ele>356.5816</ele>
<time>2012-08-24T16:19:26Z</time>
</trkpt>
<trkpt lat="50.36726117133948" lon="19.51225519180241">
<ele>358.10092</ele>
<time>2012-08-24T16:19:31Z</time>
</trkpt>
<trkpt lat="50.367121696470704" lon="19.512448310851482">
<ele>358.66</ele>
<time>2012-08-24T16:19:39Z</time>
</trkpt>
<trkpt lat="50.36693930625769" lon="19.512426853179363">
<ele>357.77133</ele>
<time>2012-08-24T16:19:43Z</time>
</trkpt>
<trkpt lat="50.36674618720862" lon="19.512405395507244">
<ele>356.41592</ele>
<time>2012-08-24T16:19:47Z</time>
</trkpt>
<trkpt lat="50.36654233932349" lon="19.512426853179363">
<ele>354.86987</ele>
<time>2012-08-24T16:19:51Z</time>
</trkpt>
<trkpt lat="50.366349220274415" lon="19.5124697685236">
<ele>353.34164</ele>
<time>2012-08-24T16:19:55Z</time>
</trkpt>
<trkpt lat="50.36614537238928" lon="19.51253414153996">
<ele>351.737</ele>
<time>2012-08-24T16:19:59Z</time>
</trkpt>
<trkpt lat="50.36593079566809" lon="19.512577056884197">
<ele>348.85037</ele>
<time>2012-08-24T16:20:03Z</time>
</trkpt>
<trkpt lat="50.36574840545508" lon="19.512598514556316">
<ele>346.9525</ele>
<time>2012-08-24T16:20:06Z</time>
</trkpt>
<trkpt lat="50.36556601524207" lon="19.512619972228435">
<ele>345.5737</ele>
<time>2012-08-24T16:20:09Z</time>
</trkpt>
<trkpt lat="50.365383625029054" lon="19.512662887572674">
<ele>344.6639</ele>
<time>2012-08-24T16:20:12Z</time>
</trkpt>
<trkpt lat="50.36520123481604" lon="19.512705802916912">
<ele>344.2801</ele>
<time>2012-08-24T16:20:15Z</time>
</trkpt>
<trkpt lat="50.36501884460303" lon="19.51274871826115">
<ele>343.29004</ele>
<time>2012-08-24T16:20:18Z</time>
</trkpt>
<trkpt lat="50.36479353904578" lon="19.51277017593327">
<ele>340.89645</ele>
<time>2012-08-24T16:20:22Z</time>
</trkpt>
<trkpt lat="50.36456823348853" lon="19.512834548949627">
<ele>338.5219</ele>
<time>2012-08-24T16:20:26Z</time>
</trkpt>
<trkpt lat="50.364342927931276" lon="19.512877464293865">
<ele>335.28622</ele>
<time>2012-08-24T16:20:30Z</time>
</trkpt>
<trkpt lat="50.364117622374025" lon="19.512941837310223">
<ele>333.7234</ele>
<time>2012-08-24T16:20:34Z</time>
</trkpt>
<trkpt lat="50.36390304565283" lon="19.51298475265446">
<ele>335.8617</ele>
<time>2012-08-24T16:20:38Z</time>
</trkpt>
<trkpt lat="50.36372065543982" lon="19.51298475265446">
<ele>338.00702</ele>
<time>2012-08-24T16:20:42Z</time>
</trkpt>
<trkpt lat="50.36354899406287" lon="19.512898921965984">
<ele>337.56473</ele>
<time>2012-08-24T16:20:46Z</time>
</trkpt>
<trkpt lat="50.363355875013795" lon="19.512920379638103">
<ele>337.86227</ele>
<time>2012-08-24T16:20:50Z</time>
</trkpt>
<trkpt lat="50.36315202712866" lon="19.51298475265446">
<ele>337.96732</ele>
<time>2012-08-24T16:20:55Z</time>
</trkpt>
<trkpt lat="50.36295890807959" lon="19.51300621032658">
<ele>337.31204</ele>
<time>2012-08-24T16:21:02Z</time>
</trkpt>
<trkpt lat="50.36277651786658" lon="19.5130276679987">
<ele>337.05554</ele>
<time>2012-08-24T16:21:08Z</time>
</trkpt>
<trkpt lat="50.362583398817506" lon="19.5130276679987">
<ele>337.01318</ele>
<time>2012-08-24T16:21:13Z</time>
</trkpt>
<trkpt lat="50.362390279768434" lon="19.512941837310223">
<ele>337.58047</ele>
<time>2012-08-24T16:21:19Z</time>
</trkpt>
<trkpt lat="50.36220788955542" lon="19.512898921965984">
<ele>338.98834</ele>
<time>2012-08-24T16:21:23Z</time>
</trkpt>
<trkpt lat="50.36201477050635" lon="19.512834548949627">
<ele>341.4271</ele>
<time>2012-08-24T16:21:32Z</time>
</trkpt>
<trkpt lat="50.3617894649491" lon="19.512834548949627">
<ele>343.46603</ele>
<time>2012-08-24T16:21:46Z</time>
</trkpt>
<trkpt lat="50.361607074736085" lon="19.5130276679987">
<ele>350.26862</ele>
<time>2012-08-24T16:22:09Z</time>
</trkpt>
<trkpt lat="50.36155343055579" lon="19.51274871826115">
<ele>357.8981</ele>
<time>2012-08-24T16:25:10Z</time>
</trkpt>
<trkpt lat="50.3617358207688" lon="19.51277017593327">
<ele>358.99423</ele>
<time>2012-08-24T16:25:33Z</time>
</trkpt>
<trkpt lat="50.36190748214575" lon="19.512898921965984">
<ele>358.74957</ele>
<time>2012-08-24T16:25:42Z</time>
</trkpt>
<trkpt lat="50.362089872358766" lon="19.512941837310223">
<ele>358.05627</ele>
<time>2012-08-24T16:25:51Z</time>
</trkpt>
<trkpt lat="50.36228299140784" lon="19.512941837310223">
<ele>357.42938</ele>
<time>2012-08-24T16:25:58Z</time>
</trkpt>
<trkpt lat="50.36247611045691" lon="19.512941837310223">
<ele>357.03223</ele>
<time>2012-08-24T16:26:07Z</time>
</trkpt>
<trkpt lat="50.36266922950598" lon="19.51298475265446">
<ele>356.05768</ele>
<time>2012-08-24T16:26:18Z</time>
</trkpt>
<trkpt lat="50.362862348555055" lon="19.51298475265446">
<ele>356.00433</ele>
<time>2012-08-24T16:26:27Z</time>
</trkpt>
<trkpt lat="50.36306619644019" lon="19.5130276679987">
<ele>356.76373</ele>
<time>2012-08-24T16:26:32Z</time>
</trkpt>
<trkpt lat="50.36325931548926" lon="19.51304912567082">
<ele>357.70663</ele>
<time>2012-08-24T16:26:37Z</time>
</trkpt>
<trkpt lat="50.36344170570227" lon="19.513070583342937">
<ele>358.69308</ele>
<time>2012-08-24T16:26:42Z</time>
</trkpt>
<trkpt lat="50.363634824751344" lon="19.51304912567082">
<ele>359.17715</ele>
<time>2012-08-24T16:26:47Z</time>
</trkpt>
<trkpt lat="50.36381721496436" lon="19.51300621032658">
<ele>359.80475</ele>
<time>2012-08-24T16:26:52Z</time>
</trkpt>
<trkpt lat="50.36399960517737" lon="19.51296329498234">
<ele>359.50073</ele>
<time>2012-08-24T16:26:56Z</time>
</trkpt>
<trkpt lat="50.36421418189856" lon="19.512920379638103">
<ele>358.43524</ele>
<time>2012-08-24T16:27:01Z</time>
</trkpt>
<trkpt lat="50.36441802978369" lon="19.512898921965984">
<ele>357.4541</ele>
<time>2012-08-24T16:27:05Z</time>
</trkpt>
<trkpt lat="50.364621877668824" lon="19.512856006621746">
<ele>357.14368</ele>
<time>2012-08-24T16:27:09Z</time>
</trkpt>
<trkpt lat="50.364825725553956" lon="19.512834548949627">
<ele>357.04547</ele>
<time>2012-08-24T16:27:13Z</time>
</trkpt>
<trkpt lat="50.36502957343909" lon="19.512813091277508">
<ele>357.01437</ele>
<time>2012-08-24T16:27:17Z</time>
</trkpt>
<trkpt lat="50.36525487899634" lon="19.51279163360539">
<ele>357.00455</ele>
<time>2012-08-24T16:27:21Z</time>
</trkpt>
<trkpt lat="50.36545872688147" lon="19.51274871826115">
<ele>356.75143</ele>
<time>2012-08-24T16:27:25Z</time>
</trkpt>
<trkpt lat="50.3656625747666" lon="19.512705802916912">
<ele>356.23776</ele>
<time>2012-08-24T16:27:29Z</time>
</trkpt>
<trkpt lat="50.365855693815675" lon="19.512662887572674">
<ele>356.07523</ele>
<time>2012-08-24T16:27:33Z</time>
</trkpt>
<trkpt lat="50.36604881286475" lon="19.512662887572674">
<ele>356.0238</ele>
<time>2012-08-24T16:27:37Z</time>
</trkpt>
<trkpt lat="50.36626338958594" lon="19.512619972228435">
<ele>356.00754</ele>
<time>2012-08-24T16:27:41Z</time>
</trkpt>
<trkpt lat="50.36647796630713" lon="19.512577056884197">
<ele>356.00238</ele>
<time>2012-08-24T16:27:45Z</time>
</trkpt>
<trkpt lat="50.36668181419226" lon="19.51251268386784">
<ele>356.00076</ele>
<time>2012-08-24T16:27:49Z</time>
</trkpt>
<trkpt lat="50.366864204405275" lon="19.51249122619572">
<ele>356.00024</ele>
<time>2012-08-24T16:27:53Z</time>
</trkpt>
<trkpt lat="50.36705732345435" lon="19.5124697685236">
<ele>356.68365</ele>
<time>2012-08-24T16:27:57Z</time>
</trkpt>
<trkpt lat="50.36726117133948" lon="19.5124697685236">
<ele>356.8999</ele>
<time>2012-08-24T16:28:01Z</time>
</trkpt>
<trkpt lat="50.36746501922461" lon="19.51249122619572">
<ele>356.04266</ele>
<time>2012-08-24T16:28:06Z</time>
</trkpt>
<trkpt lat="50.367604494093385" lon="19.51272726058903">
<ele>355.18558</ele>
<time>2012-08-24T16:28:12Z</time>
</trkpt>
<trkpt lat="50.36779761314246" lon="19.512834548949627">
<ele>355.49982</ele>
<time>2012-08-24T16:28:54Z</time>
</trkpt>
<trkpt lat="50.36791563033911" lon="19.512619972228435">
<ele>367.3164</ele>
<time>2012-08-24T17:23:11Z</time>
</trkpt>
<trkpt lat="50.368076562880006" lon="19.51279163360539">
<ele>366.3727</ele>
<time>2012-08-24T17:23:17Z</time>
</trkpt>
<trkpt lat="50.36821603774878" lon="19.5130276679987">
<ele>365.05365</ele>
<time>2012-08-24T17:23:23Z</time>
</trkpt>
<trkpt lat="50.368376970289674" lon="19.51322078704777">
<ele>363.81253</ele>
<time>2012-08-24T17:23:28Z</time>
</trkpt>
<trkpt lat="50.36853790283057" lon="19.513370990752605">
<ele>362.7553</ele>
<time>2012-08-24T17:23:33Z</time>
</trkpt>
<trkpt lat="50.36873102187964" lon="19.51352119445744">
<ele>361.69693</ele>
<time>2012-08-24T17:23:39Z</time>
</trkpt>
<trkpt lat="50.36892414092871" lon="19.513649940490154">
<ele>361.12402</ele>
<time>2012-08-24T17:23:45Z</time>
</trkpt>
<trkpt lat="50.369095802305665" lon="19.51373577117863">
<ele>360.26675</ele>
<time>2012-08-24T17:23:50Z</time>
</trkpt>
<trkpt lat="50.36928892135474" lon="19.513843059539226">
<ele>359.6258</ele>
<time>2012-08-24T17:23:55Z</time>
</trkpt>
<trkpt lat="50.36948204040381" lon="19.513950347899822">
<ele>359.1485</ele>
<time>2012-08-24T17:24:00Z</time>
</trkpt>
<trkpt lat="50.36968588828894" lon="19.514057636260418">
<ele>357.08603</ele>
<time>2012-08-24T17:24:05Z</time>
</trkpt>
<trkpt lat="50.36988973617407" lon="19.514143466948894">
<ele>354.81143</ele>
<time>2012-08-24T17:24:10Z</time>
</trkpt>
<trkpt lat="50.370072126387086" lon="19.51425075530949">
<ele>354.19257</ele>
<time>2012-08-24T17:24:15Z</time>
</trkpt>
<trkpt lat="50.37026524543616" lon="19.514336585997967">
<ele>354.97928</ele>
<time>2012-08-24T17:24:20Z</time>
</trkpt>
<trkpt lat="50.37045836448523" lon="19.514422416686443">
<ele>356.19528</ele>
<time>2012-08-24T17:24:25Z</time>
</trkpt>
<trkpt lat="50.37064075469824" lon="19.51450824737492">
<ele>357.05902</ele>
<time>2012-08-24T17:24:30Z</time>
</trkpt>
<trkpt lat="50.370823144911256" lon="19.514572620391277">
<ele>357.7767</ele>
<time>2012-08-24T17:24:35Z</time>
</trkpt>
<trkpt lat="50.37101626396033" lon="19.514658451079754">
<ele>357.96027</ele>
<time>2012-08-24T17:24:41Z</time>
</trkpt>
<trkpt lat="50.37118792533728" lon="19.51474428176823">
<ele>357.99057</ele>
<time>2012-08-24T17:24:46Z</time>
</trkpt>
<trkpt lat="50.371370315550294" lon="19.514830112456707">
<ele>357.99777</ele>
<time>2012-08-24T17:24:51Z</time>
</trkpt>
<trkpt lat="50.371563434599366" lon="19.514937400817303">
<ele>358.43698</ele>
<time>2012-08-24T17:24:56Z</time>
</trkpt>
<trkpt lat="50.37175655364844" lon="19.515087604522137">
<ele>360.0666</ele>
<time>2012-08-24T17:25:01Z</time>
</trkpt>
<trkpt lat="50.37192821502539" lon="19.51523780822697">
<ele>361.7287</ele>
<time>2012-08-24T17:25:06Z</time>
</trkpt>
<trkpt lat="50.372089147566285" lon="19.515409469603924">
<ele>361.9356</ele>
<time>2012-08-24T17:25:11Z</time>
</trkpt>
<trkpt lat="50.37226080894324" lon="19.51553821563664">
<ele>361.22202</ele>
<time>2012-08-24T17:25:16Z</time>
</trkpt>
<trkpt lat="50.37244319915625" lon="19.515666961669353">
<ele>361.05267</ele>
<time>2012-08-24T17:25:21Z</time>
</trkpt>
<trkpt lat="50.372614860533204" lon="19.515817165374187">
<ele>361.0125</ele>
<time>2012-08-24T17:25:26Z</time>
</trkpt>
<trkpt lat="50.3727757930741" lon="19.51596736907902">
<ele>360.24026</ele>
<time>2012-08-24T17:25:31Z</time>
</trkpt>
<trkpt lat="50.37293672561499" lon="19.516160488128094">
<ele>360.057</ele>
<time>2012-08-24T17:25:36Z</time>
</trkpt>
<trkpt lat="50.373086929319825" lon="19.516332149505047">
<ele>360.45102</ele>
<time>2012-08-24T17:25:41Z</time>
</trkpt>
<trkpt lat="50.37324786186072" lon="19.516503810882">
<ele>360.86972</ele>
<time>2012-08-24T17:25:46Z</time>
</trkpt>
<trkpt lat="50.37339806556555" lon="19.516675472258953">
<ele>360.9691</ele>
<time>2012-08-24T17:25:51Z</time>
</trkpt>
<trkpt lat="50.373558998106446" lon="19.516868591308025">
<ele>361.81653</ele>
<time>2012-08-24T17:25:57Z</time>
</trkpt>
<trkpt lat="50.37371993064734" lon="19.517061710357098">
<ele>362.6591</ele>
<time>2012-08-24T17:26:04Z</time>
</trkpt>
<trkpt lat="50.37389159202429" lon="19.51725482940617">
<ele>363.51746</ele>
<time>2012-08-24T17:26:10Z</time>
</trkpt>
<trkpt lat="50.37405252456519" lon="19.517447948455242">
<ele>364.35162</ele>
<time>2012-08-24T17:26:16Z</time>
</trkpt>
<trkpt lat="50.37420272827002" lon="19.517641067504314">
<ele>365.3221</ele>
<time>2012-08-24T17:26:22Z</time>
</trkpt>
<trkpt lat="50.374352931974855" lon="19.517834186553387">
<ele>366.34702</ele>
<time>2012-08-24T17:26:29Z</time>
</trkpt>
<trkpt lat="50.37451386451575" lon="19.518048763274578">
<ele>367.49097</ele>
<time>2012-08-24T17:26:36Z</time>
</trkpt>
<trkpt lat="50.37467479705664" lon="19.518198966979412">
<ele>368.48752</ele>
<time>2012-08-24T17:26:42Z</time>
</trkpt>
<trkpt lat="50.374835729597535" lon="19.518392086028484">
<ele>369.61517</ele>
<time>2012-08-24T17:26:49Z</time>
</trkpt>
<trkpt lat="50.37498593330237" lon="19.518563747405437">
<ele>370.6151</ele>
<time>2012-08-24T17:26:55Z</time>
</trkpt>
<trkpt lat="50.37514686584326" lon="19.51875686645451">
<ele>371.7113</ele>
<time>2012-08-24T17:27:02Z</time>
</trkpt>
<trkpt lat="50.375307798384156" lon="19.518949985503582">
<ele>372.78348</ele>
<time>2012-08-24T17:27:09Z</time>
</trkpt>
<trkpt lat="50.37549018859717" lon="19.519143104552654">
<ele>374.08762</ele>
<time>2012-08-24T17:27:16Z</time>
</trkpt>
<trkpt lat="50.375640392302" lon="19.519314765929607">
<ele>375.08762</ele>
<time>2012-08-24T17:27:22Z</time>
</trkpt>
<trkpt lat="50.3758013248429" lon="19.51950788497868">
<ele>376.4868</ele>
<time>2012-08-24T17:27:30Z</time>
</trkpt>
<trkpt lat="50.37596225738379" lon="19.519701004027752">
<ele>377.6322</ele>
<time>2012-08-24T17:27:38Z</time>
</trkpt>
<trkpt lat="50.376112461088624" lon="19.519894123076824">
<ele>378.64676</ele>
<time>2012-08-24T17:27:46Z</time>
</trkpt>
<trkpt lat="50.37627339362952" lon="19.520087242125896">
<ele>379.72733</ele>
<time>2012-08-24T17:27:54Z</time>
</trkpt>
<trkpt lat="50.37642359733435" lon="19.52025890350285">
<ele>380.6472</ele>
<time>2012-08-24T17:28:01Z</time>
</trkpt>
<trkpt lat="50.376573801039186" lon="19.520430564879803">
<ele>381.2029</ele>
<time>2012-08-24T17:28:08Z</time>
</trkpt>
<trkpt lat="50.37673473358008" lon="19.520580768584637">
<ele>381.89362</ele>
<time>2012-08-24T17:28:15Z</time>
</trkpt>
<trkpt lat="50.37689566612097" lon="19.52077388763371">
<ele>383.13922</ele>
<time>2012-08-24T17:28:23Z</time>
</trkpt>
<trkpt lat="50.37704586982581" lon="19.5209884643549">
<ele>384.5974</ele>
<time>2012-08-24T17:28:31Z</time>
</trkpt>
<trkpt lat="50.37719607353064" lon="19.52120304107609">
<ele>386.30716</ele>
<time>2012-08-24T17:28:40Z</time>
</trkpt>
<trkpt lat="50.377367734907594" lon="19.521353244780926">
<ele>387.71066</ele>
<time>2012-08-24T17:28:49Z</time>
</trkpt>
<trkpt lat="50.37753939628455" lon="19.52146053314152">
<ele>388.8448</ele>
<time>2012-08-24T17:28:58Z</time>
</trkpt>
<trkpt lat="50.3777110576615" lon="19.521546363829998">
<ele>390.35077</ele>
<time>2012-08-24T17:29:07Z</time>
</trkpt>
<trkpt lat="50.37790417671057" lon="19.521632194518475">
<ele>391.63486</ele>
<time>2012-08-24T17:29:16Z</time>
</trkpt>
<trkpt lat="50.37804365157935" lon="19.521846771239666">
<ele>392.5294</ele>
<time>2012-08-24T17:29:23Z</time>
</trkpt>
<trkpt lat="50.37815093993994" lon="19.522104263305096">
<ele>394.08118</ele>
<time>2012-08-24T17:29:32Z</time>
</trkpt>
<trkpt lat="50.378311872480836" lon="19.522297382354168">
<ele>396.5794</ele>
<time>2012-08-24T17:29:44Z</time>
</trkpt>
<trkpt lat="50.37845134734961" lon="19.52251195907536">
<ele>399.24402</ele>
<time>2012-08-24T17:29:55Z</time>
</trkpt>
<trkpt lat="50.378601551054444" lon="19.522683620452312">
<ele>401.90567</ele>
<time>2012-08-24T17:30:06Z</time>
</trkpt>
<trkpt lat="50.37876248359534" lon="19.522833824157146">
<ele>404.57385</ele>
<time>2012-08-24T17:30:18Z</time>
</trkpt>
<trkpt lat="50.37891268730017" lon="19.52302694320622">
<ele>407.01178</ele>
<time>2012-08-24T17:30:29Z</time>
</trkpt>
<trkpt lat="50.379073619841066" lon="19.523155689238934">
<ele>409.24835</ele>
<time>2012-08-24T17:30:39Z</time>
</trkpt>
<trkpt lat="50.37923455238196" lon="19.523327350615887">
<ele>411.55173</ele>
<time>2012-08-24T17:30:50Z</time>
</trkpt>
<trkpt lat="50.379363298414674" lon="19.523541927337078">
<ele>413.90396</ele>
<time>2012-08-24T17:30:59Z</time>
</trkpt>
<trkpt lat="50.37954568862769" lon="19.523670673369793">
<ele>415.57385</ele>
<time>2012-08-24T17:31:07Z</time>
</trkpt>
<trkpt lat="50.3797280788407" lon="19.52375650405827">
<ele>416.58246</ele>
<time>2012-08-24T17:31:12Z</time>
</trkpt>
<trkpt lat="50.37991046905371" lon="19.523906707763103">
<ele>420.37552</ele>
<time>2012-08-24T17:31:17Z</time>
</trkpt>
<trkpt lat="50.380092859266725" lon="19.5240139961237">
<ele>423.0608</ele>
<time>2012-08-24T17:31:22Z</time>
</trkpt>
<trkpt lat="50.38027524947974" lon="19.52403545379582">
<ele>423.199</ele>
<time>2012-08-24T17:31:27Z</time>
</trkpt>
<trkpt lat="50.38048982620093" lon="19.524078369140057">
<ele>423.03543</ele>
<time>2012-08-24T17:31:33Z</time>
</trkpt>
<trkpt lat="50.38067221641394" lon="19.524142742156414">
<ele>423.00632</ele>
<time>2012-08-24T17:31:39Z</time>
</trkpt>
<trkpt lat="50.380865335463014" lon="19.52420711517277">
<ele>423.0005</ele>
<time>2012-08-24T17:31:48Z</time>
</trkpt>
<trkpt lat="50.38104772567603" lon="19.524357318877605">
<ele>423.0</ele>
<time>2012-08-24T17:32:00Z</time>
</trkpt>
<trkpt lat="50.38121938705298" lon="19.524593353270916">
<ele>423.0</ele>
<time>2012-08-24T17:32:13Z</time>
</trkpt>
<trkpt lat="50.381326675413575" lon="19.524829387664226">
<ele>424.07202</ele>
<time>2012-08-24T17:32:23Z</time>
</trkpt>
<trkpt lat="50.38148760795447" lon="19.52497959136906">
<ele>425.52588</ele>
<time>2012-08-24T17:32:33Z</time>
</trkpt>
<trkpt lat="50.3816914558396" lon="19.5250225067133">
<ele>427.61227</ele>
<time>2012-08-24T17:32:45Z</time>
</trkpt>
<trkpt lat="50.38187384605261" lon="19.525108337401775">
<ele>429.0429</ele>
<time>2012-08-24T17:32:54Z</time>
</trkpt>
<trkpt lat="50.382056236265626" lon="19.525194168090252">
<ele>430.12225</ele>
<time>2012-08-24T17:33:01Z</time>
</trkpt>
<trkpt lat="50.3822493553147" lon="19.525322914122967">
<ele>431.13284</ele>
<time>2012-08-24T17:33:08Z</time>
</trkpt>
<trkpt lat="50.38243174552771" lon="19.525387287139324">
<ele>434.06863</ele>
<time>2012-08-24T17:33:13Z</time>
</trkpt>
<trkpt lat="50.38263559341284" lon="19.525430202483562">
<ele>435.9792</ele>
<time>2012-08-24T17:33:18Z</time>
</trkpt>
<trkpt lat="50.382839441297975" lon="19.52545166015568">
<ele>436.677</ele>
<time>2012-08-24T17:33:22Z</time>
</trkpt>
<trkpt lat="50.38303256034705" lon="19.5254731178278">
<ele>436.6478</ele>
<time>2012-08-24T17:33:26Z</time>
</trkpt>
<trkpt lat="50.38322567939612" lon="19.5254731178278">
<ele>436.15372</ele>
<time>2012-08-24T17:33:31Z</time>
</trkpt>
<trkpt lat="50.38341879844519" lon="19.52545166015568">
<ele>436.02737</ele>
<time>2012-08-24T17:33:37Z</time>
</trkpt>
<trkpt lat="50.383611917494264" lon="19.52545166015568">
<ele>436.0065</ele>
<time>2012-08-24T17:33:42Z</time>
</trkpt>
<trkpt lat="50.383815765379396" lon="19.52549457549992">
<ele>436.00153</ele>
<time>2012-08-24T17:33:47Z</time>
</trkpt>
<trkpt lat="50.38399815559241" lon="19.525558948516277">
<ele>436.0005</ele>
<time>2012-08-24T17:33:51Z</time>
</trkpt>
<trkpt lat="50.38419127464148" lon="19.525644779204754">
<ele>436.00015</ele>
<time>2012-08-24T17:33:55Z</time>
</trkpt>
<trkpt lat="50.38438439369055" lon="19.52573060989323">
<ele>436.00006</ele>
<time>2012-08-24T17:33:59Z</time>
</trkpt>
<trkpt lat="50.384556055067506" lon="19.525859355925945">
<ele>436.68362</ele>
<time>2012-08-24T17:34:03Z</time>
</trkpt>
<trkpt lat="50.38472771644446" lon="19.525945186614422">
<ele>436.8999</ele>
<time>2012-08-24T17:34:07Z</time>
</trkpt>
<trkpt lat="50.38489937782141" lon="19.526052474975018">
<ele>436.96832</ele>
<time>2012-08-24T17:34:11Z</time>
</trkpt>
<trkpt lat="50.385071039198365" lon="19.526138305663494">
<ele>436.99</ele>
<time>2012-08-24T17:34:15Z</time>
</trkpt>
<trkpt lat="50.3852748870835" lon="19.52622413635197">
<ele>436.56012</ele>
<time>2012-08-24T17:34:20Z</time>
</trkpt>
<trkpt lat="50.38547873496863" lon="19.526309967040447">
<ele>435.5548</ele>
<time>2012-08-24T17:34:25Z</time>
</trkpt>
<trkpt lat="50.3856718540177" lon="19.526417255401043">
<ele>434.44806</ele>
<time>2012-08-24T17:34:30Z</time>
</trkpt>
<trkpt lat="50.385854244230714" lon="19.526546001433758">
<ele>433.34363</ele>
<time>2012-08-24T17:34:35Z</time>
</trkpt>
<trkpt lat="50.38601517677161" lon="19.526674747466473">
<ele>433.06116</ele>
<time>2012-08-24T17:34:41Z</time>
</trkpt>
<trkpt lat="50.38618683814856" lon="19.526824951171307">
<ele>433.0109</ele>
<time>2012-08-24T17:34:47Z</time>
</trkpt>
<trkpt lat="50.38636922836157" lon="19.52701807022038">
<ele>431.9299</ele>
<time>2012-08-24T17:34:53Z</time>
</trkpt>
<trkpt lat="50.38649797439429" lon="19.52725410461369">
<ele>430.2786</ele>
<time>2012-08-24T17:34:57Z</time>
</trkpt>
<trkpt lat="50.386626720427" lon="19.527490139007">
<ele>428.47098</ele>
<time>2012-08-24T17:35:01Z</time>
</trkpt>
<trkpt lat="50.38675546645972" lon="19.52772617340031">
<ele>426.6373</ele>
<time>2012-08-24T17:35:05Z</time>
</trkpt>
<trkpt lat="50.38689494132849" lon="19.52798366546574">
<ele>425.08057</ele>
<time>2012-08-24T17:35:09Z</time>
</trkpt>
<trkpt lat="50.387045145033326" lon="19.52824115753117">
<ele>424.3419</ele>
<time>2012-08-24T17:35:13Z</time>
</trkpt>
<trkpt lat="50.3871846199021" lon="19.52847719192448">
<ele>423.1746</ele>
<time>2012-08-24T17:35:17Z</time>
</trkpt>
<trkpt lat="50.387356281279054" lon="19.528691768645672">
<ele>421.45062</ele>
<time>2012-08-24T17:35:22Z</time>
</trkpt>
<trkpt lat="50.38753867149207" lon="19.528884887694744">
<ele>419.63086</ele>
<time>2012-08-24T17:35:26Z</time>
</trkpt>
<trkpt lat="50.3877425193772" lon="19.529056549071697">
<ele>418.07852</ele>
<time>2012-08-24T17:35:30Z</time>
</trkpt>
<trkpt lat="50.38791418075415" lon="19.52920675277653">
<ele>416.87686</ele>
<time>2012-08-24T17:35:33Z</time>
</trkpt>
<trkpt lat="50.388096570967164" lon="19.529356956481365">
<ele>415.7918</ele>
<time>2012-08-24T17:35:36Z</time>
</trkpt>
<trkpt lat="50.38828969001624" lon="19.52952861785832">
<ele>414.75592</ele>
<time>2012-08-24T17:35:39Z</time>
</trkpt>
<trkpt lat="50.38848280906531" lon="19.529678821563152">
<ele>413.74078</ele>
<time>2012-08-24T17:35:42Z</time>
</trkpt>
<trkpt lat="50.38868665695044" lon="19.529850482940105">
<ele>412.7344</ele>
<time>2012-08-24T17:35:45Z</time>
</trkpt>
<trkpt lat="50.38886904716345" lon="19.53002214431706">
<ele>411.7317</ele>
<time>2012-08-24T17:35:48Z</time>
</trkpt>
<trkpt lat="50.389040708540406" lon="19.530172348021893">
<ele>410.8712</ele>
<time>2012-08-24T17:35:51Z</time>
</trkpt>
<trkpt lat="50.3892016410813" lon="19.530301094054607">
<ele>410.36752</ele>
<time>2012-08-24T17:35:54Z</time>
</trkpt>
<trkpt lat="50.38939476013037" lon="19.530408382415203">
<ele>410.1163</ele>
<time>2012-08-24T17:35:58Z</time>
</trkpt>
<trkpt lat="50.389598608015504" lon="19.530537128447918">
<ele>410.0368</ele>
<time>2012-08-24T17:36:02Z</time>
</trkpt>
<trkpt lat="50.389802455900636" lon="19.530644416808514">
<ele>409.32803</ele>
<time>2012-08-24T17:36:06Z</time>
</trkpt>
<trkpt lat="50.39000630378577" lon="19.53077316284123">
<ele>407.70676</ele>
<time>2012-08-24T17:36:11Z</time>
</trkpt>
<trkpt lat="50.39017796516272" lon="19.530880451201824">
<ele>405.5244</ele>
<time>2012-08-24T17:36:15Z</time>
</trkpt>
<trkpt lat="50.390349626539674" lon="19.53098773956242">
<ele>403.54874</ele>
<time>2012-08-24T17:36:19Z</time>
</trkpt>
<trkpt lat="50.390542745588746" lon="19.531116485595135">
<ele>402.49002</ele>
<time>2012-08-24T17:36:23Z</time>
</trkpt>
<trkpt lat="50.39072513580176" lon="19.53120231628361">
<ele>402.15506</ele>
<time>2012-08-24T17:36:27Z</time>
</trkpt>
<trkpt lat="50.39092898368689" lon="19.531288146972088">
<ele>401.2741</ele>
<time>2012-08-24T17:36:32Z</time>
</trkpt>
<trkpt lat="50.391100645063844" lon="19.531373977660564">
<ele>400.5086</ele>
<time>2012-08-24T17:36:36Z</time>
</trkpt>
<trkpt lat="50.391293764112916" lon="19.53145980834904">
<ele>399.5828</ele>
<time>2012-08-24T17:36:40Z</time>
</trkpt>
<trkpt lat="50.39148688316199" lon="19.5315241813654">
<ele>398.9344</ele>
<time>2012-08-24T17:36:44Z</time>
</trkpt>
<trkpt lat="50.391669273375" lon="19.5315241813654">
<ele>398.29565</ele>
<time>2012-08-24T17:36:48Z</time>
</trkpt>
<trkpt lat="50.391851663588014" lon="19.53150272369328">
<ele>398.09354</ele>
<time>2012-08-24T17:36:52Z</time>
</trkpt>
<trkpt lat="50.392055511473146" lon="19.531416893004803">
<ele>398.0296</ele>
<time>2012-08-24T17:36:56Z</time>
</trkpt>
<trkpt lat="50.39223790168616" lon="19.531352519988445">
<ele>397.07578</ele>
<time>2012-08-24T17:37:00Z</time>
</trkpt>
<trkpt lat="50.39246320724341" lon="19.531288146972088">
<ele>395.5717</ele>
<time>2012-08-24T17:37:05Z</time>
</trkpt>
<trkpt lat="50.39264559745642" lon="19.53122377395573">
<ele>395.13565</ele>
<time>2012-08-24T17:37:10Z</time>
</trkpt>
<trkpt lat="50.392827987669435" lon="19.531373977660564">
<ele>396.3672</ele>
<time>2012-08-24T17:37:48Z</time>
</trkpt>
<trkpt lat="50.39302110671851" lon="19.531652927398113">
<ele>399.04755</ele>
<time>2012-08-24T17:37:59Z</time>
</trkpt>
<trkpt lat="50.39320349693152" lon="19.53176021575871">
<ele>399.90466</ele>
<time>2012-08-24T17:38:07Z</time>
</trkpt>
<trkpt lat="50.39338588714453" lon="19.531674385070232">
<ele>400.67957</ele>
<time>2012-08-24T17:38:18Z</time>
</trkpt>
<trkpt lat="50.39348244666907" lon="19.53199625015202">
<ele>400.17188</ele>
<time>2012-08-24T17:39:07Z</time>
</trkpt>
<trkpt lat="50.39349317550513" lon="19.532318115233807">
<ele>398.9333</ele>
<time>2012-08-24T17:39:11Z</time>
</trkpt>
<trkpt lat="50.393600463865724" lon="19.532554149627117">
<ele>398.39374</ele>
<time>2012-08-24T17:39:14Z</time>
</trkpt>
<trkpt lat="50.39375066757056" lon="19.532790184020428">
<ele>398.12457</ele>
<time>2012-08-24T17:39:18Z</time>
</trkpt>
<trkpt lat="50.39386868476721" lon="19.533069133757976">
<ele>398.72302</ele>
<time>2012-08-24T17:39:22Z</time>
</trkpt>
<trkpt lat="50.39396524429175" lon="19.533326625823406">
<ele>398.91235</ele>
<time>2012-08-24T17:39:26Z</time>
</trkpt>
<trkpt lat="50.394093990324464" lon="19.533584117888836">
<ele>398.97922</ele>
<time>2012-08-24T17:39:31Z</time>
</trkpt>
<trkpt lat="50.39422273635718" lon="19.533820152282146">
<ele>399.677</ele>
<time>2012-08-24T17:39:35Z</time>
</trkpt>
<trkpt lat="50.394330024717775" lon="19.534056186675457">
<ele>399.8978</ele>
<time>2012-08-24T17:39:39Z</time>
</trkpt>
<trkpt lat="50.39445877075049" lon="19.534335136413006">
<ele>400.73843</ele>
<time>2012-08-24T17:39:44Z</time>
</trkpt>
<trkpt lat="50.394576787947145" lon="19.534592628478435">
<ele>401.37543</ele>
<time>2012-08-24T17:39:49Z</time>
</trkpt>
<trkpt lat="50.39470553397986" lon="19.534893035888103">
<ele>402.10178</ele>
<time>2012-08-24T17:39:54Z</time>
</trkpt>
<trkpt lat="50.394834280012574" lon="19.535171985625652">
<ele>403.36496</ele>
<time>2012-08-24T17:39:59Z</time>
</trkpt>
<trkpt lat="50.39494156837317" lon="19.535429477691082">
<ele>403.8493</ele>
<time>2012-08-24T17:40:04Z</time>
</trkpt>
<trkpt lat="50.395048856733766" lon="19.53570842742863">
<ele>403.71423</ele>
<time>2012-08-24T17:40:09Z</time>
</trkpt>
<trkpt lat="50.39517760276648" lon="19.53596591949406">
<ele>402.9195</ele>
<time>2012-08-24T17:40:14Z</time>
</trkpt>
<trkpt lat="50.395306348799195" lon="19.53622341155949">
<ele>402.16364</ele>
<time>2012-08-24T17:40:20Z</time>
</trkpt>
<trkpt lat="50.39542436599585" lon="19.53643798828068">
<ele>402.03885</ele>
<time>2012-08-24T17:40:25Z</time>
</trkpt>
<trkpt lat="50.395542383192506" lon="19.536652565001873">
<ele>401.32562</ele>
<time>2012-08-24T17:40:30Z</time>
</trkpt>
<trkpt lat="50.39566040038916" lon="19.536867141723064">
<ele>400.63977</ele>
<time>2012-08-24T17:40:35Z</time>
</trkpt>
<trkpt lat="50.395799875257936" lon="19.537060260772137">
<ele>400.11386</ele>
<time>2012-08-24T17:40:41Z</time>
</trkpt>
<trkpt lat="50.39592862129065" lon="19.537274837493328">
<ele>400.02026</ele>
<time>2012-08-24T17:40:47Z</time>
</trkpt>
<trkpt lat="50.396046638487306" lon="19.537532329558758">
<ele>400.25482</ele>
<time>2012-08-24T17:40:52Z</time>
</trkpt>
<trkpt lat="50.39617538452002" lon="19.53774690627995">
<ele>400.82315</ele>
<time>2012-08-24T17:40:57Z</time>
</trkpt>
<trkpt lat="50.39635777473303" lon="19.53796148300114">
<ele>400.95804</ele>
<time>2012-08-24T17:41:02Z</time>
</trkpt>
<trkpt lat="50.39650797843787" lon="19.538176059722332">
<ele>401.42755</ele>
<time>2012-08-24T17:41:07Z</time>
</trkpt>
<trkpt lat="50.396561622618165" lon="19.538583755492596">
<ele>402.96973</ele>
<time>2012-08-24T17:41:16Z</time>
</trkpt>
<trkpt lat="50.39672255515906" lon="19.53873395919743">
<ele>404.14685</ele>
<time>2012-08-24T17:41:24Z</time>
</trkpt>
<trkpt lat="50.39690494537207" lon="19.538862705230144">
<ele>405.16458</ele>
<time>2012-08-24T17:41:32Z</time>
</trkpt>
<trkpt lat="50.397044420240846" lon="19.539077281951336">
<ele>406.22354</ele>
<time>2012-08-24T17:41:44Z</time>
</trkpt>
<trkpt lat="50.397055149076905" lon="19.539399147033123">
<ele>406.42432</ele>
<time>2012-08-24T17:41:50Z</time>
</trkpt>
<trkpt lat="50.39718389510962" lon="19.539678096770672">
<ele>405.20984</ele>
<time>2012-08-24T17:41:59Z</time>
</trkpt>
<trkpt lat="50.39739847183081" lon="19.539892673491863">
<ele>403.9398</ele>
<time>2012-08-24T17:42:09Z</time>
</trkpt>
<trkpt lat="50.397559404371705" lon="19.540021419524578">
<ele>401.99854</ele>
<time>2012-08-24T17:42:18Z</time>
</trkpt>
<trkpt lat="50.39768815040442" lon="19.540343284606365">
<ele>400.84998</ele>
<time>2012-08-24T17:42:26Z</time>
</trkpt>
<trkpt lat="50.397795438765016" lon="19.54068660736027">
<ele>400.0638</ele>
<time>2012-08-24T17:42:35Z</time>
</trkpt>
<trkpt lat="50.39798855781409" lon="19.540858268737225">
<ele>400.0</ele>
<time>2012-08-24T17:43:16Z</time>
</trkpt>
<trkpt lat="50.3981709480271" lon="19.541094303130535">
<ele>400.0</ele>
<time>2012-08-24T17:43:21Z</time>
</trkpt>
<trkpt lat="50.398321151731935" lon="19.541330337523846">
<ele>400.6836</ele>
<time>2012-08-24T17:43:25Z</time>
</trkpt>
<trkpt lat="50.39844989776465" lon="19.541544914245037">
<ele>400.92493</ele>
<time>2012-08-24T17:43:30Z</time>
</trkpt>
<trkpt lat="50.398578643797364" lon="19.54175949096623">
<ele>400.98663</ele>
<time>2012-08-24T17:43:36Z</time>
</trkpt>
<trkpt lat="50.3987288475022" lon="19.5419526100153">
<ele>400.999</ele>
<time>2012-08-24T17:43:45Z</time>
</trkpt>
<trkpt lat="50.39888978004309" lon="19.542124271392254">
<ele>401.57806</ele>
<time>2012-08-24T17:43:55Z</time>
</trkpt>
<trkpt lat="50.399029254911866" lon="19.542317390441326">
<ele>401.99924</ele>
<time>2012-08-24T17:44:17Z</time>
</trkpt>
<trkpt lat="50.39913654327246" lon="19.542553424834637">
<ele>402.0</ele>
<time>2012-08-24T17:44:39Z</time>
</trkpt>
<trkpt lat="50.39925456046912" lon="19.542768001555828">
<ele>404.41196</ele>
<time>2012-08-24T17:45:20Z</time>
</trkpt>
<trkpt lat="50.39940476417395" lon="19.5429611206049">
<ele>406.80035</ele>
<time>2012-08-24T17:45:30Z</time>
</trkpt>
<trkpt lat="50.399544239042726" lon="19.54317569732609">
<ele>408.52347</ele>
<time>2012-08-24T17:45:37Z</time>
</trkpt>
<trkpt lat="50.39967298507544" lon="19.543390274047283">
<ele>409.7372</ele>
<time>2012-08-24T17:45:43Z</time>
</trkpt>
<trkpt lat="50.399801731108155" lon="19.543604850768475">
<ele>410.78696</ele>
<time>2012-08-24T17:45:50Z</time>
</trkpt>
<trkpt lat="50.39998412132117" lon="19.54371213912907">
<ele>411.9129</ele>
<time>2012-08-24T17:46:00Z</time>
</trkpt>
<trkpt lat="50.40016651153418" lon="19.543776512145428">
<ele>411.00916</ele>
<time>2012-08-24T17:46:16Z</time>
</trkpt>
<trkpt lat="50.400327444075074" lon="19.543905258178143">
<ele>411.4376</ele>
<time>2012-08-24T17:46:32Z</time>
</trkpt>
<trkpt lat="50.40047764777991" lon="19.544076919555096">
<ele>411.9437</ele>
<time>2012-08-24T17:46:40Z</time>
</trkpt>
<trkpt lat="50.40064930915686" lon="19.54422712325993">
<ele>412.24</ele>
<time>2012-08-24T17:46:46Z</time>
</trkpt>
<trkpt lat="50.400842428205934" lon="19.544355869292644">
<ele>412.86475</ele>
<time>2012-08-24T17:46:52Z</time>
</trkpt>
<trkpt lat="50.40101408958289" lon="19.54446315765324">
<ele>413.54602</ele>
<time>2012-08-24T17:46:57Z</time>
</trkpt>
<trkpt lat="50.4011964797959" lon="19.54450607299748">
<ele>414.60278</ele>
<time>2012-08-24T17:47:03Z</time>
</trkpt>
<trkpt lat="50.40137887000891" lon="19.544420242309002">
<ele>414.947</ele>
<time>2012-08-24T17:47:10Z</time>
</trkpt>
<trkpt lat="50.401571989057985" lon="19.544420242309002">
<ele>414.99777</ele>
<time>2012-08-24T17:47:21Z</time>
</trkpt>
<trkpt lat="50.401754379271" lon="19.544527530669598">
<ele>414.9998</ele>
<time>2012-08-24T17:47:29Z</time>
</trkpt>
<trkpt lat="50.40191531181189" lon="19.54467773437443">
<ele>415.0</ele>
<time>2012-08-24T17:47:47Z</time>
</trkpt>
<trkpt lat="50.40201187133643" lon="19.54495668411198">
<ele>416.8145</ele>
<time>2012-08-24T17:48:10Z</time>
</trkpt>
<trkpt lat="50.402054786680665" lon="19.54523563384953">
<ele>417.72968</ele>
<time>2012-08-24T17:48:16Z</time>
</trkpt>
<trkpt lat="50.402076244352784" lon="19.545557498931316">
<ele>418.6355</ele>
<time>2012-08-24T17:48:22Z</time>
</trkpt>
<trkpt lat="50.402054786680665" lon="19.545857906340984">
<ele>418.93512</ele>
<time>2012-08-24T17:48:28Z</time>
</trkpt>
<trkpt lat="50.402086973188844" lon="19.546158313750652">
<ele>418.98846</ele>
<time>2012-08-24T17:48:34Z</time>
</trkpt>
<trkpt lat="50.40216207504126" lon="19.5464372634882">
<ele>418.99796</ele>
<time>2012-08-24T17:48:40Z</time>
</trkpt>
<trkpt lat="50.402280092237916" lon="19.54671621322575">
<ele>418.56213</ele>
<time>2012-08-24T17:48:46Z</time>
</trkpt>
<trkpt lat="50.40239810943457" lon="19.54695224761906">
<ele>417.3586</ele>
<time>2012-08-24T17:48:55Z</time>
</trkpt>
<trkpt lat="50.402559041975465" lon="19.547166824340252">
<ele>417.02692</ele>
<time>2012-08-24T17:49:04Z</time>
</trkpt>
<trkpt lat="50.40273070335242" lon="19.547295570372967">
<ele>418.5537</ele>
<time>2012-08-24T17:49:11Z</time>
</trkpt>
<trkpt lat="50.40290236472937" lon="19.547381401061443">
<ele>420.5388</ele>
<time>2012-08-24T17:49:19Z</time>
</trkpt>
<trkpt lat="50.403052568434205" lon="19.547553062438396">
<ele>421.76047</ele>
<time>2012-08-24T17:49:26Z</time>
</trkpt>
<trkpt lat="50.40319204330298" lon="19.547767639159588">
<ele>421.71802</ele>
<time>2012-08-24T17:49:33Z</time>
</trkpt>
<trkpt lat="50.40335297584387" lon="19.54796075820866">
<ele>421.04044</ele>
<time>2012-08-24T17:49:43Z</time>
</trkpt>
<trkpt lat="50.40351390838477" lon="19.548153877257732">
<ele>419.808</ele>
<time>2012-08-24T17:49:54Z</time>
</trkpt>
<trkpt lat="50.4036641120896" lon="19.548368453978924">
<ele>418.608</ele>
<time>2012-08-24T17:50:04Z</time>
</trkpt>
<trkpt lat="50.403782129286256" lon="19.548604488372234">
<ele>418.04565</ele>
<time>2012-08-24T17:50:13Z</time>
</trkpt>
<trkpt lat="50.40386795997473" lon="19.548861980437664">
<ele>418.58154</ele>
<time>2012-08-24T17:50:22Z</time>
</trkpt>
<trkpt lat="50.404028892515626" lon="19.549012184142498">
<ele>421.5267</ele>
<time>2012-08-24T17:50:37Z</time>
</trkpt>
<trkpt lat="50.40420055389258" lon="19.549119472503094">
<ele>426.2809</ele>
<time>2012-08-24T17:50:48Z</time>
</trkpt>
<trkpt lat="50.40438294410559" lon="19.549312591552166">
<ele>429.52615</ele>
<time>2012-08-24T17:50:55Z</time>
</trkpt>
<trkpt lat="50.404543876646486" lon="19.549505710601238">
<ele>431.75037</ele>
<time>2012-08-24T17:51:01Z</time>
</trkpt>
<trkpt lat="50.40470480918738" lon="19.54969882965031">
<ele>433.2151</ele>
<time>2012-08-24T17:51:07Z</time>
</trkpt>
<trkpt lat="50.40484428405615" lon="19.549891948699383">
<ele>433.89523</ele>
<time>2012-08-24T17:51:14Z</time>
</trkpt>
<trkpt lat="50.40496230125281" lon="19.550106525420574">
<ele>434.8894</ele>
<time>2012-08-24T17:51:22Z</time>
</trkpt>
<trkpt lat="50.40511250495764" lon="19.550299644469646">
<ele>434.98892</ele>
<time>2012-08-24T17:51:30Z</time>
</trkpt>
<trkpt lat="50.405273437498536" lon="19.55042839050236">
<ele>434.99854</ele>
<time>2012-08-24T17:51:37Z</time>
</trkpt>
<trkpt lat="50.40541291236731" lon="19.550642967223553">
<ele>435.6818</ele>
<time>2012-08-24T17:51:45Z</time>
</trkpt>
<trkpt lat="50.405573844908204" lon="19.550814628600506">
<ele>437.76825</ele>
<time>2012-08-24T17:51:53Z</time>
</trkpt>
<trkpt lat="50.40575623512122" lon="19.550857543944744">
<ele>444.95737</ele>
<time>2012-08-24T17:52:40Z</time>
</trkpt>
<trkpt lat="50.40592789649817" lon="19.55094337463322">
<ele>452.71872</ele>
<time>2012-08-24T17:54:18Z</time>
</trkpt>
<trkpt lat="50.40612101554724" lon="19.55096483230534">
<ele>452.09595</ele>
<time>2012-08-24T17:54:25Z</time>
</trkpt>
<trkpt lat="50.406314134596315" lon="19.551007747649578">
<ele>452.58118</ele>
<time>2012-08-24T17:54:37Z</time>
</trkpt>
<trkpt lat="50.40650725364539" lon="19.55098628997746">
<ele>453.64166</ele>
<time>2012-08-24T17:54:45Z</time>
</trkpt>
<trkpt lat="50.40670037269446" lon="19.55096483230534">
<ele>455.05185</ele>
<time>2012-08-24T17:54:55Z</time>
</trkpt>
<trkpt lat="50.40689349174353" lon="19.55094337463322">
<ele>456.6915</ele>
<time>2012-08-24T17:55:04Z</time>
</trkpt>
<trkpt lat="50.407075881956544" lon="19.550879001616863">
<ele>458.61752</ele>
<time>2012-08-24T17:55:16Z</time>
</trkpt>
<trkpt lat="50.40725827216956" lon="19.550814628600506">
<ele>459.94565</ele>
<time>2012-08-24T17:55:28Z</time>
</trkpt>
<trkpt lat="50.40744066238257" lon="19.55070734023991">
<ele>460.9859</ele>
<time>2012-08-24T17:55:43Z</time>
</trkpt>
<trkpt lat="50.40761232375952" lon="19.550621509551434">
<ele>462.06952</ele>
<time>2012-08-24T17:55:49Z</time>
</trkpt>
<trkpt lat="50.407783985136476" lon="19.55049276351872">
<ele>463.4125</ele>
<time>2012-08-24T17:55:55Z</time>
</trkpt>
<trkpt lat="50.40796637534949" lon="19.550364017486004">
<ele>464.65814</ele>
<time>2012-08-24T17:56:01Z</time>
</trkpt>
<trkpt lat="50.4081487655625" lon="19.55023527145329">
<ele>465.71707</ele>
<time>2012-08-24T17:56:08Z</time>
</trkpt>
<trkpt lat="50.408309698103395" lon="19.550085067748455">
<ele>467.55515</ele>
<time>2012-08-24T17:56:16Z</time>
</trkpt>
<trkpt lat="50.40847063064429" lon="19.549913406371502">
<ele>469.93134</ele>
<time>2012-08-24T17:56:26Z</time>
</trkpt>
<trkpt lat="50.408524274824586" lon="19.549634456633953">
<ele>472.90738</ele>
<time>2012-08-24T17:56:35Z</time>
</trkpt>
<trkpt lat="50.40863156318518" lon="19.549376964568523">
<ele>475.52194</ele>
<time>2012-08-24T17:56:45Z</time>
</trkpt>
<trkpt lat="50.408781766890016" lon="19.549162387847332">
<ele>477.3968</ele>
<time>2012-08-24T17:56:53Z</time>
</trkpt>
<trkpt lat="50.40897488593909" lon="19.549119472503094">
<ele>479.17902</ele>
<time>2012-08-24T17:57:00Z</time>
</trkpt>
<trkpt lat="50.4091036319718" lon="19.549334049224285">
<ele>480.46854</ele>
<time>2012-08-24T17:57:07Z</time>
</trkpt>
<trkpt lat="50.40923237800452" lon="19.549570083617596">
<ele>480.9054</ele>
<time>2012-08-24T17:57:13Z</time>
</trkpt>
<trkpt lat="50.40936112403723" lon="19.549806118010906">
<ele>481.80518</ele>
<time>2012-08-24T17:57:19Z</time>
</trkpt>
<trkpt lat="50.40946841239783" lon="19.550063610076336">
<ele>481.96533</ele>
<time>2012-08-24T17:57:25Z</time>
</trkpt>
<trkpt lat="50.409554243086305" lon="19.550385475158123">
<ele>481.98904</ele>
<time>2012-08-24T17:57:29Z</time>
</trkpt>
<trkpt lat="50.40962934493872" lon="19.55068588256779">
<ele>481.9974</ele>
<time>2012-08-24T17:57:34Z</time>
</trkpt>
<trkpt lat="50.40973663329932" lon="19.5509219169611">
<ele>481.3158</ele>
<time>2012-08-24T17:57:39Z</time>
</trkpt>
<trkpt lat="50.40984392165991" lon="19.55120086669865">
<ele>480.79214</ele>
<time>2012-08-24T17:57:46Z</time>
</trkpt>
<trkpt lat="50.40992975234839" lon="19.55150127410832">
<ele>478.52972</ele>
<time>2012-08-24T17:58:03Z</time>
</trkpt>
<trkpt lat="50.410015583036866" lon="19.551801681517986">
<ele>476.9542</ele>
<time>2012-08-24T17:58:10Z</time>
</trkpt>
<trkpt lat="50.410058498381105" lon="19.552123546599773">
<ele>476.16983</ele>
<time>2012-08-24T17:58:16Z</time>
</trkpt>
<trkpt lat="50.41010141372534" lon="19.552531242370037">
<ele>475.75955</ele>
<time>2012-08-24T17:58:26Z</time>
</trkpt>
<trkpt lat="50.41020870208594" lon="19.552788734435467">
<ele>473.66556</ele>
<time>2012-08-24T17:58:37Z</time>
</trkpt>
<trkpt lat="50.41038036346289" lon="19.553003311156658">
<ele>471.84378</ele>
<time>2012-08-24T17:58:47Z</time>
</trkpt>
<trkpt lat="50.410519838331666" lon="19.55321788787785">
<ele>471.29752</ele>
<time>2012-08-24T17:58:57Z</time>
</trkpt>
<trkpt lat="50.41071295738074" lon="19.553346633910564">
<ele>473.00018</ele>
<time>2012-08-24T17:59:11Z</time>
</trkpt>
<trkpt lat="50.41089534759375" lon="19.553518295287518">
<ele>474.07205</ele>
<time>2012-08-24T17:59:17Z</time>
</trkpt>
<trkpt lat="50.411024093626466" lon="19.553775787352947">
<ele>474.87613</ele>
<time>2012-08-24T17:59:24Z</time>
</trkpt>
<trkpt lat="50.4111742973313" lon="19.55399036407414">
<ele>475.8168</ele>
<time>2012-08-24T17:59:35Z</time>
</trkpt>
<trkpt lat="50.411292314527955" lon="19.55424785613957">
<ele>476.23166</ele>
<time>2012-08-24T17:59:43Z</time>
</trkpt>
<trkpt lat="50.41144251823279" lon="19.55448389053288">
<ele>476.92307</ele>
<time>2012-08-24T17:59:51Z</time>
</trkpt>
<trkpt lat="50.411560535429444" lon="19.554762840270428">
<ele>475.9796</ele>
<time>2012-08-24T17:59:59Z</time>
</trkpt>
<trkpt lat="50.41160345077368" lon="19.555084705352215">
<ele>474.44717</ele>
<time>2012-08-24T18:00:06Z</time>
</trkpt>
<trkpt lat="50.41166782379004" lon="19.555406570434002">
<ele>473.047</ele>
<time>2012-08-24T18:00:13Z</time>
</trkpt>
<trkpt lat="50.411764383314576" lon="19.55566406249943">
<ele>472.18634</ele>
<time>2012-08-24T18:00:19Z</time>
</trkpt>
<trkpt lat="50.41187167167517" lon="19.55594301223698">
<ele>472.02487</ele>
<time>2012-08-24T18:00:26Z</time>
</trkpt>
<trkpt lat="50.412011146543946" lon="19.556157588958172">
<ele>472.82388</ele>
<time>2012-08-24T18:00:35Z</time>
</trkpt>
<trkpt lat="50.41216135024878" lon="19.556372165679363">
<ele>472.54486</ele>
<time>2012-08-24T18:00:43Z</time>
</trkpt>
<trkpt lat="50.412300825117555" lon="19.556608200072674">
<ele>472.05453</ele>
<time>2012-08-24T18:00:51Z</time>
</trkpt>
<trkpt lat="50.41240811347815" lon="19.556865692138103">
<ele>472.8706</ele>
<time>2012-08-24T18:01:00Z</time>
</trkpt>
<trkpt lat="50.41249394416663" lon="19.557123184203533">
<ele>474.1068</ele>
<time>2012-08-24T18:01:09Z</time>
</trkpt>
<trkpt lat="50.4126334190354" lon="19.557337760924725">
<ele>474.9497</ele>
<time>2012-08-24T18:01:19Z</time>
</trkpt>
<trkpt lat="50.41275143623206" lon="19.557552337645916">
<ele>475.89484</ele>
<time>2012-08-24T18:01:27Z</time>
</trkpt>
<trkpt lat="50.412826538084474" lon="19.557809829711346">
<ele>476.6649</ele>
<time>2012-08-24T18:01:33Z</time>
</trkpt>
<trkpt lat="50.41290163993689" lon="19.558088779448894">
<ele>477.19037</ele>
<time>2012-08-24T18:01:39Z</time>
</trkpt>
<trkpt lat="50.41296601295325" lon="19.558367729186443">
<ele>478.1059</ele>
<time>2012-08-24T18:01:45Z</time>
</trkpt>
<trkpt lat="50.413041114805665" lon="19.55868959426823">
<ele>479.09088</ele>
<time>2012-08-24T18:01:51Z</time>
</trkpt>
<trkpt lat="50.41310548782202" lon="19.5589900016779">
<ele>480.22177</ele>
<time>2012-08-24T18:01:56Z</time>
</trkpt>
<trkpt lat="50.41318058967444" lon="19.559311866759685">
<ele>481.39343</ele>
<time>2012-08-24T18:02:01Z</time>
</trkpt>
<trkpt lat="50.4132449626908" lon="19.559612274169353">
<ele>483.05624</ele>
<time>2012-08-24T18:02:06Z</time>
</trkpt>
<trkpt lat="50.413298606871095" lon="19.559891223906902">
<ele>485.27417</ele>
<time>2012-08-24T18:02:13Z</time>
</trkpt>
<trkpt lat="50.41334152221533" lon="19.56017017364445">
<ele>490.5497</ele>
<time>2012-08-24T18:02:55Z</time>
</trkpt>
<trkpt lat="50.41341662406775" lon="19.560449123382">
<ele>494.35648</ele>
<time>2012-08-24T18:03:07Z</time>
</trkpt>
<trkpt lat="50.41350245475623" lon="19.56070661544743">
<ele>495.64816</ele>
<time>2012-08-24T18:03:13Z</time>
</trkpt>
<trkpt lat="50.41360974311682" lon="19.56098556518498">
<ele>497.25705</ele>
<time>2012-08-24T18:03:20Z</time>
</trkpt>
<trkpt lat="50.4137492179856" lon="19.561243057250408">
<ele>498.55527</ele>
<time>2012-08-24T18:03:26Z</time>
</trkpt>
<trkpt lat="50.41387796401831" lon="19.561500549315838">
<ele>501.7382</ele>
<time>2012-08-24T18:03:30Z</time>
</trkpt>
<trkpt lat="50.41399598121497" lon="19.561779499053387">
<ele>504.39685</ele>
<time>2012-08-24T18:03:35Z</time>
</trkpt>
<trkpt lat="50.41412472724768" lon="19.562101364135174">
<ele>505.61957</ele>
<time>2012-08-24T18:03:40Z</time>
</trkpt>
<trkpt lat="50.41423201560828" lon="19.562337398528484">
<ele>505.44214</ele>
<time>2012-08-24T18:03:44Z</time>
</trkpt>
<trkpt lat="50.41437149047705" lon="19.562594890593914">
<ele>504.7024</ele>
<time>2012-08-24T18:03:48Z</time>
</trkpt>
<trkpt lat="50.41450023650977" lon="19.562809467315105">
<ele>504.29633</ele>
<time>2012-08-24T18:03:51Z</time>
</trkpt>
<trkpt lat="50.41462898254248" lon="19.563045501708416">
<ele>503.54688</ele>
<time>2012-08-24T18:03:54Z</time>
</trkpt>
<trkpt lat="50.41474699973914" lon="19.563281536101726">
<ele>503.2307</ele>
<time>2012-08-24T18:03:57Z</time>
</trkpt>
<trkpt lat="50.41489720344397" lon="19.563539028167156">
<ele>502.84732</ele>
<time>2012-08-24T18:04:00Z</time>
</trkpt>
<trkpt lat="50.415058135984864" lon="19.563796520232586">
<ele>502.35748</ele>
<time>2012-08-24T18:04:03Z</time>
</trkpt>
<trkpt lat="50.41521906852576" lon="19.563989639281658">
<ele>501.3227</ele>
<time>2012-08-24T18:04:06Z</time>
</trkpt>
<trkpt lat="50.41534781455847" lon="19.56420421600285">
<ele>499.55118</ele>
<time>2012-08-24T18:04:11Z</time>
</trkpt>
<trkpt lat="50.41548728942725" lon="19.56441879272404">
<ele>496.35345</ele>
<time>2012-08-24T18:04:16Z</time>
</trkpt>
<trkpt lat="50.41562676429602" lon="19.564611911773113">
<ele>492.3495</ele>
<time>2012-08-24T18:04:21Z</time>
</trkpt>
<trkpt lat="50.415776968000856" lon="19.564826488494305">
<ele>489.94916</ele>
<time>2012-08-24T18:04:26Z</time>
</trkpt>
<trkpt lat="50.41590571403357" lon="19.565041065215496">
<ele>487.34146</ele>
<time>2012-08-24T18:04:31Z</time>
</trkpt>
<trkpt lat="50.416045188902345" lon="19.565255641936687">
<ele>486.23874</ele>
<time>2012-08-24T18:04:37Z</time>
</trkpt>
<trkpt lat="50.41620612144324" lon="19.56544876098576">
<ele>486.0239</ele>
<time>2012-08-24T18:04:45Z</time>
</trkpt>
<trkpt lat="50.41636705398413" lon="19.565577507018475">
<ele>486.00424</ele>
<time>2012-08-24T18:04:51Z</time>
</trkpt>
<trkpt lat="50.416506528852906" lon="19.565813541411785">
<ele>486.00058</ele>
<time>2012-08-24T18:04:58Z</time>
</trkpt>
<trkpt lat="50.41663527488562" lon="19.566049575805096">
<ele>485.5626</ele>
<time>2012-08-24T18:05:04Z</time>
</trkpt>
<trkpt lat="50.41675329208228" lon="19.566285610198406">
<ele>485.0751</ele>
<time>2012-08-24T18:05:11Z</time>
</trkpt>
<trkpt lat="50.41686058044287" lon="19.566564559935955">
<ele>485.76587</ele>
<time>2012-08-24T18:05:22Z</time>
</trkpt>
<trkpt lat="50.41693568229529" lon="19.566307067870525">
<ele>487.51498</ele>
<time>2012-08-24T18:06:32Z</time>
</trkpt>
<trkpt lat="50.41710734367224" lon="19.566392898559002">
<ele>487.12222</ele>
<time>2012-08-24T18:06:37Z</time>
</trkpt>
<trkpt lat="50.417321920393434" lon="19.566521644591717">
<ele>483.55438</ele>
<time>2012-08-24T18:06:42Z</time>
</trkpt>
<trkpt lat="50.417515039442506" lon="19.566586017608074">
<ele>479.859</ele>
<time>2012-08-24T18:06:46Z</time>
</trkpt>
<trkpt lat="50.41771888732764" lon="19.56665039062443">
<ele>477.10034</ele>
<time>2012-08-24T18:06:51Z</time>
</trkpt>
<trkpt lat="50.41790127754065" lon="19.56669330596867">
<ele>475.33252</ele>
<time>2012-08-24T18:06:55Z</time>
</trkpt>
<trkpt lat="50.41809439658972" lon="19.56669330596867">
<ele>472.9099</ele>
<time>2012-08-24T18:06:59Z</time>
</trkpt>
<trkpt lat="50.418308973310914" lon="19.566586017608074">
<ele>469.56943</ele>
<time>2012-08-24T18:07:04Z</time>
</trkpt>
<trkpt lat="50.41845917701575" lon="19.56641435623112">
<ele>469.18018</ele>
<time>2012-08-24T18:07:08Z</time>
</trkpt>
<trkpt lat="50.41859865188452" lon="19.56617832183781">
<ele>469.80545</ele>
<time>2012-08-24T18:07:13Z</time>
</trkpt>
<trkpt lat="50.41872739791724" lon="19.5659422874445">
<ele>470.71652</ele>
<time>2012-08-24T18:07:18Z</time>
</trkpt>
<trkpt lat="50.41884541511389" lon="19.56570625305119">
<ele>470.33218</ele>
<time>2012-08-24T18:07:22Z</time>
</trkpt>
<trkpt lat="50.41899561881873" lon="19.565534591674236">
<ele>470.68323</ele>
<time>2012-08-24T18:07:26Z</time>
</trkpt>
<trkpt lat="50.41916728019568" lon="19.565384387969402">
<ele>472.27087</ele>
<time>2012-08-24T18:07:30Z</time>
</trkpt>
<trkpt lat="50.419317483900514" lon="19.56519126892033">
<ele>474.031</ele>
<time>2012-08-24T18:07:34Z</time>
</trkpt>
<trkpt lat="50.41947841644141" lon="19.564998149871258">
<ele>475.48718</ele>
<time>2012-08-24T18:07:41Z</time>
</trkpt>
<trkpt lat="50.4196393489823" lon="19.564847946166424">
<ele>473.7406</ele>
<time>2012-08-24T18:07:46Z</time>
</trkpt>
<trkpt lat="50.419811010359254" lon="19.56469774246159">
<ele>470.74606</ele>
<time>2012-08-24T18:07:50Z</time>
</trkpt>
<trkpt lat="50.420004129408326" lon="19.564526081084637">
<ele>468.65164</ele>
<time>2012-08-24T18:07:55Z</time>
</trkpt>
<trkpt lat="50.4201436042771" lon="19.564332962035564">
<ele>468.64368</ele>
<time>2012-08-24T18:07:59Z</time>
</trkpt>
<trkpt lat="50.420283079145875" lon="19.564118385314373">
<ele>468.88727</ele>
<time>2012-08-24T18:08:03Z</time>
</trkpt>
<trkpt lat="50.42044401168677" lon="19.563860893248943">
<ele>468.96432</ele>
<time>2012-08-24T18:08:07Z</time>
</trkpt>
<trkpt lat="50.42058348655554" lon="19.563581943511394">
<ele>468.9887</ele>
<time>2012-08-24T18:08:11Z</time>
</trkpt>
<trkpt lat="50.42074441909644" lon="19.563367366790203">
<ele>469.57455</ele>
<time>2012-08-24T18:08:15Z</time>
</trkpt>
<trkpt lat="50.42086243629309" lon="19.563131332396893">
<ele>469.89905</ele>
<time>2012-08-24T18:08:20Z</time>
</trkpt>
<trkpt lat="50.42099118232581" lon="19.5629167556757">
<ele>469.97604</ele>
<time>2012-08-24T18:08:25Z</time>
</trkpt>
<trkpt lat="50.42113065719458" lon="19.56268072128239">
<ele>469.4162</ele>
<time>2012-08-24T18:08:30Z</time>
</trkpt>
<trkpt lat="50.421270132063356" lon="19.56242322921696">
<ele>467.14954</ele>
<time>2012-08-24T18:08:35Z</time>
</trkpt>
<trkpt lat="50.42136669158789" lon="19.56216573715153">
<ele>464.7474</ele>
<time>2012-08-24T18:08:40Z</time>
</trkpt>
<trkpt lat="50.42142033576819" lon="19.561886787413982">
<ele>464.09976</ele>
<time>2012-08-24T18:08:47Z</time>
</trkpt>
<trkpt lat="50.421506166456666" lon="19.561607837676434">
<ele>464.02368</ele>
<time>2012-08-24T18:08:52Z</time>
</trkpt>
<trkpt lat="50.42161345481726" lon="19.561307430266766">
<ele>464.0056</ele>
<time>2012-08-24T18:08:57Z</time>
</trkpt>
<trkpt lat="50.421752929686036" lon="19.561049938201336">
<ele>464.00134</ele>
<time>2012-08-24T18:09:02Z</time>
</trkpt>
<trkpt lat="50.42189240455481" lon="19.560856819152264">
<ele>464.0003</ele>
<time>2012-08-24T18:09:07Z</time>
</trkpt>
<trkpt lat="50.422021150587526" lon="19.560556411742596">
<ele>464.00006</ele>
<time>2012-08-24T18:09:12Z</time>
</trkpt>
<trkpt lat="50.42212843894812" lon="19.560320377349285">
<ele>464.25003</ele>
<time>2012-08-24T18:09:15Z</time>
</trkpt>
<trkpt lat="50.42224645614478" lon="19.560062885283855">
<ele>465.4463</ele>
<time>2012-08-24T18:09:19Z</time>
</trkpt>
<trkpt lat="50.42238593101355" lon="19.559805393218426">
<ele>465.8686</ele>
<time>2012-08-24T18:09:24Z</time>
</trkpt>
<trkpt lat="50.422525405882325" lon="19.559590816497234">
<ele>465.4688</ele>
<time>2012-08-24T18:09:29Z</time>
</trkpt>
<trkpt lat="50.42268633842322" lon="19.559354782103924">
<ele>461.7021</ele>
<time>2012-08-24T18:09:34Z</time>
</trkpt>
<trkpt lat="50.42284727096411" lon="19.559140205382732">
<ele>459.7203</ele>
<time>2012-08-24T18:09:39Z</time>
</trkpt>
<trkpt lat="50.423008203505006" lon="19.55892562866154">
<ele>459.17093</ele>
<time>2012-08-24T18:09:44Z</time>
</trkpt>
<trkpt lat="50.42315840720984" lon="19.55873250961247">
<ele>459.05408</ele>
<time>2012-08-24T18:09:48Z</time>
</trkpt>
<trkpt lat="50.42331933975073" lon="19.558539390563396">
<ele>459.01712</ele>
<time>2012-08-24T18:09:52Z</time>
</trkpt>
<trkpt lat="50.42348027229163" lon="19.558389186858562">
<ele>458.5679</ele>
<time>2012-08-24T18:09:56Z</time>
</trkpt>
<trkpt lat="50.42365193366858" lon="19.55819606780949">
<ele>457.66357</ele>
<time>2012-08-24T18:10:02Z</time>
</trkpt>
<trkpt lat="50.423812866209474" lon="19.558045864104656">
<ele>455.9179</ele>
<time>2012-08-24T18:10:08Z</time>
</trkpt>
<trkpt lat="50.424038171766725" lon="19.557895660399822">
<ele>454.01987</ele>
<time>2012-08-24T18:10:16Z</time>
</trkpt>
<trkpt lat="50.42422056197974" lon="19.557745456694988">
<ele>452.05707</ele>
<time>2012-08-24T18:10:20Z</time>
</trkpt>
<trkpt lat="50.42439222335669" lon="19.557616710662273">
<ele>450.0397</ele>
<time>2012-08-24T18:10:23Z</time>
</trkpt>
<trkpt lat="50.42460680007788" lon="19.55746650695744">
<ele>448.6454</ele>
<time>2012-08-24T18:10:27Z</time>
</trkpt>
<trkpt lat="50.424778461454835" lon="19.557316303252605">
<ele>448.2042</ele>
<time>2012-08-24T18:10:31Z</time>
</trkpt>
<trkpt lat="50.42492866515967" lon="19.557144641875652">
<ele>447.381</ele>
<time>2012-08-24T18:10:35Z</time>
</trkpt>
<trkpt lat="50.42510032653662" lon="19.55695152282658">
<ele>443.9096</ele>
<time>2012-08-24T18:10:39Z</time>
</trkpt>
<trkpt lat="50.425293445585694" lon="19.55673694610539">
<ele>439.9714</ele>
<time>2012-08-24T18:10:43Z</time>
</trkpt>
<trkpt lat="50.42546510696265" lon="19.556543827056316">
<ele>437.36206</ele>
<time>2012-08-24T18:10:47Z</time>
</trkpt>
<trkpt lat="50.42564749717566" lon="19.556329250335125">
<ele>435.49738</ele>
<time>2012-08-24T18:10:51Z</time>
</trkpt>
<trkpt lat="50.425808429716554" lon="19.556157588958172">
<ele>433.64566</ele>
<time>2012-08-24T18:10:55Z</time>
</trkpt>
<trkpt lat="50.42595863342139" lon="19.55594301223698">
<ele>431.94257</ele>
<time>2012-08-24T18:10:59Z</time>
</trkpt>
<trkpt lat="50.42610883712622" lon="19.55572843551579">
<ele>430.72012</ele>
<time>2012-08-24T18:11:03Z</time>
</trkpt>
<trkpt lat="50.426280498503175" lon="19.55549240112248">
<ele>429.79425</ele>
<time>2012-08-24T18:11:07Z</time>
</trkpt>
<trkpt lat="50.42641997337195" lon="19.555299282073406">
<ele>429.9349</ele>
<time>2012-08-24T18:11:11Z</time>
</trkpt>
<trkpt lat="50.42657017707678" lon="19.555063247680096">
<ele>429.98456</ele>
<time>2012-08-24T18:11:16Z</time>
</trkpt>
<trkpt lat="50.4266989231095" lon="19.554848670958904">
<ele>429.99634</ele>
<time>2012-08-24T18:11:21Z</time>
</trkpt>
<trkpt lat="50.42685985565039" lon="19.554655551909832">
<ele>429.23642</ele>
<time>2012-08-24T18:11:26Z</time>
</trkpt>
<trkpt lat="50.427031517027345" lon="19.55446243286076">
<ele>427.93503</ele>
<time>2012-08-24T18:11:31Z</time>
</trkpt>
<trkpt lat="50.42718172073218" lon="19.554269313811687">
<ele>426.4592</ele>
<time>2012-08-24T18:11:36Z</time>
</trkpt>
<trkpt lat="50.42737483978125" lon="19.55399036407414">
<ele>427.07397</ele>
<time>2012-08-24T18:11:43Z</time>
</trkpt>
<trkpt lat="50.427535772322145" lon="19.553775787352947">
<ele>428.2727</ele>
<time>2012-08-24T18:11:49Z</time>
</trkpt>
<trkpt lat="50.42768597602698" lon="19.553604125975994">
<ele>429.511</ele>
<time>2012-08-24T18:11:54Z</time>
</trkpt>
<trkpt lat="50.42785763740393" lon="19.55343246459904">
<ele>430.4234</ele>
<time>2012-08-24T18:11:58Z</time>
</trkpt>
<trkpt lat="50.428050756453004" lon="19.553282260894207">
<ele>430.86316</ele>
<time>2012-08-24T18:12:03Z</time>
</trkpt>
<trkpt lat="50.428254604338136" lon="19.55317497253361">
<ele>431.40503</ele>
<time>2012-08-24T18:12:08Z</time>
</trkpt>
<trkpt lat="50.42841553687903" lon="19.553046226500896">
<ele>431.81174</ele>
<time>2012-08-24T18:12:12Z</time>
</trkpt>
<trkpt lat="50.42858719825598" lon="19.552896022796062">
<ele>431.94043</ele>
<time>2012-08-24T18:12:16Z</time>
</trkpt>
<trkpt lat="50.428758859632936" lon="19.55274581909123">
<ele>431.98114</ele>
<time>2012-08-24T18:12:20Z</time>
</trkpt>
<trkpt lat="50.42894124984595" lon="19.552574157714275">
<ele>431.74405</ele>
<time>2012-08-24T18:12:24Z</time>
</trkpt>
<trkpt lat="50.42912364005896" lon="19.55244541168156">
<ele>430.6573</ele>
<time>2012-08-24T18:12:28Z</time>
</trkpt>
<trkpt lat="50.429306030271974" lon="19.552295207976726">
<ele>429.52438</ele>
<time>2012-08-24T18:12:32Z</time>
</trkpt>
<trkpt lat="50.42946696281287" lon="19.55216646194401">
<ele>429.16592</ele>
<time>2012-08-24T18:12:36Z</time>
</trkpt>
<trkpt lat="50.42963862418982" lon="19.552059173583416">
<ele>429.03937</ele>
<time>2012-08-24T18:12:41Z</time>
</trkpt>
<trkpt lat="50.429799556730714" lon="19.551908969878582">
<ele>428.24432</ele>
<time>2012-08-24T18:12:47Z</time>
</trkpt>
<trkpt lat="50.430046319960084" lon="19.551758766173748">
<ele>427.00107</ele>
<time>2012-08-24T18:12:57Z</time>
</trkpt>
<trkpt lat="50.430250167845216" lon="19.55167293548527">
<ele>426.13364</ele>
<time>2012-08-24T18:13:04Z</time>
</trkpt>
<trkpt lat="50.43046474456641" lon="19.551608562468914">
<ele>426.02377</ele>
<time>2012-08-24T18:13:10Z</time>
</trkpt>
<trkpt lat="50.43066859245154" lon="19.551544189452557">
<ele>426.00565</ele>
<time>2012-08-24T18:13:15Z</time>
</trkpt>
<trkpt lat="50.43085098266455" lon="19.55143690109196">
<ele>426.25058</ele>
<time>2012-08-24T18:13:23Z</time>
</trkpt>
<trkpt lat="50.431022644041505" lon="19.551286697387127">
<ele>426.9578</ele>
<time>2012-08-24T18:13:33Z</time>
</trkpt>
<trkpt lat="50.43119430541846" lon="19.551157951354412">
<ele>428.06964</ele>
<time>2012-08-24T18:13:43Z</time>
</trkpt>
<trkpt lat="50.43137669563147" lon="19.551029205321697">
<ele>428.65686</ele>
<time>2012-08-24T18:13:51Z</time>
</trkpt>
<trkpt lat="50.431548357008424" lon="19.550879001616863">
<ele>427.7656</ele>
<time>2012-08-24T18:14:04Z</time>
</trkpt>
<trkpt lat="50.431752204893556" lon="19.55070734023991">
<ele>426.88626</ele>
<time>2012-08-24T18:14:10Z</time>
</trkpt>
<trkpt lat="50.43195605277869" lon="19.55044984817448">
<ele>426.15775</ele>
<time>2012-08-24T18:14:16Z</time>
</trkpt>
<trkpt lat="50.43210625648352" lon="19.55017089843693">
<ele>426.02808</ele>
<time>2012-08-24T18:14:22Z</time>
</trkpt>
<trkpt lat="50.43223500251624" lon="19.54993486404362">
<ele>426.82483</ele>
<time>2012-08-24T18:14:30Z</time>
</trkpt>
<trkpt lat="50.43241739272925" lon="19.54969882965031">
<ele>428.18628</ele>
<time>2012-08-24T18:14:41Z</time>
</trkpt>
<trkpt lat="50.43256759643408" lon="19.549505710601238">
<ele>430.83295</ele>
<time>2012-08-24T18:14:50Z</time>
</trkpt>
<trkpt lat="50.43271780013892" lon="19.549312591552166">
<ele>432.0423</ele>
<time>2012-08-24T18:14:56Z</time>
</trkpt>
<trkpt lat="50.43291091918799" lon="19.549162387847332">
<ele>432.77274</ele>
<time>2012-08-24T18:15:01Z</time>
</trkpt>
<trkpt lat="50.43310403823706" lon="19.549033641814617">
<ele>433.50623</ele>
<time>2012-08-24T18:15:05Z</time>
</trkpt>
<trkpt lat="50.433297157286134" lon="19.54896926879826">
<ele>433.8828</ele>
<time>2012-08-24T18:15:10Z</time>
</trkpt>
<trkpt lat="50.433501005171266" lon="19.548861980437664">
<ele>434.23434</ele>
<time>2012-08-24T18:15:17Z</time>
</trkpt>
<trkpt lat="50.43367266654822" lon="19.54875469207707">
<ele>434.86374</ele>
<time>2012-08-24T18:15:23Z</time>
</trkpt>
<trkpt lat="50.43388724326941" lon="19.54871177673283">
<ele>434.04822</ele>
<time>2012-08-24T18:15:30Z</time>
</trkpt>
<trkpt lat="50.43409109115454" lon="19.548647403716473">
<ele>431.44363</ele>
<time>2012-08-24T18:15:37Z</time>
</trkpt>
<trkpt lat="50.434284210203614" lon="19.548561573027996">
<ele>429.659</ele>
<time>2012-08-24T18:15:42Z</time>
</trkpt>
<trkpt lat="50.43447732925269" lon="19.54849720001164">
<ele>428.39368</ele>
<time>2012-08-24T18:15:47Z</time>
</trkpt>
<trkpt lat="50.43468117713782" lon="19.5484542846674">
<ele>428.07007</ele>
<time>2012-08-24T18:15:53Z</time>
</trkpt>
<trkpt lat="50.43486356735083" lon="19.54843282699528">
<ele>428.44684</ele>
<time>2012-08-24T18:16:00Z</time>
</trkpt>
<trkpt lat="50.435035228727784" lon="19.548346996306805">
<ele>430.12637</ele>
<time>2012-08-24T18:16:07Z</time>
</trkpt>
<trkpt lat="50.4352176189408" lon="19.548261165618328">
<ele>432.0447</ele>
<time>2012-08-24T18:16:13Z</time>
</trkpt>
<trkpt lat="50.43542146682593" lon="19.54817533492985">
<ele>434.27264</ele>
<time>2012-08-24T18:16:20Z</time>
</trkpt>
<trkpt lat="50.43562531471106" lon="19.548110961913494">
<ele>436.7821</ele>
<time>2012-08-24T18:16:27Z</time>
</trkpt>
<trkpt lat="50.43580770492407" lon="19.548046588897137">
<ele>438.46683</ele>
<time>2012-08-24T18:16:33Z</time>
</trkpt>
<trkpt lat="50.436011552809205" lon="19.54796075820866">
<ele>440.72894</ele>
<time>2012-08-24T18:16:40Z</time>
</trkpt>
<trkpt lat="50.43621540069434" lon="19.547896385192303">
<ele>443.3646</ele>
<time>2012-08-24T18:16:46Z</time>
</trkpt>
<trkpt lat="50.43638706207129" lon="19.547789096831707">
<ele>445.9937</ele>
<time>2012-08-24T18:16:55Z</time>
</trkpt>
<trkpt lat="50.436547994612184" lon="19.547660350798992">
<ele>449.24338</ele>
<time>2012-08-24T18:17:05Z</time>
</trkpt>
<trkpt lat="50.43671965598914" lon="19.547531604766277">
<ele>451.83682</ele>
<time>2012-08-24T18:17:13Z</time>
</trkpt>
<trkpt lat="50.43688058853003" lon="19.547402858733562">
<ele>454.14307</ele>
<time>2012-08-24T18:17:21Z</time>
</trkpt>
<trkpt lat="50.437041521070924" lon="19.547274112700848">
<ele>456.0077</ele>
<time>2012-08-24T18:17:30Z</time>
</trkpt>
<trkpt lat="50.43720245361182" lon="19.547145366668133">
<ele>457.4788</ele>
<time>2012-08-24T18:17:38Z</time>
</trkpt>
<trkpt lat="50.43735265731665" lon="19.54695224761906">
<ele>458.614</ele>
<time>2012-08-24T18:17:45Z</time>
</trkpt>
<trkpt lat="50.437481403349366" lon="19.54673767089787">
<ele>458.9485</ele>
<time>2012-08-24T18:17:52Z</time>
</trkpt>
<trkpt lat="50.43765306472632" lon="19.546608924865154">
<ele>459.85965</ele>
<time>2012-08-24T18:17:59Z</time>
</trkpt>
<trkpt lat="50.43784618377539" lon="19.546523094176678">
<ele>460.66956</ele>
<time>2012-08-24T18:18:07Z</time>
</trkpt>
<trkpt lat="50.438039302824464" lon="19.54650163650456">
<ele>460.96692</ele>
<time>2012-08-24T18:18:15Z</time>
</trkpt>
<trkpt lat="50.438232421873536" lon="19.54645872116032">
<ele>461.89658</ele>
<time>2012-08-24T18:18:23Z</time>
</trkpt>
<trkpt lat="50.43843626975867" lon="19.546415805816082">
<ele>462.56778</ele>
<time>2012-08-24T18:18:31Z</time>
</trkpt>
<trkpt lat="50.43861865997168" lon="19.546372890471844">
<ele>463.1923</ele>
<time>2012-08-24T18:18:38Z</time>
</trkpt>
<trkpt lat="50.43881177902075" lon="19.546308517455486">
<ele>463.89218</ele>
<time>2012-08-24T18:18:45Z</time>
</trkpt>
<trkpt lat="50.438994169233766" lon="19.546265602111248">
<ele>465.77524</ele>
<time>2012-08-24T18:18:56Z</time>
</trkpt>
<trkpt lat="50.4391980171189" lon="19.546308517455486">
<ele>471.01978</ele>
<time>2012-08-24T18:19:42Z</time>
</trkpt>
<trkpt lat="50.43936967849585" lon="19.54622268676701">
<ele>473.02573</ele>
<time>2012-08-24T18:19:48Z</time>
</trkpt>
<trkpt lat="50.43956279754492" lon="19.546093940734295">
<ele>474.63266</ele>
<time>2012-08-24T18:19:55Z</time>
</trkpt>
<trkpt lat="50.43972373008582" lon="19.54592227935734">
<ele>475.8631</ele>
<time>2012-08-24T18:20:03Z</time>
</trkpt>
<trkpt lat="50.43988466262671" lon="19.54570770263615">
<ele>476.8528</ele>
<time>2012-08-24T18:20:11Z</time>
</trkpt>
<trkpt lat="50.440024137495485" lon="19.545514583587078">
<ele>476.54776</ele>
<time>2012-08-24T18:20:19Z</time>
</trkpt>
<trkpt lat="50.44017434120032" lon="19.545321464538006">
<ele>476.47864</ele>
<time>2012-08-24T18:20:28Z</time>
</trkpt>
<trkpt lat="50.44033527374121" lon="19.54519271850529">
<ele>476.93042</ele>
<time>2012-08-24T18:20:35Z</time>
</trkpt>
<trkpt lat="50.440506935118165" lon="19.545085430144695">
<ele>476.9876</ele>
<time>2012-08-24T18:20:41Z</time>
</trkpt>
<trkpt lat="50.44067859649512" lon="19.54499959945622">
<ele>476.99835</ele>
<time>2012-08-24T18:20:48Z</time>
</trkpt>
<trkpt lat="50.44087171554419" lon="19.545063972472576">
<ele>476.13336</ele>
<time>2012-08-24T18:20:57Z</time>
</trkpt>
<trkpt lat="50.44107556342932" lon="19.545063972472576">
<ele>476.01</ele>
<time>2012-08-24T18:21:06Z</time>
</trkpt>
<trkpt lat="50.441257953642335" lon="19.545085430144695">
<ele>476.001</ele>
<time>2012-08-24T18:21:14Z</time>
</trkpt>
<trkpt lat="50.44145107269141" lon="19.545106887816814">
<ele>476.0001</ele>
<time>2012-08-24T18:21:22Z</time>
</trkpt>
<trkpt lat="50.44163346290442" lon="19.545149803161053">
<ele>476.0</ele>
<time>2012-08-24T18:21:29Z</time>
</trkpt>
<trkpt lat="50.44181585311743" lon="19.545171260833172">
<ele>476.0</ele>
<time>2012-08-24T18:21:35Z</time>
</trkpt>
<trkpt lat="50.441998243330445" lon="19.54521417617741">
<ele>476.0</ele>
<time>2012-08-24T18:21:41Z</time>
</trkpt>
<trkpt lat="50.44219136237952" lon="19.54525709152165">
<ele>476.0</ele>
<time>2012-08-24T18:21:47Z</time>
</trkpt>
<trkpt lat="50.44238448142859" lon="19.545300006865887">
<ele>476.0</ele>
<time>2012-08-24T18:21:53Z</time>
</trkpt>
<trkpt lat="50.44257760047766" lon="19.545300006865887">
<ele>476.0</ele>
<time>2012-08-24T18:21:59Z</time>
</trkpt>
<trkpt lat="50.442759990690675" lon="19.545321464538006">
<ele>476.0</ele>
<time>2012-08-24T18:22:05Z</time>
</trkpt>
<trkpt lat="50.442974567411866" lon="19.545342922210125">
<ele>476.0</ele>
<time>2012-08-24T18:22:11Z</time>
</trkpt>
<trkpt lat="50.44316768646094" lon="19.545364379882244">
<ele>476.0</ele>
<time>2012-08-24T18:22:17Z</time>
</trkpt>
<trkpt lat="50.44336080551001" lon="19.545407295226482">
<ele>476.0</ele>
<time>2012-08-24T18:22:23Z</time>
</trkpt>
<trkpt lat="50.443521738050904" lon="19.545536041259197">
<ele>476.57813</ele>
<time>2012-08-24T18:22:29Z</time>
</trkpt>
<trkpt lat="50.44366121291968" lon="19.54575061798039">
<ele>476.99823</ele>
<time>2012-08-24T18:22:48Z</time>
</trkpt>
<trkpt lat="50.44385433196875" lon="19.545857906340984">
<ele>476.99976</ele>
<time>2012-08-24T18:22:55Z</time>
</trkpt>
<trkpt lat="50.44405817985388" lon="19.545900821685223">
<ele>477.24997</ele>
<time>2012-08-24T18:23:02Z</time>
</trkpt>
<trkpt lat="50.444272756575074" lon="19.545900821685223">
<ele>477.86652</ele>
<time>2012-08-24T18:23:08Z</time>
</trkpt>
<trkpt lat="50.444476604460206" lon="19.545900821685223">
<ele>478.65982</ele>
<time>2012-08-24T18:23:14Z</time>
</trkpt>
<trkpt lat="50.4446911811814" lon="19.545900821685223">
<ele>479.18945</ele>
<time>2012-08-24T18:23:20Z</time>
</trkpt>
<trkpt lat="50.44489502906653" lon="19.545900821685223">
<ele>479.85574</ele>
<time>2012-08-24T18:23:26Z</time>
</trkpt>
<trkpt lat="50.4450881481156" lon="19.54594373702946">
<ele>480.41183</ele>
<time>2012-08-24T18:23:32Z</time>
</trkpt>
<trkpt lat="50.44529199600073" lon="19.54596519470158">
<ele>480.92148</ele>
<time>2012-08-24T18:23:39Z</time>
</trkpt>
<trkpt lat="50.445517301557985" lon="19.54600811004582">
<ele>481.75223</ele>
<time>2012-08-24T18:23:46Z</time>
</trkpt>
<trkpt lat="50.445721149443116" lon="19.546029567717937">
<ele>481.9559</ele>
<time>2012-08-24T18:23:52Z</time>
</trkpt>
<trkpt lat="50.44591426849219" lon="19.54596519470158">
<ele>482.67575</ele>
<time>2012-08-24T18:23:58Z</time>
</trkpt>
<trkpt lat="50.4460966587052" lon="19.545900821685223">
<ele>482.9423</ele>
<time>2012-08-24T18:24:04Z</time>
</trkpt>
<trkpt lat="50.446289777754274" lon="19.545836448668865">
<ele>483.81433</ele>
<time>2012-08-24T18:24:11Z</time>
</trkpt>
<trkpt lat="50.446472167967286" lon="19.545772075652508">
<ele>484.21695</ele>
<time>2012-08-24T18:24:17Z</time>
</trkpt>
<trkpt lat="50.44667601585242" lon="19.54570770263615">
<ele>484.89548</ele>
<time>2012-08-24T18:24:24Z</time>
</trkpt>
<trkpt lat="50.44685840606543" lon="19.545664787291912">
<ele>485.23953</ele>
<time>2012-08-24T18:24:32Z</time>
</trkpt>
<trkpt lat="50.44704079627844" lon="19.545621871947674">
<ele>485.86465</ele>
<time>2012-08-24T18:24:38Z</time>
</trkpt>
<trkpt lat="50.447223186491456" lon="19.545578956603435">
<ele>486.22592</ele>
<time>2012-08-24T18:24:44Z</time>
</trkpt>
<trkpt lat="50.44742703437659" lon="19.545536041259197">
<ele>487.44037</ele>
<time>2012-08-24T18:24:50Z</time>
</trkpt>
<trkpt lat="50.44763088226172" lon="19.54549312591496">
<ele>488.9131</ele>
<time>2012-08-24T18:24:56Z</time>
</trkpt>
<trkpt lat="50.44782400131079" lon="19.54545021057072">
<ele>490.3202</ele>
<time>2012-08-24T18:25:01Z</time>
</trkpt>
<trkpt lat="50.448017120359864" lon="19.545385837554363">
<ele>492.1795</ele>
<time>2012-08-24T18:25:06Z</time>
</trkpt>
<trkpt lat="50.44821023940894" lon="19.545364379882244">
<ele>494.7971</ele>
<time>2012-08-24T18:25:12Z</time>
</trkpt>
<trkpt lat="50.44840335845801" lon="19.545364379882244">
<ele>497.59503</ele>
<time>2012-08-24T18:25:19Z</time>
</trkpt>
<trkpt lat="50.44860720634314" lon="19.545385837554363">
<ele>500.01266</ele>
<time>2012-08-24T18:25:26Z</time>
</trkpt>
<trkpt lat="50.44880032539221" lon="19.545407295226482">
<ele>502.02448</ele>
<time>2012-08-24T18:25:32Z</time>
</trkpt>
<trkpt lat="50.449004173277345" lon="19.54545021057072">
<ele>503.63248</ele>
<time>2012-08-24T18:25:39Z</time>
</trkpt>
<trkpt lat="50.44919729232642" lon="19.545514583587078">
<ele>504.77295</ele>
<time>2012-08-24T18:25:46Z</time>
</trkpt>
<trkpt lat="50.44939041137549" lon="19.545621871947674">
<ele>505.79172</ele>
<time>2012-08-24T18:25:53Z</time>
</trkpt>
<trkpt lat="50.4495728015885" lon="19.545664787291912">
<ele>505.98438</ele>
<time>2012-08-24T18:26:02Z</time>
</trkpt>
<trkpt lat="50.44954061508032" lon="19.54596519470158">
<ele>504.0075</ele>
<time>2012-08-24T18:26:59Z</time>
</trkpt>
<trkpt lat="50.4496264457688" lon="19.54624414443913">
<ele>503.75177</ele>
<time>2012-08-24T18:27:04Z</time>
</trkpt>
<trkpt lat="50.44970154762122" lon="19.546566009520916">
<ele>500.904</ele>
<time>2012-08-24T18:27:09Z</time>
</trkpt>
<trkpt lat="50.449733734129396" lon="19.546887874602703">
<ele>498.8737</ele>
<time>2012-08-24T18:27:14Z</time>
</trkpt>
<trkpt lat="50.44979810714575" lon="19.547166824340252">
<ele>498.78546</ele>
<time>2012-08-24T18:27:19Z</time>
</trkpt>
<trkpt lat="50.44993758201453" lon="19.547359943389324">
<ele>498.74994</ele>
<time>2012-08-24T18:27:47Z</time>
</trkpt>
<trkpt lat="50.4500770568833" lon="19.547595977782635">
<ele>498.13348</ele>
<time>2012-08-24T18:27:53Z</time>
</trkpt>
<trkpt lat="50.450216531752076" lon="19.547789096831707">
<ele>497.4641</ele>
<time>2012-08-24T18:27:57Z</time>
</trkpt>
<trkpt lat="50.45038819312903" lon="19.54793930053654">
<ele>496.70935</ele>
<time>2012-08-24T18:28:01Z</time>
</trkpt>
<trkpt lat="50.45057058334204" lon="19.548068046569256">
<ele>496.12625</ele>
<time>2012-08-24T18:28:07Z</time>
</trkpt>
<trkpt lat="50.450752973555055" lon="19.548025131225018">
<ele>495.22513</ele>
<time>2012-08-24T18:28:10Z</time>
</trkpt>
<trkpt lat="50.450967550276246" lon="19.54796075820866">
<ele>494.07935</ele>
<time>2012-08-24T18:28:13Z</time>
</trkpt>
<trkpt lat="50.451214313505616" lon="19.547853469848064">
<ele>492.62723</ele>
<time>2012-08-24T18:28:16Z</time>
</trkpt>
<trkpt lat="50.45139670371863" lon="19.547767639159588">
<ele>491.6653</ele>
<time>2012-08-24T18:28:18Z</time>
</trkpt>
<trkpt lat="50.45161128043982" lon="19.54770326614323">
<ele>490.93674</ele>
<time>2012-08-24T18:28:20Z</time>
</trkpt>
<trkpt lat="50.45182585716101" lon="19.54768180847111">
<ele>490.08942</ele>
<time>2012-08-24T18:28:22Z</time>
</trkpt>
<trkpt lat="50.4520404338822" lon="19.547660350798992">
<ele>489.6128</ele>
<time>2012-08-24T18:28:24Z</time>
</trkpt>
<trkpt lat="50.452265739439454" lon="19.54768180847111">
<ele>488.9072</ele>
<time>2012-08-24T18:28:26Z</time>
</trkpt>
<trkpt lat="50.452480316160646" lon="19.54772472381535">
<ele>488.51028</ele>
<time>2012-08-24T18:28:28Z</time>
</trkpt>
<trkpt lat="50.4527056217179" lon="19.54774618148747">
<ele>488.28705</ele>
<time>2012-08-24T18:28:30Z</time>
</trkpt>
<trkpt lat="50.45292019843909" lon="19.547767639159588">
<ele>488.16147</ele>
<time>2012-08-24T18:28:32Z</time>
</trkpt>
<trkpt lat="50.45312404632422" lon="19.547789096831707">
<ele>487.84082</ele>
<time>2012-08-24T18:28:34Z</time>
</trkpt>
<trkpt lat="50.45331716537329" lon="19.547789096831707">
<ele>487.22296</ele>
<time>2012-08-24T18:28:36Z</time>
</trkpt>
<trkpt lat="50.453499555586305" lon="19.547789096831707">
<ele>486.25043</ele>
<time>2012-08-24T18:28:38Z</time>
</trkpt>
<trkpt lat="50.45368194579932" lon="19.547789096831707">
<ele>485.26587</ele>
<time>2012-08-24T18:28:40Z</time>
</trkpt>
<trkpt lat="50.45388579368445" lon="19.547810554503826">
<ele>484.09653</ele>
<time>2012-08-24T18:28:43Z</time>
</trkpt>
<trkpt lat="50.45406818389746" lon="19.54793930053654">
<ele>483.10977</ele>
<time>2012-08-24T18:28:51Z</time>
</trkpt>
<trkpt lat="50.453971624372926" lon="19.54768180847111">
<ele>478.0</ele>
<time>2012-08-24T18:31:53Z</time>
</trkpt>
<trkpt lat="50.45408964156958" lon="19.547896385192303">
<ele>478.0</ele>
<time>2012-08-24T18:45:41Z</time>
</trkpt>
<trkpt lat="50.45430421829077" lon="19.547874927520184">
<ele>477.42188</ele>
<time>2012-08-24T18:45:47Z</time>
</trkpt>
<trkpt lat="50.454497337339845" lon="19.547789096831707">
<ele>477.0563</ele>
<time>2012-08-24T18:45:54Z</time>
</trkpt>
<trkpt lat="50.45457243919226" lon="19.54748868942204">
<ele>476.76</ele>
<time>2012-08-24T18:46:00Z</time>
</trkpt>
<trkpt lat="50.45454025268408" lon="19.547145366668133">
<ele>474.87573</ele>
<time>2012-08-24T18:46:06Z</time>
</trkpt>
<trkpt lat="50.454486608503785" lon="19.546823501586346">
<ele>471.9334</ele>
<time>2012-08-24T18:46:11Z</time>
</trkpt>
<trkpt lat="50.454497337339845" lon="19.546523094176678">
<ele>470.34412</ele>
<time>2012-08-24T18:46:17Z</time>
</trkpt>
<trkpt lat="50.45467972755286" lon="19.54648017883244">
<ele>470.08167</ele>
<time>2012-08-24T18:46:22Z</time>
</trkpt>
<trkpt lat="50.45490503311011" lon="19.54645872116032">
<ele>470.01938</ele>
<time>2012-08-24T18:46:27Z</time>
</trkpt>
<trkpt lat="50.45507669448706" lon="19.546351432799725">
<ele>469.428</ele>
<time>2012-08-24T18:46:31Z</time>
</trkpt>
<trkpt lat="50.455248355864015" lon="19.54624414443913">
<ele>469.13544</ele>
<time>2012-08-24T18:46:35Z</time>
</trkpt>
<trkpt lat="50.45542001724097" lon="19.546115398406414">
<ele>469.04285</ele>
<time>2012-08-24T18:46:39Z</time>
</trkpt>
<trkpt lat="50.45558094978186" lon="19.5459866523737">
<ele>469.01355</ele>
<time>2012-08-24T18:46:43Z</time>
</trkpt>
<trkpt lat="50.455752611158815" lon="19.545814990996746">
<ele>469.0043</ele>
<time>2012-08-24T18:46:47Z</time>
</trkpt>
<trkpt lat="50.45592427253577" lon="19.545621871947674">
<ele>469.00134</ele>
<time>2012-08-24T18:46:51Z</time>
</trkpt>
<trkpt lat="50.45608520507666" lon="19.545407295226482">
<ele>468.31683</ele>
<time>2012-08-24T18:46:55Z</time>
</trkpt>
<trkpt lat="50.456246137617555" lon="19.54521417617741">
<ele>468.10025</ele>
<time>2012-08-24T18:46:59Z</time>
</trkpt>
<trkpt lat="50.45639634132239" lon="19.54499959945622">
<ele>468.0317</ele>
<time>2012-08-24T18:47:03Z</time>
</trkpt>
<trkpt lat="50.45653581619116" lon="19.544763565062908">
<ele>467.43192</ele>
<time>2012-08-24T18:47:07Z</time>
</trkpt>
<trkpt lat="50.45666456222388" lon="19.54450607299748">
<ele>466.88666</ele>
<time>2012-08-24T18:47:11Z</time>
</trkpt>
<trkpt lat="50.45679330825659" lon="19.54424858093205">
<ele>466.96414</ele>
<time>2012-08-24T18:47:15Z</time>
</trkpt>
<trkpt lat="50.45691132545325" lon="19.544034004210857">
<ele>466.98865</ele>
<time>2012-08-24T18:47:19Z</time>
</trkpt>
<trkpt lat="50.457018613813844" lon="19.543797969817547">
<ele>467.68</ele>
<time>2012-08-24T18:47:23Z</time>
</trkpt>
<trkpt lat="50.4571366310105" lon="19.543561935424236">
<ele>467.89874</ele>
<time>2012-08-24T18:47:27Z</time>
</trkpt>
<trkpt lat="50.457254648207154" lon="19.543347358703045">
<ele>467.38983</ele>
<time>2012-08-24T18:47:31Z</time>
</trkpt>
<trkpt lat="50.45739412307593" lon="19.543089866637615">
<ele>466.3298</ele>
<time>2012-08-24T18:47:36Z</time>
</trkpt>
<trkpt lat="50.457512140272584" lon="19.542853832244305">
<ele>466.10437</ele>
<time>2012-08-24T18:47:40Z</time>
</trkpt>
<trkpt lat="50.45763015746924" lon="19.542617797850994">
<ele>466.9666</ele>
<time>2012-08-24T18:47:44Z</time>
</trkpt>
<trkpt lat="50.457758903501954" lon="19.542360305785564">
<ele>468.87585</ele>
<time>2012-08-24T18:47:49Z</time>
</trkpt>
<trkpt lat="50.45788764953467" lon="19.542081356048016">
<ele>471.07407</ele>
<time>2012-08-24T18:47:54Z</time>
</trkpt>
<trkpt lat="50.458016395567384" lon="19.541845321654705">
<ele>472.54297</ele>
<time>2012-08-24T18:47:59Z</time>
</trkpt>
<trkpt lat="50.45813441276404" lon="19.541609287261394">
<ele>472.997</ele>
<time>2012-08-24T18:48:04Z</time>
</trkpt>
<trkpt lat="50.458241701124635" lon="19.541351795195965">
<ele>472.99948</ele>
<time>2012-08-24T18:48:10Z</time>
</trkpt>
<trkpt lat="50.45834898948523" lon="19.541094303130535">
<ele>472.99988</ele>
<time>2012-08-24T18:48:15Z</time>
</trkpt>
<trkpt lat="50.458467006681886" lon="19.540793895720867">
<ele>473.93356</ele>
<time>2012-08-24T18:48:20Z</time>
</trkpt>
<trkpt lat="50.45857429504248" lon="19.540557861327557">
<ele>475.59616</ele>
<time>2012-08-24T18:48:24Z</time>
</trkpt>
<trkpt lat="50.45867085456702" lon="19.540300369262127">
<ele>476.99332</ele>
<time>2012-08-24T18:48:28Z</time>
</trkpt>
<trkpt lat="50.45878887176367" lon="19.540064334868816">
<ele>478.119</ele>
<time>2012-08-24T18:48:32Z</time>
</trkpt>
<trkpt lat="50.45891761779639" lon="19.539828300475506">
<ele>478.72125</ele>
<time>2012-08-24T18:48:36Z</time>
</trkpt>
<trkpt lat="50.45903563499304" lon="19.539592266082195">
<ele>478.9118</ele>
<time>2012-08-24T18:48:40Z</time>
</trkpt>
<trkpt lat="50.4591536521897" lon="19.539356231688885">
<ele>478.9721</ele>
<time>2012-08-24T18:48:44Z</time>
</trkpt>
<trkpt lat="50.459271669386354" lon="19.539141654967693">
<ele>478.99118</ele>
<time>2012-08-24T18:48:48Z</time>
</trkpt>
<trkpt lat="50.45938968658301" lon="19.538905620574383">
<ele>478.9972</ele>
<time>2012-08-24T18:48:52Z</time>
</trkpt>
<trkpt lat="50.459518432615724" lon="19.538648128508953">
<ele>478.31552</ele>
<time>2012-08-24T18:48:56Z</time>
</trkpt>
<trkpt lat="50.45964717864844" lon="19.538369178771404">
<ele>477.66232</ele>
<time>2012-08-24T18:49:00Z</time>
</trkpt>
<trkpt lat="50.45978665351721" lon="19.538111686705975">
<ele>477.20956</ele>
<time>2012-08-24T18:49:04Z</time>
</trkpt>
<trkpt lat="50.45993685722205" lon="19.537832736968426">
<ele>477.0663</ele>
<time>2012-08-24T18:49:08Z</time>
</trkpt>
<trkpt lat="50.46008706092688" lon="19.537553787230877">
<ele>477.02097</ele>
<time>2012-08-24T18:49:12Z</time>
</trkpt>
<trkpt lat="50.460226535795655" lon="19.537296295165447">
<ele>477.00665</ele>
<time>2012-08-24T18:49:16Z</time>
</trkpt>
<trkpt lat="50.46036601066443" lon="19.537038803100018">
<ele>477.0021</ele>
<time>2012-08-24T18:49:20Z</time>
</trkpt>
<trkpt lat="50.460505485533204" lon="19.536781311034588">
<ele>477.00067</ele>
<time>2012-08-24T18:49:24Z</time>
</trkpt>
<trkpt lat="50.46063423156592" lon="19.536566734313396">
<ele>477.0002</ele>
<time>2012-08-24T18:49:28Z</time>
</trkpt>
<trkpt lat="50.46077370643469" lon="19.536330699920086">
<ele>477.00006</ele>
<time>2012-08-24T18:49:32Z</time>
</trkpt>
<trkpt lat="50.46090245246741" lon="19.536094665526775">
<ele>477.00003</ele>
<time>2012-08-24T18:49:36Z</time>
</trkpt>
<trkpt lat="50.461020469664064" lon="19.535858631133465">
<ele>476.5625</ele>
<time>2012-08-24T18:49:40Z</time>
</trkpt>
<trkpt lat="50.46114921569678" lon="19.535622596740154">
<ele>476.23895</ele>
<time>2012-08-24T18:49:45Z</time>
</trkpt>
<trkpt lat="50.46127796172949" lon="19.535365104674725">
<ele>476.0567</ele>
<time>2012-08-24T18:49:50Z</time>
</trkpt>
<trkpt lat="50.46140670776221" lon="19.535150527953533">
<ele>476.01346</ele>
<time>2012-08-24T18:49:55Z</time>
</trkpt>
<trkpt lat="50.46153545379492" lon="19.53493595123234">
<ele>475.3196</ele>
<time>2012-08-24T18:50:00Z</time>
</trkpt>
<trkpt lat="50.46169638633582" lon="19.53469991683903">
<ele>475.0569</ele>
<time>2012-08-24T18:50:06Z</time>
</trkpt>
<trkpt lat="50.46185731887671" lon="19.534528255462078">
<ele>475.0135</ele>
<time>2012-08-24T18:50:11Z</time>
</trkpt>
<trkpt lat="50.462018251417604" lon="19.534378051757244">
<ele>475.0032</ele>
<time>2012-08-24T18:50:16Z</time>
</trkpt>
<trkpt lat="50.462211370466676" lon="19.53424930572453">
<ele>475.00058</ele>
<time>2012-08-24T18:50:22Z</time>
</trkpt>
<trkpt lat="50.46238303184363" lon="19.534120559691814">
<ele>475.0001</ele>
<time>2012-08-24T18:50:28Z</time>
</trkpt>
<trkpt lat="50.46256542205664" lon="19.5339918136591">
<ele>475.00003</ele>
<time>2012-08-24T18:50:34Z</time>
</trkpt>
<trkpt lat="50.462737083433595" lon="19.533863067626385">
<ele>475.0</ele>
<time>2012-08-24T18:50:40Z</time>
</trkpt>
<trkpt lat="50.46291947364661" lon="19.53373432159367">
<ele>475.0</ele>
<time>2012-08-24T18:50:47Z</time>
</trkpt>
<trkpt lat="50.46309113502356" lon="19.533584117888836">
<ele>474.2373</ele>
<time>2012-08-24T18:50:53Z</time>
</trkpt>
<trkpt lat="50.463262796400514" lon="19.533433914184002">
<ele>474.04224</ele>
<time>2012-08-24T18:50:59Z</time>
</trkpt>
<trkpt lat="50.46343445777747" lon="19.533305168151287">
<ele>473.57</ele>
<time>2012-08-24T18:51:05Z</time>
</trkpt>
<trkpt lat="50.46359539031836" lon="19.533154964446453">
<ele>473.10144</ele>
<time>2012-08-24T18:51:11Z</time>
</trkpt>
<trkpt lat="50.463756322859254" lon="19.5329833030695">
<ele>473.01807</ele>
<time>2012-08-24T18:51:17Z</time>
</trkpt>
<trkpt lat="50.46391725540015" lon="19.532811641692547">
<ele>473.0032</ele>
<time>2012-08-24T18:51:23Z</time>
</trkpt>
<trkpt lat="50.4640889167771" lon="19.532661437987713">
<ele>473.00058</ele>
<time>2012-08-24T18:51:29Z</time>
</trkpt>
<trkpt lat="50.464249849317994" lon="19.532532691954998">
<ele>473.0001</ele>
<time>2012-08-24T18:51:35Z</time>
</trkpt>
<trkpt lat="50.46442151069495" lon="19.532382488250164">
<ele>473.25003</ele>
<time>2012-08-24T18:51:40Z</time>
</trkpt>
<trkpt lat="50.4645931720719" lon="19.53221082687321">
<ele>474.07202</ele>
<time>2012-08-24T18:51:45Z</time>
</trkpt>
<trkpt lat="50.464764833448854" lon="19.53201770782414">
<ele>475.27234</ele>
<time>2012-08-24T18:51:51Z</time>
</trkpt>
<trkpt lat="50.46492576598975" lon="19.531824588775066">
<ele>476.30798</ele>
<time>2012-08-24T18:51:57Z</time>
</trkpt>
<trkpt lat="50.46510815620276" lon="19.531674385070232">
<ele>476.87683</ele>
<time>2012-08-24T18:52:03Z</time>
</trkpt>
<trkpt lat="50.46529054641577" lon="19.53148126602116">
<ele>477.8001</ele>
<time>2012-08-24T18:52:09Z</time>
</trkpt>
<trkpt lat="50.46544075012061" lon="19.53124523162785">
<ele>479.15277</ele>
<time>2012-08-24T18:52:14Z</time>
</trkpt>
<trkpt lat="50.46556949615332" lon="19.531030654906658">
<ele>481.24365</ele>
<time>2012-08-24T18:52:18Z</time>
</trkpt>
<trkpt lat="50.465719699858155" lon="19.530837535857586">
<ele>483.12787</ele>
<time>2012-08-24T18:52:22Z</time>
</trkpt>
<trkpt lat="50.46586990356299" lon="19.530622959136394">
<ele>483.72406</ele>
<time>2012-08-24T18:52:26Z</time>
</trkpt>
<trkpt lat="50.466009378431764" lon="19.530386924743084">
<ele>484.59628</ele>
<time>2012-08-24T18:52:30Z</time>
</trkpt>
<trkpt lat="50.46612739562842" lon="19.530129432677654">
<ele>484.62225</ele>
<time>2012-08-24T18:52:34Z</time>
</trkpt>
<trkpt lat="50.466223955152955" lon="19.529850482940105">
<ele>483.36877</ele>
<time>2012-08-24T18:52:38Z</time>
</trkpt>
<trkpt lat="50.46634197234961" lon="19.52952861785832">
<ele>482.18307</ele>
<time>2012-08-24T18:52:42Z</time>
</trkpt>
<trkpt lat="50.466470718382325" lon="19.52922821044865">
<ele>481.62433</ele>
<time>2012-08-24T18:52:46Z</time>
</trkpt>
<trkpt lat="50.46662092208716" lon="19.528927803038982">
<ele>481.88113</ele>
<time>2012-08-24T18:52:50Z</time>
</trkpt>
<trkpt lat="50.466760396955934" lon="19.52873468398991">
<ele>481.37173</ele>
<time>2012-08-24T18:52:53Z</time>
</trkpt>
<trkpt lat="50.46691060066077" lon="19.528563022612957">
<ele>481.15683</ele>
<time>2012-08-24T18:52:56Z</time>
</trkpt>
<trkpt lat="50.46710371970984" lon="19.528391361236004">
<ele>481.04962</ele>
<time>2012-08-24T18:53:00Z</time>
</trkpt>
<trkpt lat="50.46729683875891" lon="19.528176784514812">
<ele>481.4532</ele>
<time>2012-08-24T18:53:04Z</time>
</trkpt>
<trkpt lat="50.467479228971925" lon="19.527940750121502">
<ele>481.827</ele>
<time>2012-08-24T18:53:08Z</time>
</trkpt>
<trkpt lat="50.46759724616858" lon="19.52772617340031">
<ele>481.677</ele>
<time>2012-08-24T18:53:11Z</time>
</trkpt>
<trkpt lat="50.46776890754553" lon="19.52746868133488">
<ele>481.2142</ele>
<time>2012-08-24T18:53:15Z</time>
</trkpt>
<trkpt lat="50.46791911125037" lon="19.52723264694157">
<ele>482.00137</ele>
<time>2012-08-24T18:53:19Z</time>
</trkpt>
<trkpt lat="50.46809077262732" lon="19.52697515487614">
<ele>482.68402</ele>
<time>2012-08-24T18:53:23Z</time>
</trkpt>
<trkpt lat="50.468240976332154" lon="19.52673912048283">
<ele>481.96643</ele>
<time>2012-08-24T18:53:27Z</time>
</trkpt>
<trkpt lat="50.46839118003699" lon="19.52652454376164">
<ele>481.0558</ele>
<time>2012-08-24T18:53:31Z</time>
</trkpt>
<trkpt lat="50.46855211257788" lon="19.526309967040447">
<ele>480.33405</ele>
<time>2012-08-24T18:53:35Z</time>
</trkpt>
<trkpt lat="50.468713045118776" lon="19.526095390319256">
<ele>479.8557</ele>
<time>2012-08-24T18:53:39Z</time>
</trkpt>
<trkpt lat="50.46887397765967" lon="19.525880813598064">
<ele>479.27075</ele>
<time>2012-08-24T18:53:43Z</time>
</trkpt>
<trkpt lat="50.4690241813645" lon="19.525644779204754">
<ele>479.08566</ele>
<time>2012-08-24T18:53:47Z</time>
</trkpt>
<trkpt lat="50.46917438506934" lon="19.525430202483562">
<ele>479.0271</ele>
<time>2012-08-24T18:53:51Z</time>
</trkpt>
<trkpt lat="50.46932458877417" lon="19.52521562576237">
<ele>479.00858</ele>
<time>2012-08-24T18:53:55Z</time>
</trkpt>
<trkpt lat="50.469464063642945" lon="19.52500104904118">
<ele>478.75272</ele>
<time>2012-08-24T18:53:59Z</time>
</trkpt>
<trkpt lat="50.46961426734778" lon="19.52476501464787">
<ele>478.23816</ele>
<time>2012-08-24T18:54:03Z</time>
</trkpt>
<trkpt lat="50.46977519988867" lon="19.524550437926678">
<ele>478.07535</ele>
<time>2012-08-24T18:54:07Z</time>
</trkpt>
<trkpt lat="50.469946861265626" lon="19.524335861205486">
<ele>477.58633</ele>
<time>2012-08-24T18:54:11Z</time>
</trkpt>
<trkpt lat="50.4701399803147" lon="19.524164199828533">
<ele>477.18552</ele>
<time>2012-08-24T18:54:15Z</time>
</trkpt>
<trkpt lat="50.47033309936377" lon="19.5240139961237">
<ele>477.4962</ele>
<time>2012-08-24T18:54:19Z</time>
</trkpt>
<trkpt lat="50.4705369472489" lon="19.523863792418865">
<ele>477.5906</ele>
<time>2012-08-24T18:54:23Z</time>
</trkpt>
<trkpt lat="50.470730066297975" lon="19.52371358871403">
<ele>476.74936</ele>
<time>2012-08-24T18:54:27Z</time>
</trkpt>
<trkpt lat="50.47093391418311" lon="19.523563385009197">
<ele>476.2371</ele>
<time>2012-08-24T18:54:31Z</time>
</trkpt>
<trkpt lat="50.47113776206824" lon="19.523413181304363">
<ele>476.21564</ele>
<time>2012-08-24T18:54:35Z</time>
</trkpt>
<trkpt lat="50.47130942344519" lon="19.52328443527165">
<ele>476.09097</ele>
<time>2012-08-24T18:54:38Z</time>
</trkpt>
<trkpt lat="50.47151327133032" lon="19.523112773894695">
<ele>475.59128</ele>
<time>2012-08-24T18:54:42Z</time>
</trkpt>
<trkpt lat="50.471717119215455" lon="19.522919654845623">
<ele>475.18707</ele>
<time>2012-08-24T18:54:46Z</time>
</trkpt>
<trkpt lat="50.47187805175635" lon="19.52274799346867">
<ele>474.5008</ele>
<time>2012-08-24T18:54:49Z</time>
</trkpt>
<trkpt lat="50.47202825546118" lon="19.522576332091717">
<ele>473.63315</ele>
<time>2012-08-24T18:54:52Z</time>
</trkpt>
<trkpt lat="50.472232103346315" lon="19.522426128386883">
<ele>472.51675</ele>
<time>2012-08-24T18:54:56Z</time>
</trkpt>
<trkpt lat="50.47239303588721" lon="19.522297382354168">
<ele>471.63986</ele>
<time>2012-08-24T18:54:59Z</time>
</trkpt>
<trkpt lat="50.4726076126084" lon="19.522147178649334">
<ele>470.76495</ele>
<time>2012-08-24T18:55:03Z</time>
</trkpt>
<trkpt lat="50.47277927398535" lon="19.522039890288738">
<ele>470.32272</ele>
<time>2012-08-24T18:55:06Z</time>
</trkpt>
<trkpt lat="50.472950935362306" lon="19.521932601928143">
<ele>469.69864</ele>
<time>2012-08-24T18:55:09Z</time>
</trkpt>
<trkpt lat="50.47313332557532" lon="19.52176094055119">
<ele>469.29474</ele>
<time>2012-08-24T18:55:12Z</time>
</trkpt>
<trkpt lat="50.47331571578833" lon="19.521589279174236">
<ele>468.65576</ele>
<time>2012-08-24T18:55:16Z</time>
</trkpt>
<trkpt lat="50.47343373298499" lon="19.521374702453045">
<ele>468.1556</ele>
<time>2012-08-24T18:55:21Z</time>
</trkpt>
<trkpt lat="50.473476648329225" lon="19.521052837371258">
<ele>467.10333</ele>
<time>2012-08-24T18:55:26Z</time>
</trkpt>
<trkpt lat="50.47342300414893" lon="19.52073097228947">
<ele>466.0991</ele>
<time>2012-08-24T18:55:30Z</time>
</trkpt>
<trkpt lat="50.47336935996863" lon="19.520452022551922">
<ele>464.77618</ele>
<time>2012-08-24T18:55:33Z</time>
</trkpt>
<trkpt lat="50.47330498695227" lon="19.520130157470135">
<ele>463.49933</ele>
<time>2012-08-24T18:55:36Z</time>
</trkpt>
<trkpt lat="50.473251342771974" lon="19.519808292388348">
<ele>462.63254</ele>
<time>2012-08-24T18:55:39Z</time>
</trkpt>
<trkpt lat="50.473197698591676" lon="19.51948642730656">
<ele>461.51654</ele>
<time>2012-08-24T18:55:43Z</time>
</trkpt>
<trkpt lat="50.47327280044409" lon="19.51920747756901">
<ele>459.8033</ele>
<time>2012-08-24T18:55:50Z</time>
</trkpt>
<trkpt lat="50.47326207160803" lon="19.518907070159344">
<ele>457.49515</ele>
<time>2012-08-24T18:55:53Z</time>
</trkpt>
<trkpt lat="50.473251342771974" lon="19.518563747405437">
<ele>455.61514</ele>
<time>2012-08-24T18:55:56Z</time>
</trkpt>
<trkpt lat="50.473240613935914" lon="19.518198966979412">
<ele>454.4314</ele>
<time>2012-08-24T18:55:59Z</time>
</trkpt>
<trkpt lat="50.47314405441138" lon="19.517877101897625">
<ele>452.8748</ele>
<time>2012-08-24T18:56:03Z</time>
</trkpt>
<trkpt lat="50.47303676605078" lon="19.517619609832195">
<ele>451.93155</ele>
<time>2012-08-24T18:56:06Z</time>
</trkpt>
<trkpt lat="50.472950935362306" lon="19.517362117766766">
<ele>450.81488</ele>
<time>2012-08-24T18:56:09Z</time>
</trkpt>
<trkpt lat="50.47287583350989" lon="19.517083168029217">
<ele>449.90628</ele>
<time>2012-08-24T18:56:12Z</time>
</trkpt>
<trkpt lat="50.47302603721472" lon="19.516911506652264">
<ele>449.1613</ele>
<time>2012-08-24T18:56:18Z</time>
</trkpt>
<trkpt lat="50.473251342771974" lon="19.516954421996502">
<ele>447.08905</ele>
<time>2012-08-24T18:56:23Z</time>
</trkpt>
<trkpt lat="50.473444461821046" lon="19.51701879501286">
<ele>443.71176</ele>
<time>2012-08-24T18:56:27Z</time>
</trkpt>
<trkpt lat="50.47338008880469" lon="19.51673984527531">
<ele>438.81757</ele>
<time>2012-08-24T18:56:35Z</time>
</trkpt>
<trkpt lat="50.473219156263795" lon="19.516589641570476">
<ele>435.8405</ele>
<time>2012-08-24T18:56:40Z</time>
</trkpt>
<trkpt lat="50.47307968139502" lon="19.516396522521404">
<ele>433.85864</ele>
<time>2012-08-24T18:56:45Z</time>
</trkpt>
<trkpt lat="50.472940206526246" lon="19.516203403472332">
<ele>433.11462</ele>
<time>2012-08-24T18:56:52Z</time>
</trkpt>
<trkpt lat="50.47280073165747" lon="19.51598882675114">
<ele>433.0153</ele>
<time>2012-08-24T18:56:59Z</time>
</trkpt>
<trkpt lat="50.47262907028052" lon="19.515838623046307">
<ele>433.25272</ele>
<time>2012-08-24T18:57:05Z</time>
</trkpt>
<trkpt lat="50.472489595411744" lon="19.515645503997234">
<ele>433.82266</ele>
<time>2012-08-24T18:57:10Z</time>
</trkpt>
<trkpt lat="50.47237157821509" lon="19.515388011931805">
<ele>433.94388</ele>
<time>2012-08-24T18:57:14Z</time>
</trkpt>
<trkpt lat="50.47226428985449" lon="19.515109062194256">
<ele>434.7494</ele>
<time>2012-08-24T18:57:19Z</time>
</trkpt>
<trkpt lat="50.47217845916602" lon="19.514851570128826">
<ele>434.94052</ele>
<time>2012-08-24T18:57:24Z</time>
</trkpt>
<trkpt lat="50.47209262847754" lon="19.514594078063396">
<ele>434.9859</ele>
<time>2012-08-24T18:57:29Z</time>
</trkpt>
<trkpt lat="50.47202825546118" lon="19.51429367065373">
<ele>434.9975</ele>
<time>2012-08-24T18:57:35Z</time>
</trkpt>
<trkpt lat="50.472006797789064" lon="19.51397180557194">
<ele>435.43704</ele>
<time>2012-08-24T18:57:41Z</time>
</trkpt>
<trkpt lat="50.471996068953004" lon="19.513671398162273">
<ele>435.8998</ele>
<time>2012-08-24T18:57:47Z</time>
</trkpt>
<trkpt lat="50.472006797789064" lon="19.513370990752605">
<ele>436.5603</ele>
<time>2012-08-24T18:57:53Z</time>
</trkpt>
<trkpt lat="50.47202825546118" lon="19.513070583342937">
<ele>436.92175</ele>
<time>2012-08-24T18:57:59Z</time>
</trkpt>
<trkpt lat="50.47207117080542" lon="19.51274871826115">
<ele>437.8081</ele>
<time>2012-08-24T18:58:05Z</time>
</trkpt>
<trkpt lat="50.4721033573136" lon="19.5124697685236">
<ele>438.63806</ele>
<time>2012-08-24T18:58:10Z</time>
</trkpt>
<trkpt lat="50.47213554382178" lon="19.512169361113934">
<ele>439.49225</ele>
<time>2012-08-24T18:58:15Z</time>
</trkpt>
<trkpt lat="50.47217845916602" lon="19.511868953704266">
<ele>441.25452</ele>
<time>2012-08-24T18:58:20Z</time>
</trkpt>
<trkpt lat="50.47226428985449" lon="19.511590003966717">
<ele>445.40866</ele>
<time>2012-08-24T18:58:24Z</time>
</trkpt>
<trkpt lat="50.47238230705115" lon="19.511311054229168">
<ele>448.4418</ele>
<time>2012-08-24T18:58:28Z</time>
</trkpt>
<trkpt lat="50.47251105308386" lon="19.511096477507976">
<ele>449.92075</ele>
<time>2012-08-24T18:58:31Z</time>
</trkpt>
<trkpt lat="50.47265052795264" lon="19.510860443114666">
<ele>450.5447</ele>
<time>2012-08-24T18:58:34Z</time>
</trkpt>
<trkpt lat="50.47281146049353" lon="19.510602951049236">
<ele>451.38605</ele>
<time>2012-08-24T18:58:37Z</time>
</trkpt>
<trkpt lat="50.473004579542604" lon="19.510324001311687">
<ele>451.16287</ele>
<time>2012-08-24T18:58:40Z</time>
</trkpt>
<trkpt lat="50.473229885099855" lon="19.510109424590496">
<ele>450.6312</ele>
<time>2012-08-24T18:58:43Z</time>
</trkpt>
<trkpt lat="50.473465919493165" lon="19.509873390197185">
<ele>450.2663</ele>
<time>2012-08-24T18:58:46Z</time>
</trkpt>
<trkpt lat="50.47363758087012" lon="19.50972318649235">
<ele>449.89978</ele>
<time>2012-08-24T18:58:48Z</time>
</trkpt>
<trkpt lat="50.47380924224707" lon="19.509572982787518">
<ele>449.50613</ele>
<time>2012-08-24T18:58:50Z</time>
</trkpt>
<trkpt lat="50.473980903624025" lon="19.509422779082684">
<ele>448.8472</ele>
<time>2012-08-24T18:58:52Z</time>
</trkpt>
<trkpt lat="50.47415256500098" lon="19.50925111770573">
<ele>448.47656</ele>
<time>2012-08-24T18:58:54Z</time>
</trkpt>
<trkpt lat="50.47432422637793" lon="19.509079456328777">
<ele>448.01807</ele>
<time>2012-08-24T18:58:56Z</time>
</trkpt>
<trkpt lat="50.474517345427" lon="19.508929252623943">
<ele>447.57266</ele>
<time>2012-08-24T18:58:58Z</time>
</trkpt>
<trkpt lat="50.474710464476075" lon="19.50877904891911">
<ele>447.3221</ele>
<time>2012-08-24T18:59:00Z</time>
</trkpt>
<trkpt lat="50.47490358352515" lon="19.508671760558514">
<ele>447.18118</ele>
<time>2012-08-24T18:59:02Z</time>
</trkpt>
<trkpt lat="50.47510743141028" lon="19.508564472197918">
<ele>447.10193</ele>
<time>2012-08-24T18:59:04Z</time>
</trkpt>
<trkpt lat="50.47530055045935" lon="19.508457183837322">
<ele>447.05734</ele>
<time>2012-08-24T18:59:06Z</time>
</trkpt>
<trkpt lat="50.475493669508424" lon="19.508349895476726">
<ele>446.59476</ele>
<time>2012-08-24T18:59:08Z</time>
</trkpt>
<trkpt lat="50.475697517393556" lon="19.50824260711613">
<ele>446.33453</ele>
<time>2012-08-24T18:59:10Z</time>
</trkpt>
<trkpt lat="50.47589063644263" lon="19.508135318755535">
<ele>445.75067</ele>
<time>2012-08-24T18:59:12Z</time>
</trkpt>
<trkpt lat="50.4760837554917" lon="19.50804948806706">
<ele>445.17227</ele>
<time>2012-08-24T18:59:14Z</time>
</trkpt>
<trkpt lat="50.47627687454077" lon="19.507942199706463">
<ele>443.9719</ele>
<time>2012-08-24T18:59:16Z</time>
</trkpt>
<trkpt lat="50.476459264753785" lon="19.507834911345867">
<ele>442.8592</ele>
<time>2012-08-24T18:59:18Z</time>
</trkpt>
<trkpt lat="50.4766416549668" lon="19.50772762298527">
<ele>441.6083</ele>
<time>2012-08-24T18:59:20Z</time>
</trkpt>
<trkpt lat="50.47681331634375" lon="19.507620334624676">
<ele>440.46716</ele>
<time>2012-08-24T18:59:22Z</time>
</trkpt>
<trkpt lat="50.476995706556764" lon="19.50751304626408">
<ele>439.5753</ele>
<time>2012-08-24T18:59:24Z</time>
</trkpt>
<trkpt lat="50.477242469786134" lon="19.507362842559246">
<ele>438.41458</ele>
<time>2012-08-24T18:59:27Z</time>
</trkpt>
<trkpt lat="50.47741413116309" lon="19.50725555419865">
<ele>437.7957</ele>
<time>2012-08-24T18:59:29Z</time>
</trkpt>
<trkpt lat="50.47758579254004" lon="19.507169723510174">
<ele>437.01007</ele>
<time>2012-08-24T18:59:31Z</time>
</trkpt>
<trkpt lat="50.47775745391699" lon="19.507083892821697">
<ele>436.31818</ele>
<time>2012-08-24T18:59:33Z</time>
</trkpt>
<trkpt lat="50.47800421714636" lon="19.506933689116863">
<ele>435.3061</ele>
<time>2012-08-24T18:59:36Z</time>
</trkpt>
<trkpt lat="50.47825098037573" lon="19.50678348541203">
<ele>433.86353</ele>
<time>2012-08-24T18:59:39Z</time>
</trkpt>
<trkpt lat="50.478487014769044" lon="19.506654739379314">
<ele>432.34866</ele>
<time>2012-08-24T18:59:42Z</time>
</trkpt>
<trkpt lat="50.478701591490236" lon="19.5065259933466">
<ele>430.74084</ele>
<time>2012-08-24T18:59:45Z</time>
</trkpt>
<trkpt lat="50.47889471053931" lon="19.506418704986004">
<ele>429.2969</ele>
<time>2012-08-24T18:59:48Z</time>
</trkpt>
<trkpt lat="50.47908782958838" lon="19.506311416625408">
<ele>427.71902</ele>
<time>2012-08-24T18:59:51Z</time>
</trkpt>
<trkpt lat="50.47928094863745" lon="19.506204128264812">
<ele>426.72522</ele>
<time>2012-08-24T18:59:54Z</time>
</trkpt>
<trkpt lat="50.479452610014405" lon="19.506096839904217">
<ele>425.86844</ele>
<time>2012-08-24T18:59:57Z</time>
</trkpt>
<trkpt lat="50.47962427139136" lon="19.50598955154362">
<ele>425.36636</ele>
<time>2012-08-24T19:00:00Z</time>
</trkpt>
<trkpt lat="50.47979593276831" lon="19.505903720855144">
<ele>424.90457</ele>
<time>2012-08-24T19:00:03Z</time>
</trkpt>
<trkpt lat="50.479967594145265" lon="19.50579643249455">
<ele>424.13162</ele>
<time>2012-08-24T19:00:06Z</time>
</trkpt>
<trkpt lat="50.48013925552222" lon="19.505689144133953">
<ele>423.4774</ele>
<time>2012-08-24T19:00:09Z</time>
</trkpt>
<trkpt lat="50.48035383224341" lon="19.505581855773357">
<ele>422.57294</ele>
<time>2012-08-24T19:00:13Z</time>
</trkpt>
<trkpt lat="50.48055768012854" lon="19.505453109740643">
<ele>422.18127</ele>
<time>2012-08-24T19:00:17Z</time>
</trkpt>
<trkpt lat="50.48075079917761" lon="19.505324363707928">
<ele>422.05734</ele>
<time>2012-08-24T19:00:21Z</time>
</trkpt>
<trkpt lat="50.480933189390626" lon="19.505217075347332">
<ele>422.01816</ele>
<time>2012-08-24T19:00:25Z</time>
</trkpt>
<trkpt lat="50.48111557960364" lon="19.505109786986736">
<ele>422.00574</ele>
<time>2012-08-24T19:00:29Z</time>
</trkpt>
<trkpt lat="50.48129796981665" lon="19.50500249862614">
<ele>422.00183</ele>
<time>2012-08-24T19:00:33Z</time>
</trkpt>
<trkpt lat="50.481480360029664" lon="19.504895210265545">
<ele>421.317</ele>
<time>2012-08-24T19:00:37Z</time>
</trkpt>
<trkpt lat="50.48166275024268" lon="19.50476646423283">
<ele>421.10028</ele>
<time>2012-08-24T19:00:41Z</time>
</trkpt>
<trkpt lat="50.48184514045569" lon="19.504637718200115">
<ele>421.03174</ele>
<time>2012-08-24T19:00:45Z</time>
</trkpt>
<trkpt lat="50.4820275306687" lon="19.50455188751164">
<ele>421.01004</ele>
<time>2012-08-24T19:00:49Z</time>
</trkpt>
<trkpt lat="50.482199192045655" lon="19.504444599151043">
<ele>421.00317</ele>
<time>2012-08-24T19:00:53Z</time>
</trkpt>
<trkpt lat="50.48240303993079" lon="19.504337310790447">
<ele>420.56326</ele>
<time>2012-08-24T19:00:58Z</time>
</trkpt>
<trkpt lat="50.48257470130774" lon="19.50423002242985">
<ele>420.17822</ele>
<time>2012-08-24T19:01:02Z</time>
</trkpt>
<trkpt lat="50.48274636268469" lon="19.504144191741375">
<ele>420.0564</ele>
<time>2012-08-24T19:01:06Z</time>
</trkpt>
<trkpt lat="50.48291802406165" lon="19.504036903380783">
<ele>420.01785</ele>
<time>2012-08-24T19:01:10Z</time>
</trkpt>
<trkpt lat="50.48310041427466" lon="19.503951072692306">
<ele>420.00565</ele>
<time>2012-08-24T19:01:14Z</time>
</trkpt>
<trkpt lat="50.48327207565161" lon="19.50384378433171">
<ele>420.4393</ele>
<time>2012-08-24T19:01:18Z</time>
</trkpt>
<trkpt lat="50.483465194700685" lon="19.503715038298996">
<ele>420.8226</ele>
<time>2012-08-24T19:01:22Z</time>
</trkpt>
<trkpt lat="50.483679771421876" lon="19.50358629226628">
<ele>421.522</ele>
<time>2012-08-24T19:01:26Z</time>
</trkpt>
<trkpt lat="50.48388361930701" lon="19.503479003905685">
<ele>421.84875</ele>
<time>2012-08-24T19:01:30Z</time>
</trkpt>
<trkpt lat="50.48407673835608" lon="19.50339317321721">
<ele>422.38965</ele>
<time>2012-08-24T19:01:34Z</time>
</trkpt>
<trkpt lat="50.48426985740515" lon="19.503264427184494">
<ele>422.8069</ele>
<time>2012-08-24T19:01:38Z</time>
</trkpt>
<trkpt lat="50.484462976454225" lon="19.503157138823898">
<ele>423.51703</ele>
<time>2012-08-24T19:01:42Z</time>
</trkpt>
<trkpt lat="50.4846560955033" lon="19.50307130813542">
<ele>423.40967</ele>
<time>2012-08-24T19:01:46Z</time>
</trkpt>
<trkpt lat="50.48483848571631" lon="19.502942562102707">
<ele>423.12964</ele>
<time>2012-08-24T19:01:50Z</time>
</trkpt>
<trkpt lat="50.48504233360144" lon="19.50283527374211">
<ele>422.4629</ele>
<time>2012-08-24T19:01:54Z</time>
</trkpt>
<trkpt lat="50.485235452650514" lon="19.502727985381515">
<ele>422.83005</ele>
<time>2012-08-24T19:01:58Z</time>
</trkpt>
<trkpt lat="50.485428571699586" lon="19.5025992393488">
<ele>422.94623</ele>
<time>2012-08-24T19:02:02Z</time>
</trkpt>
<trkpt lat="50.48562169074866" lon="19.502491950988205">
<ele>422.98297</ele>
<time>2012-08-24T19:02:06Z</time>
</trkpt>
<trkpt lat="50.48581480979773" lon="19.50236320495549">
<ele>422.99463</ele>
<time>2012-08-24T19:02:10Z</time>
</trkpt>
<trkpt lat="50.4860079288468" lon="19.502255916594894">
<ele>422.9983</ele>
<time>2012-08-24T19:02:14Z</time>
</trkpt>
<trkpt lat="50.486201047895875" lon="19.5021486282343">
<ele>422.31586</ele>
<time>2012-08-24T19:02:18Z</time>
</trkpt>
<trkpt lat="50.48638343810889" lon="19.502019882201584">
<ele>422.09995</ele>
<time>2012-08-24T19:02:22Z</time>
</trkpt>
<trkpt lat="50.48655509948584" lon="19.50189113616887">
<ele>422.03162</ele>
<time>2012-08-24T19:02:26Z</time>
</trkpt>
<trkpt lat="50.486726760862794" lon="19.501719474791916">
<ele>422.6936</ele>
<time>2012-08-24T19:02:30Z</time>
</trkpt>
<trkpt lat="50.48689842223975" lon="19.501504898070724">
<ele>422.90305</ele>
<time>2012-08-24T19:02:34Z</time>
</trkpt>
<trkpt lat="50.4870700836167" lon="19.501290321349533">
<ele>422.53183</ele>
<time>2012-08-24T19:02:38Z</time>
</trkpt>
<trkpt lat="50.48724174499365" lon="19.50107574462834">
<ele>422.16827</ele>
<time>2012-08-24T19:02:42Z</time>
</trkpt>
<trkpt lat="50.48741340637061" lon="19.50090408325139">
<ele>422.30325</ele>
<time>2012-08-24T19:02:46Z</time>
</trkpt>
<trkpt lat="50.48758506774756" lon="19.500732421874435">
<ele>423.46704</ele>
<time>2012-08-24T19:02:50Z</time>
</trkpt>
<trkpt lat="50.487735271452394" lon="19.500560760497482">
<ele>425.09308</ele>
<time>2012-08-24T19:02:54Z</time>
</trkpt>
<trkpt lat="50.48790693282935" lon="19.50036764144841">
<ele>427.1256</ele>
<time>2012-08-24T19:02:59Z</time>
</trkpt>
<trkpt lat="50.48806786537024" lon="19.500195980071457">
<ele>428.4761</ele>
<time>2012-08-24T19:03:04Z</time>
</trkpt>
<trkpt lat="50.488218069075074" lon="19.500002861022384">
<ele>428.87567</ele>
<time>2012-08-24T19:03:09Z</time>
</trkpt>
<trkpt lat="50.48837900161597" lon="19.49983119964543">
<ele>428.9705</ele>
<time>2012-08-24T19:03:14Z</time>
</trkpt>
<trkpt lat="50.4885292053208" lon="19.499659538268478">
<ele>428.993</ele>
<time>2012-08-24T19:03:19Z</time>
</trkpt>
<trkpt lat="50.488700866697755" lon="19.499466419219406">
<ele>428.99875</ele>
<time>2012-08-24T19:03:25Z</time>
</trkpt>
<trkpt lat="50.48887252807471" lon="19.499273300170334">
<ele>428.9998</ele>
<time>2012-08-24T19:03:31Z</time>
</trkpt>
<trkpt lat="50.48905491828772" lon="19.49910163879338">
<ele>428.99997</ele>
<time>2012-08-24T19:03:37Z</time>
</trkpt>
<trkpt lat="50.489226579664674" lon="19.498929977416427">
<ele>429.82813</ele>
<time>2012-08-24T19:03:42Z</time>
</trkpt>
<trkpt lat="50.489430427549806" lon="19.498801231383712">
<ele>430.7219</ele>
<time>2012-08-24T19:03:47Z</time>
</trkpt>
<trkpt lat="50.48960208892676" lon="19.498693943023117">
<ele>430.91202</ele>
<time>2012-08-24T19:03:51Z</time>
</trkpt>
<trkpt lat="50.48980593681189" lon="19.49858665466252">
<ele>430.97217</ele>
<time>2012-08-24T19:03:55Z</time>
</trkpt>
<trkpt lat="50.49000978469702" lon="19.498479366301925">
<ele>431.67477</ele>
<time>2012-08-24T19:03:59Z</time>
</trkpt>
<trkpt lat="50.490224361418214" lon="19.49835062026921">
<ele>432.5807</ele>
<time>2012-08-24T19:04:03Z</time>
</trkpt>
<trkpt lat="50.490449666975465" lon="19.498221874236496">
<ele>433.30484</ele>
<time>2012-08-24T19:04:07Z</time>
</trkpt>
<trkpt lat="50.49062132835242" lon="19.49813604354802">
<ele>434.28485</ele>
<time>2012-08-24T19:04:10Z</time>
</trkpt>
<trkpt lat="50.49079298972937" lon="19.498050212859543">
<ele>435.1358</ele>
<time>2012-08-24T19:04:13Z</time>
</trkpt>
<trkpt lat="50.49098610877844" lon="19.497964382171066">
<ele>435.6354</ele>
<time>2012-08-24T19:04:16Z</time>
</trkpt>
<trkpt lat="50.491168498991456" lon="19.49783563613835">
<ele>435.4087</ele>
<time>2012-08-24T19:04:19Z</time>
</trkpt>
<trkpt lat="50.49135088920447" lon="19.497706890105636">
<ele>434.73492</ele>
<time>2012-08-24T19:04:22Z</time>
</trkpt>
<trkpt lat="50.49154400825354" lon="19.497513771056564">
<ele>433.7319</ele>
<time>2012-08-24T19:04:25Z</time>
</trkpt>
<trkpt lat="50.49174785613867" lon="19.497277736663253">
<ele>433.30878</ele>
<time>2012-08-24T19:04:28Z</time>
</trkpt>
<trkpt lat="50.491919517515626" lon="19.496977329253586">
<ele>433.13028</ele>
<time>2012-08-24T19:04:31Z</time>
</trkpt>
<trkpt lat="50.49203753471228" lon="19.496762752532394">
<ele>433.07327</ele>
<time>2012-08-24T19:04:33Z</time>
</trkpt>
<trkpt lat="50.49214482307288" lon="19.496505260466964">
<ele>433.04123</ele>
<time>2012-08-24T19:04:35Z</time>
</trkpt>
<trkpt lat="50.49225211143347" lon="19.496269226073654">
<ele>432.7732</ele>
<time>2012-08-24T19:04:37Z</time>
</trkpt>
<trkpt lat="50.49237012863013" lon="19.496033191680343">
<ele>432.4349</ele>
<time>2012-08-24T19:04:39Z</time>
</trkpt>
<trkpt lat="50.49248814582678" lon="19.495732784270675">
<ele>432.18347</ele>
<time>2012-08-24T19:04:42Z</time>
</trkpt>
<trkpt lat="50.4926168918595" lon="19.495453834533127">
<ele>430.54633</ele>
<time>2012-08-24T19:04:46Z</time>
</trkpt>
<trkpt lat="50.492724180220094" lon="19.495196342467697">
<ele>428.24585</ele>
<time>2012-08-24T19:04:51Z</time>
</trkpt>
<trkpt lat="50.49286365508887" lon="19.494938850402267">
<ele>426.7796</ele>
<time>2012-08-24T19:05:04Z</time>
</trkpt>
<trkpt lat="50.492960214613404" lon="19.49465990066472">
<ele>425.3164</ele>
<time>2012-08-24T19:05:47Z</time>
</trkpt>
<trkpt lat="50.49302458762976" lon="19.49438095092717">
<ele>422.46732</ele>
<time>2012-08-24T19:05:51Z</time>
</trkpt>
<trkpt lat="50.49307823181006" lon="19.494059085845382">
<ele>419.51895</ele>
<time>2012-08-24T19:05:55Z</time>
</trkpt>
<trkpt lat="50.493217706678834" lon="19.49386596679631">
<ele>415.97626</ele>
<time>2012-08-24T19:13:08Z</time>
</trkpt>
<trkpt lat="50.49329280853125" lon="19.493565559386642">
<ele>416.9335</ele>
<time>2012-08-24T19:13:27Z</time>
</trkpt>
<trkpt lat="50.49338936805579" lon="19.493265151976974">
<ele>419.6307</ele>
<time>2012-08-24T19:13:32Z</time>
</trkpt>
<trkpt lat="50.493464469908204" lon="19.492986202239425">
<ele>420.56674</ele>
<time>2012-08-24T19:13:36Z</time>
</trkpt>
<trkpt lat="50.49353957176062" lon="19.492728710173996">
<ele>420.8629</ele>
<time>2012-08-24T19:13:40Z</time>
</trkpt>
<trkpt lat="50.49363613128516" lon="19.492428302764328">
<ele>421.65106</ele>
<time>2012-08-24T19:13:45Z</time>
</trkpt>
<trkpt lat="50.493721961973634" lon="19.492170810698898">
<ele>421.4797</ele>
<time>2012-08-24T19:13:50Z</time>
</trkpt>
<trkpt lat="50.49381852149817" lon="19.49189186096135">
<ele>421.11383</ele>
<time>2012-08-24T19:13:55Z</time>
</trkpt>
<trkpt lat="50.493947267530885" lon="19.49163436889592">
<ele>421.7106</ele>
<time>2012-08-24T19:14:00Z</time>
</trkpt>
<trkpt lat="50.49408674239966" lon="19.49139833450261">
<ele>421.93134</ele>
<time>2012-08-24T19:14:05Z</time>
</trkpt>
<trkpt lat="50.49424767494055" lon="19.491183757781418">
<ele>421.9837</ele>
<time>2012-08-24T19:14:10Z</time>
</trkpt>
<trkpt lat="50.494419336317506" lon="19.491076469420822">
<ele>421.99612</ele>
<time>2012-08-24T19:14:15Z</time>
</trkpt>
<trkpt lat="50.49460172653052" lon="19.491055011748703">
<ele>421.56158</ele>
<time>2012-08-24T19:14:20Z</time>
</trkpt>
<trkpt lat="50.49478411674353" lon="19.49109792709294">
<ele>420.55515</ele>
<time>2012-08-24T19:14:25Z</time>
</trkpt>
<trkpt lat="50.494966506956544" lon="19.49114084243718">
<ele>419.55362</ele>
<time>2012-08-24T19:14:30Z</time>
</trkpt>
<trkpt lat="50.495159626005616" lon="19.491205215453537">
<ele>419.13138</ele>
<time>2012-08-24T19:14:35Z</time>
</trkpt>
<trkpt lat="50.49536347389075" lon="19.491269588469894">
<ele>419.0312</ele>
<time>2012-08-24T19:14:40Z</time>
</trkpt>
<trkpt lat="50.49554586410376" lon="19.49135541915837">
<ele>418.42926</ele>
<time>2012-08-24T19:14:45Z</time>
</trkpt>
<trkpt lat="50.49573898315283" lon="19.491419792174728">
<ele>418.10187</ele>
<time>2012-08-24T19:14:50Z</time>
</trkpt>
<trkpt lat="50.495921373365846" lon="19.491484165191086">
<ele>418.02417</ele>
<time>2012-08-24T19:14:55Z</time>
</trkpt>
<trkpt lat="50.49611449241492" lon="19.491548538207443">
<ele>418.00574</ele>
<time>2012-08-24T19:15:00Z</time>
</trkpt>
<trkpt lat="50.49629688262793" lon="19.4916129112238">
<ele>418.00137</ele>
<time>2012-08-24T19:15:05Z</time>
</trkpt>
<trkpt lat="50.49651145934912" lon="19.491677284240158">
<ele>418.82846</ele>
<time>2012-08-24T19:15:10Z</time>
</trkpt>
<trkpt lat="50.496693849562135" lon="19.491741657256515">
<ele>419.50574</ele>
<time>2012-08-24T19:15:15Z</time>
</trkpt>
<trkpt lat="50.49688696861121" lon="19.491806030272873">
<ele>420.5744</ele>
<time>2012-08-24T19:15:32Z</time>
</trkpt>
<trkpt lat="50.49708008766028" lon="19.49189186096135">
<ele>421.6617</ele>
<time>2012-08-24T19:15:37Z</time>
</trkpt>
<trkpt lat="50.49727320670935" lon="19.49189186096135">
<ele>423.43143</ele>
<time>2012-08-24T19:15:42Z</time>
</trkpt>
<trkpt lat="50.49748778343054" lon="19.49184894561711">
<ele>425.31137</ele>
<time>2012-08-24T19:15:47Z</time>
</trkpt>
<trkpt lat="50.497670173643556" lon="19.491806030272873">
<ele>426.4657</ele>
<time>2012-08-24T19:15:51Z</time>
</trkpt>
<trkpt lat="50.49788475036475" lon="19.491720199584396">
<ele>427.51453</ele>
<time>2012-08-24T19:15:55Z</time>
</trkpt>
<trkpt lat="50.49809932708594" lon="19.49159145355168">
<ele>428.0964</ele>
<time>2012-08-24T19:15:59Z</time>
</trkpt>
<trkpt lat="50.49830317497107" lon="19.491441249846847">
<ele>428.71408</ele>
<time>2012-08-24T19:16:03Z</time>
</trkpt>
<trkpt lat="50.49849629402014" lon="19.491226673125656">
<ele>429.59314</ele>
<time>2012-08-24T19:16:07Z</time>
</trkpt>
<trkpt lat="50.498678684233155" lon="19.490990638732345">
<ele>430.55487</ele>
<time>2012-08-24T19:16:11Z</time>
</trkpt>
<trkpt lat="50.49886107444617" lon="19.490776062011154">
<ele>431.98026</ele>
<time>2012-08-24T19:16:15Z</time>
</trkpt>
<trkpt lat="50.49904346465918" lon="19.490561485289962">
<ele>433.61093</ele>
<time>2012-08-24T19:16:19Z</time>
</trkpt>
<trkpt lat="50.49923658370825" lon="19.490325450896652">
<ele>434.5605</ele>
<time>2012-08-24T19:16:23Z</time>
</trkpt>
<trkpt lat="50.499429702757325" lon="19.49008941650334">
<ele>434.86093</ele>
<time>2012-08-24T19:16:27Z</time>
</trkpt>
<trkpt lat="50.4996228218064" lon="19.48985338211003">
<ele>434.37787</ele>
<time>2012-08-24T19:16:31Z</time>
</trkpt>
<trkpt lat="50.49977302551123" lon="19.489681720733078">
<ele>434.15942</ele>
<time>2012-08-24T19:16:34Z</time>
</trkpt>
<trkpt lat="50.499923229216066" lon="19.489510059356125">
<ele>434.06726</ele>
<time>2012-08-24T19:16:37Z</time>
</trkpt>
<trkpt lat="50.50010561942908" lon="19.489274024962814">
<ele>434.02127</ele>
<time>2012-08-24T19:16:41Z</time>
</trkpt>
<trkpt lat="50.50028800964209" lon="19.489059448241623">
<ele>434.69034</ele>
<time>2012-08-24T19:16:45Z</time>
</trkpt>
<trkpt lat="50.50049185752722" lon="19.488801956176193">
<ele>434.902</ele>
<time>2012-08-24T19:16:50Z</time>
</trkpt>
<trkpt lat="50.50064206123206" lon="19.48860883712712">
<ele>434.969</ele>
<time>2012-08-24T19:16:54Z</time>
</trkpt>
<trkpt lat="50.50079226493689" lon="19.488437175750168">
<ele>434.9902</ele>
<time>2012-08-24T19:16:58Z</time>
</trkpt>
<trkpt lat="50.500953197477784" lon="19.488244056701095">
<ele>434.9969</ele>
<time>2012-08-24T19:17:02Z</time>
</trkpt>
<trkpt lat="50.50112485885474" lon="19.488029479979904">
<ele>434.99902</ele>
<time>2012-08-24T19:17:06Z</time>
</trkpt>
<trkpt lat="50.50128579139563" lon="19.487814903258712">
<ele>434.9997</ele>
<time>2012-08-24T19:17:10Z</time>
</trkpt>
<trkpt lat="50.501446723936525" lon="19.48762178420964">
<ele>434.9999</ele>
<time>2012-08-24T19:17:14Z</time>
</trkpt>
<trkpt lat="50.50160765647742" lon="19.487450122832687">
<ele>435.5781</ele>
<time>2012-08-24T19:17:18Z</time>
</trkpt>
<trkpt lat="50.50177931785437" lon="19.487278461455734">
<ele>435.2884</ele>
<time>2012-08-24T19:17:22Z</time>
</trkpt>
<trkpt lat="50.501940250395265" lon="19.48708534240666">
<ele>435.09125</ele>
<time>2012-08-24T19:17:26Z</time>
</trkpt>
<trkpt lat="50.50211191177222" lon="19.48687076568547">
<ele>435.02887</ele>
<time>2012-08-24T19:17:30Z</time>
</trkpt>
<trkpt lat="50.50226211547705" lon="19.486677646636398">
<ele>435.00912</ele>
<time>2012-08-24T19:17:34Z</time>
</trkpt>
<trkpt lat="50.502423048017945" lon="19.486484527587326">
<ele>435.0029</ele>
<time>2012-08-24T19:17:38Z</time>
</trkpt>
<trkpt lat="50.50257325172278" lon="19.486291408538253">
<ele>435.6845</ele>
<time>2012-08-24T19:17:42Z</time>
</trkpt>
<trkpt lat="50.502734184263666" lon="19.48609828948918">
<ele>435.90018</ele>
<time>2012-08-24T19:17:46Z</time>
</trkpt>
<trkpt lat="50.5028843879685" lon="19.48590517044011">
<ele>435.9684</ele>
<time>2012-08-24T19:17:50Z</time>
</trkpt>
<trkpt lat="50.503034591673334" lon="19.485712051391037">
<ele>436.42752</ele>
<time>2012-08-24T19:17:54Z</time>
</trkpt>
<trkpt lat="50.50318479537817" lon="19.485518932341964">
<ele>437.25635</ele>
<time>2012-08-24T19:17:58Z</time>
</trkpt>
<trkpt lat="50.503334999083" lon="19.48534727096501">
<ele>438.0147</ele>
<time>2012-08-24T19:18:02Z</time>
</trkpt>
<trkpt lat="50.503506660459955" lon="19.485175609588058">
<ele>438.76617</ele>
<time>2012-08-24T19:18:07Z</time>
</trkpt>
<trkpt lat="50.50365686416479" lon="19.484982490538986">
<ele>439.27264</ele>
<time>2012-08-24T19:18:12Z</time>
</trkpt>
<trkpt lat="50.50380706786962" lon="19.484810829162033">
<ele>439.0647</ele>
<time>2012-08-24T19:18:17Z</time>
</trkpt>
<trkpt lat="50.50395727157446" lon="19.48461771011296">
<ele>439.01535</ele>
<time>2012-08-24T19:18:22Z</time>
</trkpt>
<trkpt lat="50.50411820411535" lon="19.48442459106389">
<ele>439.69113</ele>
<time>2012-08-24T19:18:27Z</time>
</trkpt>
<trkpt lat="50.504279136656244" lon="19.484231472014816">
<ele>441.1269</ele>
<time>2012-08-24T19:18:32Z</time>
</trkpt>
<trkpt lat="50.5044507980332" lon="19.484059810637863">
<ele>442.37094</ele>
<time>2012-08-24T19:18:37Z</time>
</trkpt>
<trkpt lat="50.50461173057409" lon="19.48384523391667">
<ele>444.0509</ele>
<time>2012-08-24T19:18:42Z</time>
</trkpt>
<trkpt lat="50.504772663114984" lon="19.48367357253972">
<ele>445.70837</ele>
<time>2012-08-24T19:18:47Z</time>
</trkpt>
<trkpt lat="50.50492286681982" lon="19.483480453490646">
<ele>446.69348</ele>
<time>2012-08-24T19:18:52Z</time>
</trkpt>
<trkpt lat="50.50508379936071" lon="19.483287334441574">
<ele>446.94543</ele>
<time>2012-08-24T19:18:58Z</time>
</trkpt>
<trkpt lat="50.505244731901605" lon="19.4830942153925">
<ele>446.9903</ele>
<time>2012-08-24T19:19:04Z</time>
</trkpt>
<trkpt lat="50.50541639327856" lon="19.48290109634343">
<ele>447.82028</ele>
<time>2012-08-24T19:19:10Z</time>
</trkpt>
<trkpt lat="50.50555586814733" lon="19.482707977294357">
<ele>447.95737</ele>
<time>2012-08-24T19:19:15Z</time>
</trkpt>
<trkpt lat="50.50570607185217" lon="19.482536315917404">
<ele>448.42737</ele>
<time>2012-08-24T19:19:20Z</time>
</trkpt>
<trkpt lat="50.50586700439306" lon="19.48234319686833">
<ele>448.89807</ele>
<time>2012-08-24T19:19:26Z</time>
</trkpt>
<trkpt lat="50.506027936933954" lon="19.48217153549138">
<ele>449.41937</ele>
<time>2012-08-24T19:19:32Z</time>
</trkpt>
<trkpt lat="50.50619959831091" lon="19.481956958770187">
<ele>449.9225</ele>
<time>2012-08-24T19:19:39Z</time>
</trkpt>
<trkpt lat="50.5063605308518" lon="19.481742382048996">
<ele>451.49332</ele>
<time>2012-08-24T19:19:44Z</time>
</trkpt>
<trkpt lat="50.50654292106481" lon="19.481549262999923">
<ele>452.9608</ele>
<time>2012-08-24T19:19:48Z</time>
</trkpt>
<trkpt lat="50.50671458244177" lon="19.48137760162297">
<ele>453.56158</ele>
<time>2012-08-24T19:19:51Z</time>
</trkpt>
<trkpt lat="50.50688624381872" lon="19.48116302490178">
<ele>453.81503</ele>
<time>2012-08-24T19:19:54Z</time>
</trkpt>
<trkpt lat="50.50707936286779" lon="19.480948448180587">
<ele>453.92197</ele>
<time>2012-08-24T19:19:57Z</time>
</trkpt>
<trkpt lat="50.507283210752924" lon="19.480712413787277">
<ele>453.71707</ele>
<time>2012-08-24T19:20:00Z</time>
</trkpt>
<trkpt lat="50.507497787474115" lon="19.480476379393966">
<ele>453.05252</ele>
<time>2012-08-24T19:20:03Z</time>
</trkpt>
<trkpt lat="50.50764799117895" lon="19.480304718017013">
<ele>452.59204</ele>
<time>2012-08-24T19:20:05Z</time>
</trkpt>
<trkpt lat="50.50780892371984" lon="19.48015451431218">
<ele>452.33304</ele>
<time>2012-08-24T19:20:07Z</time>
</trkpt>
<trkpt lat="50.507969856260736" lon="19.479982852935226">
<ele>451.93732</ele>
<time>2012-08-24T19:20:09Z</time>
</trkpt>
<trkpt lat="50.50814151763769" lon="19.47985410690251">
<ele>451.52725</ele>
<time>2012-08-24T19:20:11Z</time>
</trkpt>
<trkpt lat="50.50831317901464" lon="19.479703903197677">
<ele>451.29657</ele>
<time>2012-08-24T19:20:13Z</time>
</trkpt>
<trkpt lat="50.508495569227655" lon="19.479575157164962">
<ele>451.1668</ele>
<time>2012-08-24T19:20:15Z</time>
</trkpt>
<trkpt lat="50.50866723060461" lon="19.479446411132248">
<ele>451.09384</ele>
<time>2012-08-24T19:20:17Z</time>
</trkpt>
<trkpt lat="50.5088281631455" lon="19.479317665099533">
<ele>451.0528</ele>
<time>2012-08-24T19:20:19Z</time>
</trkpt>
<trkpt lat="50.508989095686395" lon="19.4791674613947">
<ele>450.5922</ele>
<time>2012-08-24T19:20:21Z</time>
</trkpt>
<trkpt lat="50.50915002822729" lon="19.479038715361984">
<ele>450.3331</ele>
<time>2012-08-24T19:20:23Z</time>
</trkpt>
<trkpt lat="50.50936460494848" lon="19.47886705398503">
<ele>449.5624</ele>
<time>2012-08-24T19:20:26Z</time>
</trkpt>
<trkpt lat="50.50957918166967" lon="19.478695392608078">
<ele>448.40915</ele>
<time>2012-08-24T19:20:29Z</time>
</trkpt>
<trkpt lat="50.509783029554804" lon="19.478545188903244">
<ele>447.34448</ele>
<time>2012-08-24T19:20:32Z</time>
</trkpt>
<trkpt lat="50.509965419767816" lon="19.47839498519841">
<ele>446.1297</ele>
<time>2012-08-24T19:20:35Z</time>
</trkpt>
<trkpt lat="50.51014780998083" lon="19.478244781493576">
<ele>445.0391</ele>
<time>2012-08-24T19:20:38Z</time>
</trkpt>
<trkpt lat="50.51030874252172" lon="19.47811603546086">
<ele>444.43835</ele>
<time>2012-08-24T19:20:41Z</time>
</trkpt>
<trkpt lat="50.510512590406854" lon="19.477944374083908">
<ele>443.8887</ele>
<time>2012-08-24T19:20:45Z</time>
</trkpt>
<trkpt lat="50.51070570945593" lon="19.477772712706955">
<ele>443.2812</ele>
<time>2012-08-24T19:20:49Z</time>
</trkpt>
<trkpt lat="50.51087737083288" lon="19.47762250900212">
<ele>442.65146</ele>
<time>2012-08-24T19:20:53Z</time>
</trkpt>
<trkpt lat="50.51105976104589" lon="19.477450847625168">
<ele>442.1546</ele>
<time>2012-08-24T19:20:58Z</time>
</trkpt>
<trkpt lat="50.511252880094965" lon="19.477300643920334">
<ele>442.03668</ele>
<time>2012-08-24T19:21:03Z</time>
</trkpt>
<trkpt lat="50.51144599914404" lon="19.47710752487126">
<ele>442.58682</ele>
<time>2012-08-24T19:21:08Z</time>
</trkpt>
<trkpt lat="50.51160693168493" lon="19.476957321166427">
<ele>443.30676</ele>
<time>2012-08-24T19:21:12Z</time>
</trkpt>
<trkpt lat="50.511767864225824" lon="19.476807117461593">
<ele>443.78067</ele>
<time>2012-08-24T19:21:16Z</time>
</trkpt>
<trkpt lat="50.51192879676672" lon="19.47665691375676">
<ele>443.9306</ele>
<time>2012-08-24T19:21:20Z</time>
</trkpt>
<trkpt lat="50.51211118697973" lon="19.476506710051925">
<ele>443.98352</ele>
<time>2012-08-24T19:21:25Z</time>
</trkpt>
<trkpt lat="50.51229357719274" lon="19.47635650634709">
<ele>444.2461</ele>
<time>2012-08-24T19:21:30Z</time>
</trkpt>
<trkpt lat="50.512486696241815" lon="19.476227760314377">
<ele>446.84552</ele>
<time>2012-08-24T19:21:35Z</time>
</trkpt>
<trkpt lat="50.51264762878271" lon="19.47609901428166">
<ele>447.72604</ele>
<time>2012-08-24T19:21:40Z</time>
</trkpt>
<trkpt lat="50.51283001899572" lon="19.475970268248947">
<ele>448.76312</ele>
<time>2012-08-24T19:21:45Z</time>
</trkpt>
<trkpt lat="50.513023138044794" lon="19.475820064544113">
<ele>449.70648</ele>
<time>2012-08-24T19:21:50Z</time>
</trkpt>
<trkpt lat="50.51319479942175" lon="19.475691318511398">
<ele>450.48526</ele>
<time>2012-08-24T19:21:54Z</time>
</trkpt>
<trkpt lat="50.51337718963476" lon="19.475541114806564">
<ele>450.58713</ele>
<time>2012-08-24T19:21:58Z</time>
</trkpt>
<trkpt lat="50.51358103751989" lon="19.47536945342961">
<ele>450.18576</ele>
<time>2012-08-24T19:22:02Z</time>
</trkpt>
<trkpt lat="50.513752698896845" lon="19.475219249724777">
<ele>450.07837</ele>
<time>2012-08-24T19:22:05Z</time>
</trkpt>
<trkpt lat="50.51393508910986" lon="19.475090503692062">
<ele>450.03305</ele>
<time>2012-08-24T19:22:08Z</time>
</trkpt>
<trkpt lat="50.51413893699499" lon="19.47491884231511">
<ele>450.01395</ele>
<time>2012-08-24T19:22:11Z</time>
</trkpt>
<trkpt lat="50.51434278488012" lon="19.474747180938156">
<ele>449.7559</ele>
<time>2012-08-24T19:22:14Z</time>
</trkpt>
<trkpt lat="50.51455736160131" lon="19.474532604216964">
<ele>449.31888</ele>
<time>2012-08-24T19:22:17Z</time>
</trkpt>
<trkpt lat="50.51478266715856" lon="19.474296569823654">
<ele>448.88452</ele>
<time>2012-08-24T19:22:20Z</time>
</trkpt>
<trkpt lat="50.515007972715814" lon="19.474060535430343">
<ele>448.37317</ele>
<time>2012-08-24T19:22:23Z</time>
</trkpt>
<trkpt lat="50.51516890525671" lon="19.47388887405339">
<ele>448.2099</ele>
<time>2012-08-24T19:22:25Z</time>
</trkpt>
<trkpt lat="50.51531910896154" lon="19.473717212676437">
<ele>448.11807</ele>
<time>2012-08-24T19:22:27Z</time>
</trkpt>
<trkpt lat="50.515490770338495" lon="19.473524093627365">
<ele>448.0664</ele>
<time>2012-08-24T19:22:29Z</time>
</trkpt>
<trkpt lat="50.51566243171545" lon="19.47335243225041">
<ele>448.03735</ele>
<time>2012-08-24T19:22:31Z</time>
</trkpt>
<trkpt lat="50.51582336425634" lon="19.47315931320134">
<ele>448.02103</ele>
<time>2012-08-24T19:22:33Z</time>
</trkpt>
<trkpt lat="50.516005754469354" lon="19.472966194152267">
<ele>448.0118</ele>
<time>2012-08-24T19:22:35Z</time>
</trkpt>
<trkpt lat="50.51618814468237" lon="19.472773075103195">
<ele>447.56915</ele>
<time>2012-08-24T19:22:37Z</time>
</trkpt>
<trkpt lat="50.51637053489538" lon="19.47262287139836">
<ele>446.88266</ele>
<time>2012-08-24T19:22:39Z</time>
</trkpt>
<trkpt lat="50.51655292510839" lon="19.472472667693527">
<ele>446.4965</ele>
<time>2012-08-24T19:22:41Z</time>
</trkpt>
<trkpt lat="50.516735315321405" lon="19.472322463988693">
<ele>445.84177</ele>
<time>2012-08-24T19:22:43Z</time>
</trkpt>
<trkpt lat="50.5168962478623" lon="19.472193717955978">
<ele>445.4735</ele>
<time>2012-08-24T19:22:45Z</time>
</trkpt>
<trkpt lat="50.51706790923925" lon="19.472086429595382">
<ele>445.01636</ele>
<time>2012-08-24T19:22:47Z</time>
</trkpt>
<trkpt lat="50.517228841780145" lon="19.471957683562668">
<ele>444.1342</ele>
<time>2012-08-24T19:22:49Z</time>
</trkpt>
<trkpt lat="50.517454147337396" lon="19.471786022185714">
<ele>442.65036</ele>
<time>2012-08-24T19:22:52Z</time>
</trkpt>
<trkpt lat="50.51765799522253" lon="19.471592903136642">
<ele>441.44626</ele>
<time>2012-08-24T19:22:55Z</time>
</trkpt>
<trkpt lat="50.5178511142716" lon="19.471442699431808">
<ele>440.36014</ele>
<time>2012-08-24T19:22:58Z</time>
</trkpt>
<trkpt lat="50.51803350448461" lon="19.471313953399093">
<ele>439.13632</ele>
<time>2012-08-24T19:23:01Z</time>
</trkpt>
<trkpt lat="50.518248081205805" lon="19.47118520736638">
<ele>437.42593</ele>
<time>2012-08-24T19:23:05Z</time>
</trkpt>
<trkpt lat="50.51843047141882" lon="19.471077919005783">
<ele>436.45117</ele>
<time>2012-08-24T19:23:09Z</time>
</trkpt>
<trkpt lat="50.51864504814001" lon="19.470992088317306">
<ele>435.85706</ele>
<time>2012-08-24T19:23:14Z</time>
</trkpt>
<trkpt lat="50.5188596248612" lon="19.47090625762883">
<ele>435.27118</ele>
<time>2012-08-24T19:23:18Z</time>
</trkpt>
<trkpt lat="50.51905274391027" lon="19.470798969268234">
<ele>435.1144</ele>
<time>2012-08-24T19:23:21Z</time>
</trkpt>
<trkpt lat="50.519256591795404" lon="19.4706487655634">
<ele>435.04828</ele>
<time>2012-08-24T19:23:24Z</time>
</trkpt>
<trkpt lat="50.519471168516596" lon="19.470477104186447">
<ele>435.02036</ele>
<time>2012-08-24T19:23:27Z</time>
</trkpt>
<trkpt lat="50.519707202909906" lon="19.470283985137375">
<ele>435.00858</ele>
<time>2012-08-24T19:23:30Z</time>
</trkpt>
<trkpt lat="50.51994323730322" lon="19.470090866088302">
<ele>434.56613</ele>
<time>2012-08-24T19:23:33Z</time>
</trkpt>
<trkpt lat="50.52010416984411" lon="19.469962120055587">
<ele>434.31845</ele>
<time>2012-08-24T19:23:35Z</time>
</trkpt>
<trkpt lat="50.52027583122106" lon="19.469833374022873">
<ele>434.17914</ele>
<time>2012-08-24T19:23:37Z</time>
</trkpt>
<trkpt lat="50.520458221434076" lon="19.469704627990158">
<ele>433.85077</ele>
<time>2012-08-24T19:23:39Z</time>
</trkpt>
<trkpt lat="50.52062988281103" lon="19.469575881957443">
<ele>433.47855</ele>
<time>2012-08-24T19:23:41Z</time>
</trkpt>
<trkpt lat="50.52080154418798" lon="19.46942567825261">
<ele>433.2692</ele>
<time>2012-08-24T19:23:43Z</time>
</trkpt>
<trkpt lat="50.520973205564935" lon="19.469296932219894">
<ele>432.90143</ele>
<time>2012-08-24T19:23:45Z</time>
</trkpt>
<trkpt lat="50.52114486694189" lon="19.46914672851506">
<ele>432.50705</ele>
<time>2012-08-24T19:23:47Z</time>
</trkpt>
<trkpt lat="50.52130579948278" lon="19.469017982482345">
<ele>431.84772</ele>
<time>2012-08-24T19:23:49Z</time>
</trkpt>
<trkpt lat="50.521466732023676" lon="19.46888923644963">
<ele>431.03934</ele>
<time>2012-08-24T19:23:51Z</time>
</trkpt>
<trkpt lat="50.52162766456457" lon="19.468760490416916">
<ele>430.33463</ele>
<time>2012-08-24T19:23:53Z</time>
</trkpt>
<trkpt lat="50.52187442779394" lon="19.468588829039962">
<ele>429.31305</ele>
<time>2012-08-24T19:23:56Z</time>
</trkpt>
<trkpt lat="50.52209973335119" lon="19.46839570999089">
<ele>427.28833</ele>
<time>2012-08-24T19:23:59Z</time>
</trkpt>
<trkpt lat="50.52231431007238" lon="19.468224048613937">
<ele>425.13727</ele>
<time>2012-08-24T19:24:02Z</time>
</trkpt>
<trkpt lat="50.52252888679357" lon="19.468052387236984">
<ele>423.46414</ele>
<time>2012-08-24T19:24:05Z</time>
</trkpt>
<trkpt lat="50.522732734678705" lon="19.46790218353215">
<ele>422.18018</ele>
<time>2012-08-24T19:24:08Z</time>
</trkpt>
<trkpt lat="50.52292585372778" lon="19.467730522155197">
<ele>420.8104</ele>
<time>2012-08-24T19:24:11Z</time>
</trkpt>
<trkpt lat="50.52309751510473" lon="19.467601776122482">
<ele>419.51376</ele>
<time>2012-08-24T19:24:14Z</time>
</trkpt>
<trkpt lat="50.523258447645624" lon="19.467473030089767">
<ele>418.6386</ele>
<time>2012-08-24T19:24:17Z</time>
</trkpt>
<trkpt lat="50.523462295530756" lon="19.467322826384933">
<ele>418.20206</ele>
<time>2012-08-24T19:24:21Z</time>
</trkpt>
<trkpt lat="50.52364468574377" lon="19.46719408035222">
<ele>418.74753</ele>
<time>2012-08-24T19:24:25Z</time>
</trkpt>
<trkpt lat="50.52382707595678" lon="19.467043876647384">
<ele>418.9201</ele>
<time>2012-08-24T19:24:29Z</time>
</trkpt>
<trkpt lat="50.52402019500585" lon="19.46687221527043">
<ele>419.55286</ele>
<time>2012-08-24T19:24:33Z</time>
</trkpt>
<trkpt lat="50.524224042890985" lon="19.466722011565597">
<ele>420.29602</ele>
<time>2012-08-24T19:24:37Z</time>
</trkpt>
<trkpt lat="50.52441716194006" lon="19.466571807860763">
<ele>420.77725</ele>
<time>2012-08-24T19:24:41Z</time>
</trkpt>
<trkpt lat="50.52463173866125" lon="19.46640014648381">
<ele>420.92953</ele>
<time>2012-08-24T19:24:45Z</time>
</trkpt>
<trkpt lat="50.52481412887426" lon="19.466271400451095">
<ele>420.72028</ele>
<time>2012-08-24T19:24:48Z</time>
</trkpt>
<trkpt lat="50.52501797675939" lon="19.46612119674626">
<ele>420.74136</ele>
<time>2012-08-24T19:24:51Z</time>
</trkpt>
<trkpt lat="50.525232553480585" lon="19.465949535369308">
<ele>420.8909</ele>
<time>2012-08-24T19:24:54Z</time>
</trkpt>
<trkpt lat="50.525457859037836" lon="19.465777873992355">
<ele>421.5321</ele>
<time>2012-08-24T19:24:57Z</time>
</trkpt>
<trkpt lat="50.52568316459509" lon="19.46562767028752">
<ele>422.38074</ele>
<time>2012-08-24T19:25:00Z</time>
</trkpt>
<trkpt lat="50.52584409713598" lon="19.465498924254806">
<ele>422.65167</ele>
<time>2012-08-24T19:25:02Z</time>
</trkpt>
<trkpt lat="50.52608013152929" lon="19.465348720549972">
<ele>422.85306</ele>
<time>2012-08-24T19:25:05Z</time>
</trkpt>
<trkpt lat="50.5263161659226" lon="19.4651556015009">
<ele>422.688</ele>
<time>2012-08-24T19:25:08Z</time>
</trkpt>
<trkpt lat="50.52655220031591" lon="19.464962482451828">
<ele>422.04025</ele>
<time>2012-08-24T19:25:11Z</time>
</trkpt>
<trkpt lat="50.526702404020746" lon="19.464790821074875">
<ele>421.58514</ele>
<time>2012-08-24T19:25:13Z</time>
</trkpt>
<trkpt lat="50.52686333656164" lon="19.464597702025802">
<ele>420.89163</ele>
<time>2012-08-24T19:25:15Z</time>
</trkpt>
<trkpt lat="50.527002811430414" lon="19.464340209960373">
<ele>420.25156</ele>
<time>2012-08-24T19:25:17Z</time>
</trkpt>
<trkpt lat="50.52713155746313" lon="19.464061260222824">
<ele>419.704</ele>
<time>2012-08-24T19:25:19Z</time>
</trkpt>
</trkseg>
</trk>
</gpx>
